<?xml version="1.0" encoding="UTF-8" standalone="no" ?>
<gpx xmlns="http://www.topografix.com/GPX/1/1" xmlns:xsi="http://www.w3.org/2001/XMLSchema-instance" xsi:schemaLocation="http://www.topografix.com/GPX/1/1 http://www.topografix.com/GPX/1/1/gpx.xsd" version="1.1" creator="VisuGPX - https://www.visugpx.com">
  <metadata>
    <name>TOUR DE LA SAINE</name>
    <desc><![CDATA[Tour de la Saine depuis Foncine le Bas, en passant par \"chez Valentin, le sommet des téléskis de Foncine le Haut, les Brégines, le tremplin de la Côte feuillée, Mouthe, Le Crouzet, Chalet Gillard, Le pré Audin, la Madone, Entre Côtes, Le Paradis, Les Planches en Montagne et la voie du tram.
Belle succession de chemins blancs, single track, petites routes, chemins forestiers.
Réservé à des Vttistes entrainés.]]></desc>
  </metadata>
  <trk>
    <name><![CDATA[Tracé actuel: 01 JUIN 2012 09:48]]></name>
    <trkseg>
      <trkpt lat="46.63681" lon="6.02846">
        <ele>747.56</ele>
        <time>2012-06-01T07:48:25Z</time>
      </trkpt>
      <trkpt lat="46.63687" lon="6.02858">
        <ele>751.89</ele>
        <time>2012-06-01T07:48:57Z</time>
      </trkpt>
      <trkpt lat="46.63689" lon="6.02858">
        <ele>756.21</ele>
        <time>2012-06-01T07:48:59Z</time>
      </trkpt>
      <trkpt lat="46.63691" lon="6.02859">
        <ele>759.58</ele>
        <time>2012-06-01T07:49:01Z</time>
      </trkpt>
      <trkpt lat="46.63691" lon="6.02859">
        <ele>763.9</ele>
        <time>2012-06-01T07:49:04Z</time>
      </trkpt>
      <trkpt lat="46.63691" lon="6.0286">
        <ele>767.75</ele>
        <time>2012-06-01T07:49:06Z</time>
      </trkpt>
      <trkpt lat="46.63692" lon="6.0286">
        <ele>771.11</ele>
        <time>2012-06-01T07:49:09Z</time>
      </trkpt>
      <trkpt lat="46.63692" lon="6.0286">
        <ele>774</ele>
        <time>2012-06-01T07:49:12Z</time>
      </trkpt>
      <trkpt lat="46.63691" lon="6.02859">
        <ele>775.92</ele>
        <time>2012-06-01T07:49:14Z</time>
      </trkpt>
      <trkpt lat="46.63691" lon="6.02858">
        <ele>778.81</ele>
        <time>2012-06-01T07:49:17Z</time>
      </trkpt>
      <trkpt lat="46.63691" lon="6.02858">
        <ele>780.25</ele>
        <time>2012-06-01T07:49:19Z</time>
      </trkpt>
      <trkpt lat="46.63691" lon="6.02858">
        <ele>782.65</ele>
        <time>2012-06-01T07:49:22Z</time>
      </trkpt>
      <trkpt lat="46.63691" lon="6.02857">
        <ele>784.57</ele>
        <time>2012-06-01T07:49:25Z</time>
      </trkpt>
      <trkpt lat="46.6369" lon="6.02856">
        <ele>787.46</ele>
        <time>2012-06-01T07:49:29Z</time>
      </trkpt>
      <trkpt lat="46.6369" lon="6.02856">
        <ele>791.3</ele>
        <time>2012-06-01T07:49:37Z</time>
      </trkpt>
      <trkpt lat="46.63689" lon="6.02857">
        <ele>794.67</ele>
        <time>2012-06-01T07:49:46Z</time>
      </trkpt>
      <trkpt lat="46.63689" lon="6.02858">
        <ele>797.55</ele>
        <time>2012-06-01T07:49:52Z</time>
      </trkpt>
      <trkpt lat="46.6369" lon="6.02858">
        <ele>798.51</ele>
        <time>2012-06-01T07:49:59Z</time>
      </trkpt>
      <trkpt lat="46.6369" lon="6.02858">
        <ele>802.36</ele>
        <time>2012-06-01T07:50:15Z</time>
      </trkpt>
      <trkpt lat="46.6369" lon="6.02858">
        <ele>805.24</ele>
        <time>2012-06-01T07:50:52Z</time>
      </trkpt>
      <trkpt lat="46.6369" lon="6.02858">
        <ele>805.24</ele>
        <time>2012-06-01T07:51:24Z</time>
      </trkpt>
      <trkpt lat="46.6369" lon="6.02859">
        <ele>806.2</ele>
        <time>2012-06-01T07:52:26Z</time>
      </trkpt>
      <trkpt lat="46.6369" lon="6.02859">
        <ele>803.8</ele>
        <time>2012-06-01T07:54:05Z</time>
      </trkpt>
      <trkpt lat="46.6369" lon="6.02859">
        <ele>804.28</ele>
        <time>2012-06-01T07:54:15Z</time>
      </trkpt>
      <trkpt lat="46.6369" lon="6.02859">
        <ele>804.28</ele>
        <time>2012-06-01T07:54:47Z</time>
      </trkpt>
      <trkpt lat="46.63691" lon="6.02859">
        <ele>805.72</ele>
        <time>2012-06-01T07:55:37Z</time>
      </trkpt>
      <trkpt lat="46.63691" lon="6.02859">
        <ele>805.24</ele>
        <time>2012-06-01T07:55:39Z</time>
      </trkpt>
      <trkpt lat="46.63691" lon="6.02859">
        <ele>798.99</ele>
        <time>2012-06-01T07:56:30Z</time>
      </trkpt>
      <trkpt lat="46.63691" lon="6.02859">
        <ele>804.76</ele>
        <time>2012-06-01T07:56:31Z</time>
      </trkpt>
      <trkpt lat="46.63691" lon="6.02859">
        <ele>807.64</ele>
        <time>2012-06-01T07:56:39Z</time>
      </trkpt>
      <trkpt lat="46.63691" lon="6.02859">
        <ele>804.28</ele>
        <time>2012-06-01T07:56:41Z</time>
      </trkpt>
      <trkpt lat="46.63691" lon="6.02859">
        <ele>805.72</ele>
        <time>2012-06-01T07:57:20Z</time>
      </trkpt>
      <trkpt lat="46.63691" lon="6.02859">
        <ele>803.32</ele>
        <time>2012-06-01T07:57:23Z</time>
      </trkpt>
      <trkpt lat="46.63691" lon="6.02859">
        <ele>806.2</ele>
        <time>2012-06-01T07:57:29Z</time>
      </trkpt>
      <trkpt lat="46.63691" lon="6.02859">
        <ele>805.72</ele>
        <time>2012-06-01T07:58:07Z</time>
      </trkpt>
      <trkpt lat="46.63691" lon="6.02859">
        <ele>801.88</ele>
        <time>2012-06-01T07:58:08Z</time>
      </trkpt>
      <trkpt lat="46.63691" lon="6.02859">
        <ele>804.76</ele>
        <time>2012-06-01T07:58:09Z</time>
      </trkpt>
      <trkpt lat="46.63691" lon="6.02859">
        <ele>806.68</ele>
        <time>2012-06-01T07:58:12Z</time>
      </trkpt>
      <trkpt lat="46.63691" lon="6.02859">
        <ele>804.28</ele>
        <time>2012-06-01T07:58:14Z</time>
      </trkpt>
      <trkpt lat="46.63691" lon="6.02859">
        <ele>805.24</ele>
        <time>2012-06-01T07:58:43Z</time>
      </trkpt>
      <trkpt lat="46.6369" lon="6.02859">
        <ele>804.28</ele>
        <time>2012-06-01T07:58:44Z</time>
      </trkpt>
      <trkpt lat="46.63689" lon="6.02859">
        <ele>805.24</ele>
        <time>2012-06-01T07:58:46Z</time>
      </trkpt>
      <trkpt lat="46.63679" lon="6.02868">
        <ele>803.8</ele>
        <time>2012-06-01T07:58:51Z</time>
      </trkpt>
      <trkpt lat="46.63675" lon="6.02871">
        <ele>802.36</ele>
        <time>2012-06-01T07:58:52Z</time>
      </trkpt>
      <trkpt lat="46.63672" lon="6.02874">
        <ele>803.32</ele>
        <time>2012-06-01T07:58:53Z</time>
      </trkpt>
      <trkpt lat="46.63669" lon="6.02877">
        <ele>803.8</ele>
        <time>2012-06-01T07:58:54Z</time>
      </trkpt>
      <trkpt lat="46.63667" lon="6.02881">
        <ele>802.36</ele>
        <time>2012-06-01T07:58:55Z</time>
      </trkpt>
      <trkpt lat="46.63666" lon="6.02885">
        <ele>803.32</ele>
        <time>2012-06-01T07:58:56Z</time>
      </trkpt>
      <trkpt lat="46.63666" lon="6.02889">
        <ele>802.84</ele>
        <time>2012-06-01T07:58:57Z</time>
      </trkpt>
      <trkpt lat="46.63666" lon="6.02893">
        <ele>802.84</ele>
        <time>2012-06-01T07:58:58Z</time>
      </trkpt>
      <trkpt lat="46.63666" lon="6.029">
        <ele>802.36</ele>
        <time>2012-06-01T07:58:59Z</time>
      </trkpt>
      <trkpt lat="46.63665" lon="6.02916">
        <ele>801.4</ele>
        <time>2012-06-01T07:59:02Z</time>
      </trkpt>
      <trkpt lat="46.63662" lon="6.02919">
        <ele>801.4</ele>
        <time>2012-06-01T07:59:03Z</time>
      </trkpt>
      <trkpt lat="46.63659" lon="6.0292">
        <ele>799.95</ele>
        <time>2012-06-01T07:59:04Z</time>
      </trkpt>
      <trkpt lat="46.63657" lon="6.02918">
        <ele>801.4</ele>
        <time>2012-06-01T07:59:05Z</time>
      </trkpt>
      <trkpt lat="46.63657" lon="6.02915">
        <ele>801.4</ele>
        <time>2012-06-01T07:59:06Z</time>
      </trkpt>
      <trkpt lat="46.63656" lon="6.02911">
        <ele>802.36</ele>
        <time>2012-06-01T07:59:07Z</time>
      </trkpt>
      <trkpt lat="46.63626" lon="6.0285">
        <ele>801.88</ele>
        <time>2012-06-01T07:59:24Z</time>
      </trkpt>
      <trkpt lat="46.63614" lon="6.02847">
        <ele>803.32</ele>
        <time>2012-06-01T07:59:28Z</time>
      </trkpt>
      <trkpt lat="46.6358" lon="6.02838">
        <ele>804.28</ele>
        <time>2012-06-01T07:59:40Z</time>
      </trkpt>
      <trkpt lat="46.63571" lon="6.02833">
        <ele>805.72</ele>
        <time>2012-06-01T07:59:43Z</time>
      </trkpt>
      <trkpt lat="46.63527" lon="6.02799">
        <ele>806.68</ele>
        <time>2012-06-01T08:00:00Z</time>
      </trkpt>
      <trkpt lat="46.63501" lon="6.02773">
        <ele>809.57</ele>
        <time>2012-06-01T08:00:12Z</time>
      </trkpt>
      <trkpt lat="46.63474" lon="6.02763">
        <ele>812.93</ele>
        <time>2012-06-01T08:00:22Z</time>
      </trkpt>
      <trkpt lat="46.63447" lon="6.0275">
        <ele>814.37</ele>
        <time>2012-06-01T08:00:33Z</time>
      </trkpt>
      <trkpt lat="46.6343" lon="6.02744">
        <ele>816.78</ele>
        <time>2012-06-01T08:00:41Z</time>
      </trkpt>
      <trkpt lat="46.63404" lon="6.02735">
        <ele>819.66</ele>
        <time>2012-06-01T08:00:53Z</time>
      </trkpt>
      <trkpt lat="46.63403" lon="6.02735">
        <ele>819.18</ele>
        <time>2012-06-01T08:00:54Z</time>
      </trkpt>
      <trkpt lat="46.63374" lon="6.0272">
        <ele>821.1</ele>
        <time>2012-06-01T08:01:08Z</time>
      </trkpt>
      <trkpt lat="46.63366" lon="6.02715">
        <ele>823.03</ele>
        <time>2012-06-01T08:01:12Z</time>
      </trkpt>
      <trkpt lat="46.63351" lon="6.02699">
        <ele>823.51</ele>
        <time>2012-06-01T08:01:20Z</time>
      </trkpt>
      <trkpt lat="46.63326" lon="6.02684">
        <ele>826.39</ele>
        <time>2012-06-01T08:01:32Z</time>
      </trkpt>
      <trkpt lat="46.63321" lon="6.02682">
        <ele>827.35</ele>
        <time>2012-06-01T08:01:34Z</time>
      </trkpt>
      <trkpt lat="46.633" lon="6.02668">
        <ele>829.27</ele>
        <time>2012-06-01T08:01:46Z</time>
      </trkpt>
      <trkpt lat="46.63286" lon="6.02646">
        <ele>829.76</ele>
        <time>2012-06-01T08:01:59Z</time>
      </trkpt>
      <trkpt lat="46.63272" lon="6.02617">
        <ele>830.72</ele>
        <time>2012-06-01T08:02:11Z</time>
      </trkpt>
      <trkpt lat="46.63256" lon="6.02589">
        <ele>830.72</ele>
        <time>2012-06-01T08:02:21Z</time>
      </trkpt>
      <trkpt lat="46.63239" lon="6.02572">
        <ele>832.64</ele>
        <time>2012-06-01T08:02:29Z</time>
      </trkpt>
      <trkpt lat="46.63219" lon="6.02537">
        <ele>833.12</ele>
        <time>2012-06-01T08:02:41Z</time>
      </trkpt>
      <trkpt lat="46.63217" lon="6.02526">
        <ele>835.04</ele>
        <time>2012-06-01T08:02:44Z</time>
      </trkpt>
      <trkpt lat="46.63213" lon="6.02493">
        <ele>838.41</ele>
        <time>2012-06-01T08:02:53Z</time>
      </trkpt>
      <trkpt lat="46.63213" lon="6.0249">
        <ele>837.45</ele>
        <time>2012-06-01T08:02:54Z</time>
      </trkpt>
      <trkpt lat="46.63207" lon="6.02459">
        <ele>840.81</ele>
        <time>2012-06-01T08:03:03Z</time>
      </trkpt>
      <trkpt lat="46.63207" lon="6.02456">
        <ele>840.81</ele>
        <time>2012-06-01T08:03:04Z</time>
      </trkpt>
      <trkpt lat="46.63206" lon="6.02445">
        <ele>841.29</ele>
        <time>2012-06-01T08:03:07Z</time>
      </trkpt>
      <trkpt lat="46.63204" lon="6.02441">
        <ele>841.77</ele>
        <time>2012-06-01T08:03:09Z</time>
      </trkpt>
      <trkpt lat="46.63202" lon="6.02441">
        <ele>841.77</ele>
        <time>2012-06-01T08:03:10Z</time>
      </trkpt>
      <trkpt lat="46.6318" lon="6.0245">
        <ele>841.77</ele>
        <time>2012-06-01T08:03:23Z</time>
      </trkpt>
      <trkpt lat="46.63153" lon="6.02458">
        <ele>844.18</ele>
        <time>2012-06-01T08:03:37Z</time>
      </trkpt>
      <trkpt lat="46.63124" lon="6.02467">
        <ele>845.62</ele>
        <time>2012-06-01T08:03:51Z</time>
      </trkpt>
      <trkpt lat="46.631" lon="6.02478">
        <ele>846.1</ele>
        <time>2012-06-01T08:04:02Z</time>
      </trkpt>
      <trkpt lat="46.63077" lon="6.02499">
        <ele>848.5</ele>
        <time>2012-06-01T08:04:13Z</time>
      </trkpt>
      <trkpt lat="46.63064" lon="6.02519">
        <ele>848.98</ele>
        <time>2012-06-01T08:04:25Z</time>
      </trkpt>
      <trkpt lat="46.63063" lon="6.02521">
        <ele>848.98</ele>
        <time>2012-06-01T08:04:26Z</time>
      </trkpt>
      <trkpt lat="46.63057" lon="6.02544">
        <ele>850.42</ele>
        <time>2012-06-01T08:04:37Z</time>
      </trkpt>
      <trkpt lat="46.63056" lon="6.02563">
        <ele>850.9</ele>
        <time>2012-06-01T08:04:49Z</time>
      </trkpt>
      <trkpt lat="46.63056" lon="6.02565">
        <ele>850.9</ele>
        <time>2012-06-01T08:04:54Z</time>
      </trkpt>
      <trkpt lat="46.63053" lon="6.02576">
        <ele>849.94</ele>
        <time>2012-06-01T08:05:00Z</time>
      </trkpt>
      <trkpt lat="46.63051" lon="6.02598">
        <ele>855.23</ele>
        <time>2012-06-01T08:05:11Z</time>
      </trkpt>
      <trkpt lat="46.63043" lon="6.02614">
        <ele>852.83</ele>
        <time>2012-06-01T08:05:20Z</time>
      </trkpt>
      <trkpt lat="46.63036" lon="6.02635">
        <ele>852.35</ele>
        <time>2012-06-01T08:05:25Z</time>
      </trkpt>
      <trkpt lat="46.63026" lon="6.02666">
        <ele>854.27</ele>
        <time>2012-06-01T08:05:32Z</time>
      </trkpt>
      <trkpt lat="46.63011" lon="6.02701">
        <ele>857.15</ele>
        <time>2012-06-01T08:05:43Z</time>
      </trkpt>
      <trkpt lat="46.63007" lon="6.02711">
        <ele>855.71</ele>
        <time>2012-06-01T08:05:46Z</time>
      </trkpt>
      <trkpt lat="46.63007" lon="6.02716">
        <ele>855.23</ele>
        <time>2012-06-01T08:05:49Z</time>
      </trkpt>
      <trkpt lat="46.63006" lon="6.02723">
        <ele>858.59</ele>
        <time>2012-06-01T08:05:52Z</time>
      </trkpt>
      <trkpt lat="46.63005" lon="6.02726">
        <ele>857.63</ele>
        <time>2012-06-01T08:05:53Z</time>
      </trkpt>
      <trkpt lat="46.63004" lon="6.02731">
        <ele>856.67</ele>
        <time>2012-06-01T08:05:55Z</time>
      </trkpt>
      <trkpt lat="46.63002" lon="6.02743">
        <ele>858.11</ele>
        <time>2012-06-01T08:05:58Z</time>
      </trkpt>
      <trkpt lat="46.62993" lon="6.02766">
        <ele>858.11</ele>
        <time>2012-06-01T08:06:06Z</time>
      </trkpt>
      <trkpt lat="46.62978" lon="6.028">
        <ele>859.08</ele>
        <time>2012-06-01T08:06:16Z</time>
      </trkpt>
      <trkpt lat="46.62971" lon="6.02817">
        <ele>860.52</ele>
        <time>2012-06-01T08:06:21Z</time>
      </trkpt>
      <trkpt lat="46.62963" lon="6.02835">
        <ele>858.11</ele>
        <time>2012-06-01T08:06:26Z</time>
      </trkpt>
      <trkpt lat="46.62959" lon="6.02847">
        <ele>861.48</ele>
        <time>2012-06-01T08:06:29Z</time>
      </trkpt>
      <trkpt lat="46.62945" lon="6.02887">
        <ele>859.56</ele>
        <time>2012-06-01T08:06:39Z</time>
      </trkpt>
      <trkpt lat="46.62938" lon="6.02905">
        <ele>862.92</ele>
        <time>2012-06-01T08:06:44Z</time>
      </trkpt>
      <trkpt lat="46.62935" lon="6.02912">
        <ele>862.44</ele>
        <time>2012-06-01T08:06:47Z</time>
      </trkpt>
      <trkpt lat="46.62922" lon="6.02938">
        <ele>861.96</ele>
        <time>2012-06-01T08:06:56Z</time>
      </trkpt>
      <trkpt lat="46.62906" lon="6.02958">
        <ele>864.84</ele>
        <time>2012-06-01T08:07:05Z</time>
      </trkpt>
      <trkpt lat="46.62904" lon="6.02961">
        <ele>863.4</ele>
        <time>2012-06-01T08:07:06Z</time>
      </trkpt>
      <trkpt lat="46.62878" lon="6.02991">
        <ele>866.77</ele>
        <time>2012-06-01T08:07:15Z</time>
      </trkpt>
      <trkpt lat="46.62872" lon="6.02994">
        <ele>865.32</ele>
        <time>2012-06-01T08:07:17Z</time>
      </trkpt>
      <trkpt lat="46.62868" lon="6.02995">
        <ele>866.29</ele>
        <time>2012-06-01T08:07:19Z</time>
      </trkpt>
      <trkpt lat="46.62856" lon="6.02998">
        <ele>865.32</ele>
        <time>2012-06-01T08:07:25Z</time>
      </trkpt>
      <trkpt lat="46.62834" lon="6.03">
        <ele>866.77</ele>
        <time>2012-06-01T08:07:36Z</time>
      </trkpt>
      <trkpt lat="46.62803" lon="6.02986">
        <ele>867.73</ele>
        <time>2012-06-01T08:07:47Z</time>
      </trkpt>
      <trkpt lat="46.6278" lon="6.0297">
        <ele>868.69</ele>
        <time>2012-06-01T08:07:58Z</time>
      </trkpt>
      <trkpt lat="46.62757" lon="6.02949">
        <ele>870.13</ele>
        <time>2012-06-01T08:08:10Z</time>
      </trkpt>
      <trkpt lat="46.62732" lon="6.02934">
        <ele>870.61</ele>
        <time>2012-06-01T08:08:21Z</time>
      </trkpt>
      <trkpt lat="46.62728" lon="6.02932">
        <ele>871.57</ele>
        <time>2012-06-01T08:08:23Z</time>
      </trkpt>
      <trkpt lat="46.62711" lon="6.02915">
        <ele>872.53</ele>
        <time>2012-06-01T08:08:31Z</time>
      </trkpt>
      <trkpt lat="46.62692" lon="6.02881">
        <ele>873.98</ele>
        <time>2012-06-01T08:08:43Z</time>
      </trkpt>
      <trkpt lat="46.62664" lon="6.02839">
        <ele>870.13</ele>
        <time>2012-06-01T08:08:54Z</time>
      </trkpt>
      <trkpt lat="46.62659" lon="6.02833">
        <ele>870.61</ele>
        <time>2012-06-01T08:08:55Z</time>
      </trkpt>
      <trkpt lat="46.62649" lon="6.02822">
        <ele>867.25</ele>
        <time>2012-06-01T08:08:57Z</time>
      </trkpt>
      <trkpt lat="46.62632" lon="6.0281">
        <ele>865.8</ele>
        <time>2012-06-01T08:09:02Z</time>
      </trkpt>
      <trkpt lat="46.6263" lon="6.02813">
        <ele>865.8</ele>
        <time>2012-06-01T08:09:03Z</time>
      </trkpt>
      <trkpt lat="46.6263" lon="6.02816">
        <ele>865.32</ele>
        <time>2012-06-01T08:09:04Z</time>
      </trkpt>
      <trkpt lat="46.62631" lon="6.0282">
        <ele>865.8</ele>
        <time>2012-06-01T08:09:05Z</time>
      </trkpt>
      <trkpt lat="46.62631" lon="6.02824">
        <ele>863.88</ele>
        <time>2012-06-01T08:09:06Z</time>
      </trkpt>
      <trkpt lat="46.62633" lon="6.02829">
        <ele>864.36</ele>
        <time>2012-06-01T08:09:07Z</time>
      </trkpt>
      <trkpt lat="46.62636" lon="6.02834">
        <ele>864.36</ele>
        <time>2012-06-01T08:09:08Z</time>
      </trkpt>
      <trkpt lat="46.62641" lon="6.02845">
        <ele>863.88</ele>
        <time>2012-06-01T08:09:10Z</time>
      </trkpt>
      <trkpt lat="46.6266" lon="6.02878">
        <ele>862.44</ele>
        <time>2012-06-01T08:09:15Z</time>
      </trkpt>
      <trkpt lat="46.62669" lon="6.02895">
        <ele>862.44</ele>
        <time>2012-06-01T08:09:17Z</time>
      </trkpt>
      <trkpt lat="46.62673" lon="6.02904">
        <ele>860.04</ele>
        <time>2012-06-01T08:09:18Z</time>
      </trkpt>
      <trkpt lat="46.62676" lon="6.02914">
        <ele>859.56</ele>
        <time>2012-06-01T08:09:19Z</time>
      </trkpt>
      <trkpt lat="46.62695" lon="6.0296">
        <ele>858.11</ele>
        <time>2012-06-01T08:09:24Z</time>
      </trkpt>
      <trkpt lat="46.62696" lon="6.02967">
        <ele>857.15</ele>
        <time>2012-06-01T08:09:25Z</time>
      </trkpt>
      <trkpt lat="46.62694" lon="6.02974">
        <ele>858.59</ele>
        <time>2012-06-01T08:09:26Z</time>
      </trkpt>
      <trkpt lat="46.62688" lon="6.02978">
        <ele>857.15</ele>
        <time>2012-06-01T08:09:27Z</time>
      </trkpt>
      <trkpt lat="46.62683" lon="6.0298">
        <ele>856.67</ele>
        <time>2012-06-01T08:09:28Z</time>
      </trkpt>
      <trkpt lat="46.62672" lon="6.02984">
        <ele>856.19</ele>
        <time>2012-06-01T08:09:30Z</time>
      </trkpt>
      <trkpt lat="46.62667" lon="6.02984">
        <ele>856.19</ele>
        <time>2012-06-01T08:09:31Z</time>
      </trkpt>
      <trkpt lat="46.62663" lon="6.02982">
        <ele>857.15</ele>
        <time>2012-06-01T08:09:32Z</time>
      </trkpt>
      <trkpt lat="46.62635" lon="6.0297">
        <ele>859.56</ele>
        <time>2012-06-01T08:09:41Z</time>
      </trkpt>
      <trkpt lat="46.62632" lon="6.02972">
        <ele>860.04</ele>
        <time>2012-06-01T08:09:42Z</time>
      </trkpt>
      <trkpt lat="46.62629" lon="6.02973">
        <ele>859.56</ele>
        <time>2012-06-01T08:09:43Z</time>
      </trkpt>
      <trkpt lat="46.62605" lon="6.03009">
        <ele>861.96</ele>
        <time>2012-06-01T08:09:55Z</time>
      </trkpt>
      <trkpt lat="46.62588" lon="6.03045">
        <ele>863.88</ele>
        <time>2012-06-01T08:10:05Z</time>
      </trkpt>
      <trkpt lat="46.62573" lon="6.03083">
        <ele>866.29</ele>
        <time>2012-06-01T08:10:15Z</time>
      </trkpt>
      <trkpt lat="46.62559" lon="6.0314">
        <ele>869.17</ele>
        <time>2012-06-01T08:10:29Z</time>
      </trkpt>
      <trkpt lat="46.62547" lon="6.03196">
        <ele>871.57</ele>
        <time>2012-06-01T08:10:43Z</time>
      </trkpt>
      <trkpt lat="46.62537" lon="6.03218">
        <ele>871.57</ele>
        <time>2012-06-01T08:10:50Z</time>
      </trkpt>
      <trkpt lat="46.62516" lon="6.0326">
        <ele>874.46</ele>
        <time>2012-06-01T08:11:03Z</time>
      </trkpt>
      <trkpt lat="46.62495" lon="6.03305">
        <ele>876.38</ele>
        <time>2012-06-01T08:11:17Z</time>
      </trkpt>
      <trkpt lat="46.62482" lon="6.03341">
        <ele>878.78</ele>
        <time>2012-06-01T08:11:26Z</time>
      </trkpt>
      <trkpt lat="46.62465" lon="6.03388">
        <ele>879.74</ele>
        <time>2012-06-01T08:11:39Z</time>
      </trkpt>
      <trkpt lat="46.62454" lon="6.03424">
        <ele>883.11</ele>
        <time>2012-06-01T08:11:48Z</time>
      </trkpt>
      <trkpt lat="46.62447" lon="6.03478">
        <ele>885.03</ele>
        <time>2012-06-01T08:12:01Z</time>
      </trkpt>
      <trkpt lat="46.62421" lon="6.03506">
        <ele>886.95</ele>
        <time>2012-06-01T08:12:13Z</time>
      </trkpt>
      <trkpt lat="46.62417" lon="6.0351">
        <ele>888.88</ele>
        <time>2012-06-01T08:12:15Z</time>
      </trkpt>
      <trkpt lat="46.624" lon="6.03543">
        <ele>890.32</ele>
        <time>2012-06-01T08:12:26Z</time>
      </trkpt>
      <trkpt lat="46.62386" lon="6.03596">
        <ele>891.76</ele>
        <time>2012-06-01T08:12:40Z</time>
      </trkpt>
      <trkpt lat="46.62396" lon="6.03649">
        <ele>895.12</ele>
        <time>2012-06-01T08:12:55Z</time>
      </trkpt>
      <trkpt lat="46.62407" lon="6.03713">
        <ele>895.61</ele>
        <time>2012-06-01T08:13:11Z</time>
      </trkpt>
      <trkpt lat="46.62411" lon="6.03766">
        <ele>898.49</ele>
        <time>2012-06-01T08:13:24Z</time>
      </trkpt>
      <trkpt lat="46.624" lon="6.03827">
        <ele>898.97</ele>
        <time>2012-06-01T08:13:38Z</time>
      </trkpt>
      <trkpt lat="46.62392" lon="6.03847">
        <ele>900.41</ele>
        <time>2012-06-01T08:13:43Z</time>
      </trkpt>
      <trkpt lat="46.62365" lon="6.03897">
        <ele>900.41</ele>
        <time>2012-06-01T08:13:56Z</time>
      </trkpt>
      <trkpt lat="46.62348" lon="6.03927">
        <ele>901.37</ele>
        <time>2012-06-01T08:14:03Z</time>
      </trkpt>
      <trkpt lat="46.62333" lon="6.03973">
        <ele>902.33</ele>
        <time>2012-06-01T08:14:13Z</time>
      </trkpt>
      <trkpt lat="46.6234" lon="6.04004">
        <ele>904.74</ele>
        <time>2012-06-01T08:14:21Z</time>
      </trkpt>
      <trkpt lat="46.62356" lon="6.04071">
        <ele>907.14</ele>
        <time>2012-06-01T08:14:36Z</time>
      </trkpt>
      <trkpt lat="46.6238" lon="6.04115">
        <ele>910.03</ele>
        <time>2012-06-01T08:14:50Z</time>
      </trkpt>
      <trkpt lat="46.62412" lon="6.04158">
        <ele>911.47</ele>
        <time>2012-06-01T08:15:05Z</time>
      </trkpt>
      <trkpt lat="46.62418" lon="6.04167">
        <ele>912.43</ele>
        <time>2012-06-01T08:15:08Z</time>
      </trkpt>
      <trkpt lat="46.62444" lon="6.04221">
        <ele>915.79</ele>
        <time>2012-06-01T08:15:24Z</time>
      </trkpt>
      <trkpt lat="46.62456" lon="6.04282">
        <ele>917.24</ele>
        <time>2012-06-01T08:15:39Z</time>
      </trkpt>
      <trkpt lat="46.62464" lon="6.04344">
        <ele>919.16</ele>
        <time>2012-06-01T08:15:53Z</time>
      </trkpt>
      <trkpt lat="46.62466" lon="6.04356">
        <ele>920.12</ele>
        <time>2012-06-01T08:15:56Z</time>
      </trkpt>
      <trkpt lat="46.62468" lon="6.0436">
        <ele>920.6</ele>
        <time>2012-06-01T08:15:57Z</time>
      </trkpt>
      <trkpt lat="46.62469" lon="6.04364">
        <ele>920.12</ele>
        <time>2012-06-01T08:15:58Z</time>
      </trkpt>
      <trkpt lat="46.62471" lon="6.04367">
        <ele>920.6</ele>
        <time>2012-06-01T08:15:59Z</time>
      </trkpt>
      <trkpt lat="46.62472" lon="6.04371">
        <ele>921.08</ele>
        <time>2012-06-01T08:16:00Z</time>
      </trkpt>
      <trkpt lat="46.62492" lon="6.04408">
        <ele>922.52</ele>
        <time>2012-06-01T08:16:13Z</time>
      </trkpt>
      <trkpt lat="46.62512" lon="6.04437">
        <ele>925.89</ele>
        <time>2012-06-01T08:16:22Z</time>
      </trkpt>
      <trkpt lat="46.62539" lon="6.04476">
        <ele>926.37</ele>
        <time>2012-06-01T08:16:34Z</time>
      </trkpt>
      <trkpt lat="46.62551" lon="6.0451">
        <ele>927.33</ele>
        <time>2012-06-01T08:16:42Z</time>
      </trkpt>
      <trkpt lat="46.62544" lon="6.04565">
        <ele>927.81</ele>
        <time>2012-06-01T08:16:54Z</time>
      </trkpt>
      <trkpt lat="46.62542" lon="6.04599">
        <ele>929.73</ele>
        <time>2012-06-01T08:17:03Z</time>
      </trkpt>
      <trkpt lat="46.62554" lon="6.04638">
        <ele>932.62</ele>
        <time>2012-06-01T08:17:15Z</time>
      </trkpt>
      <trkpt lat="46.62567" lon="6.04663">
        <ele>933.58</ele>
        <time>2012-06-01T08:17:22Z</time>
      </trkpt>
      <trkpt lat="46.62569" lon="6.04666">
        <ele>934.54</ele>
        <time>2012-06-01T08:17:23Z</time>
      </trkpt>
      <trkpt lat="46.6257" lon="6.04669">
        <ele>934.54</ele>
        <time>2012-06-01T08:17:24Z</time>
      </trkpt>
      <trkpt lat="46.62572" lon="6.04672">
        <ele>934.06</ele>
        <time>2012-06-01T08:17:25Z</time>
      </trkpt>
      <trkpt lat="46.62574" lon="6.04675">
        <ele>934.54</ele>
        <time>2012-06-01T08:17:26Z</time>
      </trkpt>
      <trkpt lat="46.62576" lon="6.04677">
        <ele>934.54</ele>
        <time>2012-06-01T08:17:27Z</time>
      </trkpt>
      <trkpt lat="46.62597" lon="6.04707">
        <ele>935.98</ele>
        <time>2012-06-01T08:17:37Z</time>
      </trkpt>
      <trkpt lat="46.62618" lon="6.04738">
        <ele>937.9</ele>
        <time>2012-06-01T08:17:47Z</time>
      </trkpt>
      <trkpt lat="46.62634" lon="6.04781">
        <ele>939.35</ele>
        <time>2012-06-01T08:17:58Z</time>
      </trkpt>
      <trkpt lat="46.62641" lon="6.04822">
        <ele>940.79</ele>
        <time>2012-06-01T08:18:08Z</time>
      </trkpt>
      <trkpt lat="46.62655" lon="6.04863">
        <ele>941.27</ele>
        <time>2012-06-01T08:18:20Z</time>
      </trkpt>
      <trkpt lat="46.62639" lon="6.04908">
        <ele>943.19</ele>
        <time>2012-06-01T08:18:31Z</time>
      </trkpt>
      <trkpt lat="46.62631" lon="6.04949">
        <ele>943.19</ele>
        <time>2012-06-01T08:18:40Z</time>
      </trkpt>
      <trkpt lat="46.62632" lon="6.04956">
        <ele>942.23</ele>
        <time>2012-06-01T08:18:41Z</time>
      </trkpt>
      <trkpt lat="46.62634" lon="6.04962">
        <ele>942.71</ele>
        <time>2012-06-01T08:18:42Z</time>
      </trkpt>
      <trkpt lat="46.62636" lon="6.04967">
        <ele>944.15</ele>
        <time>2012-06-01T08:18:43Z</time>
      </trkpt>
      <trkpt lat="46.62638" lon="6.0497">
        <ele>943.19</ele>
        <time>2012-06-01T08:18:44Z</time>
      </trkpt>
      <trkpt lat="46.62641" lon="6.04973">
        <ele>943.67</ele>
        <time>2012-06-01T08:18:45Z</time>
      </trkpt>
      <trkpt lat="46.62643" lon="6.04976">
        <ele>943.19</ele>
        <time>2012-06-01T08:18:46Z</time>
      </trkpt>
      <trkpt lat="46.62672" lon="6.05003">
        <ele>944.63</ele>
        <time>2012-06-01T08:18:56Z</time>
      </trkpt>
      <trkpt lat="46.62693" lon="6.05029">
        <ele>945.11</ele>
        <time>2012-06-01T08:19:05Z</time>
      </trkpt>
      <trkpt lat="46.6271" lon="6.05076">
        <ele>945.11</ele>
        <time>2012-06-01T08:19:15Z</time>
      </trkpt>
      <trkpt lat="46.62735" lon="6.05117">
        <ele>945.11</ele>
        <time>2012-06-01T08:19:25Z</time>
      </trkpt>
      <trkpt lat="46.62738" lon="6.05121">
        <ele>944.63</ele>
        <time>2012-06-01T08:19:26Z</time>
      </trkpt>
      <trkpt lat="46.62741" lon="6.05125">
        <ele>944.15</ele>
        <time>2012-06-01T08:19:27Z</time>
      </trkpt>
      <trkpt lat="46.62744" lon="6.0513">
        <ele>946.07</ele>
        <time>2012-06-01T08:19:28Z</time>
      </trkpt>
      <trkpt lat="46.62747" lon="6.05135">
        <ele>943.67</ele>
        <time>2012-06-01T08:19:29Z</time>
      </trkpt>
      <trkpt lat="46.62756" lon="6.05148">
        <ele>946.07</ele>
        <time>2012-06-01T08:19:32Z</time>
      </trkpt>
      <trkpt lat="46.62761" lon="6.05157">
        <ele>944.63</ele>
        <time>2012-06-01T08:19:34Z</time>
      </trkpt>
      <trkpt lat="46.62784" lon="6.05198">
        <ele>946.56</ele>
        <time>2012-06-01T08:19:44Z</time>
      </trkpt>
      <trkpt lat="46.62812" lon="6.0524">
        <ele>947.04</ele>
        <time>2012-06-01T08:19:54Z</time>
      </trkpt>
      <trkpt lat="46.62836" lon="6.05281">
        <ele>949.92</ele>
        <time>2012-06-01T08:20:05Z</time>
      </trkpt>
      <trkpt lat="46.62846" lon="6.05298">
        <ele>950.4</ele>
        <time>2012-06-01T08:20:10Z</time>
      </trkpt>
      <trkpt lat="46.62867" lon="6.05341">
        <ele>953.77</ele>
        <time>2012-06-01T08:20:22Z</time>
      </trkpt>
      <trkpt lat="46.62886" lon="6.05379">
        <ele>954.73</ele>
        <time>2012-06-01T08:20:32Z</time>
      </trkpt>
      <trkpt lat="46.629" lon="6.05419">
        <ele>957.13</ele>
        <time>2012-06-01T08:20:42Z</time>
      </trkpt>
      <trkpt lat="46.62919" lon="6.05464">
        <ele>959.05</ele>
        <time>2012-06-01T08:20:55Z</time>
      </trkpt>
      <trkpt lat="46.62924" lon="6.05478">
        <ele>960.01</ele>
        <time>2012-06-01T08:20:59Z</time>
      </trkpt>
      <trkpt lat="46.62944" lon="6.05515">
        <ele>963.38</ele>
        <time>2012-06-01T08:21:10Z</time>
      </trkpt>
      <trkpt lat="46.62971" lon="6.05538">
        <ele>965.3</ele>
        <time>2012-06-01T08:21:21Z</time>
      </trkpt>
      <trkpt lat="46.62983" lon="6.05544">
        <ele>967.22</ele>
        <time>2012-06-01T08:21:25Z</time>
      </trkpt>
      <trkpt lat="46.62999" lon="6.0555">
        <ele>969.63</ele>
        <time>2012-06-01T08:21:31Z</time>
      </trkpt>
      <trkpt lat="46.63001" lon="6.05551">
        <ele>970.11</ele>
        <time>2012-06-01T08:21:32Z</time>
      </trkpt>
      <trkpt lat="46.63004" lon="6.05553">
        <ele>969.63</ele>
        <time>2012-06-01T08:21:33Z</time>
      </trkpt>
      <trkpt lat="46.63006" lon="6.05555">
        <ele>970.11</ele>
        <time>2012-06-01T08:21:34Z</time>
      </trkpt>
      <trkpt lat="46.63008" lon="6.05556">
        <ele>970.11</ele>
        <time>2012-06-01T08:21:35Z</time>
      </trkpt>
      <trkpt lat="46.6301" lon="6.05559">
        <ele>971.07</ele>
        <time>2012-06-01T08:21:36Z</time>
      </trkpt>
      <trkpt lat="46.63013" lon="6.05562">
        <ele>970.11</ele>
        <time>2012-06-01T08:21:37Z</time>
      </trkpt>
      <trkpt lat="46.63015" lon="6.05565">
        <ele>970.59</ele>
        <time>2012-06-01T08:21:38Z</time>
      </trkpt>
      <trkpt lat="46.63016" lon="6.05567">
        <ele>971.55</ele>
        <time>2012-06-01T08:21:39Z</time>
      </trkpt>
      <trkpt lat="46.63017" lon="6.05568">
        <ele>971.07</ele>
        <time>2012-06-01T08:21:40Z</time>
      </trkpt>
      <trkpt lat="46.63019" lon="6.05571">
        <ele>971.55</ele>
        <time>2012-06-01T08:21:41Z</time>
      </trkpt>
      <trkpt lat="46.6302" lon="6.05574">
        <ele>971.55</ele>
        <time>2012-06-01T08:21:42Z</time>
      </trkpt>
      <trkpt lat="46.63022" lon="6.05577">
        <ele>971.55</ele>
        <time>2012-06-01T08:21:43Z</time>
      </trkpt>
      <trkpt lat="46.63024" lon="6.05579">
        <ele>971.55</ele>
        <time>2012-06-01T08:21:44Z</time>
      </trkpt>
      <trkpt lat="46.63025" lon="6.05582">
        <ele>972.03</ele>
        <time>2012-06-01T08:21:45Z</time>
      </trkpt>
      <trkpt lat="46.63026" lon="6.05585">
        <ele>971.55</ele>
        <time>2012-06-01T08:21:46Z</time>
      </trkpt>
      <trkpt lat="46.63028" lon="6.05588">
        <ele>971.07</ele>
        <time>2012-06-01T08:21:47Z</time>
      </trkpt>
      <trkpt lat="46.63044" lon="6.05623">
        <ele>972.99</ele>
        <time>2012-06-01T08:21:58Z</time>
      </trkpt>
      <trkpt lat="46.63048" lon="6.05643">
        <ele>973.95</ele>
        <time>2012-06-01T08:22:06Z</time>
      </trkpt>
      <trkpt lat="46.63048" lon="6.05646">
        <ele>973.47</ele>
        <time>2012-06-01T08:22:07Z</time>
      </trkpt>
      <trkpt lat="46.63047" lon="6.05649">
        <ele>973.95</ele>
        <time>2012-06-01T08:22:08Z</time>
      </trkpt>
      <trkpt lat="46.63047" lon="6.05654">
        <ele>974.43</ele>
        <time>2012-06-01T08:22:10Z</time>
      </trkpt>
      <trkpt lat="46.63048" lon="6.05676">
        <ele>975.88</ele>
        <time>2012-06-01T08:22:17Z</time>
      </trkpt>
      <trkpt lat="46.63046" lon="6.05678">
        <ele>975.39</ele>
        <time>2012-06-01T08:22:18Z</time>
      </trkpt>
      <trkpt lat="46.63045" lon="6.05681">
        <ele>975.39</ele>
        <time>2012-06-01T08:22:19Z</time>
      </trkpt>
      <trkpt lat="46.63044" lon="6.05684">
        <ele>976.36</ele>
        <time>2012-06-01T08:22:20Z</time>
      </trkpt>
      <trkpt lat="46.63043" lon="6.05687">
        <ele>976.36</ele>
        <time>2012-06-01T08:22:21Z</time>
      </trkpt>
      <trkpt lat="46.63041" lon="6.0569">
        <ele>975.39</ele>
        <time>2012-06-01T08:22:22Z</time>
      </trkpt>
      <trkpt lat="46.6304" lon="6.05693">
        <ele>975.88</ele>
        <time>2012-06-01T08:22:23Z</time>
      </trkpt>
      <trkpt lat="46.63014" lon="6.05723">
        <ele>977.8</ele>
        <time>2012-06-01T08:22:37Z</time>
      </trkpt>
      <trkpt lat="46.62993" lon="6.05728">
        <ele>980.2</ele>
        <time>2012-06-01T08:22:48Z</time>
      </trkpt>
      <trkpt lat="46.62971" lon="6.05741">
        <ele>981.16</ele>
        <time>2012-06-01T08:22:59Z</time>
      </trkpt>
      <trkpt lat="46.62952" lon="6.05761">
        <ele>982.6</ele>
        <time>2012-06-01T08:23:10Z</time>
      </trkpt>
      <trkpt lat="46.62949" lon="6.05768">
        <ele>984.05</ele>
        <time>2012-06-01T08:23:14Z</time>
      </trkpt>
      <trkpt lat="46.62947" lon="6.05772">
        <ele>984.05</ele>
        <time>2012-06-01T08:23:16Z</time>
      </trkpt>
      <trkpt lat="46.62946" lon="6.05775">
        <ele>983.57</ele>
        <time>2012-06-01T08:23:17Z</time>
      </trkpt>
      <trkpt lat="46.62941" lon="6.05802">
        <ele>985.49</ele>
        <time>2012-06-01T08:23:28Z</time>
      </trkpt>
      <trkpt lat="46.62926" lon="6.05831">
        <ele>987.41</ele>
        <time>2012-06-01T08:23:40Z</time>
      </trkpt>
      <trkpt lat="46.629" lon="6.0585">
        <ele>989.33</ele>
        <time>2012-06-01T08:23:54Z</time>
      </trkpt>
      <trkpt lat="46.62898" lon="6.05851">
        <ele>989.33</ele>
        <time>2012-06-01T08:23:55Z</time>
      </trkpt>
      <trkpt lat="46.62896" lon="6.05853">
        <ele>989.81</ele>
        <time>2012-06-01T08:23:56Z</time>
      </trkpt>
      <trkpt lat="46.62894" lon="6.05854">
        <ele>990.3</ele>
        <time>2012-06-01T08:23:57Z</time>
      </trkpt>
      <trkpt lat="46.62879" lon="6.05866">
        <ele>992.22</ele>
        <time>2012-06-01T08:24:07Z</time>
      </trkpt>
      <trkpt lat="46.62877" lon="6.05868">
        <ele>992.22</ele>
        <time>2012-06-01T08:24:08Z</time>
      </trkpt>
      <trkpt lat="46.62875" lon="6.05869">
        <ele>991.26</ele>
        <time>2012-06-01T08:24:09Z</time>
      </trkpt>
      <trkpt lat="46.62871" lon="6.05876">
        <ele>992.7</ele>
        <time>2012-06-01T08:24:12Z</time>
      </trkpt>
      <trkpt lat="46.62869" lon="6.05879">
        <ele>992.7</ele>
        <time>2012-06-01T08:24:13Z</time>
      </trkpt>
      <trkpt lat="46.6286" lon="6.05905">
        <ele>993.18</ele>
        <time>2012-06-01T08:24:23Z</time>
      </trkpt>
      <trkpt lat="46.6287" lon="6.05942">
        <ele>995.1</ele>
        <time>2012-06-01T08:24:34Z</time>
      </trkpt>
      <trkpt lat="46.62885" lon="6.05965">
        <ele>1001.35</ele>
        <time>2012-06-01T08:24:42Z</time>
      </trkpt>
      <trkpt lat="46.62887" lon="6.05968">
        <ele>998.95</ele>
        <time>2012-06-01T08:24:43Z</time>
      </trkpt>
      <trkpt lat="46.62888" lon="6.05971">
        <ele>996.54</ele>
        <time>2012-06-01T08:24:44Z</time>
      </trkpt>
      <trkpt lat="46.6289" lon="6.05973">
        <ele>997.02</ele>
        <time>2012-06-01T08:24:45Z</time>
      </trkpt>
      <trkpt lat="46.62891" lon="6.05976">
        <ele>997.02</ele>
        <time>2012-06-01T08:24:46Z</time>
      </trkpt>
      <trkpt lat="46.62892" lon="6.05979">
        <ele>997.99</ele>
        <time>2012-06-01T08:24:47Z</time>
      </trkpt>
      <trkpt lat="46.62911" lon="6.06025">
        <ele>997.99</ele>
        <time>2012-06-01T08:25:01Z</time>
      </trkpt>
      <trkpt lat="46.62926" lon="6.06056">
        <ele>999.43</ele>
        <time>2012-06-01T08:25:12Z</time>
      </trkpt>
      <trkpt lat="46.62931" lon="6.06094">
        <ele>999.91</ele>
        <time>2012-06-01T08:25:23Z</time>
      </trkpt>
      <trkpt lat="46.62916" lon="6.0613">
        <ele>999.43</ele>
        <time>2012-06-01T08:25:33Z</time>
      </trkpt>
      <trkpt lat="46.62914" lon="6.06184">
        <ele>997.99</ele>
        <time>2012-06-01T08:25:43Z</time>
      </trkpt>
      <trkpt lat="46.62916" lon="6.06198">
        <ele>997.99</ele>
        <time>2012-06-01T08:25:45Z</time>
      </trkpt>
      <trkpt lat="46.62924" lon="6.06219">
        <ele>997.51</ele>
        <time>2012-06-01T08:25:49Z</time>
      </trkpt>
      <trkpt lat="46.62927" lon="6.06223">
        <ele>997.51</ele>
        <time>2012-06-01T08:25:50Z</time>
      </trkpt>
      <trkpt lat="46.62929" lon="6.06227">
        <ele>998.47</ele>
        <time>2012-06-01T08:25:51Z</time>
      </trkpt>
      <trkpt lat="46.62932" lon="6.0623">
        <ele>998.47</ele>
        <time>2012-06-01T08:25:52Z</time>
      </trkpt>
      <trkpt lat="46.62935" lon="6.06234">
        <ele>997.99</ele>
        <time>2012-06-01T08:25:53Z</time>
      </trkpt>
      <trkpt lat="46.62937" lon="6.06236">
        <ele>998.47</ele>
        <time>2012-06-01T08:25:54Z</time>
      </trkpt>
      <trkpt lat="46.6294" lon="6.06239">
        <ele>998.47</ele>
        <time>2012-06-01T08:25:55Z</time>
      </trkpt>
      <trkpt lat="46.62942" lon="6.06243">
        <ele>998.47</ele>
        <time>2012-06-01T08:25:56Z</time>
      </trkpt>
      <trkpt lat="46.62945" lon="6.06247">
        <ele>998.47</ele>
        <time>2012-06-01T08:25:57Z</time>
      </trkpt>
      <trkpt lat="46.62947" lon="6.06251">
        <ele>999.91</ele>
        <time>2012-06-01T08:25:58Z</time>
      </trkpt>
      <trkpt lat="46.62948" lon="6.06256">
        <ele>999.91</ele>
        <time>2012-06-01T08:25:59Z</time>
      </trkpt>
      <trkpt lat="46.62949" lon="6.0626">
        <ele>999.91</ele>
        <time>2012-06-01T08:26:00Z</time>
      </trkpt>
      <trkpt lat="46.62949" lon="6.06264">
        <ele>999.91</ele>
        <time>2012-06-01T08:26:01Z</time>
      </trkpt>
      <trkpt lat="46.6295" lon="6.06268">
        <ele>1000.39</ele>
        <time>2012-06-01T08:26:02Z</time>
      </trkpt>
      <trkpt lat="46.62942" lon="6.0631">
        <ele>1003.27</ele>
        <time>2012-06-01T08:26:12Z</time>
      </trkpt>
      <trkpt lat="46.62951" lon="6.06356">
        <ele>1005.68</ele>
        <time>2012-06-01T08:26:23Z</time>
      </trkpt>
      <trkpt lat="46.6296" lon="6.06361">
        <ele>1006.64</ele>
        <time>2012-06-01T08:26:27Z</time>
      </trkpt>
      <trkpt lat="46.62963" lon="6.06362">
        <ele>1007.12</ele>
        <time>2012-06-01T08:26:28Z</time>
      </trkpt>
      <trkpt lat="46.62965" lon="6.06362">
        <ele>1007.12</ele>
        <time>2012-06-01T08:26:29Z</time>
      </trkpt>
      <trkpt lat="46.62993" lon="6.06367">
        <ele>1009.04</ele>
        <time>2012-06-01T08:26:41Z</time>
      </trkpt>
      <trkpt lat="46.63027" lon="6.06372">
        <ele>1011.93</ele>
        <time>2012-06-01T08:26:53Z</time>
      </trkpt>
      <trkpt lat="46.63049" lon="6.06376">
        <ele>1013.85</ele>
        <time>2012-06-01T08:27:01Z</time>
      </trkpt>
      <trkpt lat="46.63061" lon="6.06408">
        <ele>1016.25</ele>
        <time>2012-06-01T08:27:12Z</time>
      </trkpt>
      <trkpt lat="46.63066" lon="6.06453">
        <ele>1018.65</ele>
        <time>2012-06-01T08:27:24Z</time>
      </trkpt>
      <trkpt lat="46.63073" lon="6.06492">
        <ele>1021.06</ele>
        <time>2012-06-01T08:27:36Z</time>
      </trkpt>
      <trkpt lat="46.63089" lon="6.0653">
        <ele>1022.98</ele>
        <time>2012-06-01T08:27:48Z</time>
      </trkpt>
      <trkpt lat="46.63092" lon="6.06546">
        <ele>1024.42</ele>
        <time>2012-06-01T08:27:55Z</time>
      </trkpt>
      <trkpt lat="46.63092" lon="6.06547">
        <ele>1024.42</ele>
        <time>2012-06-01T08:27:56Z</time>
      </trkpt>
      <trkpt lat="46.63092" lon="6.06549">
        <ele>1024.42</ele>
        <time>2012-06-01T08:27:57Z</time>
      </trkpt>
      <trkpt lat="46.63092" lon="6.06551">
        <ele>1024.9</ele>
        <time>2012-06-01T08:27:58Z</time>
      </trkpt>
      <trkpt lat="46.63093" lon="6.06562">
        <ele>1025.38</ele>
        <time>2012-06-01T08:28:03Z</time>
      </trkpt>
      <trkpt lat="46.63093" lon="6.06564">
        <ele>1025.38</ele>
        <time>2012-06-01T08:28:04Z</time>
      </trkpt>
      <trkpt lat="46.63093" lon="6.06566">
        <ele>1025.86</ele>
        <time>2012-06-01T08:28:05Z</time>
      </trkpt>
      <trkpt lat="46.63091" lon="6.06588">
        <ele>1026.83</ele>
        <time>2012-06-01T08:28:16Z</time>
      </trkpt>
      <trkpt lat="46.63091" lon="6.0659">
        <ele>1026.83</ele>
        <time>2012-06-01T08:28:17Z</time>
      </trkpt>
      <trkpt lat="46.63097" lon="6.06612">
        <ele>1029.23</ele>
        <time>2012-06-01T08:28:29Z</time>
      </trkpt>
      <trkpt lat="46.63121" lon="6.0662">
        <ele>1031.15</ele>
        <time>2012-06-01T08:28:42Z</time>
      </trkpt>
      <trkpt lat="46.63138" lon="6.06627">
        <ele>1032.11</ele>
        <time>2012-06-01T08:28:52Z</time>
      </trkpt>
      <trkpt lat="46.63139" lon="6.06629">
        <ele>1032.59</ele>
        <time>2012-06-01T08:28:53Z</time>
      </trkpt>
      <trkpt lat="46.63141" lon="6.06631">
        <ele>1032.59</ele>
        <time>2012-06-01T08:28:54Z</time>
      </trkpt>
      <trkpt lat="46.63142" lon="6.06633">
        <ele>1032.11</ele>
        <time>2012-06-01T08:28:55Z</time>
      </trkpt>
      <trkpt lat="46.63144" lon="6.06635">
        <ele>1032.59</ele>
        <time>2012-06-01T08:28:56Z</time>
      </trkpt>
      <trkpt lat="46.63146" lon="6.06639">
        <ele>1033.07</ele>
        <time>2012-06-01T08:28:59Z</time>
      </trkpt>
      <trkpt lat="46.63146" lon="6.06666">
        <ele>1035</ele>
        <time>2012-06-01T08:29:11Z</time>
      </trkpt>
      <trkpt lat="46.63148" lon="6.06684">
        <ele>1035.96</ele>
        <time>2012-06-01T08:29:17Z</time>
      </trkpt>
      <trkpt lat="46.63148" lon="6.06687">
        <ele>1036.92</ele>
        <time>2012-06-01T08:29:18Z</time>
      </trkpt>
      <trkpt lat="46.63149" lon="6.06689">
        <ele>1037.88</ele>
        <time>2012-06-01T08:29:19Z</time>
      </trkpt>
      <trkpt lat="46.63149" lon="6.06691">
        <ele>1037.4</ele>
        <time>2012-06-01T08:29:20Z</time>
      </trkpt>
      <trkpt lat="46.63154" lon="6.06704">
        <ele>1037.88</ele>
        <time>2012-06-01T08:29:26Z</time>
      </trkpt>
      <trkpt lat="46.63155" lon="6.06706">
        <ele>1038.36</ele>
        <time>2012-06-01T08:29:27Z</time>
      </trkpt>
      <trkpt lat="46.63156" lon="6.06708">
        <ele>1038.36</ele>
        <time>2012-06-01T08:29:28Z</time>
      </trkpt>
      <trkpt lat="46.63158" lon="6.0671">
        <ele>1038.36</ele>
        <time>2012-06-01T08:29:29Z</time>
      </trkpt>
      <trkpt lat="46.63159" lon="6.06712">
        <ele>1038.36</ele>
        <time>2012-06-01T08:29:30Z</time>
      </trkpt>
      <trkpt lat="46.63177" lon="6.06721">
        <ele>1040.76</ele>
        <time>2012-06-01T08:29:38Z</time>
      </trkpt>
      <trkpt lat="46.63179" lon="6.06723">
        <ele>1040.76</ele>
        <time>2012-06-01T08:29:39Z</time>
      </trkpt>
      <trkpt lat="46.63181" lon="6.06725">
        <ele>1041.25</ele>
        <time>2012-06-01T08:29:40Z</time>
      </trkpt>
      <trkpt lat="46.63183" lon="6.06727">
        <ele>1040.76</ele>
        <time>2012-06-01T08:29:41Z</time>
      </trkpt>
      <trkpt lat="46.63185" lon="6.06728">
        <ele>1041.25</ele>
        <time>2012-06-01T08:29:42Z</time>
      </trkpt>
      <trkpt lat="46.63199" lon="6.06751">
        <ele>1043.17</ele>
        <time>2012-06-01T08:29:53Z</time>
      </trkpt>
      <trkpt lat="46.63201" lon="6.06761">
        <ele>1043.17</ele>
        <time>2012-06-01T08:29:57Z</time>
      </trkpt>
      <trkpt lat="46.6321" lon="6.06777">
        <ele>1044.61</ele>
        <time>2012-06-01T08:30:05Z</time>
      </trkpt>
      <trkpt lat="46.63229" lon="6.06793">
        <ele>1046.05</ele>
        <time>2012-06-01T08:30:17Z</time>
      </trkpt>
      <trkpt lat="46.6323" lon="6.06794">
        <ele>1045.57</ele>
        <time>2012-06-01T08:30:18Z</time>
      </trkpt>
      <trkpt lat="46.63231" lon="6.06795">
        <ele>1045.57</ele>
        <time>2012-06-01T08:30:19Z</time>
      </trkpt>
      <trkpt lat="46.63256" lon="6.06804">
        <ele>1047.01</ele>
        <time>2012-06-01T08:30:33Z</time>
      </trkpt>
      <trkpt lat="46.63281" lon="6.06804">
        <ele>1048.45</ele>
        <time>2012-06-01T08:30:45Z</time>
      </trkpt>
      <trkpt lat="46.63287" lon="6.06809">
        <ele>1048.94</ele>
        <time>2012-06-01T08:30:49Z</time>
      </trkpt>
      <trkpt lat="46.63291" lon="6.06813">
        <ele>1049.9</ele>
        <time>2012-06-01T08:30:52Z</time>
      </trkpt>
      <trkpt lat="46.63292" lon="6.06815">
        <ele>1049.9</ele>
        <time>2012-06-01T08:30:53Z</time>
      </trkpt>
      <trkpt lat="46.63296" lon="6.06819">
        <ele>1049.9</ele>
        <time>2012-06-01T08:30:56Z</time>
      </trkpt>
      <trkpt lat="46.63311" lon="6.06856">
        <ele>1051.34</ele>
        <time>2012-06-01T08:31:10Z</time>
      </trkpt>
      <trkpt lat="46.63309" lon="6.06898">
        <ele>1053.26</ele>
        <time>2012-06-01T08:31:24Z</time>
      </trkpt>
      <trkpt lat="46.6331" lon="6.06934">
        <ele>1054.7</ele>
        <time>2012-06-01T08:31:36Z</time>
      </trkpt>
      <trkpt lat="46.63311" lon="6.06944">
        <ele>1056.15</ele>
        <time>2012-06-01T08:31:39Z</time>
      </trkpt>
      <trkpt lat="46.63327" lon="6.06988">
        <ele>1058.07</ele>
        <time>2012-06-01T08:31:52Z</time>
      </trkpt>
      <trkpt lat="46.63342" lon="6.07019">
        <ele>1060.47</ele>
        <time>2012-06-01T08:32:03Z</time>
      </trkpt>
      <trkpt lat="46.63362" lon="6.0706">
        <ele>1060.95</ele>
        <time>2012-06-01T08:32:15Z</time>
      </trkpt>
      <trkpt lat="46.63392" lon="6.07085">
        <ele>1062.39</ele>
        <time>2012-06-01T08:32:26Z</time>
      </trkpt>
      <trkpt lat="46.63403" lon="6.07095">
        <ele>1063.84</ele>
        <time>2012-06-01T08:32:31Z</time>
      </trkpt>
      <trkpt lat="46.63404" lon="6.07098">
        <ele>1063.84</ele>
        <time>2012-06-01T08:32:32Z</time>
      </trkpt>
      <trkpt lat="46.63416" lon="6.07144">
        <ele>1066.72</ele>
        <time>2012-06-01T08:32:45Z</time>
      </trkpt>
      <trkpt lat="46.63449" lon="6.07157">
        <ele>1065.76</ele>
        <time>2012-06-01T08:32:57Z</time>
      </trkpt>
      <trkpt lat="46.63498" lon="6.07147">
        <ele>1065.76</ele>
        <time>2012-06-01T08:33:12Z</time>
      </trkpt>
      <trkpt lat="46.63529" lon="6.07147">
        <ele>1064.8</ele>
        <time>2012-06-01T08:33:20Z</time>
      </trkpt>
      <trkpt lat="46.63532" lon="6.07149">
        <ele>1064.8</ele>
        <time>2012-06-01T08:33:21Z</time>
      </trkpt>
      <trkpt lat="46.6354" lon="6.07157">
        <ele>1062.87</ele>
        <time>2012-06-01T08:33:23Z</time>
      </trkpt>
      <trkpt lat="46.63544" lon="6.07162">
        <ele>1062.87</ele>
        <time>2012-06-01T08:33:24Z</time>
      </trkpt>
      <trkpt lat="46.63548" lon="6.07167">
        <ele>1062.39</ele>
        <time>2012-06-01T08:33:25Z</time>
      </trkpt>
      <trkpt lat="46.63551" lon="6.07174">
        <ele>1061.91</ele>
        <time>2012-06-01T08:33:26Z</time>
      </trkpt>
      <trkpt lat="46.63555" lon="6.0718">
        <ele>1062.39</ele>
        <time>2012-06-01T08:33:27Z</time>
      </trkpt>
      <trkpt lat="46.63559" lon="6.07187">
        <ele>1061.43</ele>
        <time>2012-06-01T08:33:28Z</time>
      </trkpt>
      <trkpt lat="46.63564" lon="6.07193">
        <ele>1061.91</ele>
        <time>2012-06-01T08:33:29Z</time>
      </trkpt>
      <trkpt lat="46.63569" lon="6.07197">
        <ele>1061.43</ele>
        <time>2012-06-01T08:33:30Z</time>
      </trkpt>
      <trkpt lat="46.63576" lon="6.07199">
        <ele>1061.43</ele>
        <time>2012-06-01T08:33:31Z</time>
      </trkpt>
      <trkpt lat="46.63582" lon="6.07198">
        <ele>1061.43</ele>
        <time>2012-06-01T08:33:32Z</time>
      </trkpt>
      <trkpt lat="46.63589" lon="6.07196">
        <ele>1060.95</ele>
        <time>2012-06-01T08:33:33Z</time>
      </trkpt>
      <trkpt lat="46.63595" lon="6.07193">
        <ele>1060.47</ele>
        <time>2012-06-01T08:33:34Z</time>
      </trkpt>
      <trkpt lat="46.63601" lon="6.07189">
        <ele>1059.51</ele>
        <time>2012-06-01T08:33:35Z</time>
      </trkpt>
      <trkpt lat="46.63607" lon="6.07184">
        <ele>1059.51</ele>
        <time>2012-06-01T08:33:36Z</time>
      </trkpt>
      <trkpt lat="46.63613" lon="6.07177">
        <ele>1059.03</ele>
        <time>2012-06-01T08:33:37Z</time>
      </trkpt>
      <trkpt lat="46.63619" lon="6.07169">
        <ele>1058.07</ele>
        <time>2012-06-01T08:33:38Z</time>
      </trkpt>
      <trkpt lat="46.63625" lon="6.07159">
        <ele>1059.03</ele>
        <time>2012-06-01T08:33:39Z</time>
      </trkpt>
      <trkpt lat="46.6363" lon="6.07149">
        <ele>1057.59</ele>
        <time>2012-06-01T08:33:40Z</time>
      </trkpt>
      <trkpt lat="46.63646" lon="6.0712">
        <ele>1055.18</ele>
        <time>2012-06-01T08:33:43Z</time>
      </trkpt>
      <trkpt lat="46.63653" lon="6.07113">
        <ele>1054.7</ele>
        <time>2012-06-01T08:33:44Z</time>
      </trkpt>
      <trkpt lat="46.6366" lon="6.07109">
        <ele>1052.78</ele>
        <time>2012-06-01T08:33:45Z</time>
      </trkpt>
      <trkpt lat="46.63669" lon="6.07106">
        <ele>1052.3</ele>
        <time>2012-06-01T08:33:46Z</time>
      </trkpt>
      <trkpt lat="46.63679" lon="6.07101">
        <ele>1051.34</ele>
        <time>2012-06-01T08:33:47Z</time>
      </trkpt>
      <trkpt lat="46.63688" lon="6.07093">
        <ele>1050.86</ele>
        <time>2012-06-01T08:33:48Z</time>
      </trkpt>
      <trkpt lat="46.63697" lon="6.07086">
        <ele>1049.42</ele>
        <time>2012-06-01T08:33:49Z</time>
      </trkpt>
      <trkpt lat="46.63706" lon="6.0708">
        <ele>1049.42</ele>
        <time>2012-06-01T08:33:50Z</time>
      </trkpt>
      <trkpt lat="46.63714" lon="6.07078">
        <ele>1047.97</ele>
        <time>2012-06-01T08:33:51Z</time>
      </trkpt>
      <trkpt lat="46.63723" lon="6.07077">
        <ele>1047.49</ele>
        <time>2012-06-01T08:33:52Z</time>
      </trkpt>
      <trkpt lat="46.63732" lon="6.07079">
        <ele>1047.97</ele>
        <time>2012-06-01T08:33:53Z</time>
      </trkpt>
      <trkpt lat="46.6374" lon="6.07082">
        <ele>1045.57</ele>
        <time>2012-06-01T08:33:54Z</time>
      </trkpt>
      <trkpt lat="46.63747" lon="6.07085">
        <ele>1046.05</ele>
        <time>2012-06-01T08:33:55Z</time>
      </trkpt>
      <trkpt lat="46.63754" lon="6.07089">
        <ele>1044.61</ele>
        <time>2012-06-01T08:33:56Z</time>
      </trkpt>
      <trkpt lat="46.6376" lon="6.07098">
        <ele>1044.61</ele>
        <time>2012-06-01T08:33:57Z</time>
      </trkpt>
      <trkpt lat="46.63767" lon="6.07104">
        <ele>1044.13</ele>
        <time>2012-06-01T08:33:58Z</time>
      </trkpt>
      <trkpt lat="46.63774" lon="6.07111">
        <ele>1044.13</ele>
        <time>2012-06-01T08:33:59Z</time>
      </trkpt>
      <trkpt lat="46.6378" lon="6.07118">
        <ele>1043.65</ele>
        <time>2012-06-01T08:34:00Z</time>
      </trkpt>
      <trkpt lat="46.63785" lon="6.07128">
        <ele>1042.69</ele>
        <time>2012-06-01T08:34:01Z</time>
      </trkpt>
      <trkpt lat="46.63789" lon="6.0714">
        <ele>1042.21</ele>
        <time>2012-06-01T08:34:02Z</time>
      </trkpt>
      <trkpt lat="46.63792" lon="6.07154">
        <ele>1041.25</ele>
        <time>2012-06-01T08:34:03Z</time>
      </trkpt>
      <trkpt lat="46.63796" lon="6.07169">
        <ele>1041.25</ele>
        <time>2012-06-01T08:34:04Z</time>
      </trkpt>
      <trkpt lat="46.638" lon="6.07183">
        <ele>1040.76</ele>
        <time>2012-06-01T08:34:05Z</time>
      </trkpt>
      <trkpt lat="46.63805" lon="6.07195">
        <ele>1040.28</ele>
        <time>2012-06-01T08:34:06Z</time>
      </trkpt>
      <trkpt lat="46.63811" lon="6.07207">
        <ele>1039.32</ele>
        <time>2012-06-01T08:34:07Z</time>
      </trkpt>
      <trkpt lat="46.63817" lon="6.07218">
        <ele>1039.8</ele>
        <time>2012-06-01T08:34:08Z</time>
      </trkpt>
      <trkpt lat="46.63822" lon="6.0723">
        <ele>1038.36</ele>
        <time>2012-06-01T08:34:09Z</time>
      </trkpt>
      <trkpt lat="46.6383" lon="6.07255">
        <ele>1037.4</ele>
        <time>2012-06-01T08:34:11Z</time>
      </trkpt>
      <trkpt lat="46.63831" lon="6.0727">
        <ele>1037.88</ele>
        <time>2012-06-01T08:34:12Z</time>
      </trkpt>
      <trkpt lat="46.63831" lon="6.07284">
        <ele>1036.44</ele>
        <time>2012-06-01T08:34:13Z</time>
      </trkpt>
      <trkpt lat="46.63829" lon="6.07298">
        <ele>1036.44</ele>
        <time>2012-06-01T08:34:14Z</time>
      </trkpt>
      <trkpt lat="46.63826" lon="6.07311">
        <ele>1035.48</ele>
        <time>2012-06-01T08:34:15Z</time>
      </trkpt>
      <trkpt lat="46.63822" lon="6.07325">
        <ele>1034.52</ele>
        <time>2012-06-01T08:34:16Z</time>
      </trkpt>
      <trkpt lat="46.63821" lon="6.07339">
        <ele>1034.04</ele>
        <time>2012-06-01T08:34:17Z</time>
      </trkpt>
      <trkpt lat="46.6382" lon="6.07353">
        <ele>1033.07</ele>
        <time>2012-06-01T08:34:18Z</time>
      </trkpt>
      <trkpt lat="46.63821" lon="6.07368">
        <ele>1032.59</ele>
        <time>2012-06-01T08:34:19Z</time>
      </trkpt>
      <trkpt lat="46.63824" lon="6.0738">
        <ele>1032.11</ele>
        <time>2012-06-01T08:34:20Z</time>
      </trkpt>
      <trkpt lat="46.63828" lon="6.07391">
        <ele>1031.15</ele>
        <time>2012-06-01T08:34:21Z</time>
      </trkpt>
      <trkpt lat="46.63833" lon="6.07404">
        <ele>1030.67</ele>
        <time>2012-06-01T08:34:22Z</time>
      </trkpt>
      <trkpt lat="46.63837" lon="6.07418">
        <ele>1030.19</ele>
        <time>2012-06-01T08:34:23Z</time>
      </trkpt>
      <trkpt lat="46.63853" lon="6.07471">
        <ele>1027.31</ele>
        <time>2012-06-01T08:34:27Z</time>
      </trkpt>
      <trkpt lat="46.63859" lon="6.07483">
        <ele>1026.34</ele>
        <time>2012-06-01T08:34:28Z</time>
      </trkpt>
      <trkpt lat="46.63867" lon="6.07494">
        <ele>1026.34</ele>
        <time>2012-06-01T08:34:29Z</time>
      </trkpt>
      <trkpt lat="46.63875" lon="6.07504">
        <ele>1026.83</ele>
        <time>2012-06-01T08:34:30Z</time>
      </trkpt>
      <trkpt lat="46.63884" lon="6.07511">
        <ele>1026.34</ele>
        <time>2012-06-01T08:34:31Z</time>
      </trkpt>
      <trkpt lat="46.63893" lon="6.07514">
        <ele>1025.86</ele>
        <time>2012-06-01T08:34:32Z</time>
      </trkpt>
      <trkpt lat="46.63903" lon="6.07514">
        <ele>1025.86</ele>
        <time>2012-06-01T08:34:33Z</time>
      </trkpt>
      <trkpt lat="46.6391" lon="6.0751">
        <ele>1025.86</ele>
        <time>2012-06-01T08:34:34Z</time>
      </trkpt>
      <trkpt lat="46.63916" lon="6.07505">
        <ele>1026.34</ele>
        <time>2012-06-01T08:34:35Z</time>
      </trkpt>
      <trkpt lat="46.63922" lon="6.075">
        <ele>1026.83</ele>
        <time>2012-06-01T08:34:36Z</time>
      </trkpt>
      <trkpt lat="46.63926" lon="6.07494">
        <ele>1027.79</ele>
        <time>2012-06-01T08:34:37Z</time>
      </trkpt>
      <trkpt lat="46.63938" lon="6.07481">
        <ele>1027.31</ele>
        <time>2012-06-01T08:34:40Z</time>
      </trkpt>
      <trkpt lat="46.63942" lon="6.07478">
        <ele>1027.31</ele>
        <time>2012-06-01T08:34:41Z</time>
      </trkpt>
      <trkpt lat="46.6396" lon="6.0747">
        <ele>1026.34</ele>
        <time>2012-06-01T08:34:45Z</time>
      </trkpt>
      <trkpt lat="46.63965" lon="6.07471">
        <ele>1026.83</ele>
        <time>2012-06-01T08:34:46Z</time>
      </trkpt>
      <trkpt lat="46.63969" lon="6.07472">
        <ele>1026.34</ele>
        <time>2012-06-01T08:34:47Z</time>
      </trkpt>
      <trkpt lat="46.63974" lon="6.07475">
        <ele>1026.83</ele>
        <time>2012-06-01T08:34:48Z</time>
      </trkpt>
      <trkpt lat="46.63978" lon="6.07477">
        <ele>1026.34</ele>
        <time>2012-06-01T08:34:49Z</time>
      </trkpt>
      <trkpt lat="46.63982" lon="6.07479">
        <ele>1026.34</ele>
        <time>2012-06-01T08:34:50Z</time>
      </trkpt>
      <trkpt lat="46.63986" lon="6.07482">
        <ele>1026.83</ele>
        <time>2012-06-01T08:34:51Z</time>
      </trkpt>
      <trkpt lat="46.64012" lon="6.07499">
        <ele>1026.83</ele>
        <time>2012-06-01T08:34:59Z</time>
      </trkpt>
      <trkpt lat="46.64039" lon="6.07524">
        <ele>1026.34</ele>
        <time>2012-06-01T08:35:06Z</time>
      </trkpt>
      <trkpt lat="46.64044" lon="6.07528">
        <ele>1026.34</ele>
        <time>2012-06-01T08:35:07Z</time>
      </trkpt>
      <trkpt lat="46.64048" lon="6.07532">
        <ele>1026.34</ele>
        <time>2012-06-01T08:35:08Z</time>
      </trkpt>
      <trkpt lat="46.64053" lon="6.07536">
        <ele>1025.86</ele>
        <time>2012-06-01T08:35:09Z</time>
      </trkpt>
      <trkpt lat="46.64058" lon="6.07541">
        <ele>1025.38</ele>
        <time>2012-06-01T08:35:10Z</time>
      </trkpt>
      <trkpt lat="46.6409" lon="6.07573">
        <ele>1025.38</ele>
        <time>2012-06-01T08:35:17Z</time>
      </trkpt>
      <trkpt lat="46.64098" lon="6.0758">
        <ele>1025.38</ele>
        <time>2012-06-01T08:35:19Z</time>
      </trkpt>
      <trkpt lat="46.64106" lon="6.07589">
        <ele>1024.9</ele>
        <time>2012-06-01T08:35:21Z</time>
      </trkpt>
      <trkpt lat="46.64143" lon="6.07629">
        <ele>1024.42</ele>
        <time>2012-06-01T08:35:30Z</time>
      </trkpt>
      <trkpt lat="46.64148" lon="6.07635">
        <ele>1024.9</ele>
        <time>2012-06-01T08:35:31Z</time>
      </trkpt>
      <trkpt lat="46.64192" lon="6.07712">
        <ele>1024.42</ele>
        <time>2012-06-01T08:35:43Z</time>
      </trkpt>
      <trkpt lat="46.64195" lon="6.0772">
        <ele>1023.94</ele>
        <time>2012-06-01T08:35:44Z</time>
      </trkpt>
      <trkpt lat="46.64197" lon="6.07727">
        <ele>1023.94</ele>
        <time>2012-06-01T08:35:45Z</time>
      </trkpt>
      <trkpt lat="46.642" lon="6.07735">
        <ele>1023.94</ele>
        <time>2012-06-01T08:35:46Z</time>
      </trkpt>
      <trkpt lat="46.64203" lon="6.07742">
        <ele>1024.42</ele>
        <time>2012-06-01T08:35:47Z</time>
      </trkpt>
      <trkpt lat="46.64205" lon="6.07749">
        <ele>1024.42</ele>
        <time>2012-06-01T08:35:48Z</time>
      </trkpt>
      <trkpt lat="46.64208" lon="6.07756">
        <ele>1024.42</ele>
        <time>2012-06-01T08:35:49Z</time>
      </trkpt>
      <trkpt lat="46.64215" lon="6.07769">
        <ele>1024.42</ele>
        <time>2012-06-01T08:35:51Z</time>
      </trkpt>
      <trkpt lat="46.64219" lon="6.07774">
        <ele>1023.46</ele>
        <time>2012-06-01T08:35:52Z</time>
      </trkpt>
      <trkpt lat="46.64227" lon="6.07787">
        <ele>1024.42</ele>
        <time>2012-06-01T08:35:54Z</time>
      </trkpt>
      <trkpt lat="46.64234" lon="6.078">
        <ele>1024.42</ele>
        <time>2012-06-01T08:35:56Z</time>
      </trkpt>
      <trkpt lat="46.64237" lon="6.07807">
        <ele>1024.42</ele>
        <time>2012-06-01T08:35:57Z</time>
      </trkpt>
      <trkpt lat="46.64239" lon="6.07815">
        <ele>1023.94</ele>
        <time>2012-06-01T08:35:58Z</time>
      </trkpt>
      <trkpt lat="46.64243" lon="6.07829">
        <ele>1023.94</ele>
        <time>2012-06-01T08:36:00Z</time>
      </trkpt>
      <trkpt lat="46.64245" lon="6.07836">
        <ele>1024.42</ele>
        <time>2012-06-01T08:36:01Z</time>
      </trkpt>
      <trkpt lat="46.6425" lon="6.0785">
        <ele>1023.46</ele>
        <time>2012-06-01T08:36:03Z</time>
      </trkpt>
      <trkpt lat="46.64261" lon="6.07875">
        <ele>1023.94</ele>
        <time>2012-06-01T08:36:07Z</time>
      </trkpt>
      <trkpt lat="46.64264" lon="6.07881">
        <ele>1023.94</ele>
        <time>2012-06-01T08:36:08Z</time>
      </trkpt>
      <trkpt lat="46.64267" lon="6.07886">
        <ele>1024.42</ele>
        <time>2012-06-01T08:36:09Z</time>
      </trkpt>
      <trkpt lat="46.64302" lon="6.07931">
        <ele>1023.46</ele>
        <time>2012-06-01T08:36:18Z</time>
      </trkpt>
      <trkpt lat="46.64306" lon="6.07936">
        <ele>1023.94</ele>
        <time>2012-06-01T08:36:19Z</time>
      </trkpt>
      <trkpt lat="46.64331" lon="6.07973">
        <ele>1023.46</ele>
        <time>2012-06-01T08:36:26Z</time>
      </trkpt>
      <trkpt lat="46.64337" lon="6.07986">
        <ele>1023.46</ele>
        <time>2012-06-01T08:36:28Z</time>
      </trkpt>
      <trkpt lat="46.6434" lon="6.07992">
        <ele>1022.5</ele>
        <time>2012-06-01T08:36:29Z</time>
      </trkpt>
      <trkpt lat="46.64343" lon="6.07998">
        <ele>1022.98</ele>
        <time>2012-06-01T08:36:30Z</time>
      </trkpt>
      <trkpt lat="46.64347" lon="6.08004">
        <ele>1022.98</ele>
        <time>2012-06-01T08:36:31Z</time>
      </trkpt>
      <trkpt lat="46.6435" lon="6.08009">
        <ele>1022.5</ele>
        <time>2012-06-01T08:36:32Z</time>
      </trkpt>
      <trkpt lat="46.64353" lon="6.08016">
        <ele>1022.98</ele>
        <time>2012-06-01T08:36:33Z</time>
      </trkpt>
      <trkpt lat="46.64399" lon="6.08087">
        <ele>1022.5</ele>
        <time>2012-06-01T08:36:45Z</time>
      </trkpt>
      <trkpt lat="46.64419" lon="6.08106">
        <ele>1022.5</ele>
        <time>2012-06-01T08:36:49Z</time>
      </trkpt>
      <trkpt lat="46.64424" lon="6.0811">
        <ele>1022.5</ele>
        <time>2012-06-01T08:36:50Z</time>
      </trkpt>
      <trkpt lat="46.64492" lon="6.08159">
        <ele>1021.06</ele>
        <time>2012-06-01T08:37:05Z</time>
      </trkpt>
      <trkpt lat="46.64497" lon="6.08162">
        <ele>1022.02</ele>
        <time>2012-06-01T08:37:06Z</time>
      </trkpt>
      <trkpt lat="46.64502" lon="6.08165">
        <ele>1021.54</ele>
        <time>2012-06-01T08:37:07Z</time>
      </trkpt>
      <trkpt lat="46.64506" lon="6.08168">
        <ele>1022.02</ele>
        <time>2012-06-01T08:37:08Z</time>
      </trkpt>
      <trkpt lat="46.6451" lon="6.08171">
        <ele>1021.06</ele>
        <time>2012-06-01T08:37:09Z</time>
      </trkpt>
      <trkpt lat="46.64538" lon="6.08183">
        <ele>1021.54</ele>
        <time>2012-06-01T08:37:17Z</time>
      </trkpt>
      <trkpt lat="46.64539" lon="6.08189">
        <ele>1022.98</ele>
        <time>2012-06-01T08:37:26Z</time>
      </trkpt>
      <trkpt lat="46.6454" lon="6.08197">
        <ele>1023.46</ele>
        <time>2012-06-01T08:37:37Z</time>
      </trkpt>
      <trkpt lat="46.64541" lon="6.08199">
        <ele>1023.46</ele>
        <time>2012-06-01T08:37:40Z</time>
      </trkpt>
      <trkpt lat="46.64542" lon="6.08201">
        <ele>1023.46</ele>
        <time>2012-06-01T08:37:41Z</time>
      </trkpt>
      <trkpt lat="46.64543" lon="6.08202">
        <ele>1023.46</ele>
        <time>2012-06-01T08:37:42Z</time>
      </trkpt>
      <trkpt lat="46.64544" lon="6.08204">
        <ele>1023.46</ele>
        <time>2012-06-01T08:37:43Z</time>
      </trkpt>
      <trkpt lat="46.64545" lon="6.08206">
        <ele>1023.46</ele>
        <time>2012-06-01T08:37:44Z</time>
      </trkpt>
      <trkpt lat="46.64547" lon="6.08207">
        <ele>1023.94</ele>
        <time>2012-06-01T08:37:45Z</time>
      </trkpt>
      <trkpt lat="46.64548" lon="6.08209">
        <ele>1023.94</ele>
        <time>2012-06-01T08:37:46Z</time>
      </trkpt>
      <trkpt lat="46.6455" lon="6.08211">
        <ele>1023.94</ele>
        <time>2012-06-01T08:37:47Z</time>
      </trkpt>
      <trkpt lat="46.64551" lon="6.08213">
        <ele>1024.42</ele>
        <time>2012-06-01T08:37:48Z</time>
      </trkpt>
      <trkpt lat="46.64553" lon="6.08216">
        <ele>1024.9</ele>
        <time>2012-06-01T08:37:49Z</time>
      </trkpt>
      <trkpt lat="46.64554" lon="6.08218">
        <ele>1025.86</ele>
        <time>2012-06-01T08:37:50Z</time>
      </trkpt>
      <trkpt lat="46.64556" lon="6.0822">
        <ele>1025.86</ele>
        <time>2012-06-01T08:37:51Z</time>
      </trkpt>
      <trkpt lat="46.64581" lon="6.08258">
        <ele>1027.31</ele>
        <time>2012-06-01T08:38:07Z</time>
      </trkpt>
      <trkpt lat="46.646" lon="6.08284">
        <ele>1029.23</ele>
        <time>2012-06-01T08:38:18Z</time>
      </trkpt>
      <trkpt lat="46.64639" lon="6.08322">
        <ele>1028.75</ele>
        <time>2012-06-01T08:38:31Z</time>
      </trkpt>
      <trkpt lat="46.64674" lon="6.08363">
        <ele>1027.79</ele>
        <time>2012-06-01T08:38:43Z</time>
      </trkpt>
      <trkpt lat="46.64712" lon="6.08416">
        <ele>1026.83</ele>
        <time>2012-06-01T08:38:55Z</time>
      </trkpt>
      <trkpt lat="46.64728" lon="6.08425">
        <ele>1025.86</ele>
        <time>2012-06-01T08:38:59Z</time>
      </trkpt>
      <trkpt lat="46.64738" lon="6.08433">
        <ele>1024.42</ele>
        <time>2012-06-01T08:39:01Z</time>
      </trkpt>
      <trkpt lat="46.64782" lon="6.08483">
        <ele>1020.58</ele>
        <time>2012-06-01T08:39:09Z</time>
      </trkpt>
      <trkpt lat="46.64788" lon="6.0849">
        <ele>1020.58</ele>
        <time>2012-06-01T08:39:10Z</time>
      </trkpt>
      <trkpt lat="46.64804" lon="6.08514">
        <ele>1019.13</ele>
        <time>2012-06-01T08:39:13Z</time>
      </trkpt>
      <trkpt lat="46.64809" lon="6.08522">
        <ele>1019.62</ele>
        <time>2012-06-01T08:39:14Z</time>
      </trkpt>
      <trkpt lat="46.64814" lon="6.0853">
        <ele>1018.17</ele>
        <time>2012-06-01T08:39:15Z</time>
      </trkpt>
      <trkpt lat="46.64821" lon="6.08536">
        <ele>1018.65</ele>
        <time>2012-06-01T08:39:16Z</time>
      </trkpt>
      <trkpt lat="46.64829" lon="6.08539">
        <ele>1017.21</ele>
        <time>2012-06-01T08:39:17Z</time>
      </trkpt>
      <trkpt lat="46.64836" lon="6.08542">
        <ele>1017.21</ele>
        <time>2012-06-01T08:39:18Z</time>
      </trkpt>
      <trkpt lat="46.64843" lon="6.08546">
        <ele>1017.69</ele>
        <time>2012-06-01T08:39:19Z</time>
      </trkpt>
      <trkpt lat="46.64873" lon="6.08564">
        <ele>1013.85</ele>
        <time>2012-06-01T08:39:26Z</time>
      </trkpt>
      <trkpt lat="46.64881" lon="6.08567">
        <ele>1014.81</ele>
        <time>2012-06-01T08:39:35Z</time>
      </trkpt>
      <trkpt lat="46.64883" lon="6.08567">
        <ele>1013.37</ele>
        <time>2012-06-01T08:39:36Z</time>
      </trkpt>
      <trkpt lat="46.64884" lon="6.08567">
        <ele>1014.33</ele>
        <time>2012-06-01T08:39:37Z</time>
      </trkpt>
      <trkpt lat="46.64906" lon="6.08544">
        <ele>1012.89</ele>
        <time>2012-06-01T08:39:48Z</time>
      </trkpt>
      <trkpt lat="46.64912" lon="6.08539">
        <ele>1012.41</ele>
        <time>2012-06-01T08:39:50Z</time>
      </trkpt>
      <trkpt lat="46.64916" lon="6.08537">
        <ele>1012.41</ele>
        <time>2012-06-01T08:39:51Z</time>
      </trkpt>
      <trkpt lat="46.64927" lon="6.08531">
        <ele>1012.89</ele>
        <time>2012-06-01T08:39:58Z</time>
      </trkpt>
      <trkpt lat="46.64924" lon="6.08526">
        <ele>1012.41</ele>
        <time>2012-06-01T08:40:02Z</time>
      </trkpt>
      <trkpt lat="46.64925" lon="6.08522">
        <ele>1012.89</ele>
        <time>2012-06-01T08:40:06Z</time>
      </trkpt>
      <trkpt lat="46.64927" lon="6.0852">
        <ele>1012.41</ele>
        <time>2012-06-01T08:40:10Z</time>
      </trkpt>
      <trkpt lat="46.64934" lon="6.08515">
        <ele>1012.89</ele>
        <time>2012-06-01T08:40:15Z</time>
      </trkpt>
      <trkpt lat="46.64953" lon="6.08507">
        <ele>1016.25</ele>
        <time>2012-06-01T08:40:24Z</time>
      </trkpt>
      <trkpt lat="46.64963" lon="6.08503">
        <ele>1017.21</ele>
        <time>2012-06-01T08:40:30Z</time>
      </trkpt>
      <trkpt lat="46.64972" lon="6.08516">
        <ele>1018.17</ele>
        <time>2012-06-01T08:40:37Z</time>
      </trkpt>
      <trkpt lat="46.64983" lon="6.08554">
        <ele>1019.13</ele>
        <time>2012-06-01T08:40:49Z</time>
      </trkpt>
      <trkpt lat="46.64994" lon="6.08598">
        <ele>1020.58</ele>
        <time>2012-06-01T08:41:00Z</time>
      </trkpt>
      <trkpt lat="46.65007" lon="6.08637">
        <ele>1021.06</ele>
        <time>2012-06-01T08:41:11Z</time>
      </trkpt>
      <trkpt lat="46.65022" lon="6.08673">
        <ele>1021.06</ele>
        <time>2012-06-01T08:41:21Z</time>
      </trkpt>
      <trkpt lat="46.65026" lon="6.08699">
        <ele>1020.58</ele>
        <time>2012-06-01T08:41:31Z</time>
      </trkpt>
      <trkpt lat="46.65027" lon="6.08702">
        <ele>1020.58</ele>
        <time>2012-06-01T08:41:49Z</time>
      </trkpt>
      <trkpt lat="46.65027" lon="6.08702">
        <ele>1020.1</ele>
        <time>2012-06-01T08:41:55Z</time>
      </trkpt>
      <trkpt lat="46.65044" lon="6.08726">
        <ele>1018.65</ele>
        <time>2012-06-01T08:42:03Z</time>
      </trkpt>
      <trkpt lat="46.65048" lon="6.08726">
        <ele>1018.17</ele>
        <time>2012-06-01T08:42:04Z</time>
      </trkpt>
      <trkpt lat="46.65053" lon="6.08725">
        <ele>1017.21</ele>
        <time>2012-06-01T08:42:05Z</time>
      </trkpt>
      <trkpt lat="46.65058" lon="6.08722">
        <ele>1017.21</ele>
        <time>2012-06-01T08:42:06Z</time>
      </trkpt>
      <trkpt lat="46.65063" lon="6.08719">
        <ele>1016.73</ele>
        <time>2012-06-01T08:42:07Z</time>
      </trkpt>
      <trkpt lat="46.65067" lon="6.08714">
        <ele>1016.25</ele>
        <time>2012-06-01T08:42:08Z</time>
      </trkpt>
      <trkpt lat="46.6507" lon="6.08708">
        <ele>1014.81</ele>
        <time>2012-06-01T08:42:09Z</time>
      </trkpt>
      <trkpt lat="46.65072" lon="6.08701">
        <ele>1014.81</ele>
        <time>2012-06-01T08:42:10Z</time>
      </trkpt>
      <trkpt lat="46.65073" lon="6.08695">
        <ele>1014.81</ele>
        <time>2012-06-01T08:42:11Z</time>
      </trkpt>
      <trkpt lat="46.65075" lon="6.08688">
        <ele>1014.33</ele>
        <time>2012-06-01T08:42:12Z</time>
      </trkpt>
      <trkpt lat="46.65078" lon="6.08668">
        <ele>1014.33</ele>
        <time>2012-06-01T08:42:15Z</time>
      </trkpt>
      <trkpt lat="46.65079" lon="6.0866">
        <ele>1014.33</ele>
        <time>2012-06-01T08:42:16Z</time>
      </trkpt>
      <trkpt lat="46.6508" lon="6.08653">
        <ele>1013.85</ele>
        <time>2012-06-01T08:42:17Z</time>
      </trkpt>
      <trkpt lat="46.65083" lon="6.08645">
        <ele>1013.37</ele>
        <time>2012-06-01T08:42:18Z</time>
      </trkpt>
      <trkpt lat="46.65086" lon="6.08638">
        <ele>1012.89</ele>
        <time>2012-06-01T08:42:19Z</time>
      </trkpt>
      <trkpt lat="46.6509" lon="6.0863">
        <ele>1011.93</ele>
        <time>2012-06-01T08:42:20Z</time>
      </trkpt>
      <trkpt lat="46.65093" lon="6.08624">
        <ele>1011.93</ele>
        <time>2012-06-01T08:42:21Z</time>
      </trkpt>
      <trkpt lat="46.65097" lon="6.08619">
        <ele>1011.44</ele>
        <time>2012-06-01T08:42:22Z</time>
      </trkpt>
      <trkpt lat="46.65101" lon="6.08614">
        <ele>1011.93</ele>
        <time>2012-06-01T08:42:23Z</time>
      </trkpt>
      <trkpt lat="46.6513" lon="6.08575">
        <ele>1014.33</ele>
        <time>2012-06-01T08:42:30Z</time>
      </trkpt>
      <trkpt lat="46.65134" lon="6.0857">
        <ele>1015.29</ele>
        <time>2012-06-01T08:42:31Z</time>
      </trkpt>
      <trkpt lat="46.65137" lon="6.08565">
        <ele>1015.29</ele>
        <time>2012-06-01T08:42:32Z</time>
      </trkpt>
      <trkpt lat="46.65141" lon="6.08561">
        <ele>1015.77</ele>
        <time>2012-06-01T08:42:33Z</time>
      </trkpt>
      <trkpt lat="46.65144" lon="6.08556">
        <ele>1015.77</ele>
        <time>2012-06-01T08:42:34Z</time>
      </trkpt>
      <trkpt lat="46.65151" lon="6.08548">
        <ele>1017.21</ele>
        <time>2012-06-01T08:42:36Z</time>
      </trkpt>
      <trkpt lat="46.65161" lon="6.08529">
        <ele>1019.62</ele>
        <time>2012-06-01T08:42:41Z</time>
      </trkpt>
      <trkpt lat="46.65162" lon="6.08527">
        <ele>1018.65</ele>
        <time>2012-06-01T08:42:42Z</time>
      </trkpt>
      <trkpt lat="46.65163" lon="6.08525">
        <ele>1019.13</ele>
        <time>2012-06-01T08:42:43Z</time>
      </trkpt>
      <trkpt lat="46.65164" lon="6.08524">
        <ele>1019.13</ele>
        <time>2012-06-01T08:42:44Z</time>
      </trkpt>
      <trkpt lat="46.65165" lon="6.08523">
        <ele>1019.62</ele>
        <time>2012-06-01T08:42:45Z</time>
      </trkpt>
      <trkpt lat="46.65166" lon="6.08522">
        <ele>1019.62</ele>
        <time>2012-06-01T08:42:46Z</time>
      </trkpt>
      <trkpt lat="46.65167" lon="6.0852">
        <ele>1019.62</ele>
        <time>2012-06-01T08:42:47Z</time>
      </trkpt>
      <trkpt lat="46.65169" lon="6.08517">
        <ele>1019.62</ele>
        <time>2012-06-01T08:42:50Z</time>
      </trkpt>
      <trkpt lat="46.65169" lon="6.08515">
        <ele>1020.1</ele>
        <time>2012-06-01T08:42:51Z</time>
      </trkpt>
      <trkpt lat="46.6517" lon="6.08516">
        <ele>1019.62</ele>
        <time>2012-06-01T08:42:57Z</time>
      </trkpt>
      <trkpt lat="46.65175" lon="6.08508">
        <ele>1019.13</ele>
        <time>2012-06-01T08:43:02Z</time>
      </trkpt>
      <trkpt lat="46.65192" lon="6.08476">
        <ele>1018.17</ele>
        <time>2012-06-01T08:43:12Z</time>
      </trkpt>
      <trkpt lat="46.65195" lon="6.08472">
        <ele>1017.69</ele>
        <time>2012-06-01T08:43:13Z</time>
      </trkpt>
      <trkpt lat="46.65198" lon="6.08466">
        <ele>1017.21</ele>
        <time>2012-06-01T08:43:14Z</time>
      </trkpt>
      <trkpt lat="46.65205" lon="6.08456">
        <ele>1016.73</ele>
        <time>2012-06-01T08:43:16Z</time>
      </trkpt>
      <trkpt lat="46.65209" lon="6.08452">
        <ele>1015.77</ele>
        <time>2012-06-01T08:43:17Z</time>
      </trkpt>
      <trkpt lat="46.65215" lon="6.0845">
        <ele>1015.29</ele>
        <time>2012-06-01T08:43:18Z</time>
      </trkpt>
      <trkpt lat="46.6522" lon="6.08451">
        <ele>1014.81</ele>
        <time>2012-06-01T08:43:19Z</time>
      </trkpt>
      <trkpt lat="46.65226" lon="6.08456">
        <ele>1014.81</ele>
        <time>2012-06-01T08:43:20Z</time>
      </trkpt>
      <trkpt lat="46.6523" lon="6.08464">
        <ele>1013.85</ele>
        <time>2012-06-01T08:43:21Z</time>
      </trkpt>
      <trkpt lat="46.65233" lon="6.08474">
        <ele>1012.89</ele>
        <time>2012-06-01T08:43:22Z</time>
      </trkpt>
      <trkpt lat="46.65236" lon="6.08485">
        <ele>1012.41</ele>
        <time>2012-06-01T08:43:23Z</time>
      </trkpt>
      <trkpt lat="46.65238" lon="6.08496">
        <ele>1011.44</ele>
        <time>2012-06-01T08:43:24Z</time>
      </trkpt>
      <trkpt lat="46.65243" lon="6.0852">
        <ele>1010.96</ele>
        <time>2012-06-01T08:43:26Z</time>
      </trkpt>
      <trkpt lat="46.6526" lon="6.08582">
        <ele>1009.04</ele>
        <time>2012-06-01T08:43:31Z</time>
      </trkpt>
      <trkpt lat="46.65266" lon="6.08593">
        <ele>1008.08</ele>
        <time>2012-06-01T08:43:32Z</time>
      </trkpt>
      <trkpt lat="46.65273" lon="6.08601">
        <ele>1007.6</ele>
        <time>2012-06-01T08:43:33Z</time>
      </trkpt>
      <trkpt lat="46.6528" lon="6.08608">
        <ele>1008.08</ele>
        <time>2012-06-01T08:43:34Z</time>
      </trkpt>
      <trkpt lat="46.65288" lon="6.08614">
        <ele>1007.6</ele>
        <time>2012-06-01T08:43:35Z</time>
      </trkpt>
      <trkpt lat="46.65295" lon="6.08619">
        <ele>1008.08</ele>
        <time>2012-06-01T08:43:36Z</time>
      </trkpt>
      <trkpt lat="46.65302" lon="6.08622">
        <ele>1009.52</ele>
        <time>2012-06-01T08:43:37Z</time>
      </trkpt>
      <trkpt lat="46.65308" lon="6.08624">
        <ele>1009.04</ele>
        <time>2012-06-01T08:43:38Z</time>
      </trkpt>
      <trkpt lat="46.65314" lon="6.08624">
        <ele>1009.04</ele>
        <time>2012-06-01T08:43:39Z</time>
      </trkpt>
      <trkpt lat="46.65319" lon="6.08623">
        <ele>1009.52</ele>
        <time>2012-06-01T08:43:40Z</time>
      </trkpt>
      <trkpt lat="46.65323" lon="6.08622">
        <ele>1009.52</ele>
        <time>2012-06-01T08:43:41Z</time>
      </trkpt>
      <trkpt lat="46.65346" lon="6.08625">
        <ele>1013.37</ele>
        <time>2012-06-01T08:43:49Z</time>
      </trkpt>
      <trkpt lat="46.65349" lon="6.08627">
        <ele>1013.37</ele>
        <time>2012-06-01T08:43:50Z</time>
      </trkpt>
      <trkpt lat="46.6537" lon="6.08657">
        <ele>1016.73</ele>
        <time>2012-06-01T08:44:00Z</time>
      </trkpt>
      <trkpt lat="46.65385" lon="6.08704">
        <ele>1020.1</ele>
        <time>2012-06-01T08:44:13Z</time>
      </trkpt>
      <trkpt lat="46.65403" lon="6.08751">
        <ele>1022.5</ele>
        <time>2012-06-01T08:44:28Z</time>
      </trkpt>
      <trkpt lat="46.65421" lon="6.08795">
        <ele>1023.94</ele>
        <time>2012-06-01T08:44:43Z</time>
      </trkpt>
      <trkpt lat="46.65446" lon="6.08836">
        <ele>1026.34</ele>
        <time>2012-06-01T08:44:58Z</time>
      </trkpt>
      <trkpt lat="46.65471" lon="6.08876">
        <ele>1028.75</ele>
        <time>2012-06-01T08:45:13Z</time>
      </trkpt>
      <trkpt lat="46.65491" lon="6.0891">
        <ele>1030.67</ele>
        <time>2012-06-01T08:45:24Z</time>
      </trkpt>
      <trkpt lat="46.65513" lon="6.08948">
        <ele>1030.19</ele>
        <time>2012-06-01T08:45:34Z</time>
      </trkpt>
      <trkpt lat="46.65532" lon="6.08994">
        <ele>1031.15</ele>
        <time>2012-06-01T08:45:45Z</time>
      </trkpt>
      <trkpt lat="46.65554" lon="6.09033">
        <ele>1032.59</ele>
        <time>2012-06-01T08:46:00Z</time>
      </trkpt>
      <trkpt lat="46.65571" lon="6.09068">
        <ele>1033.07</ele>
        <time>2012-06-01T08:46:12Z</time>
      </trkpt>
      <trkpt lat="46.65583" lon="6.09091">
        <ele>1032.59</ele>
        <time>2012-06-01T08:46:17Z</time>
      </trkpt>
      <trkpt lat="46.65586" lon="6.09095">
        <ele>1032.11</ele>
        <time>2012-06-01T08:46:18Z</time>
      </trkpt>
      <trkpt lat="46.65589" lon="6.09099">
        <ele>1032.11</ele>
        <time>2012-06-01T08:46:19Z</time>
      </trkpt>
      <trkpt lat="46.65617" lon="6.09161">
        <ele>1030.67</ele>
        <time>2012-06-01T08:46:32Z</time>
      </trkpt>
      <trkpt lat="46.65637" lon="6.09205">
        <ele>1031.15</ele>
        <time>2012-06-01T08:46:41Z</time>
      </trkpt>
      <trkpt lat="46.6564" lon="6.0921">
        <ele>1031.63</ele>
        <time>2012-06-01T08:46:42Z</time>
      </trkpt>
      <trkpt lat="46.65678" lon="6.09249">
        <ele>1033.07</ele>
        <time>2012-06-01T08:46:56Z</time>
      </trkpt>
      <trkpt lat="46.65682" lon="6.09255">
        <ele>1034.04</ele>
        <time>2012-06-01T08:46:58Z</time>
      </trkpt>
      <trkpt lat="46.65707" lon="6.09302">
        <ele>1034.04</ele>
        <time>2012-06-01T08:47:11Z</time>
      </trkpt>
      <trkpt lat="46.65741" lon="6.09354">
        <ele>1033.55</ele>
        <time>2012-06-01T08:47:25Z</time>
      </trkpt>
      <trkpt lat="46.65774" lon="6.09416">
        <ele>1032.11</ele>
        <time>2012-06-01T08:47:37Z</time>
      </trkpt>
      <trkpt lat="46.658" lon="6.09459">
        <ele>1034.52</ele>
        <time>2012-06-01T08:47:46Z</time>
      </trkpt>
      <trkpt lat="46.65812" lon="6.09479">
        <ele>1035.48</ele>
        <time>2012-06-01T08:47:51Z</time>
      </trkpt>
      <trkpt lat="46.65817" lon="6.09489">
        <ele>1036.44</ele>
        <time>2012-06-01T08:47:53Z</time>
      </trkpt>
      <trkpt lat="46.6582" lon="6.09494">
        <ele>1036.44</ele>
        <time>2012-06-01T08:47:54Z</time>
      </trkpt>
      <trkpt lat="46.65826" lon="6.09503">
        <ele>1036.92</ele>
        <time>2012-06-01T08:47:56Z</time>
      </trkpt>
      <trkpt lat="46.65829" lon="6.09507">
        <ele>1037.88</ele>
        <time>2012-06-01T08:47:57Z</time>
      </trkpt>
      <trkpt lat="46.65831" lon="6.09511">
        <ele>1037.88</ele>
        <time>2012-06-01T08:47:58Z</time>
      </trkpt>
      <trkpt lat="46.65833" lon="6.09515">
        <ele>1037.88</ele>
        <time>2012-06-01T08:47:59Z</time>
      </trkpt>
      <trkpt lat="46.65834" lon="6.09519">
        <ele>1038.84</ele>
        <time>2012-06-01T08:48:00Z</time>
      </trkpt>
      <trkpt lat="46.65835" lon="6.09523">
        <ele>1038.36</ele>
        <time>2012-06-01T08:48:01Z</time>
      </trkpt>
      <trkpt lat="46.65837" lon="6.09527">
        <ele>1038.36</ele>
        <time>2012-06-01T08:48:02Z</time>
      </trkpt>
      <trkpt lat="46.65839" lon="6.09531">
        <ele>1038.84</ele>
        <time>2012-06-01T08:48:03Z</time>
      </trkpt>
      <trkpt lat="46.6584" lon="6.09534">
        <ele>1038.84</ele>
        <time>2012-06-01T08:48:04Z</time>
      </trkpt>
      <trkpt lat="46.65841" lon="6.09538">
        <ele>1038.36</ele>
        <time>2012-06-01T08:48:05Z</time>
      </trkpt>
      <trkpt lat="46.65843" lon="6.09541">
        <ele>1038.84</ele>
        <time>2012-06-01T08:48:06Z</time>
      </trkpt>
      <trkpt lat="46.65844" lon="6.09544">
        <ele>1038.84</ele>
        <time>2012-06-01T08:48:07Z</time>
      </trkpt>
      <trkpt lat="46.65846" lon="6.09547">
        <ele>1038.84</ele>
        <time>2012-06-01T08:48:08Z</time>
      </trkpt>
      <trkpt lat="46.6586" lon="6.09579">
        <ele>1040.28</ele>
        <time>2012-06-01T08:48:18Z</time>
      </trkpt>
      <trkpt lat="46.65888" lon="6.09618">
        <ele>1043.17</ele>
        <time>2012-06-01T08:48:34Z</time>
      </trkpt>
      <trkpt lat="46.65915" lon="6.09665">
        <ele>1043.65</ele>
        <time>2012-06-01T08:48:48Z</time>
      </trkpt>
      <trkpt lat="46.65941" lon="6.09718">
        <ele>1041.73</ele>
        <time>2012-06-01T08:48:58Z</time>
      </trkpt>
      <trkpt lat="46.65954" lon="6.09743">
        <ele>1040.76</ele>
        <time>2012-06-01T08:49:02Z</time>
      </trkpt>
      <trkpt lat="46.65958" lon="6.09747">
        <ele>1040.76</ele>
        <time>2012-06-01T08:49:03Z</time>
      </trkpt>
      <trkpt lat="46.65961" lon="6.0975">
        <ele>1040.28</ele>
        <time>2012-06-01T08:49:04Z</time>
      </trkpt>
      <trkpt lat="46.65965" lon="6.09753">
        <ele>1040.28</ele>
        <time>2012-06-01T08:49:05Z</time>
      </trkpt>
      <trkpt lat="46.65968" lon="6.09758">
        <ele>1040.76</ele>
        <time>2012-06-01T08:49:06Z</time>
      </trkpt>
      <trkpt lat="46.65978" lon="6.09779">
        <ele>1039.32</ele>
        <time>2012-06-01T08:49:10Z</time>
      </trkpt>
      <trkpt lat="46.65983" lon="6.09792">
        <ele>1039.8</ele>
        <time>2012-06-01T08:49:12Z</time>
      </trkpt>
      <trkpt lat="46.65986" lon="6.09798">
        <ele>1039.32</ele>
        <time>2012-06-01T08:49:13Z</time>
      </trkpt>
      <trkpt lat="46.65996" lon="6.09823">
        <ele>1037.4</ele>
        <time>2012-06-01T08:49:17Z</time>
      </trkpt>
      <trkpt lat="46.65999" lon="6.09829">
        <ele>1037.88</ele>
        <time>2012-06-01T08:49:18Z</time>
      </trkpt>
      <trkpt lat="46.66003" lon="6.09834">
        <ele>1038.36</ele>
        <time>2012-06-01T08:49:19Z</time>
      </trkpt>
      <trkpt lat="46.66006" lon="6.09838">
        <ele>1038.84</ele>
        <time>2012-06-01T08:49:20Z</time>
      </trkpt>
      <trkpt lat="46.66009" lon="6.09844">
        <ele>1037.88</ele>
        <time>2012-06-01T08:49:21Z</time>
      </trkpt>
      <trkpt lat="46.66011" lon="6.09849">
        <ele>1037.88</ele>
        <time>2012-06-01T08:49:22Z</time>
      </trkpt>
      <trkpt lat="46.66019" lon="6.09866">
        <ele>1036.92</ele>
        <time>2012-06-01T08:49:25Z</time>
      </trkpt>
      <trkpt lat="46.66034" lon="6.09904">
        <ele>1037.88</ele>
        <time>2012-06-01T08:49:31Z</time>
      </trkpt>
      <trkpt lat="46.66049" lon="6.09939">
        <ele>1037.4</ele>
        <time>2012-06-01T08:49:37Z</time>
      </trkpt>
      <trkpt lat="46.66051" lon="6.09946">
        <ele>1036.92</ele>
        <time>2012-06-01T08:49:38Z</time>
      </trkpt>
      <trkpt lat="46.66055" lon="6.09958">
        <ele>1036.44</ele>
        <time>2012-06-01T08:49:40Z</time>
      </trkpt>
      <trkpt lat="46.66057" lon="6.09964">
        <ele>1036.92</ele>
        <time>2012-06-01T08:49:41Z</time>
      </trkpt>
      <trkpt lat="46.66065" lon="6.10002">
        <ele>1035</ele>
        <time>2012-06-01T08:49:47Z</time>
      </trkpt>
      <trkpt lat="46.66067" lon="6.10008">
        <ele>1034.04</ele>
        <time>2012-06-01T08:49:48Z</time>
      </trkpt>
      <trkpt lat="46.66068" lon="6.10013">
        <ele>1033.55</ele>
        <time>2012-06-01T08:49:49Z</time>
      </trkpt>
      <trkpt lat="46.6607" lon="6.10026">
        <ele>1033.55</ele>
        <time>2012-06-01T08:49:51Z</time>
      </trkpt>
      <trkpt lat="46.66072" lon="6.10034">
        <ele>1032.11</ele>
        <time>2012-06-01T08:49:52Z</time>
      </trkpt>
      <trkpt lat="46.66077" lon="6.10053">
        <ele>1031.63</ele>
        <time>2012-06-01T08:49:54Z</time>
      </trkpt>
      <trkpt lat="46.66081" lon="6.10064">
        <ele>1031.15</ele>
        <time>2012-06-01T08:49:55Z</time>
      </trkpt>
      <trkpt lat="46.66085" lon="6.10078">
        <ele>1030.67</ele>
        <time>2012-06-01T08:49:56Z</time>
      </trkpt>
      <trkpt lat="46.66089" lon="6.10092">
        <ele>1029.71</ele>
        <time>2012-06-01T08:49:57Z</time>
      </trkpt>
      <trkpt lat="46.66092" lon="6.10105">
        <ele>1029.71</ele>
        <time>2012-06-01T08:49:58Z</time>
      </trkpt>
      <trkpt lat="46.66091" lon="6.10113">
        <ele>1029.71</ele>
        <time>2012-06-01T08:49:59Z</time>
      </trkpt>
      <trkpt lat="46.66089" lon="6.1012">
        <ele>1030.19</ele>
        <time>2012-06-01T08:50:00Z</time>
      </trkpt>
      <trkpt lat="46.66086" lon="6.10125">
        <ele>1029.71</ele>
        <time>2012-06-01T08:50:01Z</time>
      </trkpt>
      <trkpt lat="46.66085" lon="6.10129">
        <ele>1031.15</ele>
        <time>2012-06-01T08:50:02Z</time>
      </trkpt>
      <trkpt lat="46.66082" lon="6.10131">
        <ele>1031.15</ele>
        <time>2012-06-01T08:50:03Z</time>
      </trkpt>
      <trkpt lat="46.6608" lon="6.10135">
        <ele>1031.15</ele>
        <time>2012-06-01T08:50:04Z</time>
      </trkpt>
      <trkpt lat="46.66078" lon="6.10137">
        <ele>1031.15</ele>
        <time>2012-06-01T08:50:05Z</time>
      </trkpt>
      <trkpt lat="46.66047" lon="6.10155">
        <ele>1029.71</ele>
        <time>2012-06-01T08:50:16Z</time>
      </trkpt>
      <trkpt lat="46.66023" lon="6.10168">
        <ele>1029.71</ele>
        <time>2012-06-01T08:50:23Z</time>
      </trkpt>
      <trkpt lat="46.65988" lon="6.10188">
        <ele>1032.59</ele>
        <time>2012-06-01T08:50:34Z</time>
      </trkpt>
      <trkpt lat="46.65953" lon="6.10212">
        <ele>1032.59</ele>
        <time>2012-06-01T08:50:46Z</time>
      </trkpt>
      <trkpt lat="46.65907" lon="6.1022">
        <ele>1033.55</ele>
        <time>2012-06-01T08:50:59Z</time>
      </trkpt>
      <trkpt lat="46.65893" lon="6.10246">
        <ele>1035.48</ele>
        <time>2012-06-01T08:51:07Z</time>
      </trkpt>
      <trkpt lat="46.65893" lon="6.10251">
        <ele>1035.96</ele>
        <time>2012-06-01T08:51:09Z</time>
      </trkpt>
      <trkpt lat="46.65894" lon="6.10258">
        <ele>1037.4</ele>
        <time>2012-06-01T08:51:12Z</time>
      </trkpt>
      <trkpt lat="46.65895" lon="6.10276">
        <ele>1038.36</ele>
        <time>2012-06-01T08:51:17Z</time>
      </trkpt>
      <trkpt lat="46.65895" lon="6.1028">
        <ele>1039.8</ele>
        <time>2012-06-01T08:51:18Z</time>
      </trkpt>
      <trkpt lat="46.65907" lon="6.10312">
        <ele>1043.17</ele>
        <time>2012-06-01T08:51:27Z</time>
      </trkpt>
      <trkpt lat="46.65908" lon="6.10317">
        <ele>1042.69</ele>
        <time>2012-06-01T08:51:28Z</time>
      </trkpt>
      <trkpt lat="46.65917" lon="6.10344">
        <ele>1046.05</ele>
        <time>2012-06-01T08:51:35Z</time>
      </trkpt>
      <trkpt lat="46.65918" lon="6.10347">
        <ele>1045.57</ele>
        <time>2012-06-01T08:51:36Z</time>
      </trkpt>
      <trkpt lat="46.65918" lon="6.1035">
        <ele>1046.53</ele>
        <time>2012-06-01T08:51:37Z</time>
      </trkpt>
      <trkpt lat="46.6592" lon="6.10354">
        <ele>1046.05</ele>
        <time>2012-06-01T08:51:38Z</time>
      </trkpt>
      <trkpt lat="46.65921" lon="6.10358">
        <ele>1046.53</ele>
        <time>2012-06-01T08:51:39Z</time>
      </trkpt>
      <trkpt lat="46.65922" lon="6.10361">
        <ele>1046.53</ele>
        <time>2012-06-01T08:51:40Z</time>
      </trkpt>
      <trkpt lat="46.65923" lon="6.10364">
        <ele>1047.01</ele>
        <time>2012-06-01T08:51:41Z</time>
      </trkpt>
      <trkpt lat="46.65923" lon="6.10368">
        <ele>1047.49</ele>
        <time>2012-06-01T08:51:42Z</time>
      </trkpt>
      <trkpt lat="46.65924" lon="6.1037">
        <ele>1048.45</ele>
        <time>2012-06-01T08:51:43Z</time>
      </trkpt>
      <trkpt lat="46.65924" lon="6.10372">
        <ele>1048.94</ele>
        <time>2012-06-01T08:51:44Z</time>
      </trkpt>
      <trkpt lat="46.65927" lon="6.10397">
        <ele>1049.9</ele>
        <time>2012-06-01T08:51:54Z</time>
      </trkpt>
      <trkpt lat="46.65927" lon="6.10399">
        <ele>1049.42</ele>
        <time>2012-06-01T08:51:55Z</time>
      </trkpt>
      <trkpt lat="46.65927" lon="6.10401">
        <ele>1049.9</ele>
        <time>2012-06-01T08:51:56Z</time>
      </trkpt>
      <trkpt lat="46.65928" lon="6.10404">
        <ele>1049.9</ele>
        <time>2012-06-01T08:51:57Z</time>
      </trkpt>
      <trkpt lat="46.65928" lon="6.10406">
        <ele>1049.9</ele>
        <time>2012-06-01T08:51:58Z</time>
      </trkpt>
      <trkpt lat="46.65936" lon="6.10442">
        <ele>1052.3</ele>
        <time>2012-06-01T08:52:08Z</time>
      </trkpt>
      <trkpt lat="46.65937" lon="6.10465">
        <ele>1054.22</ele>
        <time>2012-06-01T08:52:14Z</time>
      </trkpt>
      <trkpt lat="46.65937" lon="6.10468">
        <ele>1054.7</ele>
        <time>2012-06-01T08:52:15Z</time>
      </trkpt>
      <trkpt lat="46.65937" lon="6.10471">
        <ele>1054.22</ele>
        <time>2012-06-01T08:52:16Z</time>
      </trkpt>
      <trkpt lat="46.65938" lon="6.10475">
        <ele>1054.22</ele>
        <time>2012-06-01T08:52:17Z</time>
      </trkpt>
      <trkpt lat="46.65939" lon="6.10478">
        <ele>1054.22</ele>
        <time>2012-06-01T08:52:18Z</time>
      </trkpt>
      <trkpt lat="46.6594" lon="6.10481">
        <ele>1054.7</ele>
        <time>2012-06-01T08:52:19Z</time>
      </trkpt>
      <trkpt lat="46.6594" lon="6.10487">
        <ele>1055.67</ele>
        <time>2012-06-01T08:52:21Z</time>
      </trkpt>
      <trkpt lat="46.6594" lon="6.10495">
        <ele>1056.63</ele>
        <time>2012-06-01T08:52:24Z</time>
      </trkpt>
      <trkpt lat="46.6594" lon="6.10498">
        <ele>1057.11</ele>
        <time>2012-06-01T08:52:25Z</time>
      </trkpt>
      <trkpt lat="46.6594" lon="6.10502">
        <ele>1056.15</ele>
        <time>2012-06-01T08:52:26Z</time>
      </trkpt>
      <trkpt lat="46.6594" lon="6.10505">
        <ele>1056.63</ele>
        <time>2012-06-01T08:52:27Z</time>
      </trkpt>
      <trkpt lat="46.65941" lon="6.10508">
        <ele>1058.07</ele>
        <time>2012-06-01T08:52:28Z</time>
      </trkpt>
      <trkpt lat="46.6594" lon="6.10511">
        <ele>1057.59</ele>
        <time>2012-06-01T08:52:29Z</time>
      </trkpt>
      <trkpt lat="46.6594" lon="6.10514">
        <ele>1057.11</ele>
        <time>2012-06-01T08:52:30Z</time>
      </trkpt>
      <trkpt lat="46.65935" lon="6.10538">
        <ele>1059.99</ele>
        <time>2012-06-01T08:52:38Z</time>
      </trkpt>
      <trkpt lat="46.65915" lon="6.10549">
        <ele>1061.91</ele>
        <time>2012-06-01T08:52:50Z</time>
      </trkpt>
      <trkpt lat="46.65879" lon="6.10545">
        <ele>1063.36</ele>
        <time>2012-06-01T08:53:07Z</time>
      </trkpt>
      <trkpt lat="46.65853" lon="6.10564">
        <ele>1066.24</ele>
        <time>2012-06-01T08:53:20Z</time>
      </trkpt>
      <trkpt lat="46.65851" lon="6.10565">
        <ele>1065.76</ele>
        <time>2012-06-01T08:53:21Z</time>
      </trkpt>
      <trkpt lat="46.65843" lon="6.10568">
        <ele>1066.24</ele>
        <time>2012-06-01T08:53:25Z</time>
      </trkpt>
      <trkpt lat="46.6583" lon="6.10572">
        <ele>1066.72</ele>
        <time>2012-06-01T08:53:38Z</time>
      </trkpt>
      <trkpt lat="46.65827" lon="6.10574">
        <ele>1066.72</ele>
        <time>2012-06-01T08:54:10Z</time>
      </trkpt>
      <trkpt lat="46.65828" lon="6.10576">
        <ele>1066.72</ele>
        <time>2012-06-01T08:54:36Z</time>
      </trkpt>
      <trkpt lat="46.65843" lon="6.10613">
        <ele>1066.24</ele>
        <time>2012-06-01T08:54:47Z</time>
      </trkpt>
      <trkpt lat="46.6586" lon="6.10655">
        <ele>1066.24</ele>
        <time>2012-06-01T08:54:57Z</time>
      </trkpt>
      <trkpt lat="46.65888" lon="6.10694">
        <ele>1067.68</ele>
        <time>2012-06-01T08:55:08Z</time>
      </trkpt>
      <trkpt lat="46.65901" lon="6.10724">
        <ele>1066.72</ele>
        <time>2012-06-01T08:55:15Z</time>
      </trkpt>
      <trkpt lat="46.65919" lon="6.10774">
        <ele>1064.8</ele>
        <time>2012-06-01T08:55:26Z</time>
      </trkpt>
      <trkpt lat="46.65943" lon="6.10833">
        <ele>1064.32</ele>
        <time>2012-06-01T08:55:37Z</time>
      </trkpt>
      <trkpt lat="46.65947" lon="6.10841">
        <ele>1064.32</ele>
        <time>2012-06-01T08:55:38Z</time>
      </trkpt>
      <trkpt lat="46.65951" lon="6.10847">
        <ele>1064.32</ele>
        <time>2012-06-01T08:55:39Z</time>
      </trkpt>
      <trkpt lat="46.65954" lon="6.10851">
        <ele>1065.28</ele>
        <time>2012-06-01T08:55:40Z</time>
      </trkpt>
      <trkpt lat="46.65956" lon="6.10856">
        <ele>1065.28</ele>
        <time>2012-06-01T08:55:41Z</time>
      </trkpt>
      <trkpt lat="46.65959" lon="6.10861">
        <ele>1065.76</ele>
        <time>2012-06-01T08:55:42Z</time>
      </trkpt>
      <trkpt lat="46.65963" lon="6.10869">
        <ele>1066.72</ele>
        <time>2012-06-01T08:55:44Z</time>
      </trkpt>
      <trkpt lat="46.65985" lon="6.10905">
        <ele>1068.16</ele>
        <time>2012-06-01T08:55:55Z</time>
      </trkpt>
      <trkpt lat="46.66005" lon="6.10939">
        <ele>1066.24</ele>
        <time>2012-06-01T08:56:04Z</time>
      </trkpt>
      <trkpt lat="46.66023" lon="6.10956">
        <ele>1065.28</ele>
        <time>2012-06-01T08:56:09Z</time>
      </trkpt>
      <trkpt lat="46.66055" lon="6.10993">
        <ele>1065.76</ele>
        <time>2012-06-01T08:56:20Z</time>
      </trkpt>
      <trkpt lat="46.66073" lon="6.11046">
        <ele>1063.36</ele>
        <time>2012-06-01T08:56:29Z</time>
      </trkpt>
      <trkpt lat="46.66076" lon="6.11053">
        <ele>1062.39</ele>
        <time>2012-06-01T08:56:30Z</time>
      </trkpt>
      <trkpt lat="46.66079" lon="6.11059">
        <ele>1062.87</ele>
        <time>2012-06-01T08:56:31Z</time>
      </trkpt>
      <trkpt lat="46.66086" lon="6.11072">
        <ele>1061.91</ele>
        <time>2012-06-01T08:56:33Z</time>
      </trkpt>
      <trkpt lat="46.66089" lon="6.11078">
        <ele>1061.91</ele>
        <time>2012-06-01T08:56:34Z</time>
      </trkpt>
      <trkpt lat="46.66092" lon="6.11084">
        <ele>1060.47</ele>
        <time>2012-06-01T08:56:35Z</time>
      </trkpt>
      <trkpt lat="46.66095" lon="6.11089">
        <ele>1060.47</ele>
        <time>2012-06-01T08:56:36Z</time>
      </trkpt>
      <trkpt lat="46.66121" lon="6.11137">
        <ele>1060.47</ele>
        <time>2012-06-01T08:56:45Z</time>
      </trkpt>
      <trkpt lat="46.66125" lon="6.11143">
        <ele>1059.51</ele>
        <time>2012-06-01T08:56:46Z</time>
      </trkpt>
      <trkpt lat="46.66129" lon="6.11149">
        <ele>1059.03</ele>
        <time>2012-06-01T08:56:47Z</time>
      </trkpt>
      <trkpt lat="46.66133" lon="6.11155">
        <ele>1059.03</ele>
        <time>2012-06-01T08:56:48Z</time>
      </trkpt>
      <trkpt lat="46.66137" lon="6.11162">
        <ele>1057.59</ele>
        <time>2012-06-01T08:56:49Z</time>
      </trkpt>
      <trkpt lat="46.66151" lon="6.11193">
        <ele>1055.67</ele>
        <time>2012-06-01T08:56:53Z</time>
      </trkpt>
      <trkpt lat="46.66154" lon="6.11203">
        <ele>1056.15</ele>
        <time>2012-06-01T08:56:54Z</time>
      </trkpt>
      <trkpt lat="46.66157" lon="6.11213">
        <ele>1055.67</ele>
        <time>2012-06-01T08:56:55Z</time>
      </trkpt>
      <trkpt lat="46.66162" lon="6.11232">
        <ele>1053.26</ele>
        <time>2012-06-01T08:56:57Z</time>
      </trkpt>
      <trkpt lat="46.6617" lon="6.11275">
        <ele>1050.86</ele>
        <time>2012-06-01T08:57:01Z</time>
      </trkpt>
      <trkpt lat="46.66177" lon="6.11308">
        <ele>1048.45</ele>
        <time>2012-06-01T08:57:04Z</time>
      </trkpt>
      <trkpt lat="46.6618" lon="6.11319">
        <ele>1047.97</ele>
        <time>2012-06-01T08:57:05Z</time>
      </trkpt>
      <trkpt lat="46.66183" lon="6.1133">
        <ele>1047.01</ele>
        <time>2012-06-01T08:57:06Z</time>
      </trkpt>
      <trkpt lat="46.66187" lon="6.11342">
        <ele>1046.05</ele>
        <time>2012-06-01T08:57:07Z</time>
      </trkpt>
      <trkpt lat="46.6619" lon="6.11354">
        <ele>1045.09</ele>
        <time>2012-06-01T08:57:08Z</time>
      </trkpt>
      <trkpt lat="46.66197" lon="6.11377">
        <ele>1044.13</ele>
        <time>2012-06-01T08:57:10Z</time>
      </trkpt>
      <trkpt lat="46.66208" lon="6.11421">
        <ele>1045.57</ele>
        <time>2012-06-01T08:57:15Z</time>
      </trkpt>
      <trkpt lat="46.66211" lon="6.11427">
        <ele>1045.57</ele>
        <time>2012-06-01T08:57:16Z</time>
      </trkpt>
      <trkpt lat="46.66221" lon="6.11458">
        <ele>1044.13</ele>
        <time>2012-06-01T08:57:25Z</time>
      </trkpt>
      <trkpt lat="46.66222" lon="6.11461">
        <ele>1044.61</ele>
        <time>2012-06-01T08:57:41Z</time>
      </trkpt>
      <trkpt lat="46.66221" lon="6.11466">
        <ele>1045.09</ele>
        <time>2012-06-01T08:57:46Z</time>
      </trkpt>
      <trkpt lat="46.6622" lon="6.11469">
        <ele>1045.09</ele>
        <time>2012-06-01T08:57:47Z</time>
      </trkpt>
      <trkpt lat="46.66217" lon="6.1148">
        <ele>1046.53</ele>
        <time>2012-06-01T08:57:52Z</time>
      </trkpt>
      <trkpt lat="46.66217" lon="6.11482">
        <ele>1047.01</ele>
        <time>2012-06-01T08:57:53Z</time>
      </trkpt>
      <trkpt lat="46.66217" lon="6.11484">
        <ele>1047.97</ele>
        <time>2012-06-01T08:57:54Z</time>
      </trkpt>
      <trkpt lat="46.66219" lon="6.11499">
        <ele>1049.9</ele>
        <time>2012-06-01T08:58:03Z</time>
      </trkpt>
      <trkpt lat="46.6622" lon="6.11501">
        <ele>1049.9</ele>
        <time>2012-06-01T08:58:04Z</time>
      </trkpt>
      <trkpt lat="46.66221" lon="6.11503">
        <ele>1049.9</ele>
        <time>2012-06-01T08:58:05Z</time>
      </trkpt>
      <trkpt lat="46.66222" lon="6.11519">
        <ele>1051.82</ele>
        <time>2012-06-01T08:58:12Z</time>
      </trkpt>
      <trkpt lat="46.66221" lon="6.1152">
        <ele>1051.82</ele>
        <time>2012-06-01T08:58:13Z</time>
      </trkpt>
      <trkpt lat="46.66211" lon="6.1155">
        <ele>1054.7</ele>
        <time>2012-06-01T08:58:27Z</time>
      </trkpt>
      <trkpt lat="46.6621" lon="6.11554">
        <ele>1054.7</ele>
        <time>2012-06-01T08:58:29Z</time>
      </trkpt>
      <trkpt lat="46.66206" lon="6.11562">
        <ele>1055.18</ele>
        <time>2012-06-01T08:58:33Z</time>
      </trkpt>
      <trkpt lat="46.662" lon="6.11598">
        <ele>1057.59</ele>
        <time>2012-06-01T08:58:44Z</time>
      </trkpt>
      <trkpt lat="46.662" lon="6.1161">
        <ele>1059.03</ele>
        <time>2012-06-01T08:58:48Z</time>
      </trkpt>
      <trkpt lat="46.662" lon="6.1162">
        <ele>1059.03</ele>
        <time>2012-06-01T08:58:52Z</time>
      </trkpt>
      <trkpt lat="46.662" lon="6.11636">
        <ele>1060.47</ele>
        <time>2012-06-01T08:59:02Z</time>
      </trkpt>
      <trkpt lat="46.66196" lon="6.11654">
        <ele>1062.39</ele>
        <time>2012-06-01T08:59:12Z</time>
      </trkpt>
      <trkpt lat="46.66196" lon="6.11656">
        <ele>1062.87</ele>
        <time>2012-06-01T08:59:14Z</time>
      </trkpt>
      <trkpt lat="46.66198" lon="6.11667">
        <ele>1064.32</ele>
        <time>2012-06-01T08:59:20Z</time>
      </trkpt>
      <trkpt lat="46.66208" lon="6.11695">
        <ele>1064.8</ele>
        <time>2012-06-01T08:59:30Z</time>
      </trkpt>
      <trkpt lat="46.66212" lon="6.11707">
        <ele>1065.76</ele>
        <time>2012-06-01T08:59:45Z</time>
      </trkpt>
      <trkpt lat="46.66218" lon="6.11717">
        <ele>1065.76</ele>
        <time>2012-06-01T09:01:04Z</time>
      </trkpt>
      <trkpt lat="46.66235" lon="6.11736">
        <ele>1066.72</ele>
        <time>2012-06-01T09:01:14Z</time>
      </trkpt>
      <trkpt lat="46.66236" lon="6.11739">
        <ele>1067.2</ele>
        <time>2012-06-01T09:01:15Z</time>
      </trkpt>
      <trkpt lat="46.66243" lon="6.11749">
        <ele>1066.72</ele>
        <time>2012-06-01T09:01:20Z</time>
      </trkpt>
      <trkpt lat="46.66269" lon="6.11757">
        <ele>1065.28</ele>
        <time>2012-06-01T09:01:29Z</time>
      </trkpt>
      <trkpt lat="46.66274" lon="6.11757">
        <ele>1065.76</ele>
        <time>2012-06-01T09:01:30Z</time>
      </trkpt>
      <trkpt lat="46.66295" lon="6.1176">
        <ele>1063.84</ele>
        <time>2012-06-01T09:01:34Z</time>
      </trkpt>
      <trkpt lat="46.663" lon="6.11761">
        <ele>1062.87</ele>
        <time>2012-06-01T09:01:35Z</time>
      </trkpt>
      <trkpt lat="46.66313" lon="6.11762">
        <ele>1061.43</ele>
        <time>2012-06-01T09:01:37Z</time>
      </trkpt>
      <trkpt lat="46.6632" lon="6.1176">
        <ele>1060.95</ele>
        <time>2012-06-01T09:01:38Z</time>
      </trkpt>
      <trkpt lat="46.66327" lon="6.11756">
        <ele>1059.03</ele>
        <time>2012-06-01T09:01:39Z</time>
      </trkpt>
      <trkpt lat="46.66354" lon="6.11734">
        <ele>1056.63</ele>
        <time>2012-06-01T09:01:43Z</time>
      </trkpt>
      <trkpt lat="46.66377" lon="6.11709">
        <ele>1053.74</ele>
        <time>2012-06-01T09:01:47Z</time>
      </trkpt>
      <trkpt lat="46.66388" lon="6.11699">
        <ele>1051.82</ele>
        <time>2012-06-01T09:01:49Z</time>
      </trkpt>
      <trkpt lat="46.66393" lon="6.11696">
        <ele>1051.34</ele>
        <time>2012-06-01T09:01:50Z</time>
      </trkpt>
      <trkpt lat="46.66398" lon="6.11696">
        <ele>1050.38</ele>
        <time>2012-06-01T09:01:51Z</time>
      </trkpt>
      <trkpt lat="46.66403" lon="6.11699">
        <ele>1050.38</ele>
        <time>2012-06-01T09:01:52Z</time>
      </trkpt>
      <trkpt lat="46.66406" lon="6.11703">
        <ele>1050.38</ele>
        <time>2012-06-01T09:01:53Z</time>
      </trkpt>
      <trkpt lat="46.66409" lon="6.11707">
        <ele>1050.38</ele>
        <time>2012-06-01T09:01:54Z</time>
      </trkpt>
      <trkpt lat="46.66413" lon="6.1171">
        <ele>1049.9</ele>
        <time>2012-06-01T09:01:55Z</time>
      </trkpt>
      <trkpt lat="46.66427" lon="6.11723">
        <ele>1048.94</ele>
        <time>2012-06-01T09:01:59Z</time>
      </trkpt>
      <trkpt lat="46.6643" lon="6.11728">
        <ele>1049.42</ele>
        <time>2012-06-01T09:02:00Z</time>
      </trkpt>
      <trkpt lat="46.66461" lon="6.11764">
        <ele>1047.01</ele>
        <time>2012-06-01T09:02:07Z</time>
      </trkpt>
      <trkpt lat="46.66469" lon="6.11776">
        <ele>1047.01</ele>
        <time>2012-06-01T09:02:09Z</time>
      </trkpt>
      <trkpt lat="46.66471" lon="6.11781">
        <ele>1047.01</ele>
        <time>2012-06-01T09:02:10Z</time>
      </trkpt>
      <trkpt lat="46.66474" lon="6.11786">
        <ele>1046.53</ele>
        <time>2012-06-01T09:02:11Z</time>
      </trkpt>
      <trkpt lat="46.66476" lon="6.11791">
        <ele>1047.01</ele>
        <time>2012-06-01T09:02:12Z</time>
      </trkpt>
      <trkpt lat="46.66479" lon="6.11796">
        <ele>1046.53</ele>
        <time>2012-06-01T09:02:13Z</time>
      </trkpt>
      <trkpt lat="46.66499" lon="6.11841">
        <ele>1048.45</ele>
        <time>2012-06-01T09:02:24Z</time>
      </trkpt>
      <trkpt lat="46.66514" lon="6.11894">
        <ele>1049.9</ele>
        <time>2012-06-01T09:02:36Z</time>
      </trkpt>
      <trkpt lat="46.66527" lon="6.11951">
        <ele>1050.38</ele>
        <time>2012-06-01T09:02:49Z</time>
      </trkpt>
      <trkpt lat="46.66538" lon="6.12">
        <ele>1050.86</ele>
        <time>2012-06-01T09:03:01Z</time>
      </trkpt>
      <trkpt lat="46.66547" lon="6.12064">
        <ele>1050.38</ele>
        <time>2012-06-01T09:03:13Z</time>
      </trkpt>
      <trkpt lat="46.66562" lon="6.12155">
        <ele>1049.42</ele>
        <time>2012-06-01T09:03:30Z</time>
      </trkpt>
      <trkpt lat="46.66571" lon="6.12201">
        <ele>1050.38</ele>
        <time>2012-06-01T09:03:40Z</time>
      </trkpt>
      <trkpt lat="46.66594" lon="6.12257">
        <ele>1051.34</ele>
        <time>2012-06-01T09:03:54Z</time>
      </trkpt>
      <trkpt lat="46.66613" lon="6.12313">
        <ele>1054.22</ele>
        <time>2012-06-01T09:04:07Z</time>
      </trkpt>
      <trkpt lat="46.66631" lon="6.12365">
        <ele>1055.67</ele>
        <time>2012-06-01T09:04:19Z</time>
      </trkpt>
      <trkpt lat="46.66648" lon="6.12423">
        <ele>1057.59</ele>
        <time>2012-06-01T09:04:32Z</time>
      </trkpt>
      <trkpt lat="46.66672" lon="6.12481">
        <ele>1058.55</ele>
        <time>2012-06-01T09:04:45Z</time>
      </trkpt>
      <trkpt lat="46.66694" lon="6.1254">
        <ele>1060.95</ele>
        <time>2012-06-01T09:04:58Z</time>
      </trkpt>
      <trkpt lat="46.66716" lon="6.1259">
        <ele>1060.95</ele>
        <time>2012-06-01T09:05:11Z</time>
      </trkpt>
      <trkpt lat="46.66758" lon="6.12645">
        <ele>1060.95</ele>
        <time>2012-06-01T09:05:27Z</time>
      </trkpt>
      <trkpt lat="46.66793" lon="6.12693">
        <ele>1062.39</ele>
        <time>2012-06-01T09:05:42Z</time>
      </trkpt>
      <trkpt lat="46.6682" lon="6.12737">
        <ele>1062.87</ele>
        <time>2012-06-01T09:05:57Z</time>
      </trkpt>
      <trkpt lat="46.6684" lon="6.1278">
        <ele>1062.87</ele>
        <time>2012-06-01T09:06:07Z</time>
      </trkpt>
      <trkpt lat="46.66852" lon="6.12804">
        <ele>1061.43</ele>
        <time>2012-06-01T09:06:11Z</time>
      </trkpt>
      <trkpt lat="46.6686" lon="6.12818">
        <ele>1059.99</ele>
        <time>2012-06-01T09:06:13Z</time>
      </trkpt>
      <trkpt lat="46.66874" lon="6.12846">
        <ele>1056.63</ele>
        <time>2012-06-01T09:06:17Z</time>
      </trkpt>
      <trkpt lat="46.66878" lon="6.12853">
        <ele>1056.63</ele>
        <time>2012-06-01T09:06:18Z</time>
      </trkpt>
      <trkpt lat="46.6689" lon="6.12874">
        <ele>1053.26</ele>
        <time>2012-06-01T09:06:21Z</time>
      </trkpt>
      <trkpt lat="46.66896" lon="6.12881">
        <ele>1051.82</ele>
        <time>2012-06-01T09:06:22Z</time>
      </trkpt>
      <trkpt lat="46.66922" lon="6.12916">
        <ele>1046.05</ele>
        <time>2012-06-01T09:06:26Z</time>
      </trkpt>
      <trkpt lat="46.66928" lon="6.12927">
        <ele>1044.13</ele>
        <time>2012-06-01T09:06:27Z</time>
      </trkpt>
      <trkpt lat="46.66934" lon="6.12939">
        <ele>1043.17</ele>
        <time>2012-06-01T09:06:28Z</time>
      </trkpt>
      <trkpt lat="46.66945" lon="6.12959">
        <ele>1039.8</ele>
        <time>2012-06-01T09:06:30Z</time>
      </trkpt>
      <trkpt lat="46.66962" lon="6.12985">
        <ele>1035.96</ele>
        <time>2012-06-01T09:06:33Z</time>
      </trkpt>
      <trkpt lat="46.6697" lon="6.12992">
        <ele>1035.48</ele>
        <time>2012-06-01T09:06:34Z</time>
      </trkpt>
      <trkpt lat="46.66979" lon="6.12998">
        <ele>1034.04</ele>
        <time>2012-06-01T09:06:35Z</time>
      </trkpt>
      <trkpt lat="46.67008" lon="6.13015">
        <ele>1031.15</ele>
        <time>2012-06-01T09:06:38Z</time>
      </trkpt>
      <trkpt lat="46.67019" lon="6.13021">
        <ele>1029.23</ele>
        <time>2012-06-01T09:06:39Z</time>
      </trkpt>
      <trkpt lat="46.67028" lon="6.13029">
        <ele>1028.75</ele>
        <time>2012-06-01T09:06:40Z</time>
      </trkpt>
      <trkpt lat="46.67047" lon="6.13046">
        <ele>1027.79</ele>
        <time>2012-06-01T09:06:42Z</time>
      </trkpt>
      <trkpt lat="46.67055" lon="6.13056">
        <ele>1026.34</ele>
        <time>2012-06-01T09:06:43Z</time>
      </trkpt>
      <trkpt lat="46.67062" lon="6.13065">
        <ele>1026.83</ele>
        <time>2012-06-01T09:06:44Z</time>
      </trkpt>
      <trkpt lat="46.67068" lon="6.13074">
        <ele>1025.86</ele>
        <time>2012-06-01T09:06:45Z</time>
      </trkpt>
      <trkpt lat="46.67133" lon="6.13143">
        <ele>1025.86</ele>
        <time>2012-06-01T09:06:56Z</time>
      </trkpt>
      <trkpt lat="46.67151" lon="6.13164">
        <ele>1023.94</ele>
        <time>2012-06-01T09:06:59Z</time>
      </trkpt>
      <trkpt lat="46.67157" lon="6.1317">
        <ele>1023.46</ele>
        <time>2012-06-01T09:07:00Z</time>
      </trkpt>
      <trkpt lat="46.67164" lon="6.13175">
        <ele>1023.46</ele>
        <time>2012-06-01T09:07:01Z</time>
      </trkpt>
      <trkpt lat="46.67244" lon="6.13218">
        <ele>1021.06</ele>
        <time>2012-06-01T09:07:13Z</time>
      </trkpt>
      <trkpt lat="46.67255" lon="6.1323">
        <ele>1020.1</ele>
        <time>2012-06-01T09:07:15Z</time>
      </trkpt>
      <trkpt lat="46.6726" lon="6.13238">
        <ele>1020.58</ele>
        <time>2012-06-01T09:07:16Z</time>
      </trkpt>
      <trkpt lat="46.67264" lon="6.13246">
        <ele>1020.1</ele>
        <time>2012-06-01T09:07:17Z</time>
      </trkpt>
      <trkpt lat="46.67267" lon="6.13256">
        <ele>1020.1</ele>
        <time>2012-06-01T09:07:18Z</time>
      </trkpt>
      <trkpt lat="46.6727" lon="6.13265">
        <ele>1020.1</ele>
        <time>2012-06-01T09:07:19Z</time>
      </trkpt>
      <trkpt lat="46.67291" lon="6.13328">
        <ele>1019.13</ele>
        <time>2012-06-01T09:07:26Z</time>
      </trkpt>
      <trkpt lat="46.67294" lon="6.13337">
        <ele>1018.17</ele>
        <time>2012-06-01T09:07:27Z</time>
      </trkpt>
      <trkpt lat="46.67323" lon="6.13407">
        <ele>1017.21</ele>
        <time>2012-06-01T09:07:36Z</time>
      </trkpt>
      <trkpt lat="46.67336" lon="6.13439">
        <ele>1016.73</ele>
        <time>2012-06-01T09:07:40Z</time>
      </trkpt>
      <trkpt lat="46.67369" lon="6.13505">
        <ele>1015.29</ele>
        <time>2012-06-01T09:07:49Z</time>
      </trkpt>
      <trkpt lat="46.67371" lon="6.13512">
        <ele>1015.77</ele>
        <time>2012-06-01T09:07:50Z</time>
      </trkpt>
      <trkpt lat="46.67397" lon="6.13617">
        <ele>1014.33</ele>
        <time>2012-06-01T09:08:04Z</time>
      </trkpt>
      <trkpt lat="46.67401" lon="6.13631">
        <ele>1013.37</ele>
        <time>2012-06-01T09:08:06Z</time>
      </trkpt>
      <trkpt lat="46.67417" lon="6.13706">
        <ele>1011.93</ele>
        <time>2012-06-01T09:08:16Z</time>
      </trkpt>
      <trkpt lat="46.67417" lon="6.13714">
        <ele>1012.89</ele>
        <time>2012-06-01T09:08:17Z</time>
      </trkpt>
      <trkpt lat="46.67415" lon="6.13722">
        <ele>1012.41</ele>
        <time>2012-06-01T09:08:18Z</time>
      </trkpt>
      <trkpt lat="46.67411" lon="6.13727">
        <ele>1011.93</ele>
        <time>2012-06-01T09:08:19Z</time>
      </trkpt>
      <trkpt lat="46.67406" lon="6.13729">
        <ele>1011.93</ele>
        <time>2012-06-01T09:08:20Z</time>
      </trkpt>
      <trkpt lat="46.67402" lon="6.13729">
        <ele>1012.41</ele>
        <time>2012-06-01T09:08:21Z</time>
      </trkpt>
      <trkpt lat="46.67397" lon="6.13728">
        <ele>1012.41</ele>
        <time>2012-06-01T09:08:22Z</time>
      </trkpt>
      <trkpt lat="46.67382" lon="6.13721">
        <ele>1012.89</ele>
        <time>2012-06-01T09:08:27Z</time>
      </trkpt>
      <trkpt lat="46.67381" lon="6.13722">
        <ele>1013.85</ele>
        <time>2012-06-01T09:08:28Z</time>
      </trkpt>
      <trkpt lat="46.67381" lon="6.13725">
        <ele>1013.37</ele>
        <time>2012-06-01T09:08:29Z</time>
      </trkpt>
      <trkpt lat="46.67382" lon="6.13728">
        <ele>1012.89</ele>
        <time>2012-06-01T09:08:30Z</time>
      </trkpt>
      <trkpt lat="46.67383" lon="6.13729">
        <ele>1013.37</ele>
        <time>2012-06-01T09:08:31Z</time>
      </trkpt>
      <trkpt lat="46.67386" lon="6.13728">
        <ele>1012.41</ele>
        <time>2012-06-01T09:08:32Z</time>
      </trkpt>
      <trkpt lat="46.67387" lon="6.13723">
        <ele>1012.89</ele>
        <time>2012-06-01T09:08:33Z</time>
      </trkpt>
      <trkpt lat="46.67386" lon="6.13718">
        <ele>1012.89</ele>
        <time>2012-06-01T09:08:34Z</time>
      </trkpt>
      <trkpt lat="46.67385" lon="6.13714">
        <ele>1013.37</ele>
        <time>2012-06-01T09:08:35Z</time>
      </trkpt>
      <trkpt lat="46.67383" lon="6.1371">
        <ele>1012.41</ele>
        <time>2012-06-01T09:08:36Z</time>
      </trkpt>
      <trkpt lat="46.67381" lon="6.13706">
        <ele>1011.93</ele>
        <time>2012-06-01T09:08:37Z</time>
      </trkpt>
      <trkpt lat="46.6738" lon="6.13701">
        <ele>1011.93</ele>
        <time>2012-06-01T09:08:38Z</time>
      </trkpt>
      <trkpt lat="46.67377" lon="6.13667">
        <ele>1012.41</ele>
        <time>2012-06-01T09:08:44Z</time>
      </trkpt>
      <trkpt lat="46.67376" lon="6.13661">
        <ele>1012.41</ele>
        <time>2012-06-01T09:08:45Z</time>
      </trkpt>
      <trkpt lat="46.67375" lon="6.13655">
        <ele>1011.93</ele>
        <time>2012-06-01T09:08:46Z</time>
      </trkpt>
      <trkpt lat="46.67372" lon="6.13642">
        <ele>1013.37</ele>
        <time>2012-06-01T09:08:48Z</time>
      </trkpt>
      <trkpt lat="46.67371" lon="6.13636">
        <ele>1013.85</ele>
        <time>2012-06-01T09:08:49Z</time>
      </trkpt>
      <trkpt lat="46.67369" lon="6.13631">
        <ele>1012.89</ele>
        <time>2012-06-01T09:08:50Z</time>
      </trkpt>
      <trkpt lat="46.67366" lon="6.13625">
        <ele>1012.89</ele>
        <time>2012-06-01T09:08:51Z</time>
      </trkpt>
      <trkpt lat="46.67363" lon="6.1362">
        <ele>1013.37</ele>
        <time>2012-06-01T09:08:52Z</time>
      </trkpt>
      <trkpt lat="46.6736" lon="6.13615">
        <ele>1012.41</ele>
        <time>2012-06-01T09:08:53Z</time>
      </trkpt>
      <trkpt lat="46.67357" lon="6.1361">
        <ele>1012.89</ele>
        <time>2012-06-01T09:08:54Z</time>
      </trkpt>
      <trkpt lat="46.67347" lon="6.13597">
        <ele>1012.41</ele>
        <time>2012-06-01T09:08:57Z</time>
      </trkpt>
      <trkpt lat="46.67305" lon="6.13558">
        <ele>1011.93</ele>
        <time>2012-06-01T09:09:11Z</time>
      </trkpt>
      <trkpt lat="46.67278" lon="6.13537">
        <ele>1011.93</ele>
        <time>2012-06-01T09:09:25Z</time>
      </trkpt>
      <trkpt lat="46.67277" lon="6.13538">
        <ele>1012.41</ele>
        <time>2012-06-01T09:09:42Z</time>
      </trkpt>
      <trkpt lat="46.67274" lon="6.13537">
        <ele>1012.41</ele>
        <time>2012-06-01T09:09:55Z</time>
      </trkpt>
      <trkpt lat="46.67248" lon="6.13516">
        <ele>1013.85</ele>
        <time>2012-06-01T09:10:05Z</time>
      </trkpt>
      <trkpt lat="46.67203" lon="6.13495">
        <ele>1012.89</ele>
        <time>2012-06-01T09:10:20Z</time>
      </trkpt>
      <trkpt lat="46.67164" lon="6.13511">
        <ele>1014.33</ele>
        <time>2012-06-01T09:10:32Z</time>
      </trkpt>
      <trkpt lat="46.67144" lon="6.13537">
        <ele>1015.77</ele>
        <time>2012-06-01T09:10:43Z</time>
      </trkpt>
      <trkpt lat="46.67142" lon="6.13541">
        <ele>1015.29</ele>
        <time>2012-06-01T09:10:45Z</time>
      </trkpt>
      <trkpt lat="46.67141" lon="6.13542">
        <ele>1015.77</ele>
        <time>2012-06-01T09:10:56Z</time>
      </trkpt>
      <trkpt lat="46.67141" lon="6.13539">
        <ele>1015.29</ele>
        <time>2012-06-01T09:11:45Z</time>
      </trkpt>
      <trkpt lat="46.67141" lon="6.13539">
        <ele>1015.29</ele>
        <time>2012-06-01T09:12:29Z</time>
      </trkpt>
      <trkpt lat="46.67142" lon="6.13535">
        <ele>1015.29</ele>
        <time>2012-06-01T09:13:22Z</time>
      </trkpt>
      <trkpt lat="46.67146" lon="6.13533">
        <ele>1015.29</ele>
        <time>2012-06-01T09:13:25Z</time>
      </trkpt>
      <trkpt lat="46.67164" lon="6.1355">
        <ele>1017.69</ele>
        <time>2012-06-01T09:13:32Z</time>
      </trkpt>
      <trkpt lat="46.67172" lon="6.13571">
        <ele>1019.13</ele>
        <time>2012-06-01T09:13:40Z</time>
      </trkpt>
      <trkpt lat="46.67168" lon="6.13577">
        <ele>1018.17</ele>
        <time>2012-06-01T09:13:44Z</time>
      </trkpt>
      <trkpt lat="46.67167" lon="6.13586">
        <ele>1018.65</ele>
        <time>2012-06-01T09:13:57Z</time>
      </trkpt>
      <trkpt lat="46.67165" lon="6.13596">
        <ele>1018.17</ele>
        <time>2012-06-01T09:14:53Z</time>
      </trkpt>
      <trkpt lat="46.67162" lon="6.13604">
        <ele>1017.69</ele>
        <time>2012-06-01T09:15:00Z</time>
      </trkpt>
      <trkpt lat="46.67161" lon="6.13606">
        <ele>1017.69</ele>
        <time>2012-06-01T09:15:03Z</time>
      </trkpt>
      <trkpt lat="46.67161" lon="6.13611">
        <ele>1017.69</ele>
        <time>2012-06-01T09:15:06Z</time>
      </trkpt>
      <trkpt lat="46.67178" lon="6.13646">
        <ele>1019.13</ele>
        <time>2012-06-01T09:15:19Z</time>
      </trkpt>
      <trkpt lat="46.67191" lon="6.13676">
        <ele>1019.62</ele>
        <time>2012-06-01T09:15:32Z</time>
      </trkpt>
      <trkpt lat="46.6721" lon="6.13713">
        <ele>1020.1</ele>
        <time>2012-06-01T09:15:45Z</time>
      </trkpt>
      <trkpt lat="46.67234" lon="6.13752">
        <ele>1021.54</ele>
        <time>2012-06-01T09:15:59Z</time>
      </trkpt>
      <trkpt lat="46.67246" lon="6.13763">
        <ele>1022.5</ele>
        <time>2012-06-01T09:16:05Z</time>
      </trkpt>
      <trkpt lat="46.67255" lon="6.13778">
        <ele>1020.58</ele>
        <time>2012-06-01T09:16:10Z</time>
      </trkpt>
      <trkpt lat="46.67278" lon="6.13802">
        <ele>1020.58</ele>
        <time>2012-06-01T09:16:20Z</time>
      </trkpt>
      <trkpt lat="46.67292" lon="6.13828">
        <ele>1021.54</ele>
        <time>2012-06-01T09:16:27Z</time>
      </trkpt>
      <trkpt lat="46.67316" lon="6.1384">
        <ele>1019.62</ele>
        <time>2012-06-01T09:16:34Z</time>
      </trkpt>
      <trkpt lat="46.6732" lon="6.13842">
        <ele>1019.62</ele>
        <time>2012-06-01T09:16:35Z</time>
      </trkpt>
      <trkpt lat="46.67325" lon="6.13846">
        <ele>1018.65</ele>
        <time>2012-06-01T09:16:36Z</time>
      </trkpt>
      <trkpt lat="46.67328" lon="6.13852">
        <ele>1019.62</ele>
        <time>2012-06-01T09:16:37Z</time>
      </trkpt>
      <trkpt lat="46.67329" lon="6.13859">
        <ele>1016.25</ele>
        <time>2012-06-01T09:16:38Z</time>
      </trkpt>
      <trkpt lat="46.67329" lon="6.13867">
        <ele>1017.21</ele>
        <time>2012-06-01T09:16:39Z</time>
      </trkpt>
      <trkpt lat="46.67329" lon="6.13873">
        <ele>1018.65</ele>
        <time>2012-06-01T09:16:40Z</time>
      </trkpt>
      <trkpt lat="46.67329" lon="6.13878">
        <ele>1020.1</ele>
        <time>2012-06-01T09:16:41Z</time>
      </trkpt>
      <trkpt lat="46.67329" lon="6.13882">
        <ele>1018.65</ele>
        <time>2012-06-01T09:16:42Z</time>
      </trkpt>
      <trkpt lat="46.6733" lon="6.13895">
        <ele>1020.1</ele>
        <time>2012-06-01T09:16:45Z</time>
      </trkpt>
      <trkpt lat="46.67339" lon="6.13919">
        <ele>1021.06</ele>
        <time>2012-06-01T09:16:51Z</time>
      </trkpt>
      <trkpt lat="46.67363" lon="6.13954">
        <ele>1022.02</ele>
        <time>2012-06-01T09:17:02Z</time>
      </trkpt>
      <trkpt lat="46.67385" lon="6.13983">
        <ele>1024.9</ele>
        <time>2012-06-01T09:17:12Z</time>
      </trkpt>
      <trkpt lat="46.67417" lon="6.14031">
        <ele>1028.27</ele>
        <time>2012-06-01T09:17:29Z</time>
      </trkpt>
      <trkpt lat="46.67447" lon="6.14067">
        <ele>1030.67</ele>
        <time>2012-06-01T09:17:43Z</time>
      </trkpt>
      <trkpt lat="46.67458" lon="6.14073">
        <ele>1031.15</ele>
        <time>2012-06-01T09:17:47Z</time>
      </trkpt>
      <trkpt lat="46.67499" lon="6.1407">
        <ele>1030.67</ele>
        <time>2012-06-01T09:18:01Z</time>
      </trkpt>
      <trkpt lat="46.67512" lon="6.14069">
        <ele>1034.04</ele>
        <time>2012-06-01T09:18:05Z</time>
      </trkpt>
      <trkpt lat="46.67544" lon="6.14091">
        <ele>1035.96</ele>
        <time>2012-06-01T09:18:18Z</time>
      </trkpt>
      <trkpt lat="46.67547" lon="6.14097">
        <ele>1036.44</ele>
        <time>2012-06-01T09:18:20Z</time>
      </trkpt>
      <trkpt lat="46.67554" lon="6.14125">
        <ele>1031.63</ele>
        <time>2012-06-01T09:18:28Z</time>
      </trkpt>
      <trkpt lat="46.67555" lon="6.14129">
        <ele>1037.4</ele>
        <time>2012-06-01T09:18:29Z</time>
      </trkpt>
      <trkpt lat="46.67571" lon="6.14162">
        <ele>1042.21</ele>
        <time>2012-06-01T09:18:41Z</time>
      </trkpt>
      <trkpt lat="46.67586" lon="6.14188">
        <ele>1043.17</ele>
        <time>2012-06-01T09:18:53Z</time>
      </trkpt>
      <trkpt lat="46.67602" lon="6.14211">
        <ele>1047.01</ele>
        <time>2012-06-01T09:19:04Z</time>
      </trkpt>
      <trkpt lat="46.67623" lon="6.14238">
        <ele>1048.94</ele>
        <time>2012-06-01T09:19:19Z</time>
      </trkpt>
      <trkpt lat="46.67629" lon="6.14247">
        <ele>1052.78</ele>
        <time>2012-06-01T09:19:24Z</time>
      </trkpt>
      <trkpt lat="46.67633" lon="6.14251">
        <ele>1049.42</ele>
        <time>2012-06-01T09:19:26Z</time>
      </trkpt>
      <trkpt lat="46.67643" lon="6.14266">
        <ele>1053.26</ele>
        <time>2012-06-01T09:19:33Z</time>
      </trkpt>
      <trkpt lat="46.67652" lon="6.1428">
        <ele>1054.7</ele>
        <time>2012-06-01T09:19:40Z</time>
      </trkpt>
      <trkpt lat="46.67666" lon="6.14311">
        <ele>1057.59</ele>
        <time>2012-06-01T09:19:53Z</time>
      </trkpt>
      <trkpt lat="46.67679" lon="6.14355">
        <ele>1060.47</ele>
        <time>2012-06-01T09:20:09Z</time>
      </trkpt>
      <trkpt lat="46.67685" lon="6.14382">
        <ele>1064.32</ele>
        <time>2012-06-01T09:20:19Z</time>
      </trkpt>
      <trkpt lat="46.67693" lon="6.14426">
        <ele>1066.72</ele>
        <time>2012-06-01T09:20:34Z</time>
      </trkpt>
      <trkpt lat="46.677" lon="6.1445">
        <ele>1069.12</ele>
        <time>2012-06-01T09:20:44Z</time>
      </trkpt>
      <trkpt lat="46.67707" lon="6.14467">
        <ele>1069.12</ele>
        <time>2012-06-01T09:20:52Z</time>
      </trkpt>
      <trkpt lat="46.67716" lon="6.14483">
        <ele>1072.01</ele>
        <time>2012-06-01T09:20:59Z</time>
      </trkpt>
      <trkpt lat="46.67724" lon="6.14502">
        <ele>1072.97</ele>
        <time>2012-06-01T09:21:07Z</time>
      </trkpt>
      <trkpt lat="46.67738" lon="6.14534">
        <ele>1076.81</ele>
        <time>2012-06-01T09:21:21Z</time>
      </trkpt>
      <trkpt lat="46.67757" lon="6.1457">
        <ele>1078.74</ele>
        <time>2012-06-01T09:21:37Z</time>
      </trkpt>
      <trkpt lat="46.67761" lon="6.14578">
        <ele>1080.18</ele>
        <time>2012-06-01T09:21:40Z</time>
      </trkpt>
      <trkpt lat="46.67766" lon="6.14587">
        <ele>1081.62</ele>
        <time>2012-06-01T09:21:44Z</time>
      </trkpt>
      <trkpt lat="46.67783" lon="6.14623">
        <ele>1084.99</ele>
        <time>2012-06-01T09:21:58Z</time>
      </trkpt>
      <trkpt lat="46.6779" lon="6.14651">
        <ele>1088.35</ele>
        <time>2012-06-01T09:22:08Z</time>
      </trkpt>
      <trkpt lat="46.678" lon="6.14678">
        <ele>1089.79</ele>
        <time>2012-06-01T09:22:19Z</time>
      </trkpt>
      <trkpt lat="46.67806" lon="6.14689">
        <ele>1091.71</ele>
        <time>2012-06-01T09:22:24Z</time>
      </trkpt>
      <trkpt lat="46.67823" lon="6.14717">
        <ele>1092.2</ele>
        <time>2012-06-01T09:22:38Z</time>
      </trkpt>
      <trkpt lat="46.67829" lon="6.14733">
        <ele>1094.6</ele>
        <time>2012-06-01T09:22:45Z</time>
      </trkpt>
      <trkpt lat="46.67844" lon="6.14774">
        <ele>1094.12</ele>
        <time>2012-06-01T09:23:01Z</time>
      </trkpt>
      <trkpt lat="46.67849" lon="6.14791">
        <ele>1097</ele>
        <time>2012-06-01T09:23:07Z</time>
      </trkpt>
      <trkpt lat="46.67863" lon="6.14826">
        <ele>1097</ele>
        <time>2012-06-01T09:23:21Z</time>
      </trkpt>
      <trkpt lat="46.67875" lon="6.14867">
        <ele>1098.44</ele>
        <time>2012-06-01T09:23:33Z</time>
      </trkpt>
      <trkpt lat="46.67894" lon="6.1492">
        <ele>1098.44</ele>
        <time>2012-06-01T09:23:47Z</time>
      </trkpt>
      <trkpt lat="46.67907" lon="6.14975">
        <ele>1098.92</ele>
        <time>2012-06-01T09:24:01Z</time>
      </trkpt>
      <trkpt lat="46.6792" lon="6.15031">
        <ele>1102.29</ele>
        <time>2012-06-01T09:24:15Z</time>
      </trkpt>
      <trkpt lat="46.6793" lon="6.15077">
        <ele>1103.73</ele>
        <time>2012-06-01T09:24:27Z</time>
      </trkpt>
      <trkpt lat="46.6794" lon="6.15131">
        <ele>1103.73</ele>
        <time>2012-06-01T09:24:41Z</time>
      </trkpt>
      <trkpt lat="46.67941" lon="6.15188">
        <ele>1106.13</ele>
        <time>2012-06-01T09:24:55Z</time>
      </trkpt>
      <trkpt lat="46.67954" lon="6.15239">
        <ele>1105.65</ele>
        <time>2012-06-01T09:25:07Z</time>
      </trkpt>
      <trkpt lat="46.67973" lon="6.15293">
        <ele>1107.1</ele>
        <time>2012-06-01T09:25:20Z</time>
      </trkpt>
      <trkpt lat="46.67986" lon="6.15332">
        <ele>1107.1</ele>
        <time>2012-06-01T09:25:29Z</time>
      </trkpt>
      <trkpt lat="46.68006" lon="6.15396">
        <ele>1107.58</ele>
        <time>2012-06-01T09:25:43Z</time>
      </trkpt>
      <trkpt lat="46.68021" lon="6.15444">
        <ele>1109.02</ele>
        <time>2012-06-01T09:25:53Z</time>
      </trkpt>
      <trkpt lat="46.68031" lon="6.15474">
        <ele>1097.96</ele>
        <time>2012-06-01T09:25:59Z</time>
      </trkpt>
      <trkpt lat="46.68032" lon="6.1548">
        <ele>1108.06</ele>
        <time>2012-06-01T09:26:00Z</time>
      </trkpt>
      <trkpt lat="46.68052" lon="6.15557">
        <ele>1109.98</ele>
        <time>2012-06-01T09:26:16Z</time>
      </trkpt>
      <trkpt lat="46.68069" lon="6.15642">
        <ele>1111.9</ele>
        <time>2012-06-01T09:26:34Z</time>
      </trkpt>
      <trkpt lat="46.68083" lon="6.15715">
        <ele>1111.42</ele>
        <time>2012-06-01T09:26:48Z</time>
      </trkpt>
      <trkpt lat="46.68101" lon="6.15771">
        <ele>1111.42</ele>
        <time>2012-06-01T09:27:01Z</time>
      </trkpt>
      <trkpt lat="46.68107" lon="6.15774">
        <ele>1112.86</ele>
        <time>2012-06-01T09:27:04Z</time>
      </trkpt>
      <trkpt lat="46.68123" lon="6.15776">
        <ele>1111.42</ele>
        <time>2012-06-01T09:27:09Z</time>
      </trkpt>
      <trkpt lat="46.68127" lon="6.15779">
        <ele>1111.9</ele>
        <time>2012-06-01T09:27:10Z</time>
      </trkpt>
      <trkpt lat="46.6813" lon="6.15783">
        <ele>1110.46</ele>
        <time>2012-06-01T09:27:11Z</time>
      </trkpt>
      <trkpt lat="46.68133" lon="6.15787">
        <ele>1110.94</ele>
        <time>2012-06-01T09:27:12Z</time>
      </trkpt>
      <trkpt lat="46.68135" lon="6.15792">
        <ele>1110.46</ele>
        <time>2012-06-01T09:27:13Z</time>
      </trkpt>
      <trkpt lat="46.68137" lon="6.15797">
        <ele>1110.46</ele>
        <time>2012-06-01T09:27:14Z</time>
      </trkpt>
      <trkpt lat="46.68166" lon="6.15873">
        <ele>1107.1</ele>
        <time>2012-06-01T09:27:26Z</time>
      </trkpt>
      <trkpt lat="46.68169" lon="6.15881">
        <ele>1107.58</ele>
        <time>2012-06-01T09:27:27Z</time>
      </trkpt>
      <trkpt lat="46.68193" lon="6.15948">
        <ele>1103.73</ele>
        <time>2012-06-01T09:27:34Z</time>
      </trkpt>
      <trkpt lat="46.68199" lon="6.15958">
        <ele>1103.25</ele>
        <time>2012-06-01T09:27:35Z</time>
      </trkpt>
      <trkpt lat="46.68205" lon="6.15968">
        <ele>1103.25</ele>
        <time>2012-06-01T09:27:36Z</time>
      </trkpt>
      <trkpt lat="46.68234" lon="6.16007">
        <ele>1099.4</ele>
        <time>2012-06-01T09:27:40Z</time>
      </trkpt>
      <trkpt lat="46.68266" lon="6.1605">
        <ele>1098.44</ele>
        <time>2012-06-01T09:27:44Z</time>
      </trkpt>
      <trkpt lat="46.68282" lon="6.16072">
        <ele>1095.56</ele>
        <time>2012-06-01T09:27:46Z</time>
      </trkpt>
      <trkpt lat="46.68306" lon="6.1611">
        <ele>1094.12</ele>
        <time>2012-06-01T09:27:49Z</time>
      </trkpt>
      <trkpt lat="46.68312" lon="6.16125">
        <ele>1093.64</ele>
        <time>2012-06-01T09:27:50Z</time>
      </trkpt>
      <trkpt lat="46.68322" lon="6.16154">
        <ele>1092.68</ele>
        <time>2012-06-01T09:27:52Z</time>
      </trkpt>
      <trkpt lat="46.68332" lon="6.16181">
        <ele>1090.27</ele>
        <time>2012-06-01T09:27:54Z</time>
      </trkpt>
      <trkpt lat="46.68337" lon="6.16195">
        <ele>1089.31</ele>
        <time>2012-06-01T09:27:55Z</time>
      </trkpt>
      <trkpt lat="46.68348" lon="6.1622">
        <ele>1089.31</ele>
        <time>2012-06-01T09:27:57Z</time>
      </trkpt>
      <trkpt lat="46.68404" lon="6.16324">
        <ele>1087.39</ele>
        <time>2012-06-01T09:28:07Z</time>
      </trkpt>
      <trkpt lat="46.68409" lon="6.16339">
        <ele>1085.47</ele>
        <time>2012-06-01T09:28:09Z</time>
      </trkpt>
      <trkpt lat="46.68412" lon="6.16345">
        <ele>1085.47</ele>
        <time>2012-06-01T09:28:10Z</time>
      </trkpt>
      <trkpt lat="46.68414" lon="6.1635">
        <ele>1085.95</ele>
        <time>2012-06-01T09:28:11Z</time>
      </trkpt>
      <trkpt lat="46.68416" lon="6.16354">
        <ele>1085.47</ele>
        <time>2012-06-01T09:28:12Z</time>
      </trkpt>
      <trkpt lat="46.68419" lon="6.16358">
        <ele>1084.99</ele>
        <time>2012-06-01T09:28:13Z</time>
      </trkpt>
      <trkpt lat="46.6845" lon="6.164">
        <ele>1084.5</ele>
        <time>2012-06-01T09:28:27Z</time>
      </trkpt>
      <trkpt lat="46.68455" lon="6.16406">
        <ele>1082.58</ele>
        <time>2012-06-01T09:28:29Z</time>
      </trkpt>
      <trkpt lat="46.68474" lon="6.16432">
        <ele>1081.14</ele>
        <time>2012-06-01T09:28:37Z</time>
      </trkpt>
      <trkpt lat="46.68485" lon="6.16449">
        <ele>1081.62</ele>
        <time>2012-06-01T09:28:41Z</time>
      </trkpt>
      <trkpt lat="46.68488" lon="6.16453">
        <ele>1080.18</ele>
        <time>2012-06-01T09:28:42Z</time>
      </trkpt>
      <trkpt lat="46.6849" lon="6.16459">
        <ele>1079.22</ele>
        <time>2012-06-01T09:28:43Z</time>
      </trkpt>
      <trkpt lat="46.68493" lon="6.16463">
        <ele>1079.22</ele>
        <time>2012-06-01T09:28:44Z</time>
      </trkpt>
      <trkpt lat="46.68507" lon="6.16492">
        <ele>1078.26</ele>
        <time>2012-06-01T09:28:50Z</time>
      </trkpt>
      <trkpt lat="46.68537" lon="6.1654">
        <ele>1077.29</ele>
        <time>2012-06-01T09:28:59Z</time>
      </trkpt>
      <trkpt lat="46.6854" lon="6.16546">
        <ele>1076.33</ele>
        <time>2012-06-01T09:29:00Z</time>
      </trkpt>
      <trkpt lat="46.68543" lon="6.16552">
        <ele>1075.37</ele>
        <time>2012-06-01T09:29:01Z</time>
      </trkpt>
      <trkpt lat="46.68547" lon="6.16558">
        <ele>1074.89</ele>
        <time>2012-06-01T09:29:02Z</time>
      </trkpt>
      <trkpt lat="46.6855" lon="6.16564">
        <ele>1074.89</ele>
        <time>2012-06-01T09:29:03Z</time>
      </trkpt>
      <trkpt lat="46.68559" lon="6.16582">
        <ele>1074.41</ele>
        <time>2012-06-01T09:29:06Z</time>
      </trkpt>
      <trkpt lat="46.68562" lon="6.16589">
        <ele>1074.41</ele>
        <time>2012-06-01T09:29:07Z</time>
      </trkpt>
      <trkpt lat="46.68595" lon="6.16671">
        <ele>1071.53</ele>
        <time>2012-06-01T09:29:18Z</time>
      </trkpt>
      <trkpt lat="46.68628" lon="6.16735">
        <ele>1068.16</ele>
        <time>2012-06-01T09:29:26Z</time>
      </trkpt>
      <trkpt lat="46.6867" lon="6.16814">
        <ele>1065.28</ele>
        <time>2012-06-01T09:29:35Z</time>
      </trkpt>
      <trkpt lat="46.68681" lon="6.16831">
        <ele>1064.32</ele>
        <time>2012-06-01T09:29:37Z</time>
      </trkpt>
      <trkpt lat="46.68693" lon="6.16847">
        <ele>1062.39</ele>
        <time>2012-06-01T09:29:39Z</time>
      </trkpt>
      <trkpt lat="46.68755" lon="6.16897">
        <ele>1058.07</ele>
        <time>2012-06-01T09:29:47Z</time>
      </trkpt>
      <trkpt lat="46.68769" lon="6.16905">
        <ele>1057.59</ele>
        <time>2012-06-01T09:29:49Z</time>
      </trkpt>
      <trkpt lat="46.68777" lon="6.16908">
        <ele>1056.15</ele>
        <time>2012-06-01T09:29:50Z</time>
      </trkpt>
      <trkpt lat="46.68785" lon="6.16909">
        <ele>1057.11</ele>
        <time>2012-06-01T09:29:51Z</time>
      </trkpt>
      <trkpt lat="46.68794" lon="6.16909">
        <ele>1055.18</ele>
        <time>2012-06-01T09:29:52Z</time>
      </trkpt>
      <trkpt lat="46.68803" lon="6.16907">
        <ele>1054.7</ele>
        <time>2012-06-01T09:29:53Z</time>
      </trkpt>
      <trkpt lat="46.68812" lon="6.16908">
        <ele>1054.22</ele>
        <time>2012-06-01T09:29:54Z</time>
      </trkpt>
      <trkpt lat="46.68829" lon="6.16912">
        <ele>1052.78</ele>
        <time>2012-06-01T09:29:56Z</time>
      </trkpt>
      <trkpt lat="46.68846" lon="6.16919">
        <ele>1053.74</ele>
        <time>2012-06-01T09:29:58Z</time>
      </trkpt>
      <trkpt lat="46.68854" lon="6.16924">
        <ele>1053.26</ele>
        <time>2012-06-01T09:29:59Z</time>
      </trkpt>
      <trkpt lat="46.68868" lon="6.16936">
        <ele>1051.82</ele>
        <time>2012-06-01T09:30:01Z</time>
      </trkpt>
      <trkpt lat="46.68888" lon="6.16954">
        <ele>1052.78</ele>
        <time>2012-06-01T09:30:04Z</time>
      </trkpt>
      <trkpt lat="46.68894" lon="6.16958">
        <ele>1051.82</ele>
        <time>2012-06-01T09:30:05Z</time>
      </trkpt>
      <trkpt lat="46.689" lon="6.16961">
        <ele>1050.86</ele>
        <time>2012-06-01T09:30:06Z</time>
      </trkpt>
      <trkpt lat="46.68911" lon="6.16965">
        <ele>1051.82</ele>
        <time>2012-06-01T09:30:08Z</time>
      </trkpt>
      <trkpt lat="46.6893" lon="6.16972">
        <ele>1050.38</ele>
        <time>2012-06-01T09:30:11Z</time>
      </trkpt>
      <trkpt lat="46.68936" lon="6.16977">
        <ele>1049.42</ele>
        <time>2012-06-01T09:30:12Z</time>
      </trkpt>
      <trkpt lat="46.68943" lon="6.16984">
        <ele>1049.42</ele>
        <time>2012-06-01T09:30:13Z</time>
      </trkpt>
      <trkpt lat="46.68949" lon="6.16994">
        <ele>1048.45</ele>
        <time>2012-06-01T09:30:14Z</time>
      </trkpt>
      <trkpt lat="46.68955" lon="6.17004">
        <ele>1048.94</ele>
        <time>2012-06-01T09:30:15Z</time>
      </trkpt>
      <trkpt lat="46.68961" lon="6.17016">
        <ele>1048.45</ele>
        <time>2012-06-01T09:30:16Z</time>
      </trkpt>
      <trkpt lat="46.68972" lon="6.17037">
        <ele>1044.61</ele>
        <time>2012-06-01T09:30:18Z</time>
      </trkpt>
      <trkpt lat="46.68977" lon="6.17046">
        <ele>1044.13</ele>
        <time>2012-06-01T09:30:19Z</time>
      </trkpt>
      <trkpt lat="46.68995" lon="6.17079">
        <ele>1042.21</ele>
        <time>2012-06-01T09:30:24Z</time>
      </trkpt>
      <trkpt lat="46.69004" lon="6.17084">
        <ele>1042.69</ele>
        <time>2012-06-01T09:30:26Z</time>
      </trkpt>
      <trkpt lat="46.69014" lon="6.17087">
        <ele>1043.65</ele>
        <time>2012-06-01T09:30:28Z</time>
      </trkpt>
      <trkpt lat="46.69018" lon="6.17089">
        <ele>1041.73</ele>
        <time>2012-06-01T09:30:29Z</time>
      </trkpt>
      <trkpt lat="46.69026" lon="6.17093">
        <ele>1040.76</ele>
        <time>2012-06-01T09:30:31Z</time>
      </trkpt>
      <trkpt lat="46.6903" lon="6.17094">
        <ele>1041.73</ele>
        <time>2012-06-01T09:30:32Z</time>
      </trkpt>
      <trkpt lat="46.69034" lon="6.17096">
        <ele>1040.28</ele>
        <time>2012-06-01T09:30:33Z</time>
      </trkpt>
      <trkpt lat="46.69044" lon="6.17099">
        <ele>1041.73</ele>
        <time>2012-06-01T09:30:36Z</time>
      </trkpt>
      <trkpt lat="46.69048" lon="6.17101">
        <ele>1040.28</ele>
        <time>2012-06-01T09:30:38Z</time>
      </trkpt>
      <trkpt lat="46.69053" lon="6.17103">
        <ele>1041.73</ele>
        <time>2012-06-01T09:30:41Z</time>
      </trkpt>
      <trkpt lat="46.69084" lon="6.17122">
        <ele>1041.73</ele>
        <time>2012-06-01T09:30:51Z</time>
      </trkpt>
      <trkpt lat="46.69121" lon="6.17162">
        <ele>1041.25</ele>
        <time>2012-06-01T09:31:02Z</time>
      </trkpt>
      <trkpt lat="46.69129" lon="6.17173">
        <ele>1037.4</ele>
        <time>2012-06-01T09:31:04Z</time>
      </trkpt>
      <trkpt lat="46.69134" lon="6.17178">
        <ele>1037.4</ele>
        <time>2012-06-01T09:31:05Z</time>
      </trkpt>
      <trkpt lat="46.69148" lon="6.17194">
        <ele>1035.48</ele>
        <time>2012-06-01T09:31:08Z</time>
      </trkpt>
      <trkpt lat="46.69153" lon="6.17199">
        <ele>1036.92</ele>
        <time>2012-06-01T09:31:09Z</time>
      </trkpt>
      <trkpt lat="46.69158" lon="6.17204">
        <ele>1033.07</ele>
        <time>2012-06-01T09:31:10Z</time>
      </trkpt>
      <trkpt lat="46.69163" lon="6.17209">
        <ele>1032.11</ele>
        <time>2012-06-01T09:31:11Z</time>
      </trkpt>
      <trkpt lat="46.6918" lon="6.17227">
        <ele>1029.23</ele>
        <time>2012-06-01T09:31:14Z</time>
      </trkpt>
      <trkpt lat="46.69201" lon="6.17245">
        <ele>1024.42</ele>
        <time>2012-06-01T09:31:19Z</time>
      </trkpt>
      <trkpt lat="46.69203" lon="6.17248">
        <ele>1024.42</ele>
        <time>2012-06-01T09:31:20Z</time>
      </trkpt>
      <trkpt lat="46.69212" lon="6.17259">
        <ele>1021.06</ele>
        <time>2012-06-01T09:31:23Z</time>
      </trkpt>
      <trkpt lat="46.69214" lon="6.17264">
        <ele>1022.02</ele>
        <time>2012-06-01T09:31:24Z</time>
      </trkpt>
      <trkpt lat="46.69218" lon="6.1727">
        <ele>1019.62</ele>
        <time>2012-06-01T09:31:25Z</time>
      </trkpt>
      <trkpt lat="46.69222" lon="6.17276">
        <ele>1019.62</ele>
        <time>2012-06-01T09:31:26Z</time>
      </trkpt>
      <trkpt lat="46.69225" lon="6.1728">
        <ele>1019.13</ele>
        <time>2012-06-01T09:31:27Z</time>
      </trkpt>
      <trkpt lat="46.6923" lon="6.17285">
        <ele>1017.21</ele>
        <time>2012-06-01T09:31:28Z</time>
      </trkpt>
      <trkpt lat="46.69244" lon="6.17299">
        <ele>1013.85</ele>
        <time>2012-06-01T09:31:32Z</time>
      </trkpt>
      <trkpt lat="46.69246" lon="6.17301">
        <ele>1014.33</ele>
        <time>2012-06-01T09:31:33Z</time>
      </trkpt>
      <trkpt lat="46.69253" lon="6.17303">
        <ele>1012.41</ele>
        <time>2012-06-01T09:31:35Z</time>
      </trkpt>
      <trkpt lat="46.69257" lon="6.17303">
        <ele>1010.96</ele>
        <time>2012-06-01T09:31:36Z</time>
      </trkpt>
      <trkpt lat="46.69261" lon="6.17303">
        <ele>1011.44</ele>
        <time>2012-06-01T09:31:37Z</time>
      </trkpt>
      <trkpt lat="46.69265" lon="6.17301">
        <ele>1010.48</ele>
        <time>2012-06-01T09:31:38Z</time>
      </trkpt>
      <trkpt lat="46.69269" lon="6.17299">
        <ele>1009.52</ele>
        <time>2012-06-01T09:31:39Z</time>
      </trkpt>
      <trkpt lat="46.69273" lon="6.17298">
        <ele>1009.04</ele>
        <time>2012-06-01T09:31:40Z</time>
      </trkpt>
      <trkpt lat="46.69277" lon="6.17298">
        <ele>1009.52</ele>
        <time>2012-06-01T09:31:41Z</time>
      </trkpt>
      <trkpt lat="46.69298" lon="6.17308">
        <ele>1007.6</ele>
        <time>2012-06-01T09:31:48Z</time>
      </trkpt>
      <trkpt lat="46.69301" lon="6.1731">
        <ele>1005.2</ele>
        <time>2012-06-01T09:31:49Z</time>
      </trkpt>
      <trkpt lat="46.69303" lon="6.17312">
        <ele>1007.12</ele>
        <time>2012-06-01T09:31:50Z</time>
      </trkpt>
      <trkpt lat="46.69308" lon="6.17316">
        <ele>1004.23</ele>
        <time>2012-06-01T09:31:55Z</time>
      </trkpt>
      <trkpt lat="46.69309" lon="6.17318">
        <ele>1004.72</ele>
        <time>2012-06-01T09:32:04Z</time>
      </trkpt>
      <trkpt lat="46.69319" lon="6.17336">
        <ele>1002.31</ele>
        <time>2012-06-01T09:32:09Z</time>
      </trkpt>
      <trkpt lat="46.69335" lon="6.17367">
        <ele>999.91</ele>
        <time>2012-06-01T09:32:16Z</time>
      </trkpt>
      <trkpt lat="46.6934" lon="6.1737">
        <ele>998.47</ele>
        <time>2012-06-01T09:32:17Z</time>
      </trkpt>
      <trkpt lat="46.69344" lon="6.17371">
        <ele>997.99</ele>
        <time>2012-06-01T09:32:18Z</time>
      </trkpt>
      <trkpt lat="46.69349" lon="6.17372">
        <ele>997.02</ele>
        <time>2012-06-01T09:32:19Z</time>
      </trkpt>
      <trkpt lat="46.69354" lon="6.17373">
        <ele>997.02</ele>
        <time>2012-06-01T09:32:20Z</time>
      </trkpt>
      <trkpt lat="46.69359" lon="6.17376">
        <ele>994.62</ele>
        <time>2012-06-01T09:32:21Z</time>
      </trkpt>
      <trkpt lat="46.69364" lon="6.17379">
        <ele>994.14</ele>
        <time>2012-06-01T09:32:22Z</time>
      </trkpt>
      <trkpt lat="46.69369" lon="6.17382">
        <ele>993.66</ele>
        <time>2012-06-01T09:32:23Z</time>
      </trkpt>
      <trkpt lat="46.69379" lon="6.17391">
        <ele>992.22</ele>
        <time>2012-06-01T09:32:25Z</time>
      </trkpt>
      <trkpt lat="46.69386" lon="6.17397">
        <ele>991.74</ele>
        <time>2012-06-01T09:32:26Z</time>
      </trkpt>
      <trkpt lat="46.69397" lon="6.17406">
        <ele>988.37</ele>
        <time>2012-06-01T09:32:28Z</time>
      </trkpt>
      <trkpt lat="46.69403" lon="6.17412">
        <ele>987.89</ele>
        <time>2012-06-01T09:32:29Z</time>
      </trkpt>
      <trkpt lat="46.69409" lon="6.17419">
        <ele>986.93</ele>
        <time>2012-06-01T09:32:30Z</time>
      </trkpt>
      <trkpt lat="46.69415" lon="6.17428">
        <ele>985.97</ele>
        <time>2012-06-01T09:32:31Z</time>
      </trkpt>
      <trkpt lat="46.6942" lon="6.17437">
        <ele>985.49</ele>
        <time>2012-06-01T09:32:32Z</time>
      </trkpt>
      <trkpt lat="46.69425" lon="6.17447">
        <ele>983.57</ele>
        <time>2012-06-01T09:32:33Z</time>
      </trkpt>
      <trkpt lat="46.69429" lon="6.17456">
        <ele>985.01</ele>
        <time>2012-06-01T09:32:34Z</time>
      </trkpt>
      <trkpt lat="46.69457" lon="6.17539">
        <ele>984.05</ele>
        <time>2012-06-01T09:32:43Z</time>
      </trkpt>
      <trkpt lat="46.69459" lon="6.17546">
        <ele>984.05</ele>
        <time>2012-06-01T09:32:44Z</time>
      </trkpt>
      <trkpt lat="46.69464" lon="6.1756">
        <ele>984.05</ele>
        <time>2012-06-01T09:32:46Z</time>
      </trkpt>
      <trkpt lat="46.69475" lon="6.17582">
        <ele>984.53</ele>
        <time>2012-06-01T09:32:50Z</time>
      </trkpt>
      <trkpt lat="46.69488" lon="6.17638">
        <ele>985.97</ele>
        <time>2012-06-01T09:33:01Z</time>
      </trkpt>
      <trkpt lat="46.69481" lon="6.17696">
        <ele>986.45</ele>
        <time>2012-06-01T09:33:14Z</time>
      </trkpt>
      <trkpt lat="46.69454" lon="6.17719">
        <ele>986.93</ele>
        <time>2012-06-01T09:33:26Z</time>
      </trkpt>
      <trkpt lat="46.69445" lon="6.17719">
        <ele>984.05</ele>
        <time>2012-06-01T09:33:30Z</time>
      </trkpt>
      <trkpt lat="46.69443" lon="6.17719">
        <ele>984.53</ele>
        <time>2012-06-01T09:33:31Z</time>
      </trkpt>
      <trkpt lat="46.6944" lon="6.17719">
        <ele>986.45</ele>
        <time>2012-06-01T09:33:33Z</time>
      </trkpt>
      <trkpt lat="46.69436" lon="6.1772">
        <ele>987.89</ele>
        <time>2012-06-01T09:33:41Z</time>
      </trkpt>
      <trkpt lat="46.6943" lon="6.1772">
        <ele>988.37</ele>
        <time>2012-06-01T09:34:18Z</time>
      </trkpt>
      <trkpt lat="46.69428" lon="6.17719">
        <ele>986.93</ele>
        <time>2012-06-01T09:34:19Z</time>
      </trkpt>
      <trkpt lat="46.69426" lon="6.17718">
        <ele>986.93</ele>
        <time>2012-06-01T09:34:20Z</time>
      </trkpt>
      <trkpt lat="46.69423" lon="6.17716">
        <ele>987.89</ele>
        <time>2012-06-01T09:34:21Z</time>
      </trkpt>
      <trkpt lat="46.69419" lon="6.17714">
        <ele>986.45</ele>
        <time>2012-06-01T09:34:22Z</time>
      </trkpt>
      <trkpt lat="46.69415" lon="6.17713">
        <ele>986.45</ele>
        <time>2012-06-01T09:34:23Z</time>
      </trkpt>
      <trkpt lat="46.69411" lon="6.17712">
        <ele>986.93</ele>
        <time>2012-06-01T09:34:24Z</time>
      </trkpt>
      <trkpt lat="46.69407" lon="6.17711">
        <ele>987.41</ele>
        <time>2012-06-01T09:34:25Z</time>
      </trkpt>
      <trkpt lat="46.69397" lon="6.1771">
        <ele>985.49</ele>
        <time>2012-06-01T09:34:27Z</time>
      </trkpt>
      <trkpt lat="46.69391" lon="6.1771">
        <ele>985.49</ele>
        <time>2012-06-01T09:34:28Z</time>
      </trkpt>
      <trkpt lat="46.69362" lon="6.17707">
        <ele>983.57</ele>
        <time>2012-06-01T09:34:33Z</time>
      </trkpt>
      <trkpt lat="46.69343" lon="6.177">
        <ele>985.49</ele>
        <time>2012-06-01T09:34:36Z</time>
      </trkpt>
      <trkpt lat="46.69339" lon="6.17699">
        <ele>983.57</ele>
        <time>2012-06-01T09:34:37Z</time>
      </trkpt>
      <trkpt lat="46.69334" lon="6.17699">
        <ele>985.01</ele>
        <time>2012-06-01T09:34:38Z</time>
      </trkpt>
      <trkpt lat="46.69331" lon="6.177">
        <ele>985.01</ele>
        <time>2012-06-01T09:34:39Z</time>
      </trkpt>
      <trkpt lat="46.69329" lon="6.17705">
        <ele>983.57</ele>
        <time>2012-06-01T09:34:40Z</time>
      </trkpt>
      <trkpt lat="46.69327" lon="6.17712">
        <ele>983.09</ele>
        <time>2012-06-01T09:34:41Z</time>
      </trkpt>
      <trkpt lat="46.69326" lon="6.17722">
        <ele>984.53</ele>
        <time>2012-06-01T09:34:42Z</time>
      </trkpt>
      <trkpt lat="46.69327" lon="6.17732">
        <ele>980.2</ele>
        <time>2012-06-01T09:34:43Z</time>
      </trkpt>
      <trkpt lat="46.69328" lon="6.17743">
        <ele>982.6</ele>
        <time>2012-06-01T09:34:44Z</time>
      </trkpt>
      <trkpt lat="46.69324" lon="6.17786">
        <ele>981.16</ele>
        <time>2012-06-01T09:34:48Z</time>
      </trkpt>
      <trkpt lat="46.69316" lon="6.17796">
        <ele>980.2</ele>
        <time>2012-06-01T09:34:49Z</time>
      </trkpt>
      <trkpt lat="46.69308" lon="6.17803">
        <ele>981.16</ele>
        <time>2012-06-01T09:34:50Z</time>
      </trkpt>
      <trkpt lat="46.69302" lon="6.17808">
        <ele>981.16</ele>
        <time>2012-06-01T09:34:51Z</time>
      </trkpt>
      <trkpt lat="46.69294" lon="6.17812">
        <ele>981.16</ele>
        <time>2012-06-01T09:34:52Z</time>
      </trkpt>
      <trkpt lat="46.6928" lon="6.1782">
        <ele>980.68</ele>
        <time>2012-06-01T09:34:54Z</time>
      </trkpt>
      <trkpt lat="46.69273" lon="6.17825">
        <ele>980.2</ele>
        <time>2012-06-01T09:34:55Z</time>
      </trkpt>
      <trkpt lat="46.69268" lon="6.17831">
        <ele>980.2</ele>
        <time>2012-06-01T09:34:56Z</time>
      </trkpt>
      <trkpt lat="46.69264" lon="6.17838">
        <ele>979.72</ele>
        <time>2012-06-01T09:34:57Z</time>
      </trkpt>
      <trkpt lat="46.69262" lon="6.17847">
        <ele>977.8</ele>
        <time>2012-06-01T09:34:58Z</time>
      </trkpt>
      <trkpt lat="46.69261" lon="6.17853">
        <ele>979.24</ele>
        <time>2012-06-01T09:34:59Z</time>
      </trkpt>
      <trkpt lat="46.6926" lon="6.1786">
        <ele>979.24</ele>
        <time>2012-06-01T09:35:01Z</time>
      </trkpt>
      <trkpt lat="46.69261" lon="6.17863">
        <ele>982.6</ele>
        <time>2012-06-01T09:35:17Z</time>
      </trkpt>
      <trkpt lat="46.69261" lon="6.17863">
        <ele>974.43</ele>
        <time>2012-06-01T09:35:22Z</time>
      </trkpt>
      <trkpt lat="46.69261" lon="6.17863">
        <ele>979.72</ele>
        <time>2012-06-01T09:35:23Z</time>
      </trkpt>
      <trkpt lat="46.69261" lon="6.17863">
        <ele>979.24</ele>
        <time>2012-06-01T09:35:37Z</time>
      </trkpt>
      <trkpt lat="46.69261" lon="6.17863">
        <ele>980.2</ele>
        <time>2012-06-01T09:35:39Z</time>
      </trkpt>
      <trkpt lat="46.69262" lon="6.17864">
        <ele>979.72</ele>
        <time>2012-06-01T09:35:50Z</time>
      </trkpt>
      <trkpt lat="46.69262" lon="6.17864">
        <ele>979.72</ele>
        <time>2012-06-01T09:36:17Z</time>
      </trkpt>
      <trkpt lat="46.69261" lon="6.17867">
        <ele>981.16</ele>
        <time>2012-06-01T09:36:28Z</time>
      </trkpt>
      <trkpt lat="46.69261" lon="6.17869">
        <ele>979.24</ele>
        <time>2012-06-01T09:36:29Z</time>
      </trkpt>
      <trkpt lat="46.69261" lon="6.17871">
        <ele>980.68</ele>
        <time>2012-06-01T09:36:30Z</time>
      </trkpt>
      <trkpt lat="46.69261" lon="6.17874">
        <ele>979.72</ele>
        <time>2012-06-01T09:36:31Z</time>
      </trkpt>
      <trkpt lat="46.69261" lon="6.17877">
        <ele>980.2</ele>
        <time>2012-06-01T09:36:32Z</time>
      </trkpt>
      <trkpt lat="46.69262" lon="6.1788">
        <ele>980.68</ele>
        <time>2012-06-01T09:36:33Z</time>
      </trkpt>
      <trkpt lat="46.69264" lon="6.1789">
        <ele>980.2</ele>
        <time>2012-06-01T09:36:39Z</time>
      </trkpt>
      <trkpt lat="46.69268" lon="6.17894">
        <ele>978.76</ele>
        <time>2012-06-01T09:36:43Z</time>
      </trkpt>
      <trkpt lat="46.69269" lon="6.17896">
        <ele>978.76</ele>
        <time>2012-06-01T09:36:44Z</time>
      </trkpt>
      <trkpt lat="46.69271" lon="6.17898">
        <ele>979.24</ele>
        <time>2012-06-01T09:36:45Z</time>
      </trkpt>
      <trkpt lat="46.69289" lon="6.1792">
        <ele>979.24</ele>
        <time>2012-06-01T09:36:56Z</time>
      </trkpt>
      <trkpt lat="46.69316" lon="6.17957">
        <ele>976.84</ele>
        <time>2012-06-01T09:37:07Z</time>
      </trkpt>
      <trkpt lat="46.69325" lon="6.1797">
        <ele>978.28</ele>
        <time>2012-06-01T09:37:10Z</time>
      </trkpt>
      <trkpt lat="46.69342" lon="6.17994">
        <ele>977.8</ele>
        <time>2012-06-01T09:37:16Z</time>
      </trkpt>
      <trkpt lat="46.69345" lon="6.17997">
        <ele>978.28</ele>
        <time>2012-06-01T09:37:17Z</time>
      </trkpt>
      <trkpt lat="46.69374" lon="6.18026">
        <ele>978.76</ele>
        <time>2012-06-01T09:37:28Z</time>
      </trkpt>
      <trkpt lat="46.69399" lon="6.18057">
        <ele>974.91</ele>
        <time>2012-06-01T09:37:37Z</time>
      </trkpt>
      <trkpt lat="46.69404" lon="6.18059">
        <ele>973.47</ele>
        <time>2012-06-01T09:37:38Z</time>
      </trkpt>
      <trkpt lat="46.69421" lon="6.18066">
        <ele>971.07</ele>
        <time>2012-06-01T09:37:41Z</time>
      </trkpt>
      <trkpt lat="46.69438" lon="6.18076">
        <ele>968.67</ele>
        <time>2012-06-01T09:37:44Z</time>
      </trkpt>
      <trkpt lat="46.69445" lon="6.18081">
        <ele>968.18</ele>
        <time>2012-06-01T09:37:45Z</time>
      </trkpt>
      <trkpt lat="46.69451" lon="6.18086">
        <ele>967.22</ele>
        <time>2012-06-01T09:37:46Z</time>
      </trkpt>
      <trkpt lat="46.69472" lon="6.18105">
        <ele>965.3</ele>
        <time>2012-06-01T09:37:49Z</time>
      </trkpt>
      <trkpt lat="46.69499" lon="6.1813">
        <ele>961.94</ele>
        <time>2012-06-01T09:37:52Z</time>
      </trkpt>
      <trkpt lat="46.69505" lon="6.18138">
        <ele>962.9</ele>
        <time>2012-06-01T09:37:53Z</time>
      </trkpt>
      <trkpt lat="46.69517" lon="6.18154">
        <ele>962.9</ele>
        <time>2012-06-01T09:37:55Z</time>
      </trkpt>
      <trkpt lat="46.69528" lon="6.18169">
        <ele>963.38</ele>
        <time>2012-06-01T09:38:02Z</time>
      </trkpt>
      <trkpt lat="46.6953" lon="6.18168">
        <ele>963.38</ele>
        <time>2012-06-01T09:38:07Z</time>
      </trkpt>
      <trkpt lat="46.69529" lon="6.18167">
        <ele>961.94</ele>
        <time>2012-06-01T09:38:08Z</time>
      </trkpt>
      <trkpt lat="46.69529" lon="6.18165">
        <ele>963.86</ele>
        <time>2012-06-01T09:38:09Z</time>
      </trkpt>
      <trkpt lat="46.69523" lon="6.1814">
        <ele>962.9</ele>
        <time>2012-06-01T09:38:16Z</time>
      </trkpt>
      <trkpt lat="46.69522" lon="6.18137">
        <ele>962.42</ele>
        <time>2012-06-01T09:38:17Z</time>
      </trkpt>
      <trkpt lat="46.69521" lon="6.18135">
        <ele>964.34</ele>
        <time>2012-06-01T09:38:18Z</time>
      </trkpt>
      <trkpt lat="46.6952" lon="6.18134">
        <ele>964.34</ele>
        <time>2012-06-01T09:38:19Z</time>
      </trkpt>
      <trkpt lat="46.6952" lon="6.18135">
        <ele>961.46</ele>
        <time>2012-06-01T09:38:26Z</time>
      </trkpt>
      <trkpt lat="46.69529" lon="6.18163">
        <ele>963.38</ele>
        <time>2012-06-01T09:38:36Z</time>
      </trkpt>
      <trkpt lat="46.6954" lon="6.18199">
        <ele>963.38</ele>
        <time>2012-06-01T09:38:47Z</time>
      </trkpt>
      <trkpt lat="46.69541" lon="6.1826">
        <ele>962.9</ele>
        <time>2012-06-01T09:38:59Z</time>
      </trkpt>
      <trkpt lat="46.69552" lon="6.18291">
        <ele>962.42</ele>
        <time>2012-06-01T09:39:04Z</time>
      </trkpt>
      <trkpt lat="46.69558" lon="6.18304">
        <ele>961.46</ele>
        <time>2012-06-01T09:39:06Z</time>
      </trkpt>
      <trkpt lat="46.6956" lon="6.1831">
        <ele>962.42</ele>
        <time>2012-06-01T09:39:07Z</time>
      </trkpt>
      <trkpt lat="46.69565" lon="6.18322">
        <ele>961.94</ele>
        <time>2012-06-01T09:39:09Z</time>
      </trkpt>
      <trkpt lat="46.69573" lon="6.18359">
        <ele>961.46</ele>
        <time>2012-06-01T09:39:15Z</time>
      </trkpt>
      <trkpt lat="46.69572" lon="6.18367">
        <ele>960.98</ele>
        <time>2012-06-01T09:39:16Z</time>
      </trkpt>
      <trkpt lat="46.6957" lon="6.18374">
        <ele>962.42</ele>
        <time>2012-06-01T09:39:17Z</time>
      </trkpt>
      <trkpt lat="46.69568" lon="6.18381">
        <ele>961.46</ele>
        <time>2012-06-01T09:39:18Z</time>
      </trkpt>
      <trkpt lat="46.69565" lon="6.18387">
        <ele>960.98</ele>
        <time>2012-06-01T09:39:19Z</time>
      </trkpt>
      <trkpt lat="46.69562" lon="6.18394">
        <ele>960.01</ele>
        <time>2012-06-01T09:39:20Z</time>
      </trkpt>
      <trkpt lat="46.69558" lon="6.18401">
        <ele>960.01</ele>
        <time>2012-06-01T09:39:21Z</time>
      </trkpt>
      <trkpt lat="46.69553" lon="6.18406">
        <ele>961.46</ele>
        <time>2012-06-01T09:39:22Z</time>
      </trkpt>
      <trkpt lat="46.69548" lon="6.1841">
        <ele>960.49</ele>
        <time>2012-06-01T09:39:23Z</time>
      </trkpt>
      <trkpt lat="46.69543" lon="6.18414">
        <ele>959.53</ele>
        <time>2012-06-01T09:39:24Z</time>
      </trkpt>
      <trkpt lat="46.69537" lon="6.18416">
        <ele>960.49</ele>
        <time>2012-06-01T09:39:25Z</time>
      </trkpt>
      <trkpt lat="46.69514" lon="6.18427">
        <ele>958.57</ele>
        <time>2012-06-01T09:39:29Z</time>
      </trkpt>
      <trkpt lat="46.69509" lon="6.18432">
        <ele>957.61</ele>
        <time>2012-06-01T09:39:30Z</time>
      </trkpt>
      <trkpt lat="46.69503" lon="6.18438">
        <ele>957.61</ele>
        <time>2012-06-01T09:39:31Z</time>
      </trkpt>
      <trkpt lat="46.69493" lon="6.18449">
        <ele>957.13</ele>
        <time>2012-06-01T09:39:33Z</time>
      </trkpt>
      <trkpt lat="46.69488" lon="6.18453">
        <ele>956.65</ele>
        <time>2012-06-01T09:39:34Z</time>
      </trkpt>
      <trkpt lat="46.69472" lon="6.18466">
        <ele>958.09</ele>
        <time>2012-06-01T09:39:37Z</time>
      </trkpt>
      <trkpt lat="46.69468" lon="6.1847">
        <ele>958.09</ele>
        <time>2012-06-01T09:39:38Z</time>
      </trkpt>
      <trkpt lat="46.69466" lon="6.18475">
        <ele>957.61</ele>
        <time>2012-06-01T09:39:39Z</time>
      </trkpt>
      <trkpt lat="46.69464" lon="6.1848">
        <ele>958.09</ele>
        <time>2012-06-01T09:39:40Z</time>
      </trkpt>
      <trkpt lat="46.69463" lon="6.18485">
        <ele>958.09</ele>
        <time>2012-06-01T09:39:41Z</time>
      </trkpt>
      <trkpt lat="46.69462" lon="6.1849">
        <ele>958.57</ele>
        <time>2012-06-01T09:39:42Z</time>
      </trkpt>
      <trkpt lat="46.69461" lon="6.18494">
        <ele>958.09</ele>
        <time>2012-06-01T09:39:43Z</time>
      </trkpt>
      <trkpt lat="46.69459" lon="6.18508">
        <ele>958.57</ele>
        <time>2012-06-01T09:39:46Z</time>
      </trkpt>
      <trkpt lat="46.6946" lon="6.18514">
        <ele>958.09</ele>
        <time>2012-06-01T09:39:47Z</time>
      </trkpt>
      <trkpt lat="46.69463" lon="6.18518">
        <ele>958.09</ele>
        <time>2012-06-01T09:39:48Z</time>
      </trkpt>
      <trkpt lat="46.69466" lon="6.18522">
        <ele>957.13</ele>
        <time>2012-06-01T09:39:49Z</time>
      </trkpt>
      <trkpt lat="46.69469" lon="6.18524">
        <ele>957.13</ele>
        <time>2012-06-01T09:39:50Z</time>
      </trkpt>
      <trkpt lat="46.6949" lon="6.18534">
        <ele>959.05</ele>
        <time>2012-06-01T09:39:56Z</time>
      </trkpt>
      <trkpt lat="46.69527" lon="6.1856">
        <ele>958.57</ele>
        <time>2012-06-01T09:40:07Z</time>
      </trkpt>
      <trkpt lat="46.69538" lon="6.18567">
        <ele>961.94</ele>
        <time>2012-06-01T09:40:10Z</time>
      </trkpt>
      <trkpt lat="46.69542" lon="6.18569">
        <ele>958.57</ele>
        <time>2012-06-01T09:40:11Z</time>
      </trkpt>
      <trkpt lat="46.69573" lon="6.18576">
        <ele>958.09</ele>
        <time>2012-06-01T09:40:18Z</time>
      </trkpt>
      <trkpt lat="46.69578" lon="6.18578">
        <ele>957.61</ele>
        <time>2012-06-01T09:40:19Z</time>
      </trkpt>
      <trkpt lat="46.69604" lon="6.18591">
        <ele>956.17</ele>
        <time>2012-06-01T09:40:25Z</time>
      </trkpt>
      <trkpt lat="46.6963" lon="6.18604">
        <ele>956.65</ele>
        <time>2012-06-01T09:40:31Z</time>
      </trkpt>
      <trkpt lat="46.69673" lon="6.18641">
        <ele>957.61</ele>
        <time>2012-06-01T09:40:43Z</time>
      </trkpt>
      <trkpt lat="46.69716" lon="6.18687">
        <ele>955.69</ele>
        <time>2012-06-01T09:40:55Z</time>
      </trkpt>
      <trkpt lat="46.69731" lon="6.18716">
        <ele>956.17</ele>
        <time>2012-06-01T09:41:00Z</time>
      </trkpt>
      <trkpt lat="46.69751" lon="6.18752">
        <ele>950.88</ele>
        <time>2012-06-01T09:41:07Z</time>
      </trkpt>
      <trkpt lat="46.69754" lon="6.18757">
        <ele>955.21</ele>
        <time>2012-06-01T09:41:08Z</time>
      </trkpt>
      <trkpt lat="46.69771" lon="6.18777">
        <ele>955.21</ele>
        <time>2012-06-01T09:41:13Z</time>
      </trkpt>
      <trkpt lat="46.69775" lon="6.1878">
        <ele>955.21</ele>
        <time>2012-06-01T09:41:14Z</time>
      </trkpt>
      <trkpt lat="46.69791" lon="6.18793">
        <ele>954.73</ele>
        <time>2012-06-01T09:41:18Z</time>
      </trkpt>
      <trkpt lat="46.69829" lon="6.18841">
        <ele>954.25</ele>
        <time>2012-06-01T09:41:29Z</time>
      </trkpt>
      <trkpt lat="46.69873" lon="6.18882">
        <ele>954.73</ele>
        <time>2012-06-01T09:41:40Z</time>
      </trkpt>
      <trkpt lat="46.69877" lon="6.18886">
        <ele>955.21</ele>
        <time>2012-06-01T09:41:41Z</time>
      </trkpt>
      <trkpt lat="46.69924" lon="6.18936">
        <ele>952.32</ele>
        <time>2012-06-01T09:41:53Z</time>
      </trkpt>
      <trkpt lat="46.69928" lon="6.18942">
        <ele>952.8</ele>
        <time>2012-06-01T09:41:54Z</time>
      </trkpt>
      <trkpt lat="46.69963" lon="6.19014">
        <ele>951.84</ele>
        <time>2012-06-01T09:42:05Z</time>
      </trkpt>
      <trkpt lat="46.69996" lon="6.19092">
        <ele>950.88</ele>
        <time>2012-06-01T09:42:18Z</time>
      </trkpt>
      <trkpt lat="46.70028" lon="6.1916">
        <ele>950.88</ele>
        <time>2012-06-01T09:42:29Z</time>
      </trkpt>
      <trkpt lat="46.70064" lon="6.19263">
        <ele>949.44</ele>
        <time>2012-06-01T09:42:45Z</time>
      </trkpt>
      <trkpt lat="46.70072" lon="6.19294">
        <ele>949.92</ele>
        <time>2012-06-01T09:42:50Z</time>
      </trkpt>
      <trkpt lat="46.70075" lon="6.19314">
        <ele>950.4</ele>
        <time>2012-06-01T09:42:53Z</time>
      </trkpt>
      <trkpt lat="46.70077" lon="6.19333">
        <ele>950.88</ele>
        <time>2012-06-01T09:42:56Z</time>
      </trkpt>
      <trkpt lat="46.70087" lon="6.19361">
        <ele>949.92</ele>
        <time>2012-06-01T09:43:01Z</time>
      </trkpt>
      <trkpt lat="46.7009" lon="6.19366">
        <ele>949.92</ele>
        <time>2012-06-01T09:43:02Z</time>
      </trkpt>
      <trkpt lat="46.70092" lon="6.19371">
        <ele>948.96</ele>
        <time>2012-06-01T09:43:03Z</time>
      </trkpt>
      <trkpt lat="46.70094" lon="6.19375">
        <ele>950.88</ele>
        <time>2012-06-01T09:43:04Z</time>
      </trkpt>
      <trkpt lat="46.70096" lon="6.19379">
        <ele>951.36</ele>
        <time>2012-06-01T09:43:05Z</time>
      </trkpt>
      <trkpt lat="46.70099" lon="6.19383">
        <ele>950.4</ele>
        <time>2012-06-01T09:43:06Z</time>
      </trkpt>
      <trkpt lat="46.70101" lon="6.19387">
        <ele>951.36</ele>
        <time>2012-06-01T09:43:07Z</time>
      </trkpt>
      <trkpt lat="46.70103" lon="6.1939">
        <ele>950.4</ele>
        <time>2012-06-01T09:43:08Z</time>
      </trkpt>
      <trkpt lat="46.70107" lon="6.19394">
        <ele>950.4</ele>
        <time>2012-06-01T09:43:09Z</time>
      </trkpt>
      <trkpt lat="46.7011" lon="6.19397">
        <ele>949.92</ele>
        <time>2012-06-01T09:43:10Z</time>
      </trkpt>
      <trkpt lat="46.70114" lon="6.19399">
        <ele>951.36</ele>
        <time>2012-06-01T09:43:11Z</time>
      </trkpt>
      <trkpt lat="46.70118" lon="6.194">
        <ele>950.88</ele>
        <time>2012-06-01T09:43:12Z</time>
      </trkpt>
      <trkpt lat="46.70123" lon="6.19399">
        <ele>949.92</ele>
        <time>2012-06-01T09:43:13Z</time>
      </trkpt>
      <trkpt lat="46.70128" lon="6.19397">
        <ele>948.96</ele>
        <time>2012-06-01T09:43:14Z</time>
      </trkpt>
      <trkpt lat="46.70133" lon="6.19395">
        <ele>949.92</ele>
        <time>2012-06-01T09:43:15Z</time>
      </trkpt>
      <trkpt lat="46.70138" lon="6.19391">
        <ele>947.52</ele>
        <time>2012-06-01T09:43:16Z</time>
      </trkpt>
      <trkpt lat="46.70143" lon="6.19385">
        <ele>948.96</ele>
        <time>2012-06-01T09:43:17Z</time>
      </trkpt>
      <trkpt lat="46.70148" lon="6.19379">
        <ele>948.48</ele>
        <time>2012-06-01T09:43:18Z</time>
      </trkpt>
      <trkpt lat="46.70171" lon="6.19345">
        <ele>947.04</ele>
        <time>2012-06-01T09:43:23Z</time>
      </trkpt>
      <trkpt lat="46.70184" lon="6.19324">
        <ele>941.75</ele>
        <time>2012-06-01T09:43:26Z</time>
      </trkpt>
      <trkpt lat="46.70189" lon="6.19317">
        <ele>946.07</ele>
        <time>2012-06-01T09:43:27Z</time>
      </trkpt>
      <trkpt lat="46.7025" lon="6.19223">
        <ele>945.59</ele>
        <time>2012-06-01T09:43:42Z</time>
      </trkpt>
      <trkpt lat="46.70307" lon="6.19135">
        <ele>945.59</ele>
        <time>2012-06-01T09:43:56Z</time>
      </trkpt>
      <trkpt lat="46.70368" lon="6.19043">
        <ele>945.59</ele>
        <time>2012-06-01T09:44:12Z</time>
      </trkpt>
      <trkpt lat="46.70419" lon="6.18967">
        <ele>944.63</ele>
        <time>2012-06-01T09:44:26Z</time>
      </trkpt>
      <trkpt lat="46.70461" lon="6.18907">
        <ele>945.59</ele>
        <time>2012-06-01T09:44:38Z</time>
      </trkpt>
      <trkpt lat="46.70501" lon="6.18859">
        <ele>945.59</ele>
        <time>2012-06-01T09:44:51Z</time>
      </trkpt>
      <trkpt lat="46.70506" lon="6.18835">
        <ele>945.59</ele>
        <time>2012-06-01T09:44:58Z</time>
      </trkpt>
      <trkpt lat="46.70504" lon="6.18832">
        <ele>946.56</ele>
        <time>2012-06-01T09:44:59Z</time>
      </trkpt>
      <trkpt lat="46.70469" lon="6.18791">
        <ele>945.11</ele>
        <time>2012-06-01T09:45:11Z</time>
      </trkpt>
      <trkpt lat="46.70419" lon="6.18743">
        <ele>946.07</ele>
        <time>2012-06-01T09:45:26Z</time>
      </trkpt>
      <trkpt lat="46.70381" lon="6.1871">
        <ele>946.56</ele>
        <time>2012-06-01T09:45:36Z</time>
      </trkpt>
      <trkpt lat="46.70378" lon="6.18706">
        <ele>947.04</ele>
        <time>2012-06-01T09:45:37Z</time>
      </trkpt>
      <trkpt lat="46.70314" lon="6.18643">
        <ele>948.48</ele>
        <time>2012-06-01T09:45:54Z</time>
      </trkpt>
      <trkpt lat="46.70266" lon="6.18561">
        <ele>950.4</ele>
        <time>2012-06-01T09:46:11Z</time>
      </trkpt>
      <trkpt lat="46.70205" lon="6.18485">
        <ele>952.32</ele>
        <time>2012-06-01T09:46:30Z</time>
      </trkpt>
      <trkpt lat="46.7016" lon="6.18435">
        <ele>954.25</ele>
        <time>2012-06-01T09:46:44Z</time>
      </trkpt>
      <trkpt lat="46.70106" lon="6.18383">
        <ele>957.61</ele>
        <time>2012-06-01T09:46:59Z</time>
      </trkpt>
      <trkpt lat="46.70102" lon="6.18379">
        <ele>957.61</ele>
        <time>2012-06-01T09:47:00Z</time>
      </trkpt>
      <trkpt lat="46.7006" lon="6.1833">
        <ele>959.05</ele>
        <time>2012-06-01T09:47:12Z</time>
      </trkpt>
      <trkpt lat="46.70057" lon="6.18326">
        <ele>959.53</ele>
        <time>2012-06-01T09:47:13Z</time>
      </trkpt>
      <trkpt lat="46.70053" lon="6.18321">
        <ele>960.49</ele>
        <time>2012-06-01T09:47:14Z</time>
      </trkpt>
      <trkpt lat="46.70015" lon="6.18255">
        <ele>964.34</ele>
        <time>2012-06-01T09:47:27Z</time>
      </trkpt>
      <trkpt lat="46.69994" lon="6.18225">
        <ele>965.3</ele>
        <time>2012-06-01T09:47:34Z</time>
      </trkpt>
      <trkpt lat="46.69984" lon="6.18215">
        <ele>964.82</ele>
        <time>2012-06-01T09:47:37Z</time>
      </trkpt>
      <trkpt lat="46.6992" lon="6.18153">
        <ele>967.22</ele>
        <time>2012-06-01T09:47:54Z</time>
      </trkpt>
      <trkpt lat="46.69888" lon="6.18102">
        <ele>968.67</ele>
        <time>2012-06-01T09:48:04Z</time>
      </trkpt>
      <trkpt lat="46.69876" lon="6.1808">
        <ele>970.11</ele>
        <time>2012-06-01T09:48:08Z</time>
      </trkpt>
      <trkpt lat="46.6986" lon="6.1803">
        <ele>971.07</ele>
        <time>2012-06-01T09:48:16Z</time>
      </trkpt>
      <trkpt lat="46.69852" lon="6.17959">
        <ele>970.59</ele>
        <time>2012-06-01T09:48:26Z</time>
      </trkpt>
      <trkpt lat="46.69839" lon="6.17889">
        <ele>973.95</ele>
        <time>2012-06-01T09:48:36Z</time>
      </trkpt>
      <trkpt lat="46.69828" lon="6.17853">
        <ele>975.39</ele>
        <time>2012-06-01T09:48:42Z</time>
      </trkpt>
      <trkpt lat="46.69828" lon="6.17846">
        <ele>974.43</ele>
        <time>2012-06-01T09:48:43Z</time>
      </trkpt>
      <trkpt lat="46.6983" lon="6.1784">
        <ele>974.91</ele>
        <time>2012-06-01T09:48:44Z</time>
      </trkpt>
      <trkpt lat="46.69832" lon="6.17835">
        <ele>975.39</ele>
        <time>2012-06-01T09:48:45Z</time>
      </trkpt>
      <trkpt lat="46.69835" lon="6.17831">
        <ele>975.88</ele>
        <time>2012-06-01T09:48:46Z</time>
      </trkpt>
      <trkpt lat="46.69859" lon="6.17799">
        <ele>978.28</ele>
        <time>2012-06-01T09:48:56Z</time>
      </trkpt>
      <trkpt lat="46.69897" lon="6.17752">
        <ele>975.88</ele>
        <time>2012-06-01T09:49:11Z</time>
      </trkpt>
      <trkpt lat="46.69938" lon="6.17697">
        <ele>976.36</ele>
        <time>2012-06-01T09:49:23Z</time>
      </trkpt>
      <trkpt lat="46.69941" lon="6.17693">
        <ele>976.84</ele>
        <time>2012-06-01T09:49:24Z</time>
      </trkpt>
      <trkpt lat="46.69943" lon="6.17689">
        <ele>971.07</ele>
        <time>2012-06-01T09:49:25Z</time>
      </trkpt>
      <trkpt lat="46.69946" lon="6.17685">
        <ele>976.84</ele>
        <time>2012-06-01T09:49:26Z</time>
      </trkpt>
      <trkpt lat="46.69959" lon="6.17667">
        <ele>978.76</ele>
        <time>2012-06-01T09:49:31Z</time>
      </trkpt>
      <trkpt lat="46.69982" lon="6.17649">
        <ele>982.12</ele>
        <time>2012-06-01T09:49:40Z</time>
      </trkpt>
      <trkpt lat="46.70004" lon="6.17643">
        <ele>984.05</ele>
        <time>2012-06-01T09:49:48Z</time>
      </trkpt>
      <trkpt lat="46.70036" lon="6.17636">
        <ele>987.41</ele>
        <time>2012-06-01T09:49:59Z</time>
      </trkpt>
      <trkpt lat="46.70071" lon="6.17625">
        <ele>987.41</ele>
        <time>2012-06-01T09:50:12Z</time>
      </trkpt>
      <trkpt lat="46.70105" lon="6.17585">
        <ele>986.93</ele>
        <time>2012-06-01T09:50:26Z</time>
      </trkpt>
      <trkpt lat="46.7013" lon="6.17556">
        <ele>983.57</ele>
        <time>2012-06-01T09:50:35Z</time>
      </trkpt>
      <trkpt lat="46.70139" lon="6.17547">
        <ele>985.01</ele>
        <time>2012-06-01T09:50:37Z</time>
      </trkpt>
      <trkpt lat="46.70143" lon="6.17541">
        <ele>984.53</ele>
        <time>2012-06-01T09:50:38Z</time>
      </trkpt>
      <trkpt lat="46.70149" lon="6.17536">
        <ele>985.49</ele>
        <time>2012-06-01T09:50:39Z</time>
      </trkpt>
      <trkpt lat="46.70167" lon="6.17517">
        <ele>985.97</ele>
        <time>2012-06-01T09:50:43Z</time>
      </trkpt>
      <trkpt lat="46.70171" lon="6.17513">
        <ele>984.53</ele>
        <time>2012-06-01T09:50:44Z</time>
      </trkpt>
      <trkpt lat="46.70191" lon="6.17498">
        <ele>986.45</ele>
        <time>2012-06-01T09:50:49Z</time>
      </trkpt>
      <trkpt lat="46.70195" lon="6.17496">
        <ele>985.49</ele>
        <time>2012-06-01T09:50:50Z</time>
      </trkpt>
      <trkpt lat="46.70199" lon="6.17496">
        <ele>986.45</ele>
        <time>2012-06-01T09:50:51Z</time>
      </trkpt>
      <trkpt lat="46.70204" lon="6.17497">
        <ele>985.97</ele>
        <time>2012-06-01T09:50:52Z</time>
      </trkpt>
      <trkpt lat="46.70208" lon="6.17499">
        <ele>985.49</ele>
        <time>2012-06-01T09:50:53Z</time>
      </trkpt>
      <trkpt lat="46.70212" lon="6.17502">
        <ele>985.97</ele>
        <time>2012-06-01T09:50:54Z</time>
      </trkpt>
      <trkpt lat="46.70215" lon="6.17505">
        <ele>986.93</ele>
        <time>2012-06-01T09:50:55Z</time>
      </trkpt>
      <trkpt lat="46.70221" lon="6.1751">
        <ele>987.41</ele>
        <time>2012-06-01T09:50:57Z</time>
      </trkpt>
      <trkpt lat="46.70259" lon="6.17543">
        <ele>989.81</ele>
        <time>2012-06-01T09:51:10Z</time>
      </trkpt>
      <trkpt lat="46.70287" lon="6.17577">
        <ele>988.85</ele>
        <time>2012-06-01T09:51:22Z</time>
      </trkpt>
      <trkpt lat="46.70311" lon="6.17624">
        <ele>987.89</ele>
        <time>2012-06-01T09:51:33Z</time>
      </trkpt>
      <trkpt lat="46.70315" lon="6.17627">
        <ele>986.93</ele>
        <time>2012-06-01T09:51:34Z</time>
      </trkpt>
      <trkpt lat="46.70321" lon="6.17628">
        <ele>986.93</ele>
        <time>2012-06-01T09:51:35Z</time>
      </trkpt>
      <trkpt lat="46.70327" lon="6.17624">
        <ele>986.93</ele>
        <time>2012-06-01T09:51:36Z</time>
      </trkpt>
      <trkpt lat="46.70332" lon="6.17617">
        <ele>985.97</ele>
        <time>2012-06-01T09:51:37Z</time>
      </trkpt>
      <trkpt lat="46.70337" lon="6.17608">
        <ele>984.05</ele>
        <time>2012-06-01T09:51:38Z</time>
      </trkpt>
      <trkpt lat="46.70353" lon="6.17575">
        <ele>979.24</ele>
        <time>2012-06-01T09:51:41Z</time>
      </trkpt>
      <trkpt lat="46.70358" lon="6.17565">
        <ele>982.12</ele>
        <time>2012-06-01T09:51:42Z</time>
      </trkpt>
      <trkpt lat="46.70379" lon="6.17534">
        <ele>983.09</ele>
        <time>2012-06-01T09:51:46Z</time>
      </trkpt>
      <trkpt lat="46.70383" lon="6.17529">
        <ele>983.57</ele>
        <time>2012-06-01T09:51:47Z</time>
      </trkpt>
      <trkpt lat="46.70386" lon="6.17525">
        <ele>983.57</ele>
        <time>2012-06-01T09:51:48Z</time>
      </trkpt>
      <trkpt lat="46.7039" lon="6.17522">
        <ele>984.05</ele>
        <time>2012-06-01T09:51:49Z</time>
      </trkpt>
      <trkpt lat="46.70393" lon="6.17519">
        <ele>984.53</ele>
        <time>2012-06-01T09:51:50Z</time>
      </trkpt>
      <trkpt lat="46.70396" lon="6.17516">
        <ele>986.45</ele>
        <time>2012-06-01T09:51:51Z</time>
      </trkpt>
      <trkpt lat="46.70398" lon="6.17514">
        <ele>984.05</ele>
        <time>2012-06-01T09:51:52Z</time>
      </trkpt>
      <trkpt lat="46.70417" lon="6.17488">
        <ele>987.89</ele>
        <time>2012-06-01T09:52:02Z</time>
      </trkpt>
      <trkpt lat="46.70438" lon="6.17469">
        <ele>990.78</ele>
        <time>2012-06-01T09:52:14Z</time>
      </trkpt>
      <trkpt lat="46.70446" lon="6.17474">
        <ele>991.74</ele>
        <time>2012-06-01T09:52:18Z</time>
      </trkpt>
      <trkpt lat="46.70464" lon="6.17501">
        <ele>994.62</ele>
        <time>2012-06-01T09:52:32Z</time>
      </trkpt>
      <trkpt lat="46.70479" lon="6.17528">
        <ele>996.54</ele>
        <time>2012-06-01T09:52:47Z</time>
      </trkpt>
      <trkpt lat="46.7049" lon="6.17545">
        <ele>999.43</ele>
        <time>2012-06-01T09:52:57Z</time>
      </trkpt>
      <trkpt lat="46.70491" lon="6.17547">
        <ele>998.95</ele>
        <time>2012-06-01T09:52:58Z</time>
      </trkpt>
      <trkpt lat="46.70493" lon="6.17548">
        <ele>998.95</ele>
        <time>2012-06-01T09:52:59Z</time>
      </trkpt>
      <trkpt lat="46.70494" lon="6.17549">
        <ele>998.95</ele>
        <time>2012-06-01T09:53:00Z</time>
      </trkpt>
      <trkpt lat="46.70495" lon="6.17551">
        <ele>999.91</ele>
        <time>2012-06-01T09:53:01Z</time>
      </trkpt>
      <trkpt lat="46.70496" lon="6.17553">
        <ele>1000.39</ele>
        <time>2012-06-01T09:53:02Z</time>
      </trkpt>
      <trkpt lat="46.70497" lon="6.17554">
        <ele>1000.39</ele>
        <time>2012-06-01T09:53:03Z</time>
      </trkpt>
      <trkpt lat="46.70499" lon="6.17555">
        <ele>999.91</ele>
        <time>2012-06-01T09:53:04Z</time>
      </trkpt>
      <trkpt lat="46.705" lon="6.17556">
        <ele>999.91</ele>
        <time>2012-06-01T09:53:05Z</time>
      </trkpt>
      <trkpt lat="46.70504" lon="6.17558">
        <ele>999.43</ele>
        <time>2012-06-01T09:53:20Z</time>
      </trkpt>
      <trkpt lat="46.70505" lon="6.17559">
        <ele>1000.39</ele>
        <time>2012-06-01T09:53:46Z</time>
      </trkpt>
      <trkpt lat="46.70504" lon="6.17558">
        <ele>1000.87</ele>
        <time>2012-06-01T09:55:49Z</time>
      </trkpt>
      <trkpt lat="46.70504" lon="6.17558">
        <ele>1000.39</ele>
        <time>2012-06-01T09:56:15Z</time>
      </trkpt>
      <trkpt lat="46.70505" lon="6.17558">
        <ele>1000.39</ele>
        <time>2012-06-01T09:56:31Z</time>
      </trkpt>
      <trkpt lat="46.70505" lon="6.17558">
        <ele>997.99</ele>
        <time>2012-06-01T09:56:43Z</time>
      </trkpt>
      <trkpt lat="46.70505" lon="6.17558">
        <ele>999.43</ele>
        <time>2012-06-01T09:56:48Z</time>
      </trkpt>
      <trkpt lat="46.70505" lon="6.17558">
        <ele>1002.31</ele>
        <time>2012-06-01T09:56:49Z</time>
      </trkpt>
      <trkpt lat="46.70505" lon="6.17557">
        <ele>1001.35</ele>
        <time>2012-06-01T09:56:50Z</time>
      </trkpt>
      <trkpt lat="46.70505" lon="6.17555">
        <ele>1001.83</ele>
        <time>2012-06-01T09:56:52Z</time>
      </trkpt>
      <trkpt lat="46.70506" lon="6.17553">
        <ele>999.43</ele>
        <time>2012-06-01T09:56:53Z</time>
      </trkpt>
      <trkpt lat="46.70507" lon="6.17524">
        <ele>1003.27</ele>
        <time>2012-06-01T09:57:03Z</time>
      </trkpt>
      <trkpt lat="46.70497" lon="6.17493">
        <ele>1004.23</ele>
        <time>2012-06-01T09:57:14Z</time>
      </trkpt>
      <trkpt lat="46.70487" lon="6.1745">
        <ele>1007.6</ele>
        <time>2012-06-01T09:57:29Z</time>
      </trkpt>
      <trkpt lat="46.70482" lon="6.1741">
        <ele>1010.96</ele>
        <time>2012-06-01T09:57:43Z</time>
      </trkpt>
      <trkpt lat="46.70479" lon="6.17381">
        <ele>1014.33</ele>
        <time>2012-06-01T09:57:55Z</time>
      </trkpt>
      <trkpt lat="46.70474" lon="6.17348">
        <ele>1015.29</ele>
        <time>2012-06-01T09:58:08Z</time>
      </trkpt>
      <trkpt lat="46.70471" lon="6.17324">
        <ele>1016.73</ele>
        <time>2012-06-01T09:58:17Z</time>
      </trkpt>
      <trkpt lat="46.70466" lon="6.17293">
        <ele>1020.58</ele>
        <time>2012-06-01T09:58:27Z</time>
      </trkpt>
      <trkpt lat="46.70465" lon="6.1729">
        <ele>1019.13</ele>
        <time>2012-06-01T09:58:28Z</time>
      </trkpt>
      <trkpt lat="46.70458" lon="6.17247">
        <ele>1020.1</ele>
        <time>2012-06-01T09:58:42Z</time>
      </trkpt>
      <trkpt lat="46.70456" lon="6.17214">
        <ele>1023.94</ele>
        <time>2012-06-01T09:58:53Z</time>
      </trkpt>
      <trkpt lat="46.70457" lon="6.17211">
        <ele>1022.98</ele>
        <time>2012-06-01T09:58:54Z</time>
      </trkpt>
      <trkpt lat="46.70458" lon="6.17178">
        <ele>1019.62</ele>
        <time>2012-06-01T09:59:05Z</time>
      </trkpt>
      <trkpt lat="46.70458" lon="6.17175">
        <ele>1027.31</ele>
        <time>2012-06-01T09:59:06Z</time>
      </trkpt>
      <trkpt lat="46.70458" lon="6.17173">
        <ele>1025.86</ele>
        <time>2012-06-01T09:59:07Z</time>
      </trkpt>
      <trkpt lat="46.70457" lon="6.17168">
        <ele>1024.9</ele>
        <time>2012-06-01T09:59:09Z</time>
      </trkpt>
      <trkpt lat="46.70451" lon="6.17143">
        <ele>1026.34</ele>
        <time>2012-06-01T09:59:23Z</time>
      </trkpt>
      <trkpt lat="46.7045" lon="6.17136">
        <ele>1021.06</ele>
        <time>2012-06-01T09:59:27Z</time>
      </trkpt>
      <trkpt lat="46.7045" lon="6.17134">
        <ele>1028.27</ele>
        <time>2012-06-01T09:59:28Z</time>
      </trkpt>
      <trkpt lat="46.70448" lon="6.17107">
        <ele>1027.79</ele>
        <time>2012-06-01T09:59:40Z</time>
      </trkpt>
      <trkpt lat="46.70448" lon="6.17081">
        <ele>1028.75</ele>
        <time>2012-06-01T09:59:51Z</time>
      </trkpt>
      <trkpt lat="46.70448" lon="6.17065">
        <ele>1028.27</ele>
        <time>2012-06-01T09:59:57Z</time>
      </trkpt>
      <trkpt lat="46.70449" lon="6.17063">
        <ele>1029.23</ele>
        <time>2012-06-01T09:59:58Z</time>
      </trkpt>
      <trkpt lat="46.70449" lon="6.1706">
        <ele>1028.75</ele>
        <time>2012-06-01T09:59:59Z</time>
      </trkpt>
      <trkpt lat="46.70449" lon="6.17058">
        <ele>1030.19</ele>
        <time>2012-06-01T10:00:00Z</time>
      </trkpt>
      <trkpt lat="46.7045" lon="6.17056">
        <ele>1028.75</ele>
        <time>2012-06-01T10:00:01Z</time>
      </trkpt>
      <trkpt lat="46.70448" lon="6.17037">
        <ele>1030.19</ele>
        <time>2012-06-01T10:00:09Z</time>
      </trkpt>
      <trkpt lat="46.70447" lon="6.17016">
        <ele>1030.19</ele>
        <time>2012-06-01T10:00:17Z</time>
      </trkpt>
      <trkpt lat="46.70448" lon="6.17013">
        <ele>1029.23</ele>
        <time>2012-06-01T10:00:18Z</time>
      </trkpt>
      <trkpt lat="46.70448" lon="6.1701">
        <ele>1030.19</ele>
        <time>2012-06-01T10:00:19Z</time>
      </trkpt>
      <trkpt lat="46.70448" lon="6.17007">
        <ele>1030.19</ele>
        <time>2012-06-01T10:00:20Z</time>
      </trkpt>
      <trkpt lat="46.70449" lon="6.17004">
        <ele>1028.75</ele>
        <time>2012-06-01T10:00:21Z</time>
      </trkpt>
      <trkpt lat="46.70448" lon="6.17001">
        <ele>1030.19</ele>
        <time>2012-06-01T10:00:22Z</time>
      </trkpt>
      <trkpt lat="46.70448" lon="6.16998">
        <ele>1030.67</ele>
        <time>2012-06-01T10:00:23Z</time>
      </trkpt>
      <trkpt lat="46.70448" lon="6.16996">
        <ele>1030.67</ele>
        <time>2012-06-01T10:00:24Z</time>
      </trkpt>
      <trkpt lat="46.70448" lon="6.16993">
        <ele>1030.19</ele>
        <time>2012-06-01T10:00:25Z</time>
      </trkpt>
      <trkpt lat="46.70448" lon="6.16991">
        <ele>1031.15</ele>
        <time>2012-06-01T10:00:26Z</time>
      </trkpt>
      <trkpt lat="46.70449" lon="6.16988">
        <ele>1031.15</ele>
        <time>2012-06-01T10:00:27Z</time>
      </trkpt>
      <trkpt lat="46.70449" lon="6.16985">
        <ele>1030.67</ele>
        <time>2012-06-01T10:00:28Z</time>
      </trkpt>
      <trkpt lat="46.7045" lon="6.16982">
        <ele>1030.19</ele>
        <time>2012-06-01T10:00:29Z</time>
      </trkpt>
      <trkpt lat="46.70456" lon="6.1694">
        <ele>1030.19</ele>
        <time>2012-06-01T10:00:42Z</time>
      </trkpt>
      <trkpt lat="46.70458" lon="6.16889">
        <ele>1031.63</ele>
        <time>2012-06-01T10:00:57Z</time>
      </trkpt>
      <trkpt lat="46.70463" lon="6.16841">
        <ele>1032.11</ele>
        <time>2012-06-01T10:01:10Z</time>
      </trkpt>
      <trkpt lat="46.70475" lon="6.16807">
        <ele>1031.15</ele>
        <time>2012-06-01T10:01:20Z</time>
      </trkpt>
      <trkpt lat="46.70477" lon="6.16804">
        <ele>1030.67</ele>
        <time>2012-06-01T10:01:21Z</time>
      </trkpt>
      <trkpt lat="46.70481" lon="6.16786">
        <ele>1032.11</ele>
        <time>2012-06-01T10:01:26Z</time>
      </trkpt>
      <trkpt lat="46.70484" lon="6.16745">
        <ele>1031.63</ele>
        <time>2012-06-01T10:01:39Z</time>
      </trkpt>
      <trkpt lat="46.70482" lon="6.16712">
        <ele>1033.55</ele>
        <time>2012-06-01T10:01:50Z</time>
      </trkpt>
      <trkpt lat="46.70482" lon="6.16709">
        <ele>1035</ele>
        <time>2012-06-01T10:01:51Z</time>
      </trkpt>
      <trkpt lat="46.70487" lon="6.1668">
        <ele>1035.96</ele>
        <time>2012-06-01T10:02:02Z</time>
      </trkpt>
      <trkpt lat="46.70488" lon="6.16678">
        <ele>1035.48</ele>
        <time>2012-06-01T10:02:03Z</time>
      </trkpt>
      <trkpt lat="46.70489" lon="6.16676">
        <ele>1034.52</ele>
        <time>2012-06-01T10:02:04Z</time>
      </trkpt>
      <trkpt lat="46.7049" lon="6.16673">
        <ele>1035</ele>
        <time>2012-06-01T10:02:05Z</time>
      </trkpt>
      <trkpt lat="46.7049" lon="6.16671">
        <ele>1035.96</ele>
        <time>2012-06-01T10:02:06Z</time>
      </trkpt>
      <trkpt lat="46.70491" lon="6.16669">
        <ele>1035.96</ele>
        <time>2012-06-01T10:02:07Z</time>
      </trkpt>
      <trkpt lat="46.70492" lon="6.16668">
        <ele>1035.48</ele>
        <time>2012-06-01T10:02:08Z</time>
      </trkpt>
      <trkpt lat="46.70493" lon="6.16666">
        <ele>1035.96</ele>
        <time>2012-06-01T10:02:09Z</time>
      </trkpt>
      <trkpt lat="46.70495" lon="6.16664">
        <ele>1035.96</ele>
        <time>2012-06-01T10:02:10Z</time>
      </trkpt>
      <trkpt lat="46.70496" lon="6.16662">
        <ele>1035</ele>
        <time>2012-06-01T10:02:11Z</time>
      </trkpt>
      <trkpt lat="46.70497" lon="6.1666">
        <ele>1035.48</ele>
        <time>2012-06-01T10:02:12Z</time>
      </trkpt>
      <trkpt lat="46.70498" lon="6.16657">
        <ele>1036.44</ele>
        <time>2012-06-01T10:02:13Z</time>
      </trkpt>
      <trkpt lat="46.70499" lon="6.16654">
        <ele>1036.92</ele>
        <time>2012-06-01T10:02:14Z</time>
      </trkpt>
      <trkpt lat="46.705" lon="6.16652">
        <ele>1036.92</ele>
        <time>2012-06-01T10:02:15Z</time>
      </trkpt>
      <trkpt lat="46.70501" lon="6.1665">
        <ele>1037.4</ele>
        <time>2012-06-01T10:02:16Z</time>
      </trkpt>
      <trkpt lat="46.70501" lon="6.16648">
        <ele>1036.92</ele>
        <time>2012-06-01T10:02:17Z</time>
      </trkpt>
      <trkpt lat="46.70501" lon="6.16645">
        <ele>1035.96</ele>
        <time>2012-06-01T10:02:18Z</time>
      </trkpt>
      <trkpt lat="46.70502" lon="6.16642">
        <ele>1036.44</ele>
        <time>2012-06-01T10:02:19Z</time>
      </trkpt>
      <trkpt lat="46.70505" lon="6.16615">
        <ele>1037.4</ele>
        <time>2012-06-01T10:02:29Z</time>
      </trkpt>
      <trkpt lat="46.70505" lon="6.16612">
        <ele>1037.4</ele>
        <time>2012-06-01T10:02:30Z</time>
      </trkpt>
      <trkpt lat="46.70504" lon="6.1661">
        <ele>1038.84</ele>
        <time>2012-06-01T10:02:31Z</time>
      </trkpt>
      <trkpt lat="46.70504" lon="6.16607">
        <ele>1037.4</ele>
        <time>2012-06-01T10:02:32Z</time>
      </trkpt>
      <trkpt lat="46.70504" lon="6.16605">
        <ele>1037.88</ele>
        <time>2012-06-01T10:02:33Z</time>
      </trkpt>
      <trkpt lat="46.70503" lon="6.16602">
        <ele>1036.92</ele>
        <time>2012-06-01T10:02:34Z</time>
      </trkpt>
      <trkpt lat="46.70501" lon="6.16579">
        <ele>1037.88</ele>
        <time>2012-06-01T10:02:41Z</time>
      </trkpt>
      <trkpt lat="46.70501" lon="6.16573">
        <ele>1039.8</ele>
        <time>2012-06-01T10:02:43Z</time>
      </trkpt>
      <trkpt lat="46.70502" lon="6.16561">
        <ele>1038.36</ele>
        <time>2012-06-01T10:02:47Z</time>
      </trkpt>
      <trkpt lat="46.70499" lon="6.1653">
        <ele>1040.28</ele>
        <time>2012-06-01T10:02:59Z</time>
      </trkpt>
      <trkpt lat="46.70498" lon="6.16513">
        <ele>1040.76</ele>
        <time>2012-06-01T10:03:05Z</time>
      </trkpt>
      <trkpt lat="46.70497" lon="6.16511">
        <ele>1039.8</ele>
        <time>2012-06-01T10:03:06Z</time>
      </trkpt>
      <trkpt lat="46.70496" lon="6.16509">
        <ele>1040.76</ele>
        <time>2012-06-01T10:03:07Z</time>
      </trkpt>
      <trkpt lat="46.70495" lon="6.16506">
        <ele>1041.25</ele>
        <time>2012-06-01T10:03:08Z</time>
      </trkpt>
      <trkpt lat="46.70495" lon="6.16504">
        <ele>1039.32</ele>
        <time>2012-06-01T10:03:09Z</time>
      </trkpt>
      <trkpt lat="46.70495" lon="6.16502">
        <ele>1040.28</ele>
        <time>2012-06-01T10:03:10Z</time>
      </trkpt>
      <trkpt lat="46.70495" lon="6.16499">
        <ele>1038.36</ele>
        <time>2012-06-01T10:03:11Z</time>
      </trkpt>
      <trkpt lat="46.70494" lon="6.16487">
        <ele>1041.25</ele>
        <time>2012-06-01T10:03:15Z</time>
      </trkpt>
      <trkpt lat="46.70493" lon="6.16473">
        <ele>1037.88</ele>
        <time>2012-06-01T10:03:20Z</time>
      </trkpt>
      <trkpt lat="46.70495" lon="6.16454">
        <ele>1037.88</ele>
        <time>2012-06-01T10:03:26Z</time>
      </trkpt>
      <trkpt lat="46.70494" lon="6.16435">
        <ele>1038.36</ele>
        <time>2012-06-01T10:03:34Z</time>
      </trkpt>
      <trkpt lat="46.7049" lon="6.16415">
        <ele>1038.36</ele>
        <time>2012-06-01T10:03:40Z</time>
      </trkpt>
      <trkpt lat="46.70489" lon="6.16409">
        <ele>1038.36</ele>
        <time>2012-06-01T10:03:43Z</time>
      </trkpt>
      <trkpt lat="46.70483" lon="6.16392">
        <ele>1038.36</ele>
        <time>2012-06-01T10:03:49Z</time>
      </trkpt>
      <trkpt lat="46.70483" lon="6.16388">
        <ele>1038.84</ele>
        <time>2012-06-01T10:03:51Z</time>
      </trkpt>
      <trkpt lat="46.70477" lon="6.16358">
        <ele>1036.44</ele>
        <time>2012-06-01T10:04:01Z</time>
      </trkpt>
      <trkpt lat="46.70482" lon="6.16337">
        <ele>1038.36</ele>
        <time>2012-06-01T10:04:11Z</time>
      </trkpt>
      <trkpt lat="46.70479" lon="6.16325">
        <ele>1036.92</ele>
        <time>2012-06-01T10:04:14Z</time>
      </trkpt>
      <trkpt lat="46.70478" lon="6.1632">
        <ele>1038.84</ele>
        <time>2012-06-01T10:04:15Z</time>
      </trkpt>
      <trkpt lat="46.70477" lon="6.1631">
        <ele>1037.88</ele>
        <time>2012-06-01T10:04:18Z</time>
      </trkpt>
      <trkpt lat="46.70477" lon="6.16296">
        <ele>1039.8</ele>
        <time>2012-06-01T10:04:23Z</time>
      </trkpt>
      <trkpt lat="46.70477" lon="6.16293">
        <ele>1038.84</ele>
        <time>2012-06-01T10:04:24Z</time>
      </trkpt>
      <trkpt lat="46.70477" lon="6.1629">
        <ele>1037.88</ele>
        <time>2012-06-01T10:04:26Z</time>
      </trkpt>
      <trkpt lat="46.70478" lon="6.16283">
        <ele>1039.8</ele>
        <time>2012-06-01T10:04:30Z</time>
      </trkpt>
      <trkpt lat="46.70479" lon="6.16251">
        <ele>1037.4</ele>
        <time>2012-06-01T10:04:43Z</time>
      </trkpt>
      <trkpt lat="46.70478" lon="6.16249">
        <ele>1039.8</ele>
        <time>2012-06-01T10:04:45Z</time>
      </trkpt>
      <trkpt lat="46.70477" lon="6.16243">
        <ele>1037.4</ele>
        <time>2012-06-01T10:04:47Z</time>
      </trkpt>
      <trkpt lat="46.70479" lon="6.16236">
        <ele>1041.25</ele>
        <time>2012-06-01T10:04:57Z</time>
      </trkpt>
      <trkpt lat="46.70482" lon="6.16229">
        <ele>1039.8</ele>
        <time>2012-06-01T10:05:08Z</time>
      </trkpt>
      <trkpt lat="46.70483" lon="6.16228">
        <ele>1041.25</ele>
        <time>2012-06-01T10:05:17Z</time>
      </trkpt>
      <trkpt lat="46.70487" lon="6.16222">
        <ele>1040.28</ele>
        <time>2012-06-01T10:05:21Z</time>
      </trkpt>
      <trkpt lat="46.70493" lon="6.16212">
        <ele>1042.69</ele>
        <time>2012-06-01T10:05:26Z</time>
      </trkpt>
      <trkpt lat="46.70494" lon="6.16209">
        <ele>1041.73</ele>
        <time>2012-06-01T10:05:28Z</time>
      </trkpt>
      <trkpt lat="46.70497" lon="6.16202">
        <ele>1044.13</ele>
        <time>2012-06-01T10:05:31Z</time>
      </trkpt>
      <trkpt lat="46.70498" lon="6.16188">
        <ele>1042.69</ele>
        <time>2012-06-01T10:05:37Z</time>
      </trkpt>
      <trkpt lat="46.70499" lon="6.1618">
        <ele>1044.13</ele>
        <time>2012-06-01T10:05:40Z</time>
      </trkpt>
      <trkpt lat="46.705" lon="6.16172">
        <ele>1044.13</ele>
        <time>2012-06-01T10:05:43Z</time>
      </trkpt>
      <trkpt lat="46.70499" lon="6.16158">
        <ele>1046.05</ele>
        <time>2012-06-01T10:05:48Z</time>
      </trkpt>
      <trkpt lat="46.70498" lon="6.16155">
        <ele>1045.09</ele>
        <time>2012-06-01T10:05:49Z</time>
      </trkpt>
      <trkpt lat="46.70498" lon="6.16145">
        <ele>1045.09</ele>
        <time>2012-06-01T10:05:53Z</time>
      </trkpt>
      <trkpt lat="46.70496" lon="6.16116">
        <ele>1047.01</ele>
        <time>2012-06-01T10:06:03Z</time>
      </trkpt>
      <trkpt lat="46.705" lon="6.16082">
        <ele>1047.01</ele>
        <time>2012-06-01T10:06:15Z</time>
      </trkpt>
      <trkpt lat="46.70505" lon="6.16073">
        <ele>1048.45</ele>
        <time>2012-06-01T10:06:19Z</time>
      </trkpt>
      <trkpt lat="46.70507" lon="6.16067">
        <ele>1048.94</ele>
        <time>2012-06-01T10:06:21Z</time>
      </trkpt>
      <trkpt lat="46.70509" lon="6.16062">
        <ele>1047.97</ele>
        <time>2012-06-01T10:06:24Z</time>
      </trkpt>
      <trkpt lat="46.70508" lon="6.16049">
        <ele>1048.94</ele>
        <time>2012-06-01T10:06:29Z</time>
      </trkpt>
      <trkpt lat="46.70508" lon="6.16042">
        <ele>1050.38</ele>
        <time>2012-06-01T10:06:31Z</time>
      </trkpt>
      <trkpt lat="46.7051" lon="6.16032">
        <ele>1050.86</ele>
        <time>2012-06-01T10:06:41Z</time>
      </trkpt>
      <trkpt lat="46.70518" lon="6.16015">
        <ele>1050.86</ele>
        <time>2012-06-01T10:06:57Z</time>
      </trkpt>
      <trkpt lat="46.70549" lon="6.15982">
        <ele>1048.94</ele>
        <time>2012-06-01T10:07:05Z</time>
      </trkpt>
      <trkpt lat="46.70557" lon="6.15966">
        <ele>1040.28</ele>
        <time>2012-06-01T10:07:08Z</time>
      </trkpt>
      <trkpt lat="46.70559" lon="6.1596">
        <ele>1047.01</ele>
        <time>2012-06-01T10:07:09Z</time>
      </trkpt>
      <trkpt lat="46.7057" lon="6.15916">
        <ele>1047.49</ele>
        <time>2012-06-01T10:07:20Z</time>
      </trkpt>
      <trkpt lat="46.7057" lon="6.159">
        <ele>1047.01</ele>
        <time>2012-06-01T10:07:24Z</time>
      </trkpt>
      <trkpt lat="46.70563" lon="6.15858">
        <ele>1047.49</ele>
        <time>2012-06-01T10:07:35Z</time>
      </trkpt>
      <trkpt lat="46.70563" lon="6.15858">
        <ele>1048.94</ele>
        <time>2012-06-01T10:07:39Z</time>
      </trkpt>
      <trkpt lat="46.70563" lon="6.15858">
        <ele>1048.94</ele>
        <time>2012-06-01T10:07:44Z</time>
      </trkpt>
      <trkpt lat="46.70563" lon="6.15855">
        <ele>1048.94</ele>
        <time>2012-06-01T10:07:53Z</time>
      </trkpt>
      <trkpt lat="46.70566" lon="6.1582">
        <ele>1047.01</ele>
        <time>2012-06-01T10:08:03Z</time>
      </trkpt>
      <trkpt lat="46.70567" lon="6.15802">
        <ele>1045.57</ele>
        <time>2012-06-01T10:08:06Z</time>
      </trkpt>
      <trkpt lat="46.70569" lon="6.15795">
        <ele>1046.05</ele>
        <time>2012-06-01T10:08:07Z</time>
      </trkpt>
      <trkpt lat="46.70571" lon="6.15788">
        <ele>1044.61</ele>
        <time>2012-06-01T10:08:08Z</time>
      </trkpt>
      <trkpt lat="46.70572" lon="6.15782">
        <ele>1045.57</ele>
        <time>2012-06-01T10:08:09Z</time>
      </trkpt>
      <trkpt lat="46.70573" lon="6.15777">
        <ele>1044.13</ele>
        <time>2012-06-01T10:08:10Z</time>
      </trkpt>
      <trkpt lat="46.70575" lon="6.15774">
        <ele>1043.17</ele>
        <time>2012-06-01T10:08:11Z</time>
      </trkpt>
      <trkpt lat="46.70577" lon="6.15769">
        <ele>1042.69</ele>
        <time>2012-06-01T10:08:12Z</time>
      </trkpt>
      <trkpt lat="46.70578" lon="6.1573">
        <ele>1040.76</ele>
        <time>2012-06-01T10:08:18Z</time>
      </trkpt>
      <trkpt lat="46.70578" lon="6.15713">
        <ele>1037.4</ele>
        <time>2012-06-01T10:08:20Z</time>
      </trkpt>
      <trkpt lat="46.70579" lon="6.15704">
        <ele>1037.88</ele>
        <time>2012-06-01T10:08:21Z</time>
      </trkpt>
      <trkpt lat="46.70585" lon="6.15667">
        <ele>1037.88</ele>
        <time>2012-06-01T10:08:25Z</time>
      </trkpt>
      <trkpt lat="46.70585" lon="6.15657">
        <ele>1035.96</ele>
        <time>2012-06-01T10:08:26Z</time>
      </trkpt>
      <trkpt lat="46.70585" lon="6.15647">
        <ele>1036.44</ele>
        <time>2012-06-01T10:08:27Z</time>
      </trkpt>
      <trkpt lat="46.70582" lon="6.15594">
        <ele>1034.04</ele>
        <time>2012-06-01T10:08:32Z</time>
      </trkpt>
      <trkpt lat="46.70581" lon="6.15583">
        <ele>1034.04</ele>
        <time>2012-06-01T10:08:33Z</time>
      </trkpt>
      <trkpt lat="46.70573" lon="6.15524">
        <ele>1030.67</ele>
        <time>2012-06-01T10:08:38Z</time>
      </trkpt>
      <trkpt lat="46.70572" lon="6.15512">
        <ele>1031.15</ele>
        <time>2012-06-01T10:08:39Z</time>
      </trkpt>
      <trkpt lat="46.70569" lon="6.15501">
        <ele>1029.23</ele>
        <time>2012-06-01T10:08:40Z</time>
      </trkpt>
      <trkpt lat="46.70567" lon="6.1549">
        <ele>1030.19</ele>
        <time>2012-06-01T10:08:41Z</time>
      </trkpt>
      <trkpt lat="46.70554" lon="6.15438">
        <ele>1028.75</ele>
        <time>2012-06-01T10:08:47Z</time>
      </trkpt>
      <trkpt lat="46.70549" lon="6.15397">
        <ele>1027.79</ele>
        <time>2012-06-01T10:08:51Z</time>
      </trkpt>
      <trkpt lat="46.70547" lon="6.15382">
        <ele>1026.34</ele>
        <time>2012-06-01T10:08:53Z</time>
      </trkpt>
      <trkpt lat="46.70546" lon="6.15375">
        <ele>1026.83</ele>
        <time>2012-06-01T10:08:54Z</time>
      </trkpt>
      <trkpt lat="46.70543" lon="6.1537">
        <ele>1026.83</ele>
        <time>2012-06-01T10:08:55Z</time>
      </trkpt>
      <trkpt lat="46.7054" lon="6.15367">
        <ele>1027.31</ele>
        <time>2012-06-01T10:08:56Z</time>
      </trkpt>
      <trkpt lat="46.70537" lon="6.15364">
        <ele>1028.27</ele>
        <time>2012-06-01T10:08:57Z</time>
      </trkpt>
      <trkpt lat="46.70535" lon="6.1536">
        <ele>1028.27</ele>
        <time>2012-06-01T10:08:58Z</time>
      </trkpt>
      <trkpt lat="46.70533" lon="6.15357">
        <ele>1027.79</ele>
        <time>2012-06-01T10:08:59Z</time>
      </trkpt>
      <trkpt lat="46.70532" lon="6.15354">
        <ele>1027.79</ele>
        <time>2012-06-01T10:09:00Z</time>
      </trkpt>
      <trkpt lat="46.70527" lon="6.15345">
        <ele>1029.23</ele>
        <time>2012-06-01T10:09:04Z</time>
      </trkpt>
      <trkpt lat="46.70504" lon="6.15322">
        <ele>1031.15</ele>
        <time>2012-06-01T10:09:17Z</time>
      </trkpt>
      <trkpt lat="46.70491" lon="6.15306">
        <ele>1034.52</ele>
        <time>2012-06-01T10:09:25Z</time>
      </trkpt>
      <trkpt lat="46.70487" lon="6.15303">
        <ele>1035</ele>
        <time>2012-06-01T10:09:27Z</time>
      </trkpt>
      <trkpt lat="46.70475" lon="6.15286">
        <ele>1038.84</ele>
        <time>2012-06-01T10:09:35Z</time>
      </trkpt>
      <trkpt lat="46.70466" lon="6.15271">
        <ele>1042.69</ele>
        <time>2012-06-01T10:09:43Z</time>
      </trkpt>
      <trkpt lat="46.70464" lon="6.15267">
        <ele>1041.73</ele>
        <time>2012-06-01T10:09:45Z</time>
      </trkpt>
      <trkpt lat="46.70463" lon="6.15265">
        <ele>1042.21</ele>
        <time>2012-06-01T10:09:46Z</time>
      </trkpt>
      <trkpt lat="46.70462" lon="6.15264">
        <ele>1041.73</ele>
        <time>2012-06-01T10:09:47Z</time>
      </trkpt>
      <trkpt lat="46.7046" lon="6.15261">
        <ele>1040.76</ele>
        <time>2012-06-01T10:09:49Z</time>
      </trkpt>
      <trkpt lat="46.70451" lon="6.15246">
        <ele>1043.65</ele>
        <time>2012-06-01T10:09:57Z</time>
      </trkpt>
      <trkpt lat="46.70444" lon="6.15238">
        <ele>1044.61</ele>
        <time>2012-06-01T10:10:01Z</time>
      </trkpt>
      <trkpt lat="46.70443" lon="6.15236">
        <ele>1044.13</ele>
        <time>2012-06-01T10:10:02Z</time>
      </trkpt>
      <trkpt lat="46.70435" lon="6.15212">
        <ele>1046.53</ele>
        <time>2012-06-01T10:10:13Z</time>
      </trkpt>
      <trkpt lat="46.70425" lon="6.15182">
        <ele>1045.57</ele>
        <time>2012-06-01T10:10:26Z</time>
      </trkpt>
      <trkpt lat="46.70422" lon="6.1517">
        <ele>1046.05</ele>
        <time>2012-06-01T10:10:30Z</time>
      </trkpt>
      <trkpt lat="46.70421" lon="6.15167">
        <ele>1047.01</ele>
        <time>2012-06-01T10:10:31Z</time>
      </trkpt>
      <trkpt lat="46.70412" lon="6.15146">
        <ele>1046.05</ele>
        <time>2012-06-01T10:10:40Z</time>
      </trkpt>
      <trkpt lat="46.70411" lon="6.15145">
        <ele>1047.49</ele>
        <time>2012-06-01T10:10:41Z</time>
      </trkpt>
      <trkpt lat="46.7041" lon="6.15143">
        <ele>1047.01</ele>
        <time>2012-06-01T10:10:42Z</time>
      </trkpt>
      <trkpt lat="46.7041" lon="6.1514">
        <ele>1047.49</ele>
        <time>2012-06-01T10:10:43Z</time>
      </trkpt>
      <trkpt lat="46.70409" lon="6.15137">
        <ele>1047.97</ele>
        <time>2012-06-01T10:10:44Z</time>
      </trkpt>
      <trkpt lat="46.70409" lon="6.15135">
        <ele>1047.97</ele>
        <time>2012-06-01T10:10:45Z</time>
      </trkpt>
      <trkpt lat="46.70408" lon="6.15132">
        <ele>1047.01</ele>
        <time>2012-06-01T10:10:46Z</time>
      </trkpt>
      <trkpt lat="46.70407" lon="6.15129">
        <ele>1047.97</ele>
        <time>2012-06-01T10:10:47Z</time>
      </trkpt>
      <trkpt lat="46.70406" lon="6.15127">
        <ele>1048.45</ele>
        <time>2012-06-01T10:10:48Z</time>
      </trkpt>
      <trkpt lat="46.70405" lon="6.15124">
        <ele>1047.01</ele>
        <time>2012-06-01T10:10:49Z</time>
      </trkpt>
      <trkpt lat="46.70404" lon="6.15122">
        <ele>1048.45</ele>
        <time>2012-06-01T10:10:50Z</time>
      </trkpt>
      <trkpt lat="46.70392" lon="6.15088">
        <ele>1048.94</ele>
        <time>2012-06-01T10:11:01Z</time>
      </trkpt>
      <trkpt lat="46.7039" lon="6.15083">
        <ele>1048.45</ele>
        <time>2012-06-01T10:11:03Z</time>
      </trkpt>
      <trkpt lat="46.70389" lon="6.15081">
        <ele>1047.97</ele>
        <time>2012-06-01T10:11:04Z</time>
      </trkpt>
      <trkpt lat="46.70388" lon="6.15079">
        <ele>1047.49</ele>
        <time>2012-06-01T10:11:05Z</time>
      </trkpt>
      <trkpt lat="46.70387" lon="6.15076">
        <ele>1047.97</ele>
        <time>2012-06-01T10:11:06Z</time>
      </trkpt>
      <trkpt lat="46.70387" lon="6.15073">
        <ele>1047.01</ele>
        <time>2012-06-01T10:11:07Z</time>
      </trkpt>
      <trkpt lat="46.70386" lon="6.1507">
        <ele>1047.49</ele>
        <time>2012-06-01T10:11:08Z</time>
      </trkpt>
      <trkpt lat="46.70384" lon="6.15067">
        <ele>1048.45</ele>
        <time>2012-06-01T10:11:09Z</time>
      </trkpt>
      <trkpt lat="46.70383" lon="6.15065">
        <ele>1047.49</ele>
        <time>2012-06-01T10:11:10Z</time>
      </trkpt>
      <trkpt lat="46.70381" lon="6.15063">
        <ele>1047.49</ele>
        <time>2012-06-01T10:11:11Z</time>
      </trkpt>
      <trkpt lat="46.70379" lon="6.15061">
        <ele>1047.49</ele>
        <time>2012-06-01T10:11:12Z</time>
      </trkpt>
      <trkpt lat="46.70378" lon="6.15059">
        <ele>1047.49</ele>
        <time>2012-06-01T10:11:13Z</time>
      </trkpt>
      <trkpt lat="46.70376" lon="6.15057">
        <ele>1047.01</ele>
        <time>2012-06-01T10:11:14Z</time>
      </trkpt>
      <trkpt lat="46.70375" lon="6.15054">
        <ele>1046.53</ele>
        <time>2012-06-01T10:11:15Z</time>
      </trkpt>
      <trkpt lat="46.70368" lon="6.15026">
        <ele>1047.49</ele>
        <time>2012-06-01T10:11:26Z</time>
      </trkpt>
      <trkpt lat="46.70366" lon="6.15021">
        <ele>1047.97</ele>
        <time>2012-06-01T10:11:40Z</time>
      </trkpt>
      <trkpt lat="46.70363" lon="6.15014">
        <ele>1048.45</ele>
        <time>2012-06-01T10:12:22Z</time>
      </trkpt>
      <trkpt lat="46.70362" lon="6.1501">
        <ele>1049.9</ele>
        <time>2012-06-01T10:12:23Z</time>
      </trkpt>
      <trkpt lat="46.7036" lon="6.15007">
        <ele>1047.97</ele>
        <time>2012-06-01T10:12:24Z</time>
      </trkpt>
      <trkpt lat="46.70359" lon="6.15003">
        <ele>1047.97</ele>
        <time>2012-06-01T10:12:25Z</time>
      </trkpt>
      <trkpt lat="46.70357" lon="6.14998">
        <ele>1048.94</ele>
        <time>2012-06-01T10:12:26Z</time>
      </trkpt>
      <trkpt lat="46.70357" lon="6.14994">
        <ele>1047.97</ele>
        <time>2012-06-01T10:12:27Z</time>
      </trkpt>
      <trkpt lat="46.70356" lon="6.1499">
        <ele>1047.49</ele>
        <time>2012-06-01T10:12:28Z</time>
      </trkpt>
      <trkpt lat="46.70355" lon="6.14986">
        <ele>1047.49</ele>
        <time>2012-06-01T10:12:29Z</time>
      </trkpt>
      <trkpt lat="46.70354" lon="6.14982">
        <ele>1047.97</ele>
        <time>2012-06-01T10:12:30Z</time>
      </trkpt>
      <trkpt lat="46.70352" lon="6.14974">
        <ele>1047.97</ele>
        <time>2012-06-01T10:12:32Z</time>
      </trkpt>
      <trkpt lat="46.7035" lon="6.14969">
        <ele>1048.94</ele>
        <time>2012-06-01T10:12:33Z</time>
      </trkpt>
      <trkpt lat="46.70347" lon="6.14963">
        <ele>1048.45</ele>
        <time>2012-06-01T10:12:35Z</time>
      </trkpt>
      <trkpt lat="46.70346" lon="6.14958">
        <ele>1047.97</ele>
        <time>2012-06-01T10:12:36Z</time>
      </trkpt>
      <trkpt lat="46.70345" lon="6.14954">
        <ele>1049.42</ele>
        <time>2012-06-01T10:12:37Z</time>
      </trkpt>
      <trkpt lat="46.70344" lon="6.14951">
        <ele>1047.97</ele>
        <time>2012-06-01T10:12:38Z</time>
      </trkpt>
      <trkpt lat="46.70343" lon="6.14947">
        <ele>1047.01</ele>
        <time>2012-06-01T10:12:39Z</time>
      </trkpt>
      <trkpt lat="46.70342" lon="6.14943">
        <ele>1047.49</ele>
        <time>2012-06-01T10:12:40Z</time>
      </trkpt>
      <trkpt lat="46.70341" lon="6.14938">
        <ele>1048.45</ele>
        <time>2012-06-01T10:12:41Z</time>
      </trkpt>
      <trkpt lat="46.7034" lon="6.14934">
        <ele>1047.49</ele>
        <time>2012-06-01T10:12:42Z</time>
      </trkpt>
      <trkpt lat="46.70339" lon="6.1493">
        <ele>1048.94</ele>
        <time>2012-06-01T10:12:43Z</time>
      </trkpt>
      <trkpt lat="46.70338" lon="6.14926">
        <ele>1048.94</ele>
        <time>2012-06-01T10:12:44Z</time>
      </trkpt>
      <trkpt lat="46.70337" lon="6.14922">
        <ele>1048.45</ele>
        <time>2012-06-01T10:12:45Z</time>
      </trkpt>
      <trkpt lat="46.70336" lon="6.14917">
        <ele>1048.45</ele>
        <time>2012-06-01T10:12:46Z</time>
      </trkpt>
      <trkpt lat="46.70334" lon="6.14911">
        <ele>1048.45</ele>
        <time>2012-06-01T10:12:47Z</time>
      </trkpt>
      <trkpt lat="46.70318" lon="6.14874">
        <ele>1047.49</ele>
        <time>2012-06-01T10:12:55Z</time>
      </trkpt>
      <trkpt lat="46.70304" lon="6.14842">
        <ele>1049.9</ele>
        <time>2012-06-01T10:13:05Z</time>
      </trkpt>
      <trkpt lat="46.70298" lon="6.14829">
        <ele>1050.38</ele>
        <time>2012-06-01T10:13:10Z</time>
      </trkpt>
      <trkpt lat="46.70297" lon="6.14827">
        <ele>1050.38</ele>
        <time>2012-06-01T10:13:11Z</time>
      </trkpt>
      <trkpt lat="46.70296" lon="6.14825">
        <ele>1049.9</ele>
        <time>2012-06-01T10:13:12Z</time>
      </trkpt>
      <trkpt lat="46.70295" lon="6.14823">
        <ele>1050.86</ele>
        <time>2012-06-01T10:13:13Z</time>
      </trkpt>
      <trkpt lat="46.70294" lon="6.14821">
        <ele>1050.86</ele>
        <time>2012-06-01T10:13:14Z</time>
      </trkpt>
      <trkpt lat="46.70287" lon="6.14804">
        <ele>1052.3</ele>
        <time>2012-06-01T10:13:25Z</time>
      </trkpt>
      <trkpt lat="46.7028" lon="6.14794">
        <ele>1056.15</ele>
        <time>2012-06-01T10:13:30Z</time>
      </trkpt>
      <trkpt lat="46.7028" lon="6.14792">
        <ele>1052.78</ele>
        <time>2012-06-01T10:13:31Z</time>
      </trkpt>
      <trkpt lat="46.70269" lon="6.14767">
        <ele>1054.7</ele>
        <time>2012-06-01T10:13:43Z</time>
      </trkpt>
      <trkpt lat="46.70263" lon="6.1475">
        <ele>1054.7</ele>
        <time>2012-06-01T10:13:51Z</time>
      </trkpt>
      <trkpt lat="46.70254" lon="6.14733">
        <ele>1059.03</ele>
        <time>2012-06-01T10:14:00Z</time>
      </trkpt>
      <trkpt lat="46.70238" lon="6.14712">
        <ele>1059.99</ele>
        <time>2012-06-01T10:14:13Z</time>
      </trkpt>
      <trkpt lat="46.70237" lon="6.14711">
        <ele>1059.51</ele>
        <time>2012-06-01T10:14:14Z</time>
      </trkpt>
      <trkpt lat="46.70236" lon="6.14709">
        <ele>1059.99</ele>
        <time>2012-06-01T10:14:15Z</time>
      </trkpt>
      <trkpt lat="46.70235" lon="6.14707">
        <ele>1059.99</ele>
        <time>2012-06-01T10:14:16Z</time>
      </trkpt>
      <trkpt lat="46.70233" lon="6.14705">
        <ele>1059.99</ele>
        <time>2012-06-01T10:14:18Z</time>
      </trkpt>
      <trkpt lat="46.70233" lon="6.14703">
        <ele>1060.47</ele>
        <time>2012-06-01T10:14:19Z</time>
      </trkpt>
      <trkpt lat="46.70232" lon="6.14701">
        <ele>1060.95</ele>
        <time>2012-06-01T10:14:20Z</time>
      </trkpt>
      <trkpt lat="46.70232" lon="6.14699">
        <ele>1060.47</ele>
        <time>2012-06-01T10:14:21Z</time>
      </trkpt>
      <trkpt lat="46.70231" lon="6.14697">
        <ele>1061.43</ele>
        <time>2012-06-01T10:14:22Z</time>
      </trkpt>
      <trkpt lat="46.70231" lon="6.14695">
        <ele>1060.47</ele>
        <time>2012-06-01T10:14:23Z</time>
      </trkpt>
      <trkpt lat="46.70231" lon="6.14693">
        <ele>1060.95</ele>
        <time>2012-06-01T10:14:24Z</time>
      </trkpt>
      <trkpt lat="46.70231" lon="6.14691">
        <ele>1060.95</ele>
        <time>2012-06-01T10:14:25Z</time>
      </trkpt>
      <trkpt lat="46.70229" lon="6.14686">
        <ele>1060.95</ele>
        <time>2012-06-01T10:14:28Z</time>
      </trkpt>
      <trkpt lat="46.70226" lon="6.1468">
        <ele>1062.39</ele>
        <time>2012-06-01T10:14:33Z</time>
      </trkpt>
      <trkpt lat="46.70221" lon="6.14672">
        <ele>1063.36</ele>
        <time>2012-06-01T10:14:40Z</time>
      </trkpt>
      <trkpt lat="46.7022" lon="6.1467">
        <ele>1063.36</ele>
        <time>2012-06-01T10:14:41Z</time>
      </trkpt>
      <trkpt lat="46.70218" lon="6.14655">
        <ele>1062.39</ele>
        <time>2012-06-01T10:14:47Z</time>
      </trkpt>
      <trkpt lat="46.70217" lon="6.14643">
        <ele>1061.91</ele>
        <time>2012-06-01T10:14:53Z</time>
      </trkpt>
      <trkpt lat="46.70215" lon="6.14631">
        <ele>1062.39</ele>
        <time>2012-06-01T10:14:59Z</time>
      </trkpt>
      <trkpt lat="46.70214" lon="6.14629">
        <ele>1061.91</ele>
        <time>2012-06-01T10:15:00Z</time>
      </trkpt>
      <trkpt lat="46.70214" lon="6.14626">
        <ele>1061.91</ele>
        <time>2012-06-01T10:15:02Z</time>
      </trkpt>
      <trkpt lat="46.70212" lon="6.14618">
        <ele>1044.61</ele>
        <time>2012-06-01T10:15:07Z</time>
      </trkpt>
      <trkpt lat="46.70212" lon="6.14618">
        <ele>1062.39</ele>
        <time>2012-06-01T10:15:08Z</time>
      </trkpt>
      <trkpt lat="46.70208" lon="6.14607">
        <ele>1062.87</ele>
        <time>2012-06-01T10:15:20Z</time>
      </trkpt>
      <trkpt lat="46.70203" lon="6.14599">
        <ele>1064.32</ele>
        <time>2012-06-01T10:15:32Z</time>
      </trkpt>
      <trkpt lat="46.702" lon="6.14591">
        <ele>1065.28</ele>
        <time>2012-06-01T10:15:39Z</time>
      </trkpt>
      <trkpt lat="46.70199" lon="6.14587">
        <ele>1064.8</ele>
        <time>2012-06-01T10:15:50Z</time>
      </trkpt>
      <trkpt lat="46.70199" lon="6.14585">
        <ele>1064.8</ele>
        <time>2012-06-01T10:15:51Z</time>
      </trkpt>
      <trkpt lat="46.70199" lon="6.14583">
        <ele>1064.8</ele>
        <time>2012-06-01T10:15:52Z</time>
      </trkpt>
      <trkpt lat="46.70197" lon="6.14576">
        <ele>1065.28</ele>
        <time>2012-06-01T10:15:55Z</time>
      </trkpt>
      <trkpt lat="46.70192" lon="6.14552">
        <ele>1066.24</ele>
        <time>2012-06-01T10:16:06Z</time>
      </trkpt>
      <trkpt lat="46.70192" lon="6.14549">
        <ele>1065.76</ele>
        <time>2012-06-01T10:16:07Z</time>
      </trkpt>
      <trkpt lat="46.70185" lon="6.14527">
        <ele>1066.24</ele>
        <time>2012-06-01T10:16:19Z</time>
      </trkpt>
      <trkpt lat="46.70183" lon="6.14509">
        <ele>1066.24</ele>
        <time>2012-06-01T10:16:29Z</time>
      </trkpt>
      <trkpt lat="46.70181" lon="6.14499">
        <ele>1066.24</ele>
        <time>2012-06-01T10:16:34Z</time>
      </trkpt>
      <trkpt lat="46.7018" lon="6.14496">
        <ele>1066.24</ele>
        <time>2012-06-01T10:16:35Z</time>
      </trkpt>
      <trkpt lat="46.70179" lon="6.14494">
        <ele>1066.72</ele>
        <time>2012-06-01T10:16:36Z</time>
      </trkpt>
      <trkpt lat="46.70175" lon="6.14486">
        <ele>1065.28</ele>
        <time>2012-06-01T10:16:46Z</time>
      </trkpt>
      <trkpt lat="46.70175" lon="6.14485">
        <ele>1065.76</ele>
        <time>2012-06-01T10:17:25Z</time>
      </trkpt>
      <trkpt lat="46.70176" lon="6.14483">
        <ele>1064.8</ele>
        <time>2012-06-01T10:17:26Z</time>
      </trkpt>
      <trkpt lat="46.70176" lon="6.1448">
        <ele>1065.76</ele>
        <time>2012-06-01T10:17:27Z</time>
      </trkpt>
      <trkpt lat="46.70176" lon="6.14478">
        <ele>1064.8</ele>
        <time>2012-06-01T10:17:28Z</time>
      </trkpt>
      <trkpt lat="46.70175" lon="6.14474">
        <ele>1065.28</ele>
        <time>2012-06-01T10:17:29Z</time>
      </trkpt>
      <trkpt lat="46.70175" lon="6.14472">
        <ele>1065.28</ele>
        <time>2012-06-01T10:17:30Z</time>
      </trkpt>
      <trkpt lat="46.70175" lon="6.14469">
        <ele>1064.8</ele>
        <time>2012-06-01T10:17:31Z</time>
      </trkpt>
      <trkpt lat="46.70174" lon="6.14466">
        <ele>1064.8</ele>
        <time>2012-06-01T10:17:32Z</time>
      </trkpt>
      <trkpt lat="46.70173" lon="6.1446">
        <ele>1064.8</ele>
        <time>2012-06-01T10:17:34Z</time>
      </trkpt>
      <trkpt lat="46.70172" lon="6.14458">
        <ele>1063.84</ele>
        <time>2012-06-01T10:17:35Z</time>
      </trkpt>
      <trkpt lat="46.7017" lon="6.14455">
        <ele>1064.32</ele>
        <time>2012-06-01T10:17:36Z</time>
      </trkpt>
      <trkpt lat="46.70169" lon="6.14451">
        <ele>1063.84</ele>
        <time>2012-06-01T10:17:37Z</time>
      </trkpt>
      <trkpt lat="46.70168" lon="6.14447">
        <ele>1062.87</ele>
        <time>2012-06-01T10:17:38Z</time>
      </trkpt>
      <trkpt lat="46.70161" lon="6.14417">
        <ele>1061.91</ele>
        <time>2012-06-01T10:17:48Z</time>
      </trkpt>
      <trkpt lat="46.7016" lon="6.14412">
        <ele>1058.55</ele>
        <time>2012-06-01T10:17:53Z</time>
      </trkpt>
      <trkpt lat="46.7016" lon="6.14412">
        <ele>1064.32</ele>
        <time>2012-06-01T10:17:54Z</time>
      </trkpt>
      <trkpt lat="46.7016" lon="6.14411">
        <ele>1061.91</ele>
        <time>2012-06-01T10:17:57Z</time>
      </trkpt>
      <trkpt lat="46.70159" lon="6.144">
        <ele>1062.87</ele>
        <time>2012-06-01T10:18:09Z</time>
      </trkpt>
      <trkpt lat="46.70158" lon="6.14385">
        <ele>1061.43</ele>
        <time>2012-06-01T10:18:16Z</time>
      </trkpt>
      <trkpt lat="46.70157" lon="6.14382">
        <ele>1060.95</ele>
        <time>2012-06-01T10:18:17Z</time>
      </trkpt>
      <trkpt lat="46.70156" lon="6.1438">
        <ele>1060.47</ele>
        <time>2012-06-01T10:18:18Z</time>
      </trkpt>
      <trkpt lat="46.70156" lon="6.14378">
        <ele>1060.47</ele>
        <time>2012-06-01T10:18:19Z</time>
      </trkpt>
      <trkpt lat="46.70156" lon="6.14375">
        <ele>1059.99</ele>
        <time>2012-06-01T10:18:20Z</time>
      </trkpt>
      <trkpt lat="46.70155" lon="6.14373">
        <ele>1059.99</ele>
        <time>2012-06-01T10:18:21Z</time>
      </trkpt>
      <trkpt lat="46.70154" lon="6.14359">
        <ele>1059.51</ele>
        <time>2012-06-01T10:18:26Z</time>
      </trkpt>
      <trkpt lat="46.70153" lon="6.14355">
        <ele>1059.51</ele>
        <time>2012-06-01T10:18:27Z</time>
      </trkpt>
      <trkpt lat="46.7015" lon="6.14351">
        <ele>1059.99</ele>
        <time>2012-06-01T10:18:43Z</time>
      </trkpt>
      <trkpt lat="46.70149" lon="6.14345">
        <ele>1059.03</ele>
        <time>2012-06-01T10:18:58Z</time>
      </trkpt>
      <trkpt lat="46.70148" lon="6.14341">
        <ele>1058.07</ele>
        <time>2012-06-01T10:19:00Z</time>
      </trkpt>
      <trkpt lat="46.70147" lon="6.14324">
        <ele>1057.59</ele>
        <time>2012-06-01T10:19:05Z</time>
      </trkpt>
      <trkpt lat="46.70147" lon="6.14319">
        <ele>1057.59</ele>
        <time>2012-06-01T10:19:06Z</time>
      </trkpt>
      <trkpt lat="46.70148" lon="6.14299">
        <ele>1055.67</ele>
        <time>2012-06-01T10:19:11Z</time>
      </trkpt>
      <trkpt lat="46.70148" lon="6.14293">
        <ele>1054.22</ele>
        <time>2012-06-01T10:19:13Z</time>
      </trkpt>
      <trkpt lat="46.70149" lon="6.14292">
        <ele>1054.22</ele>
        <time>2012-06-01T10:19:14Z</time>
      </trkpt>
      <trkpt lat="46.70151" lon="6.14292">
        <ele>1054.22</ele>
        <time>2012-06-01T10:19:15Z</time>
      </trkpt>
      <trkpt lat="46.70152" lon="6.14293">
        <ele>1054.22</ele>
        <time>2012-06-01T10:19:16Z</time>
      </trkpt>
      <trkpt lat="46.70153" lon="6.14295">
        <ele>1054.22</ele>
        <time>2012-06-01T10:19:17Z</time>
      </trkpt>
      <trkpt lat="46.70153" lon="6.14297">
        <ele>1054.22</ele>
        <time>2012-06-01T10:19:18Z</time>
      </trkpt>
      <trkpt lat="46.70155" lon="6.14298">
        <ele>1053.26</ele>
        <time>2012-06-01T10:19:19Z</time>
      </trkpt>
      <trkpt lat="46.70158" lon="6.143">
        <ele>1053.26</ele>
        <time>2012-06-01T10:19:20Z</time>
      </trkpt>
      <trkpt lat="46.70173" lon="6.14316">
        <ele>1052.3</ele>
        <time>2012-06-01T10:19:25Z</time>
      </trkpt>
      <trkpt lat="46.70176" lon="6.14321">
        <ele>1052.3</ele>
        <time>2012-06-01T10:19:26Z</time>
      </trkpt>
      <trkpt lat="46.7018" lon="6.14325">
        <ele>1052.3</ele>
        <time>2012-06-01T10:19:27Z</time>
      </trkpt>
      <trkpt lat="46.70183" lon="6.14328">
        <ele>1051.34</ele>
        <time>2012-06-01T10:19:28Z</time>
      </trkpt>
      <trkpt lat="46.70187" lon="6.1433">
        <ele>1051.34</ele>
        <time>2012-06-01T10:19:29Z</time>
      </trkpt>
      <trkpt lat="46.70192" lon="6.1433">
        <ele>1050.86</ele>
        <time>2012-06-01T10:19:30Z</time>
      </trkpt>
      <trkpt lat="46.70197" lon="6.14327">
        <ele>1049.42</ele>
        <time>2012-06-01T10:19:31Z</time>
      </trkpt>
      <trkpt lat="46.70201" lon="6.1432">
        <ele>1049.42</ele>
        <time>2012-06-01T10:19:32Z</time>
      </trkpt>
      <trkpt lat="46.70202" lon="6.1431">
        <ele>1048.45</ele>
        <time>2012-06-01T10:19:33Z</time>
      </trkpt>
      <trkpt lat="46.70206" lon="6.14273">
        <ele>1045.57</ele>
        <time>2012-06-01T10:19:36Z</time>
      </trkpt>
      <trkpt lat="46.70211" lon="6.14251">
        <ele>1044.13</ele>
        <time>2012-06-01T10:19:38Z</time>
      </trkpt>
      <trkpt lat="46.70215" lon="6.14243">
        <ele>1043.65</ele>
        <time>2012-06-01T10:19:39Z</time>
      </trkpt>
      <trkpt lat="46.70219" lon="6.14237">
        <ele>1042.21</ele>
        <time>2012-06-01T10:19:40Z</time>
      </trkpt>
      <trkpt lat="46.70225" lon="6.14232">
        <ele>1041.25</ele>
        <time>2012-06-01T10:19:41Z</time>
      </trkpt>
      <trkpt lat="46.70232" lon="6.14232">
        <ele>1040.28</ele>
        <time>2012-06-01T10:19:42Z</time>
      </trkpt>
      <trkpt lat="46.7024" lon="6.14234">
        <ele>1038.36</ele>
        <time>2012-06-01T10:19:43Z</time>
      </trkpt>
      <trkpt lat="46.7025" lon="6.1424">
        <ele>1037.88</ele>
        <time>2012-06-01T10:19:44Z</time>
      </trkpt>
      <trkpt lat="46.7026" lon="6.14241">
        <ele>1036.92</ele>
        <time>2012-06-01T10:19:45Z</time>
      </trkpt>
      <trkpt lat="46.7027" lon="6.14237">
        <ele>1035</ele>
        <time>2012-06-01T10:19:46Z</time>
      </trkpt>
      <trkpt lat="46.7028" lon="6.14232">
        <ele>1034.04</ele>
        <time>2012-06-01T10:19:47Z</time>
      </trkpt>
      <trkpt lat="46.7029" lon="6.14229">
        <ele>1034.04</ele>
        <time>2012-06-01T10:19:48Z</time>
      </trkpt>
      <trkpt lat="46.703" lon="6.1423">
        <ele>1034.04</ele>
        <time>2012-06-01T10:19:49Z</time>
      </trkpt>
      <trkpt lat="46.7031" lon="6.14235">
        <ele>1033.07</ele>
        <time>2012-06-01T10:19:50Z</time>
      </trkpt>
      <trkpt lat="46.70317" lon="6.14241">
        <ele>1033.55</ele>
        <time>2012-06-01T10:19:51Z</time>
      </trkpt>
      <trkpt lat="46.70324" lon="6.14247">
        <ele>1034.04</ele>
        <time>2012-06-01T10:19:52Z</time>
      </trkpt>
      <trkpt lat="46.70331" lon="6.1425">
        <ele>1034.52</ele>
        <time>2012-06-01T10:19:53Z</time>
      </trkpt>
      <trkpt lat="46.70337" lon="6.14252">
        <ele>1036.92</ele>
        <time>2012-06-01T10:19:54Z</time>
      </trkpt>
      <trkpt lat="46.70342" lon="6.14253">
        <ele>1035.96</ele>
        <time>2012-06-01T10:19:55Z</time>
      </trkpt>
      <trkpt lat="46.70347" lon="6.14253">
        <ele>1035.48</ele>
        <time>2012-06-01T10:19:56Z</time>
      </trkpt>
      <trkpt lat="46.70351" lon="6.14251">
        <ele>1035.96</ele>
        <time>2012-06-01T10:19:57Z</time>
      </trkpt>
      <trkpt lat="46.70353" lon="6.14247">
        <ele>1035.96</ele>
        <time>2012-06-01T10:19:58Z</time>
      </trkpt>
      <trkpt lat="46.70354" lon="6.14244">
        <ele>1037.4</ele>
        <time>2012-06-01T10:19:59Z</time>
      </trkpt>
      <trkpt lat="46.70354" lon="6.14241">
        <ele>1036.92</ele>
        <time>2012-06-01T10:20:00Z</time>
      </trkpt>
      <trkpt lat="46.70353" lon="6.14238">
        <ele>1037.4</ele>
        <time>2012-06-01T10:20:01Z</time>
      </trkpt>
      <trkpt lat="46.70352" lon="6.14234">
        <ele>1036.44</ele>
        <time>2012-06-01T10:20:02Z</time>
      </trkpt>
      <trkpt lat="46.70339" lon="6.14197">
        <ele>1039.8</ele>
        <time>2012-06-01T10:20:14Z</time>
      </trkpt>
      <trkpt lat="46.70317" lon="6.14145">
        <ele>1037.4</ele>
        <time>2012-06-01T10:20:24Z</time>
      </trkpt>
      <trkpt lat="46.70282" lon="6.14074">
        <ele>1034.04</ele>
        <time>2012-06-01T10:20:33Z</time>
      </trkpt>
      <trkpt lat="46.70274" lon="6.14052">
        <ele>1033.55</ele>
        <time>2012-06-01T10:20:35Z</time>
      </trkpt>
      <trkpt lat="46.70272" lon="6.14039">
        <ele>1032.11</ele>
        <time>2012-06-01T10:20:36Z</time>
      </trkpt>
      <trkpt lat="46.70271" lon="6.14025">
        <ele>1031.63</ele>
        <time>2012-06-01T10:20:37Z</time>
      </trkpt>
      <trkpt lat="46.70273" lon="6.13982">
        <ele>1028.75</ele>
        <time>2012-06-01T10:20:40Z</time>
      </trkpt>
      <trkpt lat="46.70275" lon="6.13923">
        <ele>1030.19</ele>
        <time>2012-06-01T10:20:45Z</time>
      </trkpt>
      <trkpt lat="46.70277" lon="6.13914">
        <ele>1030.19</ele>
        <time>2012-06-01T10:20:46Z</time>
      </trkpt>
      <trkpt lat="46.70281" lon="6.13906">
        <ele>1029.71</ele>
        <time>2012-06-01T10:20:47Z</time>
      </trkpt>
      <trkpt lat="46.70286" lon="6.13899">
        <ele>1028.75</ele>
        <time>2012-06-01T10:20:48Z</time>
      </trkpt>
      <trkpt lat="46.70291" lon="6.13894">
        <ele>1028.75</ele>
        <time>2012-06-01T10:20:49Z</time>
      </trkpt>
      <trkpt lat="46.70301" lon="6.13882">
        <ele>1028.27</ele>
        <time>2012-06-01T10:20:51Z</time>
      </trkpt>
      <trkpt lat="46.70304" lon="6.13874">
        <ele>1029.23</ele>
        <time>2012-06-01T10:20:52Z</time>
      </trkpt>
      <trkpt lat="46.70305" lon="6.13865">
        <ele>1027.79</ele>
        <time>2012-06-01T10:20:53Z</time>
      </trkpt>
      <trkpt lat="46.70303" lon="6.13855">
        <ele>1028.27</ele>
        <time>2012-06-01T10:20:54Z</time>
      </trkpt>
      <trkpt lat="46.70301" lon="6.13846">
        <ele>1027.79</ele>
        <time>2012-06-01T10:20:55Z</time>
      </trkpt>
      <trkpt lat="46.70299" lon="6.13838">
        <ele>1028.27</ele>
        <time>2012-06-01T10:20:56Z</time>
      </trkpt>
      <trkpt lat="46.70297" lon="6.13831">
        <ele>1028.27</ele>
        <time>2012-06-01T10:20:57Z</time>
      </trkpt>
      <trkpt lat="46.70292" lon="6.13787">
        <ele>1029.71</ele>
        <time>2012-06-01T10:21:07Z</time>
      </trkpt>
      <trkpt lat="46.70303" lon="6.13752">
        <ele>1031.15</ele>
        <time>2012-06-01T10:21:18Z</time>
      </trkpt>
      <trkpt lat="46.70331" lon="6.13731">
        <ele>1033.07</ele>
        <time>2012-06-01T10:21:31Z</time>
      </trkpt>
      <trkpt lat="46.70359" lon="6.13713">
        <ele>1035</ele>
        <time>2012-06-01T10:21:44Z</time>
      </trkpt>
      <trkpt lat="46.70379" lon="6.1368">
        <ele>1037.4</ele>
        <time>2012-06-01T10:21:57Z</time>
      </trkpt>
      <trkpt lat="46.70378" lon="6.13677">
        <ele>1037.88</ele>
        <time>2012-06-01T10:21:58Z</time>
      </trkpt>
      <trkpt lat="46.70377" lon="6.13673">
        <ele>1036.92</ele>
        <time>2012-06-01T10:21:59Z</time>
      </trkpt>
      <trkpt lat="46.70358" lon="6.13624">
        <ele>1037.4</ele>
        <time>2012-06-01T10:22:11Z</time>
      </trkpt>
      <trkpt lat="46.70346" lon="6.13557">
        <ele>1038.84</ele>
        <time>2012-06-01T10:22:26Z</time>
      </trkpt>
      <trkpt lat="46.70345" lon="6.13458">
        <ele>1038.84</ele>
        <time>2012-06-01T10:22:44Z</time>
      </trkpt>
      <trkpt lat="46.70322" lon="6.13381">
        <ele>1039.8</ele>
        <time>2012-06-01T10:22:59Z</time>
      </trkpt>
      <trkpt lat="46.70322" lon="6.13343">
        <ele>1042.69</ele>
        <time>2012-06-01T10:23:09Z</time>
      </trkpt>
      <trkpt lat="46.7035" lon="6.13304">
        <ele>1045.09</ele>
        <time>2012-06-01T10:23:22Z</time>
      </trkpt>
      <trkpt lat="46.70379" lon="6.13265">
        <ele>1047.97</ele>
        <time>2012-06-01T10:23:37Z</time>
      </trkpt>
      <trkpt lat="46.70415" lon="6.13237">
        <ele>1050.38</ele>
        <time>2012-06-01T10:23:53Z</time>
      </trkpt>
      <trkpt lat="46.70436" lon="6.13198">
        <ele>1053.74</ele>
        <time>2012-06-01T10:24:06Z</time>
      </trkpt>
      <trkpt lat="46.70448" lon="6.13145">
        <ele>1055.18</ele>
        <time>2012-06-01T10:24:20Z</time>
      </trkpt>
      <trkpt lat="46.70449" lon="6.13083">
        <ele>1057.11</ele>
        <time>2012-06-01T10:24:36Z</time>
      </trkpt>
      <trkpt lat="46.70459" lon="6.13038">
        <ele>1060.95</ele>
        <time>2012-06-01T10:24:48Z</time>
      </trkpt>
      <trkpt lat="46.70484" lon="6.12999">
        <ele>1061.91</ele>
        <time>2012-06-01T10:25:02Z</time>
      </trkpt>
      <trkpt lat="46.70515" lon="6.12957">
        <ele>1062.39</ele>
        <time>2012-06-01T10:25:18Z</time>
      </trkpt>
      <trkpt lat="46.70527" lon="6.12939">
        <ele>1062.39</ele>
        <time>2012-06-01T10:25:26Z</time>
      </trkpt>
      <trkpt lat="46.70529" lon="6.1294">
        <ele>1063.36</ele>
        <time>2012-06-01T10:25:27Z</time>
      </trkpt>
      <trkpt lat="46.7053" lon="6.12941">
        <ele>1062.87</ele>
        <time>2012-06-01T10:25:28Z</time>
      </trkpt>
      <trkpt lat="46.7053" lon="6.12944">
        <ele>1062.87</ele>
        <time>2012-06-01T10:25:33Z</time>
      </trkpt>
      <trkpt lat="46.7053" lon="6.12946">
        <ele>1058.07</ele>
        <time>2012-06-01T10:25:38Z</time>
      </trkpt>
      <trkpt lat="46.7053" lon="6.12946">
        <ele>1058.07</ele>
        <time>2012-06-01T11:45:18Z</time>
      </trkpt>
      <trkpt lat="46.7053" lon="6.12946">
        <ele>1066.24</ele>
        <time>2012-06-01T11:45:19Z</time>
      </trkpt>
      <trkpt lat="46.7053" lon="6.12946">
        <ele>1066.24</ele>
        <time>2012-06-01T11:45:20Z</time>
      </trkpt>
      <trkpt lat="46.7053" lon="6.12946">
        <ele>1064.32</ele>
        <time>2012-06-01T11:45:21Z</time>
      </trkpt>
      <trkpt lat="46.70541" lon="6.12942">
        <ele>1065.28</ele>
        <time>2012-06-01T11:45:22Z</time>
      </trkpt>
      <trkpt lat="46.70531" lon="6.12946">
        <ele>1066.72</ele>
        <time>2012-06-01T11:47:51Z</time>
      </trkpt>
      <trkpt lat="46.70531" lon="6.12946">
        <ele>1066.24</ele>
        <time>2012-06-01T11:47:55Z</time>
      </trkpt>
      <trkpt lat="46.70531" lon="6.12946">
        <ele>1065.28</ele>
        <time>2012-06-01T11:48:20Z</time>
      </trkpt>
      <trkpt lat="46.70532" lon="6.12944">
        <ele>1066.72</ele>
        <time>2012-06-01T11:49:37Z</time>
      </trkpt>
      <trkpt lat="46.70532" lon="6.1294">
        <ele>1066.24</ele>
        <time>2012-06-01T11:49:40Z</time>
      </trkpt>
      <trkpt lat="46.7053" lon="6.12939">
        <ele>1067.68</ele>
        <time>2012-06-01T11:49:42Z</time>
      </trkpt>
      <trkpt lat="46.70521" lon="6.12934">
        <ele>1067.2</ele>
        <time>2012-06-01T11:49:51Z</time>
      </trkpt>
      <trkpt lat="46.70517" lon="6.12915">
        <ele>1065.28</ele>
        <time>2012-06-01T11:49:58Z</time>
      </trkpt>
      <trkpt lat="46.7052" lon="6.12907">
        <ele>1066.24</ele>
        <time>2012-06-01T11:50:02Z</time>
      </trkpt>
      <trkpt lat="46.70522" lon="6.12904">
        <ele>1065.28</ele>
        <time>2012-06-01T11:50:04Z</time>
      </trkpt>
      <trkpt lat="46.70521" lon="6.12895">
        <ele>1065.28</ele>
        <time>2012-06-01T11:50:08Z</time>
      </trkpt>
      <trkpt lat="46.70514" lon="6.12879">
        <ele>1064.32</ele>
        <time>2012-06-01T11:50:12Z</time>
      </trkpt>
      <trkpt lat="46.7051" lon="6.12876">
        <ele>1064.32</ele>
        <time>2012-06-01T11:50:13Z</time>
      </trkpt>
      <trkpt lat="46.70507" lon="6.12873">
        <ele>1063.84</ele>
        <time>2012-06-01T11:50:14Z</time>
      </trkpt>
      <trkpt lat="46.70503" lon="6.1287">
        <ele>1061.43</ele>
        <time>2012-06-01T11:50:15Z</time>
      </trkpt>
      <trkpt lat="46.70499" lon="6.12866">
        <ele>1062.39</ele>
        <time>2012-06-01T11:50:16Z</time>
      </trkpt>
      <trkpt lat="46.70498" lon="6.12859">
        <ele>1061.91</ele>
        <time>2012-06-01T11:50:17Z</time>
      </trkpt>
      <trkpt lat="46.70496" lon="6.12853">
        <ele>1062.87</ele>
        <time>2012-06-01T11:50:18Z</time>
      </trkpt>
      <trkpt lat="46.70494" lon="6.12847">
        <ele>1061.91</ele>
        <time>2012-06-01T11:50:19Z</time>
      </trkpt>
      <trkpt lat="46.7049" lon="6.12841">
        <ele>1060.47</ele>
        <time>2012-06-01T11:50:20Z</time>
      </trkpt>
      <trkpt lat="46.70487" lon="6.12836">
        <ele>1060.95</ele>
        <time>2012-06-01T11:50:21Z</time>
      </trkpt>
      <trkpt lat="46.70485" lon="6.12829">
        <ele>1060.47</ele>
        <time>2012-06-01T11:50:22Z</time>
      </trkpt>
      <trkpt lat="46.70484" lon="6.12822">
        <ele>1060.47</ele>
        <time>2012-06-01T11:50:23Z</time>
      </trkpt>
      <trkpt lat="46.70484" lon="6.12815">
        <ele>1060.47</ele>
        <time>2012-06-01T11:50:24Z</time>
      </trkpt>
      <trkpt lat="46.70484" lon="6.12808">
        <ele>1060.47</ele>
        <time>2012-06-01T11:50:25Z</time>
      </trkpt>
      <trkpt lat="46.70485" lon="6.12804">
        <ele>1059.51</ele>
        <time>2012-06-01T11:50:26Z</time>
      </trkpt>
      <trkpt lat="46.70485" lon="6.12796">
        <ele>1060.95</ele>
        <time>2012-06-01T11:50:29Z</time>
      </trkpt>
      <trkpt lat="46.70485" lon="6.12793">
        <ele>1061.43</ele>
        <time>2012-06-01T11:50:30Z</time>
      </trkpt>
      <trkpt lat="46.70487" lon="6.12774">
        <ele>1061.43</ele>
        <time>2012-06-01T11:50:43Z</time>
      </trkpt>
      <trkpt lat="46.70488" lon="6.12773">
        <ele>1058.07</ele>
        <time>2012-06-01T11:53:23Z</time>
      </trkpt>
      <trkpt lat="46.70488" lon="6.12773">
        <ele>1061.43</ele>
        <time>2012-06-01T11:53:27Z</time>
      </trkpt>
      <trkpt lat="46.70488" lon="6.12773">
        <ele>1061.43</ele>
        <time>2012-06-01T11:53:35Z</time>
      </trkpt>
      <trkpt lat="46.70488" lon="6.12773">
        <ele>1057.59</ele>
        <time>2012-06-01T11:53:51Z</time>
      </trkpt>
      <trkpt lat="46.70488" lon="6.12773">
        <ele>1059.99</ele>
        <time>2012-06-01T11:53:52Z</time>
      </trkpt>
      <trkpt lat="46.70487" lon="6.12773">
        <ele>1061.43</ele>
        <time>2012-06-01T11:54:27Z</time>
      </trkpt>
      <trkpt lat="46.70485" lon="6.12773">
        <ele>1059.99</ele>
        <time>2012-06-01T11:54:28Z</time>
      </trkpt>
      <trkpt lat="46.70483" lon="6.12774">
        <ele>1059.99</ele>
        <time>2012-06-01T11:54:29Z</time>
      </trkpt>
      <trkpt lat="46.70482" lon="6.12776">
        <ele>1059.99</ele>
        <time>2012-06-01T11:54:30Z</time>
      </trkpt>
      <trkpt lat="46.70481" lon="6.12779">
        <ele>1060.47</ele>
        <time>2012-06-01T11:54:31Z</time>
      </trkpt>
      <trkpt lat="46.70481" lon="6.12781">
        <ele>1059.99</ele>
        <time>2012-06-01T11:54:32Z</time>
      </trkpt>
      <trkpt lat="46.70481" lon="6.12783">
        <ele>1059.99</ele>
        <time>2012-06-01T11:54:33Z</time>
      </trkpt>
      <trkpt lat="46.70481" lon="6.12786">
        <ele>1060.47</ele>
        <time>2012-06-01T11:54:34Z</time>
      </trkpt>
      <trkpt lat="46.70482" lon="6.12789">
        <ele>1059.51</ele>
        <time>2012-06-01T11:54:35Z</time>
      </trkpt>
      <trkpt lat="46.70482" lon="6.12792">
        <ele>1060.47</ele>
        <time>2012-06-01T11:54:36Z</time>
      </trkpt>
      <trkpt lat="46.70482" lon="6.12795">
        <ele>1059.99</ele>
        <time>2012-06-01T11:54:37Z</time>
      </trkpt>
      <trkpt lat="46.70482" lon="6.12799">
        <ele>1060.95</ele>
        <time>2012-06-01T11:54:38Z</time>
      </trkpt>
      <trkpt lat="46.70482" lon="6.12816">
        <ele>1057.59</ele>
        <time>2012-06-01T11:54:41Z</time>
      </trkpt>
      <trkpt lat="46.70488" lon="6.12846">
        <ele>1058.55</ele>
        <time>2012-06-01T11:54:49Z</time>
      </trkpt>
      <trkpt lat="46.70488" lon="6.12877">
        <ele>1061.91</ele>
        <time>2012-06-01T11:54:58Z</time>
      </trkpt>
      <trkpt lat="46.70463" lon="6.12932">
        <ele>1059.99</ele>
        <time>2012-06-01T11:55:14Z</time>
      </trkpt>
      <trkpt lat="46.70449" lon="6.1301">
        <ele>1061.43</ele>
        <time>2012-06-01T11:55:30Z</time>
      </trkpt>
      <trkpt lat="46.70447" lon="6.13065">
        <ele>1060.47</ele>
        <time>2012-06-01T11:55:43Z</time>
      </trkpt>
      <trkpt lat="46.70445" lon="6.13096">
        <ele>1058.55</ele>
        <time>2012-06-01T11:55:54Z</time>
      </trkpt>
      <trkpt lat="46.70445" lon="6.13132">
        <ele>1059.99</ele>
        <time>2012-06-01T11:56:01Z</time>
      </trkpt>
      <trkpt lat="46.70445" lon="6.13145">
        <ele>1057.59</ele>
        <time>2012-06-01T11:56:03Z</time>
      </trkpt>
      <trkpt lat="46.70442" lon="6.13166">
        <ele>1056.63</ele>
        <time>2012-06-01T11:56:06Z</time>
      </trkpt>
      <trkpt lat="46.7044" lon="6.13173">
        <ele>1056.15</ele>
        <time>2012-06-01T11:56:07Z</time>
      </trkpt>
      <trkpt lat="46.70424" lon="6.13219">
        <ele>1053.74</ele>
        <time>2012-06-01T11:56:13Z</time>
      </trkpt>
      <trkpt lat="46.70419" lon="6.13226">
        <ele>1053.26</ele>
        <time>2012-06-01T11:56:14Z</time>
      </trkpt>
      <trkpt lat="46.70415" lon="6.13232">
        <ele>1054.22</ele>
        <time>2012-06-01T11:56:15Z</time>
      </trkpt>
      <trkpt lat="46.70409" lon="6.13238">
        <ele>1052.3</ele>
        <time>2012-06-01T11:56:16Z</time>
      </trkpt>
      <trkpt lat="46.70403" lon="6.13242">
        <ele>1052.3</ele>
        <time>2012-06-01T11:56:17Z</time>
      </trkpt>
      <trkpt lat="46.70396" lon="6.13247">
        <ele>1051.34</ele>
        <time>2012-06-01T11:56:18Z</time>
      </trkpt>
      <trkpt lat="46.70382" lon="6.13258">
        <ele>1051.34</ele>
        <time>2012-06-01T11:56:20Z</time>
      </trkpt>
      <trkpt lat="46.70375" lon="6.13266">
        <ele>1049.42</ele>
        <time>2012-06-01T11:56:21Z</time>
      </trkpt>
      <trkpt lat="46.70337" lon="6.1332">
        <ele>1046.05</ele>
        <time>2012-06-01T11:56:28Z</time>
      </trkpt>
      <trkpt lat="46.70327" lon="6.13335">
        <ele>1045.57</ele>
        <time>2012-06-01T11:56:30Z</time>
      </trkpt>
      <trkpt lat="46.70319" lon="6.13346">
        <ele>1044.13</ele>
        <time>2012-06-01T11:56:32Z</time>
      </trkpt>
      <trkpt lat="46.70315" lon="6.1335">
        <ele>1044.61</ele>
        <time>2012-06-01T11:56:33Z</time>
      </trkpt>
      <trkpt lat="46.70311" lon="6.1335">
        <ele>1043.65</ele>
        <time>2012-06-01T11:56:34Z</time>
      </trkpt>
      <trkpt lat="46.70309" lon="6.13347">
        <ele>1044.13</ele>
        <time>2012-06-01T11:56:35Z</time>
      </trkpt>
      <trkpt lat="46.70308" lon="6.13342">
        <ele>1044.13</ele>
        <time>2012-06-01T11:56:36Z</time>
      </trkpt>
      <trkpt lat="46.70309" lon="6.13338">
        <ele>1043.65</ele>
        <time>2012-06-01T11:56:37Z</time>
      </trkpt>
      <trkpt lat="46.7031" lon="6.13334">
        <ele>1044.61</ele>
        <time>2012-06-01T11:56:38Z</time>
      </trkpt>
      <trkpt lat="46.70311" lon="6.1333">
        <ele>1045.57</ele>
        <time>2012-06-01T11:56:39Z</time>
      </trkpt>
      <trkpt lat="46.70313" lon="6.13326">
        <ele>1044.61</ele>
        <time>2012-06-01T11:56:40Z</time>
      </trkpt>
      <trkpt lat="46.70314" lon="6.13322">
        <ele>1044.13</ele>
        <time>2012-06-01T11:56:41Z</time>
      </trkpt>
      <trkpt lat="46.70315" lon="6.13318">
        <ele>1043.65</ele>
        <time>2012-06-01T11:56:42Z</time>
      </trkpt>
      <trkpt lat="46.70315" lon="6.13313">
        <ele>1043.65</ele>
        <time>2012-06-01T11:56:43Z</time>
      </trkpt>
      <trkpt lat="46.70316" lon="6.13308">
        <ele>1043.65</ele>
        <time>2012-06-01T11:56:44Z</time>
      </trkpt>
      <trkpt lat="46.70317" lon="6.13304">
        <ele>1043.17</ele>
        <time>2012-06-01T11:56:45Z</time>
      </trkpt>
      <trkpt lat="46.70317" lon="6.13299">
        <ele>1043.65</ele>
        <time>2012-06-01T11:56:46Z</time>
      </trkpt>
      <trkpt lat="46.70303" lon="6.13244">
        <ele>1043.65</ele>
        <time>2012-06-01T11:56:58Z</time>
      </trkpt>
      <trkpt lat="46.70275" lon="6.13203">
        <ele>1046.05</ele>
        <time>2012-06-01T11:57:10Z</time>
      </trkpt>
      <trkpt lat="46.70251" lon="6.13167">
        <ele>1046.53</ele>
        <time>2012-06-01T11:57:24Z</time>
      </trkpt>
      <trkpt lat="46.70238" lon="6.13143">
        <ele>1045.57</ele>
        <time>2012-06-01T11:57:29Z</time>
      </trkpt>
      <trkpt lat="46.70229" lon="6.1312">
        <ele>1044.13</ele>
        <time>2012-06-01T11:57:32Z</time>
      </trkpt>
      <trkpt lat="46.70206" lon="6.13044">
        <ele>1043.65</ele>
        <time>2012-06-01T11:57:44Z</time>
      </trkpt>
      <trkpt lat="46.70207" lon="6.13011">
        <ele>1043.17</ele>
        <time>2012-06-01T11:57:54Z</time>
      </trkpt>
      <trkpt lat="46.70208" lon="6.13008">
        <ele>1043.17</ele>
        <time>2012-06-01T11:57:58Z</time>
      </trkpt>
      <trkpt lat="46.70211" lon="6.12995">
        <ele>1043.17</ele>
        <time>2012-06-01T11:58:10Z</time>
      </trkpt>
      <trkpt lat="46.70211" lon="6.12993">
        <ele>1043.17</ele>
        <time>2012-06-01T11:58:11Z</time>
      </trkpt>
      <trkpt lat="46.70211" lon="6.12992">
        <ele>1043.65</ele>
        <time>2012-06-01T11:58:12Z</time>
      </trkpt>
      <trkpt lat="46.70211" lon="6.1299">
        <ele>1043.65</ele>
        <time>2012-06-01T11:58:13Z</time>
      </trkpt>
      <trkpt lat="46.70212" lon="6.12989">
        <ele>1042.21</ele>
        <time>2012-06-01T11:58:14Z</time>
      </trkpt>
      <trkpt lat="46.70212" lon="6.12987">
        <ele>1042.69</ele>
        <time>2012-06-01T11:58:15Z</time>
      </trkpt>
      <trkpt lat="46.70213" lon="6.12985">
        <ele>1043.17</ele>
        <time>2012-06-01T11:58:16Z</time>
      </trkpt>
      <trkpt lat="46.70213" lon="6.12983">
        <ele>1043.17</ele>
        <time>2012-06-01T11:58:17Z</time>
      </trkpt>
      <trkpt lat="46.70214" lon="6.12981">
        <ele>1042.69</ele>
        <time>2012-06-01T11:58:18Z</time>
      </trkpt>
      <trkpt lat="46.70215" lon="6.12978">
        <ele>1043.65</ele>
        <time>2012-06-01T11:58:19Z</time>
      </trkpt>
      <trkpt lat="46.70216" lon="6.12976">
        <ele>1042.69</ele>
        <time>2012-06-01T11:58:20Z</time>
      </trkpt>
      <trkpt lat="46.70216" lon="6.12973">
        <ele>1043.65</ele>
        <time>2012-06-01T11:58:21Z</time>
      </trkpt>
      <trkpt lat="46.70217" lon="6.12971">
        <ele>1043.17</ele>
        <time>2012-06-01T11:58:22Z</time>
      </trkpt>
      <trkpt lat="46.7022" lon="6.1296">
        <ele>1043.17</ele>
        <time>2012-06-01T11:58:27Z</time>
      </trkpt>
      <trkpt lat="46.70221" lon="6.12958">
        <ele>1043.17</ele>
        <time>2012-06-01T11:58:28Z</time>
      </trkpt>
      <trkpt lat="46.70221" lon="6.12955">
        <ele>1041.73</ele>
        <time>2012-06-01T11:58:29Z</time>
      </trkpt>
      <trkpt lat="46.70222" lon="6.12951">
        <ele>1043.17</ele>
        <time>2012-06-01T11:58:30Z</time>
      </trkpt>
      <trkpt lat="46.70222" lon="6.12948">
        <ele>1044.13</ele>
        <time>2012-06-01T11:58:31Z</time>
      </trkpt>
      <trkpt lat="46.70222" lon="6.12944">
        <ele>1042.69</ele>
        <time>2012-06-01T11:58:32Z</time>
      </trkpt>
      <trkpt lat="46.70224" lon="6.12941">
        <ele>1043.17</ele>
        <time>2012-06-01T11:58:33Z</time>
      </trkpt>
      <trkpt lat="46.70236" lon="6.12895">
        <ele>1042.69</ele>
        <time>2012-06-01T11:58:46Z</time>
      </trkpt>
      <trkpt lat="46.70262" lon="6.12857">
        <ele>1044.13</ele>
        <time>2012-06-01T11:59:01Z</time>
      </trkpt>
      <trkpt lat="46.70273" lon="6.12843">
        <ele>1044.61</ele>
        <time>2012-06-01T11:59:07Z</time>
      </trkpt>
      <trkpt lat="46.70291" lon="6.12798">
        <ele>1045.09</ele>
        <time>2012-06-01T11:59:21Z</time>
      </trkpt>
      <trkpt lat="46.70292" lon="6.12796">
        <ele>1045.09</ele>
        <time>2012-06-01T11:59:22Z</time>
      </trkpt>
      <trkpt lat="46.70292" lon="6.12794">
        <ele>1046.05</ele>
        <time>2012-06-01T11:59:34Z</time>
      </trkpt>
      <trkpt lat="46.70291" lon="6.12791">
        <ele>1045.09</ele>
        <time>2012-06-01T11:59:43Z</time>
      </trkpt>
      <trkpt lat="46.70291" lon="6.12791">
        <ele>1043.65</ele>
        <time>2012-06-01T11:59:54Z</time>
      </trkpt>
      <trkpt lat="46.70293" lon="6.12788">
        <ele>1044.13</ele>
        <time>2012-06-01T12:00:06Z</time>
      </trkpt>
      <trkpt lat="46.70294" lon="6.12786">
        <ele>1044.13</ele>
        <time>2012-06-01T12:00:07Z</time>
      </trkpt>
      <trkpt lat="46.70294" lon="6.12783">
        <ele>1043.65</ele>
        <time>2012-06-01T12:00:08Z</time>
      </trkpt>
      <trkpt lat="46.70295" lon="6.12781">
        <ele>1044.61</ele>
        <time>2012-06-01T12:00:09Z</time>
      </trkpt>
      <trkpt lat="46.70295" lon="6.12778">
        <ele>1043.65</ele>
        <time>2012-06-01T12:00:10Z</time>
      </trkpt>
      <trkpt lat="46.70295" lon="6.12775">
        <ele>1039.8</ele>
        <time>2012-06-01T12:00:11Z</time>
      </trkpt>
      <trkpt lat="46.70294" lon="6.12772">
        <ele>1044.13</ele>
        <time>2012-06-01T12:00:12Z</time>
      </trkpt>
      <trkpt lat="46.70292" lon="6.12768">
        <ele>1042.69</ele>
        <time>2012-06-01T12:00:13Z</time>
      </trkpt>
      <trkpt lat="46.7029" lon="6.12765">
        <ele>1043.65</ele>
        <time>2012-06-01T12:00:14Z</time>
      </trkpt>
      <trkpt lat="46.70269" lon="6.12736">
        <ele>1043.65</ele>
        <time>2012-06-01T12:00:24Z</time>
      </trkpt>
      <trkpt lat="46.70249" lon="6.1271">
        <ele>1044.13</ele>
        <time>2012-06-01T12:00:32Z</time>
      </trkpt>
      <trkpt lat="46.70244" lon="6.12707">
        <ele>1043.17</ele>
        <time>2012-06-01T12:00:33Z</time>
      </trkpt>
      <trkpt lat="46.70209" lon="6.12695">
        <ele>1044.61</ele>
        <time>2012-06-01T12:00:43Z</time>
      </trkpt>
      <trkpt lat="46.70206" lon="6.12693">
        <ele>1043.65</ele>
        <time>2012-06-01T12:00:44Z</time>
      </trkpt>
      <trkpt lat="46.70204" lon="6.1269">
        <ele>1044.61</ele>
        <time>2012-06-01T12:00:45Z</time>
      </trkpt>
      <trkpt lat="46.70203" lon="6.12688">
        <ele>1044.13</ele>
        <time>2012-06-01T12:00:46Z</time>
      </trkpt>
      <trkpt lat="46.70201" lon="6.12685">
        <ele>1044.13</ele>
        <time>2012-06-01T12:00:47Z</time>
      </trkpt>
      <trkpt lat="46.702" lon="6.12682">
        <ele>1045.09</ele>
        <time>2012-06-01T12:00:48Z</time>
      </trkpt>
      <trkpt lat="46.70198" lon="6.1268">
        <ele>1044.13</ele>
        <time>2012-06-01T12:00:49Z</time>
      </trkpt>
      <trkpt lat="46.70196" lon="6.12676">
        <ele>1045.09</ele>
        <time>2012-06-01T12:00:50Z</time>
      </trkpt>
      <trkpt lat="46.70195" lon="6.12672">
        <ele>1045.57</ele>
        <time>2012-06-01T12:00:51Z</time>
      </trkpt>
      <trkpt lat="46.70193" lon="6.12668">
        <ele>1045.57</ele>
        <time>2012-06-01T12:00:52Z</time>
      </trkpt>
      <trkpt lat="46.70181" lon="6.1262">
        <ele>1045.09</ele>
        <time>2012-06-01T12:01:03Z</time>
      </trkpt>
      <trkpt lat="46.70176" lon="6.12582">
        <ele>1047.97</ele>
        <time>2012-06-01T12:01:12Z</time>
      </trkpt>
      <trkpt lat="46.70171" lon="6.12559">
        <ele>1049.42</ele>
        <time>2012-06-01T12:01:18Z</time>
      </trkpt>
      <trkpt lat="46.70156" lon="6.12515">
        <ele>1049.9</ele>
        <time>2012-06-01T12:01:31Z</time>
      </trkpt>
      <trkpt lat="46.70156" lon="6.12513">
        <ele>1050.86</ele>
        <time>2012-06-01T12:01:32Z</time>
      </trkpt>
      <trkpt lat="46.70157" lon="6.12511">
        <ele>1050.86</ele>
        <time>2012-06-01T12:01:33Z</time>
      </trkpt>
      <trkpt lat="46.70157" lon="6.12508">
        <ele>1050.86</ele>
        <time>2012-06-01T12:01:34Z</time>
      </trkpt>
      <trkpt lat="46.70157" lon="6.12506">
        <ele>1051.82</ele>
        <time>2012-06-01T12:01:35Z</time>
      </trkpt>
      <trkpt lat="46.70156" lon="6.12503">
        <ele>1052.3</ele>
        <time>2012-06-01T12:01:36Z</time>
      </trkpt>
      <trkpt lat="46.70156" lon="6.125">
        <ele>1052.3</ele>
        <time>2012-06-01T12:01:37Z</time>
      </trkpt>
      <trkpt lat="46.70157" lon="6.12498">
        <ele>1051.82</ele>
        <time>2012-06-01T12:01:38Z</time>
      </trkpt>
      <trkpt lat="46.70156" lon="6.12495">
        <ele>1052.3</ele>
        <time>2012-06-01T12:01:39Z</time>
      </trkpt>
      <trkpt lat="46.70155" lon="6.12491">
        <ele>1052.3</ele>
        <time>2012-06-01T12:01:40Z</time>
      </trkpt>
      <trkpt lat="46.70153" lon="6.12487">
        <ele>1052.3</ele>
        <time>2012-06-01T12:01:41Z</time>
      </trkpt>
      <trkpt lat="46.70128" lon="6.12451">
        <ele>1052.3</ele>
        <time>2012-06-01T12:01:53Z</time>
      </trkpt>
      <trkpt lat="46.70109" lon="6.12425">
        <ele>1054.22</ele>
        <time>2012-06-01T12:02:05Z</time>
      </trkpt>
      <trkpt lat="46.70096" lon="6.12395">
        <ele>1056.15</ele>
        <time>2012-06-01T12:02:15Z</time>
      </trkpt>
      <trkpt lat="46.70091" lon="6.12366">
        <ele>1058.07</ele>
        <time>2012-06-01T12:02:24Z</time>
      </trkpt>
      <trkpt lat="46.70081" lon="6.12332">
        <ele>1059.03</ele>
        <time>2012-06-01T12:02:36Z</time>
      </trkpt>
      <trkpt lat="46.70095" lon="6.12303">
        <ele>1059.51</ele>
        <time>2012-06-01T12:02:46Z</time>
      </trkpt>
      <trkpt lat="46.7011" lon="6.12282">
        <ele>1060.95</ele>
        <time>2012-06-01T12:02:54Z</time>
      </trkpt>
      <trkpt lat="46.7011" lon="6.12279">
        <ele>1060.95</ele>
        <time>2012-06-01T12:02:55Z</time>
      </trkpt>
      <trkpt lat="46.70111" lon="6.12277">
        <ele>1061.43</ele>
        <time>2012-06-01T12:02:56Z</time>
      </trkpt>
      <trkpt lat="46.70112" lon="6.12274">
        <ele>1061.91</ele>
        <time>2012-06-01T12:02:57Z</time>
      </trkpt>
      <trkpt lat="46.70113" lon="6.1227">
        <ele>1061.43</ele>
        <time>2012-06-01T12:02:58Z</time>
      </trkpt>
      <trkpt lat="46.70112" lon="6.12266">
        <ele>1061.43</ele>
        <time>2012-06-01T12:02:59Z</time>
      </trkpt>
      <trkpt lat="46.70112" lon="6.12263">
        <ele>1060.95</ele>
        <time>2012-06-01T12:03:00Z</time>
      </trkpt>
      <trkpt lat="46.70111" lon="6.1226">
        <ele>1059.51</ele>
        <time>2012-06-01T12:03:01Z</time>
      </trkpt>
      <trkpt lat="46.70111" lon="6.12258">
        <ele>1061.43</ele>
        <time>2012-06-01T12:03:02Z</time>
      </trkpt>
      <trkpt lat="46.70112" lon="6.12255">
        <ele>1061.43</ele>
        <time>2012-06-01T12:03:03Z</time>
      </trkpt>
      <trkpt lat="46.70114" lon="6.12249">
        <ele>1060.95</ele>
        <time>2012-06-01T12:03:06Z</time>
      </trkpt>
      <trkpt lat="46.70114" lon="6.12247">
        <ele>1060.95</ele>
        <time>2012-06-01T12:03:07Z</time>
      </trkpt>
      <trkpt lat="46.70114" lon="6.12244">
        <ele>1060.95</ele>
        <time>2012-06-01T12:03:08Z</time>
      </trkpt>
      <trkpt lat="46.70114" lon="6.12242">
        <ele>1060.47</ele>
        <time>2012-06-01T12:03:09Z</time>
      </trkpt>
      <trkpt lat="46.70115" lon="6.12238">
        <ele>1060.95</ele>
        <time>2012-06-01T12:03:10Z</time>
      </trkpt>
      <trkpt lat="46.70115" lon="6.12235">
        <ele>1060.47</ele>
        <time>2012-06-01T12:03:11Z</time>
      </trkpt>
      <trkpt lat="46.70123" lon="6.12199">
        <ele>1059.51</ele>
        <time>2012-06-01T12:03:22Z</time>
      </trkpt>
      <trkpt lat="46.70147" lon="6.12163">
        <ele>1058.55</ele>
        <time>2012-06-01T12:03:34Z</time>
      </trkpt>
      <trkpt lat="46.70177" lon="6.12145">
        <ele>1059.03</ele>
        <time>2012-06-01T12:03:44Z</time>
      </trkpt>
      <trkpt lat="46.70185" lon="6.1214">
        <ele>1061.43</ele>
        <time>2012-06-01T12:03:47Z</time>
      </trkpt>
      <trkpt lat="46.70198" lon="6.12126">
        <ele>1061.91</ele>
        <time>2012-06-01T12:03:52Z</time>
      </trkpt>
      <trkpt lat="46.702" lon="6.12121">
        <ele>1060.95</ele>
        <time>2012-06-01T12:03:53Z</time>
      </trkpt>
      <trkpt lat="46.70201" lon="6.12116">
        <ele>1060.95</ele>
        <time>2012-06-01T12:03:54Z</time>
      </trkpt>
      <trkpt lat="46.70202" lon="6.1211">
        <ele>1060.95</ele>
        <time>2012-06-01T12:03:55Z</time>
      </trkpt>
      <trkpt lat="46.70202" lon="6.12105">
        <ele>1061.43</ele>
        <time>2012-06-01T12:03:56Z</time>
      </trkpt>
      <trkpt lat="46.70201" lon="6.121">
        <ele>1061.43</ele>
        <time>2012-06-01T12:03:57Z</time>
      </trkpt>
      <trkpt lat="46.702" lon="6.12096">
        <ele>1061.43</ele>
        <time>2012-06-01T12:03:58Z</time>
      </trkpt>
      <trkpt lat="46.70182" lon="6.1204">
        <ele>1059.51</ele>
        <time>2012-06-01T12:04:11Z</time>
      </trkpt>
      <trkpt lat="46.70174" lon="6.12008">
        <ele>1057.59</ele>
        <time>2012-06-01T12:04:17Z</time>
      </trkpt>
      <trkpt lat="46.70173" lon="6.12001">
        <ele>1057.11</ele>
        <time>2012-06-01T12:04:18Z</time>
      </trkpt>
      <trkpt lat="46.70172" lon="6.11992">
        <ele>1057.59</ele>
        <time>2012-06-01T12:04:19Z</time>
      </trkpt>
      <trkpt lat="46.70172" lon="6.11983">
        <ele>1056.15</ele>
        <time>2012-06-01T12:04:20Z</time>
      </trkpt>
      <trkpt lat="46.70173" lon="6.11974">
        <ele>1055.18</ele>
        <time>2012-06-01T12:04:21Z</time>
      </trkpt>
      <trkpt lat="46.70172" lon="6.11925">
        <ele>1053.74</ele>
        <time>2012-06-01T12:04:27Z</time>
      </trkpt>
      <trkpt lat="46.7017" lon="6.11916">
        <ele>1053.74</ele>
        <time>2012-06-01T12:04:28Z</time>
      </trkpt>
      <trkpt lat="46.70167" lon="6.11908">
        <ele>1053.26</ele>
        <time>2012-06-01T12:04:29Z</time>
      </trkpt>
      <trkpt lat="46.70164" lon="6.11899">
        <ele>1051.82</ele>
        <time>2012-06-01T12:04:30Z</time>
      </trkpt>
      <trkpt lat="46.70159" lon="6.11892">
        <ele>1052.78</ele>
        <time>2012-06-01T12:04:31Z</time>
      </trkpt>
      <trkpt lat="46.70154" lon="6.11885">
        <ele>1052.3</ele>
        <time>2012-06-01T12:04:32Z</time>
      </trkpt>
      <trkpt lat="46.70148" lon="6.11879">
        <ele>1052.3</ele>
        <time>2012-06-01T12:04:33Z</time>
      </trkpt>
      <trkpt lat="46.70142" lon="6.11874">
        <ele>1051.34</ele>
        <time>2012-06-01T12:04:34Z</time>
      </trkpt>
      <trkpt lat="46.70133" lon="6.11865">
        <ele>1050.86</ele>
        <time>2012-06-01T12:04:36Z</time>
      </trkpt>
      <trkpt lat="46.70131" lon="6.11859">
        <ele>1049.9</ele>
        <time>2012-06-01T12:04:37Z</time>
      </trkpt>
      <trkpt lat="46.70129" lon="6.11853">
        <ele>1049.9</ele>
        <time>2012-06-01T12:04:38Z</time>
      </trkpt>
      <trkpt lat="46.70127" lon="6.11848">
        <ele>1049.42</ele>
        <time>2012-06-01T12:04:39Z</time>
      </trkpt>
      <trkpt lat="46.70126" lon="6.11843">
        <ele>1049.42</ele>
        <time>2012-06-01T12:04:40Z</time>
      </trkpt>
      <trkpt lat="46.70126" lon="6.11839">
        <ele>1050.38</ele>
        <time>2012-06-01T12:04:41Z</time>
      </trkpt>
      <trkpt lat="46.70125" lon="6.11836">
        <ele>1049.42</ele>
        <time>2012-06-01T12:04:42Z</time>
      </trkpt>
      <trkpt lat="46.70124" lon="6.11833">
        <ele>1049.42</ele>
        <time>2012-06-01T12:04:43Z</time>
      </trkpt>
      <trkpt lat="46.70123" lon="6.11831">
        <ele>1049.42</ele>
        <time>2012-06-01T12:04:44Z</time>
      </trkpt>
      <trkpt lat="46.70121" lon="6.11828">
        <ele>1048.94</ele>
        <time>2012-06-01T12:04:45Z</time>
      </trkpt>
      <trkpt lat="46.70119" lon="6.11826">
        <ele>1047.97</ele>
        <time>2012-06-01T12:04:46Z</time>
      </trkpt>
      <trkpt lat="46.70117" lon="6.11823">
        <ele>1048.45</ele>
        <time>2012-06-01T12:04:47Z</time>
      </trkpt>
      <trkpt lat="46.70114" lon="6.1182">
        <ele>1048.45</ele>
        <time>2012-06-01T12:04:48Z</time>
      </trkpt>
      <trkpt lat="46.70107" lon="6.11809">
        <ele>1047.49</ele>
        <time>2012-06-01T12:04:51Z</time>
      </trkpt>
      <trkpt lat="46.70103" lon="6.11807">
        <ele>1047.97</ele>
        <time>2012-06-01T12:04:52Z</time>
      </trkpt>
      <trkpt lat="46.70101" lon="6.11803">
        <ele>1047.97</ele>
        <time>2012-06-01T12:04:53Z</time>
      </trkpt>
      <trkpt lat="46.70099" lon="6.118">
        <ele>1048.45</ele>
        <time>2012-06-01T12:04:54Z</time>
      </trkpt>
      <trkpt lat="46.70098" lon="6.11797">
        <ele>1047.01</ele>
        <time>2012-06-01T12:04:55Z</time>
      </trkpt>
      <trkpt lat="46.70097" lon="6.11794">
        <ele>1047.97</ele>
        <time>2012-06-01T12:04:56Z</time>
      </trkpt>
      <trkpt lat="46.70096" lon="6.11792">
        <ele>1047.49</ele>
        <time>2012-06-01T12:04:57Z</time>
      </trkpt>
      <trkpt lat="46.70094" lon="6.1179">
        <ele>1047.97</ele>
        <time>2012-06-01T12:04:58Z</time>
      </trkpt>
      <trkpt lat="46.70093" lon="6.11788">
        <ele>1048.45</ele>
        <time>2012-06-01T12:04:59Z</time>
      </trkpt>
      <trkpt lat="46.70074" lon="6.11766">
        <ele>1046.05</ele>
        <time>2012-06-01T12:05:08Z</time>
      </trkpt>
      <trkpt lat="46.70049" lon="6.11724">
        <ele>1046.05</ele>
        <time>2012-06-01T12:05:18Z</time>
      </trkpt>
      <trkpt lat="46.70048" lon="6.11721">
        <ele>1046.05</ele>
        <time>2012-06-01T12:05:19Z</time>
      </trkpt>
      <trkpt lat="46.70047" lon="6.11718">
        <ele>1045.57</ele>
        <time>2012-06-01T12:05:20Z</time>
      </trkpt>
      <trkpt lat="46.70045" lon="6.11715">
        <ele>1045.57</ele>
        <time>2012-06-01T12:05:21Z</time>
      </trkpt>
      <trkpt lat="46.70043" lon="6.11712">
        <ele>1046.05</ele>
        <time>2012-06-01T12:05:22Z</time>
      </trkpt>
      <trkpt lat="46.70042" lon="6.11709">
        <ele>1047.01</ele>
        <time>2012-06-01T12:05:23Z</time>
      </trkpt>
      <trkpt lat="46.70016" lon="6.11689">
        <ele>1045.09</ele>
        <time>2012-06-01T12:05:32Z</time>
      </trkpt>
      <trkpt lat="46.6997" lon="6.11648">
        <ele>1044.13</ele>
        <time>2012-06-01T12:05:45Z</time>
      </trkpt>
      <trkpt lat="46.69966" lon="6.11645">
        <ele>1043.65</ele>
        <time>2012-06-01T12:05:46Z</time>
      </trkpt>
      <trkpt lat="46.6994" lon="6.11631">
        <ele>1042.69</ele>
        <time>2012-06-01T12:05:52Z</time>
      </trkpt>
      <trkpt lat="46.69935" lon="6.1163">
        <ele>1042.69</ele>
        <time>2012-06-01T12:05:53Z</time>
      </trkpt>
      <trkpt lat="46.6992" lon="6.11625">
        <ele>1042.69</ele>
        <time>2012-06-01T12:05:56Z</time>
      </trkpt>
      <trkpt lat="46.69915" lon="6.11624">
        <ele>1043.17</ele>
        <time>2012-06-01T12:05:57Z</time>
      </trkpt>
      <trkpt lat="46.69912" lon="6.11623">
        <ele>1042.69</ele>
        <time>2012-06-01T12:05:58Z</time>
      </trkpt>
      <trkpt lat="46.69908" lon="6.11622">
        <ele>1043.65</ele>
        <time>2012-06-01T12:05:59Z</time>
      </trkpt>
      <trkpt lat="46.69906" lon="6.1162">
        <ele>1042.69</ele>
        <time>2012-06-01T12:06:00Z</time>
      </trkpt>
      <trkpt lat="46.69904" lon="6.11618">
        <ele>1042.69</ele>
        <time>2012-06-01T12:06:01Z</time>
      </trkpt>
      <trkpt lat="46.69903" lon="6.11613">
        <ele>1043.17</ele>
        <time>2012-06-01T12:06:02Z</time>
      </trkpt>
      <trkpt lat="46.69902" lon="6.11609">
        <ele>1043.17</ele>
        <time>2012-06-01T12:06:03Z</time>
      </trkpt>
      <trkpt lat="46.69901" lon="6.11606">
        <ele>1043.17</ele>
        <time>2012-06-01T12:06:04Z</time>
      </trkpt>
      <trkpt lat="46.699" lon="6.11601">
        <ele>1039.32</ele>
        <time>2012-06-01T12:06:05Z</time>
      </trkpt>
      <trkpt lat="46.699" lon="6.11597">
        <ele>1043.17</ele>
        <time>2012-06-01T12:06:06Z</time>
      </trkpt>
      <trkpt lat="46.69899" lon="6.11593">
        <ele>1043.65</ele>
        <time>2012-06-01T12:06:07Z</time>
      </trkpt>
      <trkpt lat="46.699" lon="6.1159">
        <ele>1042.69</ele>
        <time>2012-06-01T12:06:08Z</time>
      </trkpt>
      <trkpt lat="46.69901" lon="6.11577">
        <ele>1044.61</ele>
        <time>2012-06-01T12:06:11Z</time>
      </trkpt>
      <trkpt lat="46.69897" lon="6.11551">
        <ele>1043.65</ele>
        <time>2012-06-01T12:06:17Z</time>
      </trkpt>
      <trkpt lat="46.69896" lon="6.1152">
        <ele>1046.53</ele>
        <time>2012-06-01T12:06:24Z</time>
      </trkpt>
      <trkpt lat="46.69895" lon="6.11505">
        <ele>1047.49</ele>
        <time>2012-06-01T12:06:27Z</time>
      </trkpt>
      <trkpt lat="46.69891" lon="6.11501">
        <ele>1048.45</ele>
        <time>2012-06-01T12:06:29Z</time>
      </trkpt>
      <trkpt lat="46.69883" lon="6.11473">
        <ele>1049.42</ele>
        <time>2012-06-01T12:06:40Z</time>
      </trkpt>
      <trkpt lat="46.69882" lon="6.11463">
        <ele>1049.9</ele>
        <time>2012-06-01T12:06:46Z</time>
      </trkpt>
      <trkpt lat="46.69881" lon="6.11461">
        <ele>1050.38</ele>
        <time>2012-06-01T12:06:47Z</time>
      </trkpt>
      <trkpt lat="46.69881" lon="6.11459">
        <ele>1050.38</ele>
        <time>2012-06-01T12:06:48Z</time>
      </trkpt>
      <trkpt lat="46.6988" lon="6.11454">
        <ele>1050.86</ele>
        <time>2012-06-01T12:06:50Z</time>
      </trkpt>
      <trkpt lat="46.6988" lon="6.11452">
        <ele>1050.86</ele>
        <time>2012-06-01T12:06:51Z</time>
      </trkpt>
      <trkpt lat="46.69879" lon="6.1145">
        <ele>1051.82</ele>
        <time>2012-06-01T12:06:52Z</time>
      </trkpt>
      <trkpt lat="46.69878" lon="6.11446">
        <ele>1051.34</ele>
        <time>2012-06-01T12:06:53Z</time>
      </trkpt>
      <trkpt lat="46.69878" lon="6.11442">
        <ele>1050.86</ele>
        <time>2012-06-01T12:06:54Z</time>
      </trkpt>
      <trkpt lat="46.69878" lon="6.11439">
        <ele>1051.34</ele>
        <time>2012-06-01T12:06:55Z</time>
      </trkpt>
      <trkpt lat="46.69877" lon="6.11437">
        <ele>1051.34</ele>
        <time>2012-06-01T12:06:56Z</time>
      </trkpt>
      <trkpt lat="46.69877" lon="6.11435">
        <ele>1052.3</ele>
        <time>2012-06-01T12:06:57Z</time>
      </trkpt>
      <trkpt lat="46.69878" lon="6.11433">
        <ele>1053.26</ele>
        <time>2012-06-01T12:06:58Z</time>
      </trkpt>
      <trkpt lat="46.69879" lon="6.1143">
        <ele>1052.3</ele>
        <time>2012-06-01T12:06:59Z</time>
      </trkpt>
      <trkpt lat="46.69879" lon="6.11428">
        <ele>1052.3</ele>
        <time>2012-06-01T12:07:00Z</time>
      </trkpt>
      <trkpt lat="46.6988" lon="6.11426">
        <ele>1053.26</ele>
        <time>2012-06-01T12:07:01Z</time>
      </trkpt>
      <trkpt lat="46.6988" lon="6.11424">
        <ele>1053.26</ele>
        <time>2012-06-01T12:07:02Z</time>
      </trkpt>
      <trkpt lat="46.69881" lon="6.11421">
        <ele>1052.78</ele>
        <time>2012-06-01T12:07:03Z</time>
      </trkpt>
      <trkpt lat="46.69881" lon="6.11419">
        <ele>1053.74</ele>
        <time>2012-06-01T12:07:04Z</time>
      </trkpt>
      <trkpt lat="46.69881" lon="6.11417">
        <ele>1053.26</ele>
        <time>2012-06-01T12:07:05Z</time>
      </trkpt>
      <trkpt lat="46.69882" lon="6.11414">
        <ele>1053.74</ele>
        <time>2012-06-01T12:07:06Z</time>
      </trkpt>
      <trkpt lat="46.69882" lon="6.11412">
        <ele>1053.74</ele>
        <time>2012-06-01T12:07:07Z</time>
      </trkpt>
      <trkpt lat="46.69884" lon="6.11405">
        <ele>1054.22</ele>
        <time>2012-06-01T12:07:10Z</time>
      </trkpt>
      <trkpt lat="46.69884" lon="6.11403">
        <ele>1054.7</ele>
        <time>2012-06-01T12:07:11Z</time>
      </trkpt>
      <trkpt lat="46.69884" lon="6.114">
        <ele>1054.22</ele>
        <time>2012-06-01T12:07:12Z</time>
      </trkpt>
      <trkpt lat="46.69884" lon="6.11397">
        <ele>1054.7</ele>
        <time>2012-06-01T12:07:13Z</time>
      </trkpt>
      <trkpt lat="46.69883" lon="6.11395">
        <ele>1054.7</ele>
        <time>2012-06-01T12:07:14Z</time>
      </trkpt>
      <trkpt lat="46.69882" lon="6.11392">
        <ele>1055.18</ele>
        <time>2012-06-01T12:07:15Z</time>
      </trkpt>
      <trkpt lat="46.69882" lon="6.11389">
        <ele>1055.18</ele>
        <time>2012-06-01T12:07:16Z</time>
      </trkpt>
      <trkpt lat="46.6988" lon="6.11363">
        <ele>1055.18</ele>
        <time>2012-06-01T12:07:24Z</time>
      </trkpt>
      <trkpt lat="46.69879" lon="6.11359">
        <ele>1055.67</ele>
        <time>2012-06-01T12:07:25Z</time>
      </trkpt>
      <trkpt lat="46.69879" lon="6.11356">
        <ele>1054.7</ele>
        <time>2012-06-01T12:07:26Z</time>
      </trkpt>
      <trkpt lat="46.69876" lon="6.11349">
        <ele>1055.18</ele>
        <time>2012-06-01T12:07:28Z</time>
      </trkpt>
      <trkpt lat="46.69874" lon="6.11346">
        <ele>1055.67</ele>
        <time>2012-06-01T12:07:29Z</time>
      </trkpt>
      <trkpt lat="46.69874" lon="6.11344">
        <ele>1055.67</ele>
        <time>2012-06-01T12:07:30Z</time>
      </trkpt>
      <trkpt lat="46.69873" lon="6.11341">
        <ele>1056.15</ele>
        <time>2012-06-01T12:07:31Z</time>
      </trkpt>
      <trkpt lat="46.69872" lon="6.11338">
        <ele>1056.15</ele>
        <time>2012-06-01T12:07:32Z</time>
      </trkpt>
      <trkpt lat="46.69865" lon="6.113">
        <ele>1056.63</ele>
        <time>2012-06-01T12:07:45Z</time>
      </trkpt>
      <trkpt lat="46.69848" lon="6.11251">
        <ele>1058.55</ele>
        <time>2012-06-01T12:07:58Z</time>
      </trkpt>
      <trkpt lat="46.6983" lon="6.11202">
        <ele>1058.55</ele>
        <time>2012-06-01T12:08:12Z</time>
      </trkpt>
      <trkpt lat="46.69826" lon="6.11181">
        <ele>1059.99</ele>
        <time>2012-06-01T12:08:19Z</time>
      </trkpt>
      <trkpt lat="46.69825" lon="6.11177">
        <ele>1059.99</ele>
        <time>2012-06-01T12:08:20Z</time>
      </trkpt>
      <trkpt lat="46.69824" lon="6.11174">
        <ele>1060.47</ele>
        <time>2012-06-01T12:08:21Z</time>
      </trkpt>
      <trkpt lat="46.69823" lon="6.11171">
        <ele>1059.99</ele>
        <time>2012-06-01T12:08:22Z</time>
      </trkpt>
      <trkpt lat="46.69822" lon="6.11168">
        <ele>1060.47</ele>
        <time>2012-06-01T12:08:23Z</time>
      </trkpt>
      <trkpt lat="46.69822" lon="6.11165">
        <ele>1059.99</ele>
        <time>2012-06-01T12:08:24Z</time>
      </trkpt>
      <trkpt lat="46.69822" lon="6.11133">
        <ele>1060.95</ele>
        <time>2012-06-01T12:08:35Z</time>
      </trkpt>
      <trkpt lat="46.69824" lon="6.11128">
        <ele>1059.99</ele>
        <time>2012-06-01T12:08:37Z</time>
      </trkpt>
      <trkpt lat="46.69825" lon="6.11125">
        <ele>1061.43</ele>
        <time>2012-06-01T12:08:38Z</time>
      </trkpt>
      <trkpt lat="46.69826" lon="6.11123">
        <ele>1060.95</ele>
        <time>2012-06-01T12:08:39Z</time>
      </trkpt>
      <trkpt lat="46.69828" lon="6.11119">
        <ele>1062.39</ele>
        <time>2012-06-01T12:08:41Z</time>
      </trkpt>
      <trkpt lat="46.69827" lon="6.11106">
        <ele>1063.36</ele>
        <time>2012-06-01T12:08:47Z</time>
      </trkpt>
      <trkpt lat="46.69831" lon="6.11096">
        <ele>1065.76</ele>
        <time>2012-06-01T12:08:53Z</time>
      </trkpt>
      <trkpt lat="46.69827" lon="6.11077">
        <ele>1066.24</ele>
        <time>2012-06-01T12:08:58Z</time>
      </trkpt>
      <trkpt lat="46.69825" lon="6.11067">
        <ele>1066.72</ele>
        <time>2012-06-01T12:09:02Z</time>
      </trkpt>
      <trkpt lat="46.69826" lon="6.11054">
        <ele>1066.72</ele>
        <time>2012-06-01T12:09:07Z</time>
      </trkpt>
      <trkpt lat="46.69823" lon="6.11045">
        <ele>1069.12</ele>
        <time>2012-06-01T12:09:10Z</time>
      </trkpt>
      <trkpt lat="46.69814" lon="6.11022">
        <ele>1070.08</ele>
        <time>2012-06-01T12:09:16Z</time>
      </trkpt>
      <trkpt lat="46.69813" lon="6.1099">
        <ele>1071.53</ele>
        <time>2012-06-01T12:09:28Z</time>
      </trkpt>
      <trkpt lat="46.69809" lon="6.10972">
        <ele>1071.53</ele>
        <time>2012-06-01T12:09:38Z</time>
      </trkpt>
      <trkpt lat="46.69808" lon="6.10963">
        <ele>1071.53</ele>
        <time>2012-06-01T12:09:42Z</time>
      </trkpt>
      <trkpt lat="46.69809" lon="6.10955">
        <ele>1072.49</ele>
        <time>2012-06-01T12:09:46Z</time>
      </trkpt>
      <trkpt lat="46.69815" lon="6.10931">
        <ele>1072.49</ele>
        <time>2012-06-01T12:09:55Z</time>
      </trkpt>
      <trkpt lat="46.69815" lon="6.1093">
        <ele>1072.97</ele>
        <time>2012-06-01T12:09:56Z</time>
      </trkpt>
      <trkpt lat="46.69817" lon="6.10914">
        <ele>1072.49</ele>
        <time>2012-06-01T12:10:03Z</time>
      </trkpt>
      <trkpt lat="46.69807" lon="6.10903">
        <ele>1073.93</ele>
        <time>2012-06-01T12:10:11Z</time>
      </trkpt>
      <trkpt lat="46.69802" lon="6.10903">
        <ele>1073.93</ele>
        <time>2012-06-01T12:10:14Z</time>
      </trkpt>
      <trkpt lat="46.69784" lon="6.1089">
        <ele>1072.97</ele>
        <time>2012-06-01T12:10:25Z</time>
      </trkpt>
      <trkpt lat="46.69778" lon="6.10877">
        <ele>1071.53</ele>
        <time>2012-06-01T12:10:33Z</time>
      </trkpt>
      <trkpt lat="46.69768" lon="6.10878">
        <ele>1071.53</ele>
        <time>2012-06-01T12:10:39Z</time>
      </trkpt>
      <trkpt lat="46.69753" lon="6.10883">
        <ele>1071.05</ele>
        <time>2012-06-01T12:10:48Z</time>
      </trkpt>
      <trkpt lat="46.6973" lon="6.10891">
        <ele>1069.6</ele>
        <time>2012-06-01T12:10:57Z</time>
      </trkpt>
      <trkpt lat="46.69704" lon="6.10886">
        <ele>1070.08</ele>
        <time>2012-06-01T12:11:05Z</time>
      </trkpt>
      <trkpt lat="46.69686" lon="6.10859">
        <ele>1071.53</ele>
        <time>2012-06-01T12:11:14Z</time>
      </trkpt>
      <trkpt lat="46.69661" lon="6.10845">
        <ele>1071.05</ele>
        <time>2012-06-01T12:11:25Z</time>
      </trkpt>
      <trkpt lat="46.69642" lon="6.10832">
        <ele>1070.57</ele>
        <time>2012-06-01T12:11:33Z</time>
      </trkpt>
      <trkpt lat="46.69631" lon="6.10818">
        <ele>1069.6</ele>
        <time>2012-06-01T12:11:37Z</time>
      </trkpt>
      <trkpt lat="46.69619" lon="6.10778">
        <ele>1069.12</ele>
        <time>2012-06-01T12:11:46Z</time>
      </trkpt>
      <trkpt lat="46.69611" lon="6.10751">
        <ele>1069.6</ele>
        <time>2012-06-01T12:11:53Z</time>
      </trkpt>
      <trkpt lat="46.6961" lon="6.10739">
        <ele>1069.12</ele>
        <time>2012-06-01T12:11:56Z</time>
      </trkpt>
      <trkpt lat="46.69607" lon="6.10716">
        <ele>1069.6</ele>
        <time>2012-06-01T12:12:02Z</time>
      </trkpt>
      <trkpt lat="46.69607" lon="6.10713">
        <ele>1070.08</ele>
        <time>2012-06-01T12:12:03Z</time>
      </trkpt>
      <trkpt lat="46.69599" lon="6.10697">
        <ele>1070.57</ele>
        <time>2012-06-01T12:12:08Z</time>
      </trkpt>
      <trkpt lat="46.69597" lon="6.10688">
        <ele>1070.08</ele>
        <time>2012-06-01T12:12:10Z</time>
      </trkpt>
      <trkpt lat="46.69589" lon="6.10675">
        <ele>1071.53</ele>
        <time>2012-06-01T12:12:13Z</time>
      </trkpt>
      <trkpt lat="46.69573" lon="6.10671">
        <ele>1068.64</ele>
        <time>2012-06-01T12:12:17Z</time>
      </trkpt>
      <trkpt lat="46.69568" lon="6.10672">
        <ele>1069.12</ele>
        <time>2012-06-01T12:12:18Z</time>
      </trkpt>
      <trkpt lat="46.69514" lon="6.10676">
        <ele>1069.6</ele>
        <time>2012-06-01T12:12:30Z</time>
      </trkpt>
      <trkpt lat="46.69508" lon="6.10675">
        <ele>1068.64</ele>
        <time>2012-06-01T12:12:32Z</time>
      </trkpt>
      <trkpt lat="46.69502" lon="6.10673">
        <ele>1070.08</ele>
        <time>2012-06-01T12:12:34Z</time>
      </trkpt>
      <trkpt lat="46.69486" lon="6.10672">
        <ele>1072.01</ele>
        <time>2012-06-01T12:12:39Z</time>
      </trkpt>
      <trkpt lat="46.6946" lon="6.10656">
        <ele>1072.97</ele>
        <time>2012-06-01T12:12:48Z</time>
      </trkpt>
      <trkpt lat="46.6944" lon="6.10649">
        <ele>1074.41</ele>
        <time>2012-06-01T12:12:57Z</time>
      </trkpt>
      <trkpt lat="46.69435" lon="6.10644">
        <ele>1074.89</ele>
        <time>2012-06-01T12:13:06Z</time>
      </trkpt>
      <trkpt lat="46.69431" lon="6.10638">
        <ele>1075.85</ele>
        <time>2012-06-01T12:13:16Z</time>
      </trkpt>
      <trkpt lat="46.6943" lon="6.10635">
        <ele>1076.33</ele>
        <time>2012-06-01T12:13:17Z</time>
      </trkpt>
      <trkpt lat="46.69426" lon="6.10629">
        <ele>1076.33</ele>
        <time>2012-06-01T12:13:20Z</time>
      </trkpt>
      <trkpt lat="46.69418" lon="6.10597">
        <ele>1078.26</ele>
        <time>2012-06-01T12:13:32Z</time>
      </trkpt>
      <trkpt lat="46.69418" lon="6.10594">
        <ele>1077.29</ele>
        <time>2012-06-01T12:13:33Z</time>
      </trkpt>
      <trkpt lat="46.69419" lon="6.10592">
        <ele>1078.26</ele>
        <time>2012-06-01T12:13:34Z</time>
      </trkpt>
      <trkpt lat="46.69421" lon="6.10581">
        <ele>1079.22</ele>
        <time>2012-06-01T12:13:38Z</time>
      </trkpt>
      <trkpt lat="46.6942" lon="6.10577">
        <ele>1079.22</ele>
        <time>2012-06-01T12:13:39Z</time>
      </trkpt>
      <trkpt lat="46.6942" lon="6.10574">
        <ele>1079.22</ele>
        <time>2012-06-01T12:13:40Z</time>
      </trkpt>
      <trkpt lat="46.6942" lon="6.10571">
        <ele>1078.74</ele>
        <time>2012-06-01T12:13:41Z</time>
      </trkpt>
      <trkpt lat="46.69421" lon="6.10569">
        <ele>1078.74</ele>
        <time>2012-06-01T12:13:42Z</time>
      </trkpt>
      <trkpt lat="46.69421" lon="6.10566">
        <ele>1079.22</ele>
        <time>2012-06-01T12:13:43Z</time>
      </trkpt>
      <trkpt lat="46.69421" lon="6.10554">
        <ele>1075.85</ele>
        <time>2012-06-01T12:13:47Z</time>
      </trkpt>
      <trkpt lat="46.69421" lon="6.10551">
        <ele>1079.22</ele>
        <time>2012-06-01T12:13:48Z</time>
      </trkpt>
      <trkpt lat="46.69403" lon="6.10538">
        <ele>1081.14</ele>
        <time>2012-06-01T12:13:59Z</time>
      </trkpt>
      <trkpt lat="46.69381" lon="6.10561">
        <ele>1083.54</ele>
        <time>2012-06-01T12:14:13Z</time>
      </trkpt>
      <trkpt lat="46.69349" lon="6.10589">
        <ele>1084.99</ele>
        <time>2012-06-01T12:14:29Z</time>
      </trkpt>
      <trkpt lat="46.69316" lon="6.10619">
        <ele>1090.27</ele>
        <time>2012-06-01T12:14:44Z</time>
      </trkpt>
      <trkpt lat="46.69306" lon="6.10627">
        <ele>1086.91</ele>
        <time>2012-06-01T12:14:48Z</time>
      </trkpt>
      <trkpt lat="46.6926" lon="6.10672">
        <ele>1084.99</ele>
        <time>2012-06-01T12:14:59Z</time>
      </trkpt>
      <trkpt lat="46.6923" lon="6.10704">
        <ele>1086.91</ele>
        <time>2012-06-01T12:15:09Z</time>
      </trkpt>
      <trkpt lat="46.692" lon="6.10734">
        <ele>1087.87</ele>
        <time>2012-06-01T12:15:22Z</time>
      </trkpt>
      <trkpt lat="46.69173" lon="6.10716">
        <ele>1088.35</ele>
        <time>2012-06-01T12:15:32Z</time>
      </trkpt>
      <trkpt lat="46.69135" lon="6.10692">
        <ele>1086.91</ele>
        <time>2012-06-01T12:15:41Z</time>
      </trkpt>
      <trkpt lat="46.69125" lon="6.10687">
        <ele>1084.99</ele>
        <time>2012-06-01T12:15:43Z</time>
      </trkpt>
      <trkpt lat="46.69121" lon="6.10683">
        <ele>1085.47</ele>
        <time>2012-06-01T12:15:44Z</time>
      </trkpt>
      <trkpt lat="46.69117" lon="6.1068">
        <ele>1084.99</ele>
        <time>2012-06-01T12:15:45Z</time>
      </trkpt>
      <trkpt lat="46.69089" lon="6.10646">
        <ele>1084.5</ele>
        <time>2012-06-01T12:15:52Z</time>
      </trkpt>
      <trkpt lat="46.69086" lon="6.10641">
        <ele>1084.99</ele>
        <time>2012-06-01T12:15:53Z</time>
      </trkpt>
      <trkpt lat="46.69069" lon="6.1062">
        <ele>1084.5</ele>
        <time>2012-06-01T12:15:59Z</time>
      </trkpt>
      <trkpt lat="46.69065" lon="6.10617">
        <ele>1083.54</ele>
        <time>2012-06-01T12:16:00Z</time>
      </trkpt>
      <trkpt lat="46.6906" lon="6.10614">
        <ele>1082.1</ele>
        <time>2012-06-01T12:16:01Z</time>
      </trkpt>
      <trkpt lat="46.69055" lon="6.10611">
        <ele>1082.1</ele>
        <time>2012-06-01T12:16:02Z</time>
      </trkpt>
      <trkpt lat="46.69049" lon="6.10609">
        <ele>1082.1</ele>
        <time>2012-06-01T12:16:03Z</time>
      </trkpt>
      <trkpt lat="46.69043" lon="6.10609">
        <ele>1082.58</ele>
        <time>2012-06-01T12:16:04Z</time>
      </trkpt>
      <trkpt lat="46.69037" lon="6.10611">
        <ele>1082.1</ele>
        <time>2012-06-01T12:16:05Z</time>
      </trkpt>
      <trkpt lat="46.69031" lon="6.10614">
        <ele>1081.14</ele>
        <time>2012-06-01T12:16:06Z</time>
      </trkpt>
      <trkpt lat="46.69025" lon="6.10617">
        <ele>1082.58</ele>
        <time>2012-06-01T12:16:07Z</time>
      </trkpt>
      <trkpt lat="46.69018" lon="6.10618">
        <ele>1082.1</ele>
        <time>2012-06-01T12:16:08Z</time>
      </trkpt>
      <trkpt lat="46.69012" lon="6.10619">
        <ele>1082.1</ele>
        <time>2012-06-01T12:16:09Z</time>
      </trkpt>
      <trkpt lat="46.69006" lon="6.1062">
        <ele>1080.66</ele>
        <time>2012-06-01T12:16:10Z</time>
      </trkpt>
      <trkpt lat="46.68995" lon="6.10624">
        <ele>1080.18</ele>
        <time>2012-06-01T12:16:12Z</time>
      </trkpt>
      <trkpt lat="46.6899" lon="6.10627">
        <ele>1082.1</ele>
        <time>2012-06-01T12:16:13Z</time>
      </trkpt>
      <trkpt lat="46.68975" lon="6.10637">
        <ele>1080.66</ele>
        <time>2012-06-01T12:16:16Z</time>
      </trkpt>
      <trkpt lat="46.6897" lon="6.1064">
        <ele>1082.1</ele>
        <time>2012-06-01T12:16:17Z</time>
      </trkpt>
      <trkpt lat="46.68966" lon="6.10643">
        <ele>1080.66</ele>
        <time>2012-06-01T12:16:18Z</time>
      </trkpt>
      <trkpt lat="46.68962" lon="6.10644">
        <ele>1081.14</ele>
        <time>2012-06-01T12:16:19Z</time>
      </trkpt>
      <trkpt lat="46.68958" lon="6.10645">
        <ele>1081.62</ele>
        <time>2012-06-01T12:16:20Z</time>
      </trkpt>
      <trkpt lat="46.68955" lon="6.10646">
        <ele>1081.62</ele>
        <time>2012-06-01T12:16:21Z</time>
      </trkpt>
      <trkpt lat="46.68951" lon="6.10646">
        <ele>1082.1</ele>
        <time>2012-06-01T12:16:22Z</time>
      </trkpt>
      <trkpt lat="46.68947" lon="6.10646">
        <ele>1082.58</ele>
        <time>2012-06-01T12:16:23Z</time>
      </trkpt>
      <trkpt lat="46.68912" lon="6.10656">
        <ele>1083.54</ele>
        <time>2012-06-01T12:16:32Z</time>
      </trkpt>
      <trkpt lat="46.6889" lon="6.10686">
        <ele>1082.1</ele>
        <time>2012-06-01T12:16:43Z</time>
      </trkpt>
      <trkpt lat="46.68889" lon="6.10685">
        <ele>1082.1</ele>
        <time>2012-06-01T12:16:45Z</time>
      </trkpt>
      <trkpt lat="46.68888" lon="6.10683">
        <ele>1081.14</ele>
        <time>2012-06-01T12:16:46Z</time>
      </trkpt>
      <trkpt lat="46.68887" lon="6.10682">
        <ele>1082.1</ele>
        <time>2012-06-01T12:16:47Z</time>
      </trkpt>
      <trkpt lat="46.68886" lon="6.10679">
        <ele>1081.14</ele>
        <time>2012-06-01T12:16:48Z</time>
      </trkpt>
      <trkpt lat="46.68885" lon="6.10675">
        <ele>1080.66</ele>
        <time>2012-06-01T12:16:49Z</time>
      </trkpt>
      <trkpt lat="46.68885" lon="6.10669">
        <ele>1080.18</ele>
        <time>2012-06-01T12:16:55Z</time>
      </trkpt>
      <trkpt lat="46.68885" lon="6.10666">
        <ele>1081.14</ele>
        <time>2012-06-01T12:16:56Z</time>
      </trkpt>
      <trkpt lat="46.68885" lon="6.10663">
        <ele>1080.66</ele>
        <time>2012-06-01T12:16:57Z</time>
      </trkpt>
      <trkpt lat="46.68884" lon="6.1066">
        <ele>1080.66</ele>
        <time>2012-06-01T12:16:58Z</time>
      </trkpt>
      <trkpt lat="46.68884" lon="6.10657">
        <ele>1081.14</ele>
        <time>2012-06-01T12:16:59Z</time>
      </trkpt>
      <trkpt lat="46.68884" lon="6.10653">
        <ele>1081.14</ele>
        <time>2012-06-01T12:17:00Z</time>
      </trkpt>
      <trkpt lat="46.68884" lon="6.1065">
        <ele>1080.66</ele>
        <time>2012-06-01T12:17:01Z</time>
      </trkpt>
      <trkpt lat="46.68884" lon="6.10647">
        <ele>1080.18</ele>
        <time>2012-06-01T12:17:02Z</time>
      </trkpt>
      <trkpt lat="46.68884" lon="6.10644">
        <ele>1081.14</ele>
        <time>2012-06-01T12:17:03Z</time>
      </trkpt>
      <trkpt lat="46.68885" lon="6.10642">
        <ele>1082.1</ele>
        <time>2012-06-01T12:17:04Z</time>
      </trkpt>
      <trkpt lat="46.68886" lon="6.10639">
        <ele>1081.14</ele>
        <time>2012-06-01T12:17:05Z</time>
      </trkpt>
      <trkpt lat="46.68886" lon="6.10637">
        <ele>1074.89</ele>
        <time>2012-06-01T12:17:06Z</time>
      </trkpt>
      <trkpt lat="46.68886" lon="6.10635">
        <ele>1082.1</ele>
        <time>2012-06-01T12:17:07Z</time>
      </trkpt>
      <trkpt lat="46.68887" lon="6.10632">
        <ele>1082.1</ele>
        <time>2012-06-01T12:17:08Z</time>
      </trkpt>
      <trkpt lat="46.68887" lon="6.10629">
        <ele>1082.58</ele>
        <time>2012-06-01T12:17:09Z</time>
      </trkpt>
      <trkpt lat="46.68888" lon="6.10626">
        <ele>1081.62</ele>
        <time>2012-06-01T12:17:10Z</time>
      </trkpt>
      <trkpt lat="46.68889" lon="6.10622">
        <ele>1081.62</ele>
        <time>2012-06-01T12:17:11Z</time>
      </trkpt>
      <trkpt lat="46.68889" lon="6.10619">
        <ele>1081.62</ele>
        <time>2012-06-01T12:17:12Z</time>
      </trkpt>
      <trkpt lat="46.68891" lon="6.10618">
        <ele>1081.14</ele>
        <time>2012-06-01T12:17:13Z</time>
      </trkpt>
      <trkpt lat="46.68892" lon="6.10616">
        <ele>1081.62</ele>
        <time>2012-06-01T12:17:14Z</time>
      </trkpt>
      <trkpt lat="46.68893" lon="6.10614">
        <ele>1081.62</ele>
        <time>2012-06-01T12:17:15Z</time>
      </trkpt>
      <trkpt lat="46.68894" lon="6.10612">
        <ele>1081.62</ele>
        <time>2012-06-01T12:17:16Z</time>
      </trkpt>
      <trkpt lat="46.68894" lon="6.10609">
        <ele>1082.58</ele>
        <time>2012-06-01T12:17:17Z</time>
      </trkpt>
      <trkpt lat="46.68895" lon="6.10606">
        <ele>1082.1</ele>
        <time>2012-06-01T12:17:18Z</time>
      </trkpt>
      <trkpt lat="46.68895" lon="6.10603">
        <ele>1082.58</ele>
        <time>2012-06-01T12:17:19Z</time>
      </trkpt>
      <trkpt lat="46.68895" lon="6.10599">
        <ele>1081.14</ele>
        <time>2012-06-01T12:17:20Z</time>
      </trkpt>
      <trkpt lat="46.68895" lon="6.10596">
        <ele>1083.06</ele>
        <time>2012-06-01T12:17:21Z</time>
      </trkpt>
      <trkpt lat="46.68896" lon="6.10593">
        <ele>1082.1</ele>
        <time>2012-06-01T12:17:22Z</time>
      </trkpt>
      <trkpt lat="46.68895" lon="6.1059">
        <ele>1083.06</ele>
        <time>2012-06-01T12:17:23Z</time>
      </trkpt>
      <trkpt lat="46.68895" lon="6.10586">
        <ele>1084.02</ele>
        <time>2012-06-01T12:17:24Z</time>
      </trkpt>
      <trkpt lat="46.68894" lon="6.10582">
        <ele>1082.58</ele>
        <time>2012-06-01T12:17:25Z</time>
      </trkpt>
      <trkpt lat="46.68893" lon="6.10578">
        <ele>1082.1</ele>
        <time>2012-06-01T12:17:26Z</time>
      </trkpt>
      <trkpt lat="46.68893" lon="6.10573">
        <ele>1082.58</ele>
        <time>2012-06-01T12:17:27Z</time>
      </trkpt>
      <trkpt lat="46.68892" lon="6.10569">
        <ele>1082.58</ele>
        <time>2012-06-01T12:17:28Z</time>
      </trkpt>
      <trkpt lat="46.68892" lon="6.10566">
        <ele>1082.1</ele>
        <time>2012-06-01T12:17:29Z</time>
      </trkpt>
      <trkpt lat="46.68891" lon="6.10561">
        <ele>1082.1</ele>
        <time>2012-06-01T12:17:30Z</time>
      </trkpt>
      <trkpt lat="46.68892" lon="6.10554">
        <ele>1083.06</ele>
        <time>2012-06-01T12:17:32Z</time>
      </trkpt>
      <trkpt lat="46.68893" lon="6.10551">
        <ele>1083.06</ele>
        <time>2012-06-01T12:17:33Z</time>
      </trkpt>
      <trkpt lat="46.68894" lon="6.10548">
        <ele>1082.58</ele>
        <time>2012-06-01T12:17:34Z</time>
      </trkpt>
      <trkpt lat="46.68895" lon="6.10531">
        <ele>1084.02</ele>
        <time>2012-06-01T12:17:40Z</time>
      </trkpt>
      <trkpt lat="46.68896" lon="6.10529">
        <ele>1082.58</ele>
        <time>2012-06-01T12:17:41Z</time>
      </trkpt>
      <trkpt lat="46.68897" lon="6.10527">
        <ele>1084.02</ele>
        <time>2012-06-01T12:17:42Z</time>
      </trkpt>
      <trkpt lat="46.68897" lon="6.10524">
        <ele>1083.54</ele>
        <time>2012-06-01T12:17:43Z</time>
      </trkpt>
      <trkpt lat="46.68898" lon="6.10522">
        <ele>1083.54</ele>
        <time>2012-06-01T12:17:44Z</time>
      </trkpt>
      <trkpt lat="46.68898" lon="6.10519">
        <ele>1084.02</ele>
        <time>2012-06-01T12:17:45Z</time>
      </trkpt>
      <trkpt lat="46.68899" lon="6.10517">
        <ele>1084.99</ele>
        <time>2012-06-01T12:17:46Z</time>
      </trkpt>
      <trkpt lat="46.68899" lon="6.10515">
        <ele>1084.02</ele>
        <time>2012-06-01T12:17:47Z</time>
      </trkpt>
      <trkpt lat="46.689" lon="6.10512">
        <ele>1083.54</ele>
        <time>2012-06-01T12:17:48Z</time>
      </trkpt>
      <trkpt lat="46.68901" lon="6.10493">
        <ele>1084.99</ele>
        <time>2012-06-01T12:17:56Z</time>
      </trkpt>
      <trkpt lat="46.68901" lon="6.10491">
        <ele>1084.99</ele>
        <time>2012-06-01T12:17:57Z</time>
      </trkpt>
      <trkpt lat="46.68901" lon="6.10489">
        <ele>1085.47</ele>
        <time>2012-06-01T12:17:58Z</time>
      </trkpt>
      <trkpt lat="46.68899" lon="6.1048">
        <ele>1084.99</ele>
        <time>2012-06-01T12:18:02Z</time>
      </trkpt>
      <trkpt lat="46.68899" lon="6.10478">
        <ele>1085.47</ele>
        <time>2012-06-01T12:18:03Z</time>
      </trkpt>
      <trkpt lat="46.68898" lon="6.10476">
        <ele>1084.99</ele>
        <time>2012-06-01T12:18:04Z</time>
      </trkpt>
      <trkpt lat="46.68897" lon="6.10472">
        <ele>1083.54</ele>
        <time>2012-06-01T12:18:06Z</time>
      </trkpt>
      <trkpt lat="46.68897" lon="6.1047">
        <ele>1084.02</ele>
        <time>2012-06-01T12:18:07Z</time>
      </trkpt>
      <trkpt lat="46.68896" lon="6.10466">
        <ele>1084.99</ele>
        <time>2012-06-01T12:18:08Z</time>
      </trkpt>
      <trkpt lat="46.68896" lon="6.10464">
        <ele>1084.99</ele>
        <time>2012-06-01T12:18:09Z</time>
      </trkpt>
      <trkpt lat="46.68896" lon="6.10462">
        <ele>1084.99</ele>
        <time>2012-06-01T12:18:10Z</time>
      </trkpt>
      <trkpt lat="46.68895" lon="6.10458">
        <ele>1084.02</ele>
        <time>2012-06-01T12:18:11Z</time>
      </trkpt>
      <trkpt lat="46.68894" lon="6.10455">
        <ele>1085.47</ele>
        <time>2012-06-01T12:18:12Z</time>
      </trkpt>
      <trkpt lat="46.68894" lon="6.10446">
        <ele>1084.5</ele>
        <time>2012-06-01T12:18:15Z</time>
      </trkpt>
      <trkpt lat="46.68892" lon="6.10443">
        <ele>1084.5</ele>
        <time>2012-06-01T12:18:16Z</time>
      </trkpt>
      <trkpt lat="46.68888" lon="6.10428">
        <ele>1084.02</ele>
        <time>2012-06-01T12:18:22Z</time>
      </trkpt>
      <trkpt lat="46.68888" lon="6.10427">
        <ele>1085.47</ele>
        <time>2012-06-01T12:18:23Z</time>
      </trkpt>
      <trkpt lat="46.68887" lon="6.10424">
        <ele>1084.99</ele>
        <time>2012-06-01T12:18:24Z</time>
      </trkpt>
      <trkpt lat="46.68885" lon="6.10419">
        <ele>1084.99</ele>
        <time>2012-06-01T12:18:27Z</time>
      </trkpt>
      <trkpt lat="46.68882" lon="6.10417">
        <ele>1084.5</ele>
        <time>2012-06-01T12:18:29Z</time>
      </trkpt>
      <trkpt lat="46.68881" lon="6.10413">
        <ele>1084.5</ele>
        <time>2012-06-01T12:18:30Z</time>
      </trkpt>
      <trkpt lat="46.68879" lon="6.10409">
        <ele>1084.02</ele>
        <time>2012-06-01T12:18:32Z</time>
      </trkpt>
      <trkpt lat="46.68879" lon="6.10407">
        <ele>1083.54</ele>
        <time>2012-06-01T12:18:33Z</time>
      </trkpt>
      <trkpt lat="46.68876" lon="6.10402">
        <ele>1085.47</ele>
        <time>2012-06-01T12:18:35Z</time>
      </trkpt>
      <trkpt lat="46.68872" lon="6.10374">
        <ele>1084.02</ele>
        <time>2012-06-01T12:18:45Z</time>
      </trkpt>
      <trkpt lat="46.68871" lon="6.10371">
        <ele>1083.06</ele>
        <time>2012-06-01T12:18:46Z</time>
      </trkpt>
      <trkpt lat="46.6887" lon="6.10368">
        <ele>1084.02</ele>
        <time>2012-06-01T12:18:47Z</time>
      </trkpt>
      <trkpt lat="46.68869" lon="6.10365">
        <ele>1084.02</ele>
        <time>2012-06-01T12:18:48Z</time>
      </trkpt>
      <trkpt lat="46.68866" lon="6.10362">
        <ele>1084.5</ele>
        <time>2012-06-01T12:18:49Z</time>
      </trkpt>
      <trkpt lat="46.68864" lon="6.10361">
        <ele>1084.02</ele>
        <time>2012-06-01T12:18:50Z</time>
      </trkpt>
      <trkpt lat="46.68861" lon="6.10359">
        <ele>1084.02</ele>
        <time>2012-06-01T12:18:51Z</time>
      </trkpt>
      <trkpt lat="46.68843" lon="6.10345">
        <ele>1082.58</ele>
        <time>2012-06-01T12:18:56Z</time>
      </trkpt>
      <trkpt lat="46.6884" lon="6.10341">
        <ele>1082.1</ele>
        <time>2012-06-01T12:18:57Z</time>
      </trkpt>
      <trkpt lat="46.68826" lon="6.10314">
        <ele>1084.99</ele>
        <time>2012-06-01T12:19:06Z</time>
      </trkpt>
      <trkpt lat="46.68823" lon="6.1031">
        <ele>1082.58</ele>
        <time>2012-06-01T12:19:09Z</time>
      </trkpt>
      <trkpt lat="46.68822" lon="6.10308">
        <ele>1084.02</ele>
        <time>2012-06-01T12:19:10Z</time>
      </trkpt>
      <trkpt lat="46.68819" lon="6.10298">
        <ele>1082.58</ele>
        <time>2012-06-01T12:19:13Z</time>
      </trkpt>
      <trkpt lat="46.68813" lon="6.1029">
        <ele>1081.62</ele>
        <time>2012-06-01T12:19:16Z</time>
      </trkpt>
      <trkpt lat="46.6881" lon="6.10286">
        <ele>1081.62</ele>
        <time>2012-06-01T12:19:17Z</time>
      </trkpt>
      <trkpt lat="46.6881" lon="6.10282">
        <ele>1081.14</ele>
        <time>2012-06-01T12:19:18Z</time>
      </trkpt>
      <trkpt lat="46.68808" lon="6.1027">
        <ele>1083.54</ele>
        <time>2012-06-01T12:19:22Z</time>
      </trkpt>
      <trkpt lat="46.68806" lon="6.10256">
        <ele>1084.02</ele>
        <time>2012-06-01T12:19:29Z</time>
      </trkpt>
      <trkpt lat="46.68806" lon="6.10253">
        <ele>1083.54</ele>
        <time>2012-06-01T12:19:30Z</time>
      </trkpt>
      <trkpt lat="46.68805" lon="6.10239">
        <ele>1084.5</ele>
        <time>2012-06-01T12:19:37Z</time>
      </trkpt>
      <trkpt lat="46.68805" lon="6.10237">
        <ele>1084.99</ele>
        <time>2012-06-01T12:19:38Z</time>
      </trkpt>
      <trkpt lat="46.68805" lon="6.10234">
        <ele>1082.58</ele>
        <time>2012-06-01T12:19:39Z</time>
      </trkpt>
      <trkpt lat="46.68805" lon="6.10227">
        <ele>1084.5</ele>
        <time>2012-06-01T12:19:42Z</time>
      </trkpt>
      <trkpt lat="46.68806" lon="6.10226">
        <ele>1084.02</ele>
        <time>2012-06-01T12:19:43Z</time>
      </trkpt>
      <trkpt lat="46.68807" lon="6.10223">
        <ele>1084.02</ele>
        <time>2012-06-01T12:19:44Z</time>
      </trkpt>
      <trkpt lat="46.68811" lon="6.10211">
        <ele>1085.47</ele>
        <time>2012-06-01T12:19:50Z</time>
      </trkpt>
      <trkpt lat="46.68813" lon="6.10203">
        <ele>1085.47</ele>
        <time>2012-06-01T12:19:55Z</time>
      </trkpt>
      <trkpt lat="46.68813" lon="6.10199">
        <ele>1084.5</ele>
        <time>2012-06-01T12:19:56Z</time>
      </trkpt>
      <trkpt lat="46.68814" lon="6.10195">
        <ele>1085.47</ele>
        <time>2012-06-01T12:19:57Z</time>
      </trkpt>
      <trkpt lat="46.68812" lon="6.10179">
        <ele>1085.95</ele>
        <time>2012-06-01T12:20:06Z</time>
      </trkpt>
      <trkpt lat="46.68809" lon="6.10164">
        <ele>1086.43</ele>
        <time>2012-06-01T12:20:18Z</time>
      </trkpt>
      <trkpt lat="46.68809" lon="6.10164">
        <ele>1082.58</ele>
        <time>2012-06-01T12:20:20Z</time>
      </trkpt>
      <trkpt lat="46.68809" lon="6.10164">
        <ele>1086.91</ele>
        <time>2012-06-01T12:20:21Z</time>
      </trkpt>
      <trkpt lat="46.68809" lon="6.10164">
        <ele>1084.99</ele>
        <time>2012-06-01T12:20:25Z</time>
      </trkpt>
      <trkpt lat="46.68809" lon="6.10159">
        <ele>1085.95</ele>
        <time>2012-06-01T12:20:44Z</time>
      </trkpt>
      <trkpt lat="46.68809" lon="6.10145">
        <ele>1088.35</ele>
        <time>2012-06-01T12:20:55Z</time>
      </trkpt>
      <trkpt lat="46.68809" lon="6.10132">
        <ele>1088.83</ele>
        <time>2012-06-01T12:21:07Z</time>
      </trkpt>
      <trkpt lat="46.68808" lon="6.10128">
        <ele>1089.31</ele>
        <time>2012-06-01T12:21:19Z</time>
      </trkpt>
      <trkpt lat="46.68808" lon="6.10127">
        <ele>1089.31</ele>
        <time>2012-06-01T12:21:32Z</time>
      </trkpt>
      <trkpt lat="46.68807" lon="6.10127">
        <ele>1089.31</ele>
        <time>2012-06-01T12:22:11Z</time>
      </trkpt>
      <trkpt lat="46.68807" lon="6.10127">
        <ele>1090.75</ele>
        <time>2012-06-01T12:22:54Z</time>
      </trkpt>
      <trkpt lat="46.68808" lon="6.10124">
        <ele>1092.2</ele>
        <time>2012-06-01T12:23:44Z</time>
      </trkpt>
      <trkpt lat="46.68808" lon="6.10108">
        <ele>1091.23</ele>
        <time>2012-06-01T12:23:48Z</time>
      </trkpt>
      <trkpt lat="46.68807" lon="6.10105">
        <ele>1090.75</ele>
        <time>2012-06-01T12:23:49Z</time>
      </trkpt>
      <trkpt lat="46.68808" lon="6.101">
        <ele>1091.71</ele>
        <time>2012-06-01T12:23:50Z</time>
      </trkpt>
      <trkpt lat="46.6881" lon="6.1009">
        <ele>1092.2</ele>
        <time>2012-06-01T12:23:53Z</time>
      </trkpt>
      <trkpt lat="46.68813" lon="6.10086">
        <ele>1093.16</ele>
        <time>2012-06-01T12:23:54Z</time>
      </trkpt>
      <trkpt lat="46.68813" lon="6.10084">
        <ele>1092.68</ele>
        <time>2012-06-01T12:23:55Z</time>
      </trkpt>
      <trkpt lat="46.68814" lon="6.10082">
        <ele>1091.71</ele>
        <time>2012-06-01T12:23:56Z</time>
      </trkpt>
      <trkpt lat="46.68814" lon="6.1008">
        <ele>1091.71</ele>
        <time>2012-06-01T12:23:57Z</time>
      </trkpt>
      <trkpt lat="46.68815" lon="6.10078">
        <ele>1092.68</ele>
        <time>2012-06-01T12:23:58Z</time>
      </trkpt>
      <trkpt lat="46.68815" lon="6.10076">
        <ele>1094.12</ele>
        <time>2012-06-01T12:23:59Z</time>
      </trkpt>
      <trkpt lat="46.68815" lon="6.10074">
        <ele>1093.16</ele>
        <time>2012-06-01T12:24:00Z</time>
      </trkpt>
      <trkpt lat="46.68814" lon="6.10071">
        <ele>1092.68</ele>
        <time>2012-06-01T12:24:01Z</time>
      </trkpt>
      <trkpt lat="46.68813" lon="6.10068">
        <ele>1093.64</ele>
        <time>2012-06-01T12:24:02Z</time>
      </trkpt>
      <trkpt lat="46.68812" lon="6.10053">
        <ele>1093.64</ele>
        <time>2012-06-01T12:24:07Z</time>
      </trkpt>
      <trkpt lat="46.68812" lon="6.10047">
        <ele>1093.64</ele>
        <time>2012-06-01T12:24:10Z</time>
      </trkpt>
      <trkpt lat="46.68812" lon="6.10045">
        <ele>1094.12</ele>
        <time>2012-06-01T12:24:11Z</time>
      </trkpt>
      <trkpt lat="46.68812" lon="6.1004">
        <ele>1093.64</ele>
        <time>2012-06-01T12:24:15Z</time>
      </trkpt>
      <trkpt lat="46.68812" lon="6.10037">
        <ele>1093.64</ele>
        <time>2012-06-01T12:24:17Z</time>
      </trkpt>
      <trkpt lat="46.68814" lon="6.10028">
        <ele>1094.6</ele>
        <time>2012-06-01T12:24:21Z</time>
      </trkpt>
      <trkpt lat="46.68814" lon="6.10025">
        <ele>1094.12</ele>
        <time>2012-06-01T12:24:22Z</time>
      </trkpt>
      <trkpt lat="46.68814" lon="6.10022">
        <ele>1095.08</ele>
        <time>2012-06-01T12:24:23Z</time>
      </trkpt>
      <trkpt lat="46.68813" lon="6.10017">
        <ele>1094.12</ele>
        <time>2012-06-01T12:24:25Z</time>
      </trkpt>
      <trkpt lat="46.68813" lon="6.10001">
        <ele>1095.56</ele>
        <time>2012-06-01T12:24:36Z</time>
      </trkpt>
      <trkpt lat="46.68814" lon="6.1">
        <ele>1095.56</ele>
        <time>2012-06-01T12:24:37Z</time>
      </trkpt>
      <trkpt lat="46.68819" lon="6.09997">
        <ele>1095.08</ele>
        <time>2012-06-01T12:24:41Z</time>
      </trkpt>
      <trkpt lat="46.6882" lon="6.09993">
        <ele>1096.04</ele>
        <time>2012-06-01T12:24:43Z</time>
      </trkpt>
      <trkpt lat="46.68814" lon="6.09972">
        <ele>1096.52</ele>
        <time>2012-06-01T12:24:49Z</time>
      </trkpt>
      <trkpt lat="46.68813" lon="6.09965">
        <ele>1097.48</ele>
        <time>2012-06-01T12:24:51Z</time>
      </trkpt>
      <trkpt lat="46.68813" lon="6.09952">
        <ele>1095.56</ele>
        <time>2012-06-01T12:25:02Z</time>
      </trkpt>
      <trkpt lat="46.68814" lon="6.0995">
        <ele>1097.48</ele>
        <time>2012-06-01T12:25:05Z</time>
      </trkpt>
      <trkpt lat="46.68814" lon="6.09933">
        <ele>1097.96</ele>
        <time>2012-06-01T12:25:18Z</time>
      </trkpt>
      <trkpt lat="46.68814" lon="6.09917">
        <ele>1099.4</ele>
        <time>2012-06-01T12:25:29Z</time>
      </trkpt>
      <trkpt lat="46.68815" lon="6.09913">
        <ele>1097</ele>
        <time>2012-06-01T12:25:32Z</time>
      </trkpt>
      <trkpt lat="46.68811" lon="6.09892">
        <ele>1099.89</ele>
        <time>2012-06-01T12:25:46Z</time>
      </trkpt>
      <trkpt lat="46.68809" lon="6.0988">
        <ele>1099.4</ele>
        <time>2012-06-01T12:25:56Z</time>
      </trkpt>
      <trkpt lat="46.68804" lon="6.09865">
        <ele>1098.44</ele>
        <time>2012-06-01T12:26:06Z</time>
      </trkpt>
      <trkpt lat="46.68804" lon="6.09857">
        <ele>1097.96</ele>
        <time>2012-06-01T12:26:16Z</time>
      </trkpt>
      <trkpt lat="46.68802" lon="6.09854">
        <ele>1100.85</ele>
        <time>2012-06-01T12:26:21Z</time>
      </trkpt>
      <trkpt lat="46.68802" lon="6.09854">
        <ele>1099.4</ele>
        <time>2012-06-01T12:26:22Z</time>
      </trkpt>
      <trkpt lat="46.68803" lon="6.09851">
        <ele>1100.85</ele>
        <time>2012-06-01T12:26:26Z</time>
      </trkpt>
      <trkpt lat="46.68803" lon="6.09851">
        <ele>1100.85</ele>
        <time>2012-06-01T12:26:32Z</time>
      </trkpt>
      <trkpt lat="46.68803" lon="6.09851">
        <ele>1099.4</ele>
        <time>2012-06-01T12:26:33Z</time>
      </trkpt>
      <trkpt lat="46.68804" lon="6.09844">
        <ele>1101.33</ele>
        <time>2012-06-01T12:26:40Z</time>
      </trkpt>
      <trkpt lat="46.68804" lon="6.09839">
        <ele>1100.85</ele>
        <time>2012-06-01T12:26:44Z</time>
      </trkpt>
      <trkpt lat="46.68803" lon="6.09837">
        <ele>1100.85</ele>
        <time>2012-06-01T12:26:45Z</time>
      </trkpt>
      <trkpt lat="46.68802" lon="6.09828">
        <ele>1100.37</ele>
        <time>2012-06-01T12:26:55Z</time>
      </trkpt>
      <trkpt lat="46.68804" lon="6.09802">
        <ele>1101.33</ele>
        <time>2012-06-01T12:27:01Z</time>
      </trkpt>
      <trkpt lat="46.68802" lon="6.09795">
        <ele>1099.4</ele>
        <time>2012-06-01T12:27:07Z</time>
      </trkpt>
      <trkpt lat="46.68803" lon="6.09788">
        <ele>1098.92</ele>
        <time>2012-06-01T12:27:10Z</time>
      </trkpt>
      <trkpt lat="46.68805" lon="6.09779">
        <ele>1100.85</ele>
        <time>2012-06-01T12:27:17Z</time>
      </trkpt>
      <trkpt lat="46.68804" lon="6.09772">
        <ele>1102.77</ele>
        <time>2012-06-01T12:27:21Z</time>
      </trkpt>
      <trkpt lat="46.68803" lon="6.09756">
        <ele>1100.37</ele>
        <time>2012-06-01T12:27:33Z</time>
      </trkpt>
      <trkpt lat="46.68809" lon="6.09734">
        <ele>1101.81</ele>
        <time>2012-06-01T12:27:45Z</time>
      </trkpt>
      <trkpt lat="46.6881" lon="6.09722">
        <ele>1101.81</ele>
        <time>2012-06-01T12:27:54Z</time>
      </trkpt>
      <trkpt lat="46.6881" lon="6.09719">
        <ele>1102.29</ele>
        <time>2012-06-01T12:28:00Z</time>
      </trkpt>
      <trkpt lat="46.68811" lon="6.09697">
        <ele>1102.77</ele>
        <time>2012-06-01T12:28:11Z</time>
      </trkpt>
      <trkpt lat="46.68812" lon="6.09675">
        <ele>1103.73</ele>
        <time>2012-06-01T12:28:19Z</time>
      </trkpt>
      <trkpt lat="46.68814" lon="6.09669">
        <ele>1104.69</ele>
        <time>2012-06-01T12:28:22Z</time>
      </trkpt>
      <trkpt lat="46.68814" lon="6.09667">
        <ele>1101.33</ele>
        <time>2012-06-01T12:28:23Z</time>
      </trkpt>
      <trkpt lat="46.68814" lon="6.09665">
        <ele>1102.77</ele>
        <time>2012-06-01T12:28:24Z</time>
      </trkpt>
      <trkpt lat="46.68813" lon="6.09661">
        <ele>1102.77</ele>
        <time>2012-06-01T12:28:26Z</time>
      </trkpt>
      <trkpt lat="46.68812" lon="6.09655">
        <ele>1103.25</ele>
        <time>2012-06-01T12:28:29Z</time>
      </trkpt>
      <trkpt lat="46.68808" lon="6.09647">
        <ele>1103.25</ele>
        <time>2012-06-01T12:28:34Z</time>
      </trkpt>
      <trkpt lat="46.68797" lon="6.09629">
        <ele>1103.73</ele>
        <time>2012-06-01T12:28:45Z</time>
      </trkpt>
      <trkpt lat="46.68797" lon="6.09627">
        <ele>1102.29</ele>
        <time>2012-06-01T12:28:48Z</time>
      </trkpt>
      <trkpt lat="46.68791" lon="6.09616">
        <ele>1103.73</ele>
        <time>2012-06-01T12:28:57Z</time>
      </trkpt>
      <trkpt lat="46.68789" lon="6.09611">
        <ele>1099.89</ele>
        <time>2012-06-01T12:29:02Z</time>
      </trkpt>
      <trkpt lat="46.68787" lon="6.09609">
        <ele>1102.77</ele>
        <time>2012-06-01T12:29:04Z</time>
      </trkpt>
      <trkpt lat="46.68776" lon="6.09597">
        <ele>1103.25</ele>
        <time>2012-06-01T12:29:15Z</time>
      </trkpt>
      <trkpt lat="46.68776" lon="6.09595">
        <ele>1105.17</ele>
        <time>2012-06-01T12:29:26Z</time>
      </trkpt>
      <trkpt lat="46.68774" lon="6.09591">
        <ele>1104.21</ele>
        <time>2012-06-01T12:29:35Z</time>
      </trkpt>
      <trkpt lat="46.68766" lon="6.09572">
        <ele>1102.29</ele>
        <time>2012-06-01T12:29:45Z</time>
      </trkpt>
      <trkpt lat="46.68765" lon="6.0957">
        <ele>1105.65</ele>
        <time>2012-06-01T12:29:48Z</time>
      </trkpt>
      <trkpt lat="46.68764" lon="6.09568">
        <ele>1103.73</ele>
        <time>2012-06-01T12:29:49Z</time>
      </trkpt>
      <trkpt lat="46.68752" lon="6.0955">
        <ele>1105.17</ele>
        <time>2012-06-01T12:29:55Z</time>
      </trkpt>
      <trkpt lat="46.68737" lon="6.09533">
        <ele>1103.73</ele>
        <time>2012-06-01T12:30:07Z</time>
      </trkpt>
      <trkpt lat="46.68729" lon="6.09526">
        <ele>1104.21</ele>
        <time>2012-06-01T12:30:12Z</time>
      </trkpt>
      <trkpt lat="46.68697" lon="6.0951">
        <ele>1101.81</ele>
        <time>2012-06-01T12:30:24Z</time>
      </trkpt>
      <trkpt lat="46.68659" lon="6.09508">
        <ele>1100.85</ele>
        <time>2012-06-01T12:30:34Z</time>
      </trkpt>
      <trkpt lat="46.68643" lon="6.09514">
        <ele>1098.44</ele>
        <time>2012-06-01T12:30:38Z</time>
      </trkpt>
      <trkpt lat="46.68639" lon="6.0952">
        <ele>1097.96</ele>
        <time>2012-06-01T12:30:39Z</time>
      </trkpt>
      <trkpt lat="46.68633" lon="6.09525">
        <ele>1097</ele>
        <time>2012-06-01T12:30:40Z</time>
      </trkpt>
      <trkpt lat="46.68614" lon="6.0954">
        <ele>1095.08</ele>
        <time>2012-06-01T12:30:44Z</time>
      </trkpt>
      <trkpt lat="46.68609" lon="6.09543">
        <ele>1094.6</ele>
        <time>2012-06-01T12:30:45Z</time>
      </trkpt>
      <trkpt lat="46.68603" lon="6.09545">
        <ele>1094.6</ele>
        <time>2012-06-01T12:30:46Z</time>
      </trkpt>
      <trkpt lat="46.68597" lon="6.09549">
        <ele>1095.08</ele>
        <time>2012-06-01T12:30:47Z</time>
      </trkpt>
      <trkpt lat="46.68591" lon="6.09553">
        <ele>1095.08</ele>
        <time>2012-06-01T12:30:48Z</time>
      </trkpt>
      <trkpt lat="46.68585" lon="6.09557">
        <ele>1094.12</ele>
        <time>2012-06-01T12:30:49Z</time>
      </trkpt>
      <trkpt lat="46.6857" lon="6.0957">
        <ele>1092.2</ele>
        <time>2012-06-01T12:30:52Z</time>
      </trkpt>
      <trkpt lat="46.68564" lon="6.09574">
        <ele>1090.75</ele>
        <time>2012-06-01T12:30:53Z</time>
      </trkpt>
      <trkpt lat="46.6855" lon="6.09583">
        <ele>1090.27</ele>
        <time>2012-06-01T12:30:56Z</time>
      </trkpt>
      <trkpt lat="46.68522" lon="6.09611">
        <ele>1086.91</ele>
        <time>2012-06-01T12:31:02Z</time>
      </trkpt>
      <trkpt lat="46.68516" lon="6.09618">
        <ele>1086.91</ele>
        <time>2012-06-01T12:31:03Z</time>
      </trkpt>
      <trkpt lat="46.68504" lon="6.09632">
        <ele>1086.91</ele>
        <time>2012-06-01T12:31:05Z</time>
      </trkpt>
      <trkpt lat="46.68497" lon="6.09638">
        <ele>1084.99</ele>
        <time>2012-06-01T12:31:06Z</time>
      </trkpt>
      <trkpt lat="46.68483" lon="6.09653">
        <ele>1084.99</ele>
        <time>2012-06-01T12:31:08Z</time>
      </trkpt>
      <trkpt lat="46.68461" lon="6.09678">
        <ele>1082.1</ele>
        <time>2012-06-01T12:31:11Z</time>
      </trkpt>
      <trkpt lat="46.68442" lon="6.09699">
        <ele>1080.18</ele>
        <time>2012-06-01T12:31:14Z</time>
      </trkpt>
      <trkpt lat="46.68423" lon="6.0972">
        <ele>1078.26</ele>
        <time>2012-06-01T12:31:18Z</time>
      </trkpt>
      <trkpt lat="46.68418" lon="6.09721">
        <ele>1073.93</ele>
        <time>2012-06-01T12:31:19Z</time>
      </trkpt>
      <trkpt lat="46.68414" lon="6.09722">
        <ele>1077.78</ele>
        <time>2012-06-01T12:31:20Z</time>
      </trkpt>
      <trkpt lat="46.68409" lon="6.09722">
        <ele>1077.78</ele>
        <time>2012-06-01T12:31:21Z</time>
      </trkpt>
      <trkpt lat="46.68404" lon="6.09721">
        <ele>1077.29</ele>
        <time>2012-06-01T12:31:22Z</time>
      </trkpt>
      <trkpt lat="46.68393" lon="6.09716">
        <ele>1075.85</ele>
        <time>2012-06-01T12:31:24Z</time>
      </trkpt>
      <trkpt lat="46.68363" lon="6.09703">
        <ele>1074.41</ele>
        <time>2012-06-01T12:31:28Z</time>
      </trkpt>
      <trkpt lat="46.68336" lon="6.09699">
        <ele>1070.08</ele>
        <time>2012-06-01T12:31:32Z</time>
      </trkpt>
      <trkpt lat="46.6833" lon="6.09698">
        <ele>1072.01</ele>
        <time>2012-06-01T12:31:33Z</time>
      </trkpt>
      <trkpt lat="46.68316" lon="6.09695">
        <ele>1069.6</ele>
        <time>2012-06-01T12:31:35Z</time>
      </trkpt>
      <trkpt lat="46.68308" lon="6.09691">
        <ele>1069.6</ele>
        <time>2012-06-01T12:31:36Z</time>
      </trkpt>
      <trkpt lat="46.68293" lon="6.09682">
        <ele>1068.16</ele>
        <time>2012-06-01T12:31:38Z</time>
      </trkpt>
      <trkpt lat="46.68263" lon="6.09658">
        <ele>1066.24</ele>
        <time>2012-06-01T12:31:42Z</time>
      </trkpt>
      <trkpt lat="46.68256" lon="6.09654">
        <ele>1065.28</ele>
        <time>2012-06-01T12:31:43Z</time>
      </trkpt>
      <trkpt lat="46.6825" lon="6.09652">
        <ele>1065.76</ele>
        <time>2012-06-01T12:31:44Z</time>
      </trkpt>
      <trkpt lat="46.68238" lon="6.09649">
        <ele>1067.68</ele>
        <time>2012-06-01T12:31:46Z</time>
      </trkpt>
      <trkpt lat="46.68225" lon="6.09647">
        <ele>1067.2</ele>
        <time>2012-06-01T12:31:48Z</time>
      </trkpt>
      <trkpt lat="46.68219" lon="6.09644">
        <ele>1067.2</ele>
        <time>2012-06-01T12:31:49Z</time>
      </trkpt>
      <trkpt lat="46.68214" lon="6.0964">
        <ele>1067.68</ele>
        <time>2012-06-01T12:31:50Z</time>
      </trkpt>
      <trkpt lat="46.68208" lon="6.09634">
        <ele>1067.2</ele>
        <time>2012-06-01T12:31:51Z</time>
      </trkpt>
      <trkpt lat="46.68202" lon="6.09629">
        <ele>1067.2</ele>
        <time>2012-06-01T12:31:52Z</time>
      </trkpt>
      <trkpt lat="46.68192" lon="6.09619">
        <ele>1067.68</ele>
        <time>2012-06-01T12:31:54Z</time>
      </trkpt>
      <trkpt lat="46.68187" lon="6.09616">
        <ele>1070.08</ele>
        <time>2012-06-01T12:31:55Z</time>
      </trkpt>
      <trkpt lat="46.68182" lon="6.09614">
        <ele>1069.12</ele>
        <time>2012-06-01T12:31:56Z</time>
      </trkpt>
      <trkpt lat="46.68176" lon="6.09613">
        <ele>1067.2</ele>
        <time>2012-06-01T12:31:57Z</time>
      </trkpt>
      <trkpt lat="46.6817" lon="6.09613">
        <ele>1067.2</ele>
        <time>2012-06-01T12:31:58Z</time>
      </trkpt>
      <trkpt lat="46.68146" lon="6.09613">
        <ele>1069.12</ele>
        <time>2012-06-01T12:32:02Z</time>
      </trkpt>
      <trkpt lat="46.68142" lon="6.09613">
        <ele>1068.16</ele>
        <time>2012-06-01T12:32:03Z</time>
      </trkpt>
      <trkpt lat="46.68132" lon="6.09615">
        <ele>1070.57</ele>
        <time>2012-06-01T12:32:06Z</time>
      </trkpt>
      <trkpt lat="46.68125" lon="6.09617">
        <ele>1069.12</ele>
        <time>2012-06-01T12:32:09Z</time>
      </trkpt>
      <trkpt lat="46.68109" lon="6.09631">
        <ele>1069.12</ele>
        <time>2012-06-01T12:32:14Z</time>
      </trkpt>
      <trkpt lat="46.68101" lon="6.09638">
        <ele>1067.68</ele>
        <time>2012-06-01T12:32:16Z</time>
      </trkpt>
      <trkpt lat="46.68095" lon="6.09642">
        <ele>1068.64</ele>
        <time>2012-06-01T12:32:17Z</time>
      </trkpt>
      <trkpt lat="46.68045" lon="6.09665">
        <ele>1066.72</ele>
        <time>2012-06-01T12:32:26Z</time>
      </trkpt>
      <trkpt lat="46.68041" lon="6.09664">
        <ele>1068.16</ele>
        <time>2012-06-01T12:32:27Z</time>
      </trkpt>
      <trkpt lat="46.68037" lon="6.09661">
        <ele>1066.24</ele>
        <time>2012-06-01T12:32:28Z</time>
      </trkpt>
      <trkpt lat="46.68035" lon="6.09658">
        <ele>1068.64</ele>
        <time>2012-06-01T12:32:29Z</time>
      </trkpt>
      <trkpt lat="46.68035" lon="6.09655">
        <ele>1067.68</ele>
        <time>2012-06-01T12:32:30Z</time>
      </trkpt>
      <trkpt lat="46.68035" lon="6.09652">
        <ele>1067.68</ele>
        <time>2012-06-01T12:32:31Z</time>
      </trkpt>
      <trkpt lat="46.68038" lon="6.09637">
        <ele>1058.07</ele>
        <time>2012-06-01T12:32:37Z</time>
      </trkpt>
      <trkpt lat="46.68038" lon="6.09635">
        <ele>1069.12</ele>
        <time>2012-06-01T12:32:38Z</time>
      </trkpt>
      <trkpt lat="46.68048" lon="6.09607">
        <ele>1070.08</ele>
        <time>2012-06-01T12:32:52Z</time>
      </trkpt>
      <trkpt lat="46.68065" lon="6.09578">
        <ele>1072.49</ele>
        <time>2012-06-01T12:33:05Z</time>
      </trkpt>
      <trkpt lat="46.6808" lon="6.09562">
        <ele>1075.37</ele>
        <time>2012-06-01T12:33:12Z</time>
      </trkpt>
      <trkpt lat="46.68082" lon="6.0956">
        <ele>1074.41</ele>
        <time>2012-06-01T12:33:13Z</time>
      </trkpt>
      <trkpt lat="46.68085" lon="6.09558">
        <ele>1075.37</ele>
        <time>2012-06-01T12:33:14Z</time>
      </trkpt>
      <trkpt lat="46.68087" lon="6.09556">
        <ele>1075.85</ele>
        <time>2012-06-01T12:33:15Z</time>
      </trkpt>
      <trkpt lat="46.6809" lon="6.09554">
        <ele>1075.37</ele>
        <time>2012-06-01T12:33:16Z</time>
      </trkpt>
      <trkpt lat="46.68103" lon="6.09549">
        <ele>1077.78</ele>
        <time>2012-06-01T12:33:21Z</time>
      </trkpt>
      <trkpt lat="46.68134" lon="6.09529">
        <ele>1078.74</ele>
        <time>2012-06-01T12:33:34Z</time>
      </trkpt>
      <trkpt lat="46.68138" lon="6.09524">
        <ele>1081.62</ele>
        <time>2012-06-01T12:33:36Z</time>
      </trkpt>
      <trkpt lat="46.6814" lon="6.09521">
        <ele>1081.14</ele>
        <time>2012-06-01T12:33:37Z</time>
      </trkpt>
      <trkpt lat="46.68162" lon="6.09486">
        <ele>1082.1</ele>
        <time>2012-06-01T12:33:51Z</time>
      </trkpt>
      <trkpt lat="46.68166" lon="6.09478">
        <ele>1083.06</ele>
        <time>2012-06-01T12:33:54Z</time>
      </trkpt>
      <trkpt lat="46.68187" lon="6.09436">
        <ele>1083.06</ele>
        <time>2012-06-01T12:34:09Z</time>
      </trkpt>
      <trkpt lat="46.68184" lon="6.09384">
        <ele>1084.5</ele>
        <time>2012-06-01T12:34:23Z</time>
      </trkpt>
      <trkpt lat="46.68186" lon="6.09377">
        <ele>1085.47</ele>
        <time>2012-06-01T12:34:25Z</time>
      </trkpt>
      <trkpt lat="46.68188" lon="6.09375">
        <ele>1084.02</ele>
        <time>2012-06-01T12:34:26Z</time>
      </trkpt>
      <trkpt lat="46.6819" lon="6.09372">
        <ele>1084.5</ele>
        <time>2012-06-01T12:34:27Z</time>
      </trkpt>
      <trkpt lat="46.68192" lon="6.0937">
        <ele>1085.47</ele>
        <time>2012-06-01T12:34:28Z</time>
      </trkpt>
      <trkpt lat="46.68194" lon="6.09369">
        <ele>1085.47</ele>
        <time>2012-06-01T12:34:29Z</time>
      </trkpt>
      <trkpt lat="46.68208" lon="6.09362">
        <ele>1086.43</ele>
        <time>2012-06-01T12:34:35Z</time>
      </trkpt>
      <trkpt lat="46.68227" lon="6.09353">
        <ele>1090.27</ele>
        <time>2012-06-01T12:34:42Z</time>
      </trkpt>
      <trkpt lat="46.68253" lon="6.09335">
        <ele>1092.68</ele>
        <time>2012-06-01T12:34:54Z</time>
      </trkpt>
      <trkpt lat="46.68283" lon="6.09304">
        <ele>1092.68</ele>
        <time>2012-06-01T12:35:10Z</time>
      </trkpt>
      <trkpt lat="46.68322" lon="6.09253">
        <ele>1089.79</ele>
        <time>2012-06-01T12:35:25Z</time>
      </trkpt>
      <trkpt lat="46.68333" lon="6.09237">
        <ele>1091.23</ele>
        <time>2012-06-01T12:35:29Z</time>
      </trkpt>
      <trkpt lat="46.68349" lon="6.09214">
        <ele>1084.02</ele>
        <time>2012-06-01T12:35:37Z</time>
      </trkpt>
      <trkpt lat="46.68351" lon="6.09211">
        <ele>1091.23</ele>
        <time>2012-06-01T12:35:38Z</time>
      </trkpt>
      <trkpt lat="46.68362" lon="6.09195">
        <ele>1089.79</ele>
        <time>2012-06-01T12:35:43Z</time>
      </trkpt>
      <trkpt lat="46.68396" lon="6.09147">
        <ele>1086.43</ele>
        <time>2012-06-01T12:35:54Z</time>
      </trkpt>
      <trkpt lat="46.684" lon="6.09141">
        <ele>1086.43</ele>
        <time>2012-06-01T12:35:55Z</time>
      </trkpt>
      <trkpt lat="46.6843" lon="6.09093">
        <ele>1084.5</ele>
        <time>2012-06-01T12:36:02Z</time>
      </trkpt>
      <trkpt lat="46.68433" lon="6.09086">
        <ele>1084.99</ele>
        <time>2012-06-01T12:36:03Z</time>
      </trkpt>
      <trkpt lat="46.68438" lon="6.09074">
        <ele>1086.43</ele>
        <time>2012-06-01T12:36:05Z</time>
      </trkpt>
      <trkpt lat="46.6844" lon="6.09067">
        <ele>1084.99</ele>
        <time>2012-06-01T12:36:06Z</time>
      </trkpt>
      <trkpt lat="46.68441" lon="6.0906">
        <ele>1084.99</ele>
        <time>2012-06-01T12:36:07Z</time>
      </trkpt>
      <trkpt lat="46.68443" lon="6.09046">
        <ele>1084.02</ele>
        <time>2012-06-01T12:36:09Z</time>
      </trkpt>
      <trkpt lat="46.68443" lon="6.09038">
        <ele>1085.95</ele>
        <time>2012-06-01T12:36:10Z</time>
      </trkpt>
      <trkpt lat="46.68442" lon="6.09031">
        <ele>1085.47</ele>
        <time>2012-06-01T12:36:11Z</time>
      </trkpt>
      <trkpt lat="46.68439" lon="6.08988">
        <ele>1086.43</ele>
        <time>2012-06-01T12:36:19Z</time>
      </trkpt>
      <trkpt lat="46.68439" lon="6.08982">
        <ele>1085.47</ele>
        <time>2012-06-01T12:36:20Z</time>
      </trkpt>
      <trkpt lat="46.68431" lon="6.08913">
        <ele>1085.47</ele>
        <time>2012-06-01T12:36:32Z</time>
      </trkpt>
      <trkpt lat="46.68425" lon="6.0889">
        <ele>1080.66</ele>
        <time>2012-06-01T12:36:37Z</time>
      </trkpt>
      <trkpt lat="46.68424" lon="6.08885">
        <ele>1085.47</ele>
        <time>2012-06-01T12:36:38Z</time>
      </trkpt>
      <trkpt lat="46.684" lon="6.08814">
        <ele>1084.99</ele>
        <time>2012-06-01T12:36:52Z</time>
      </trkpt>
      <trkpt lat="46.68393" lon="6.08799">
        <ele>1086.43</ele>
        <time>2012-06-01T12:36:55Z</time>
      </trkpt>
      <trkpt lat="46.68364" lon="6.08763">
        <ele>1087.39</ele>
        <time>2012-06-01T12:37:09Z</time>
      </trkpt>
      <trkpt lat="46.68353" lon="6.08746">
        <ele>1085.95</ele>
        <time>2012-06-01T12:37:14Z</time>
      </trkpt>
      <trkpt lat="46.68343" lon="6.08729">
        <ele>1082.58</ele>
        <time>2012-06-01T12:37:18Z</time>
      </trkpt>
      <trkpt lat="46.68341" lon="6.08725">
        <ele>1082.58</ele>
        <time>2012-06-01T12:37:19Z</time>
      </trkpt>
      <trkpt lat="46.68337" lon="6.08702">
        <ele>1082.58</ele>
        <time>2012-06-01T12:37:28Z</time>
      </trkpt>
      <trkpt lat="46.68337" lon="6.08702">
        <ele>1078.74</ele>
        <time>2012-06-01T12:37:30Z</time>
      </trkpt>
      <trkpt lat="46.68337" lon="6.08702">
        <ele>1082.1</ele>
        <time>2012-06-01T12:37:31Z</time>
      </trkpt>
      <trkpt lat="46.68337" lon="6.08702">
        <ele>1082.58</ele>
        <time>2012-06-01T12:37:44Z</time>
      </trkpt>
      <trkpt lat="46.68337" lon="6.08702">
        <ele>1082.58</ele>
        <time>2012-06-01T12:37:53Z</time>
      </trkpt>
      <trkpt lat="46.68336" lon="6.08704">
        <ele>1082.58</ele>
        <time>2012-06-01T12:37:54Z</time>
      </trkpt>
      <trkpt lat="46.68335" lon="6.08706">
        <ele>1081.62</ele>
        <time>2012-06-01T12:37:55Z</time>
      </trkpt>
      <trkpt lat="46.68335" lon="6.0871">
        <ele>1081.14</ele>
        <time>2012-06-01T12:37:56Z</time>
      </trkpt>
      <trkpt lat="46.68334" lon="6.08712">
        <ele>1081.14</ele>
        <time>2012-06-01T12:37:57Z</time>
      </trkpt>
      <trkpt lat="46.68333" lon="6.08714">
        <ele>1081.14</ele>
        <time>2012-06-01T12:37:58Z</time>
      </trkpt>
      <trkpt lat="46.68331" lon="6.08716">
        <ele>1081.62</ele>
        <time>2012-06-01T12:37:59Z</time>
      </trkpt>
      <trkpt lat="46.68329" lon="6.08718">
        <ele>1082.1</ele>
        <time>2012-06-01T12:38:00Z</time>
      </trkpt>
      <trkpt lat="46.68327" lon="6.08719">
        <ele>1080.66</ele>
        <time>2012-06-01T12:38:01Z</time>
      </trkpt>
      <trkpt lat="46.68321" lon="6.08725">
        <ele>1072.01</ele>
        <time>2012-06-01T12:38:04Z</time>
      </trkpt>
      <trkpt lat="46.68319" lon="6.08727">
        <ele>1080.66</ele>
        <time>2012-06-01T12:38:05Z</time>
      </trkpt>
      <trkpt lat="46.68311" lon="6.08739">
        <ele>1079.22</ele>
        <time>2012-06-01T12:38:10Z</time>
      </trkpt>
      <trkpt lat="46.68315" lon="6.08736">
        <ele>1078.74</ele>
        <time>2012-06-01T12:38:18Z</time>
      </trkpt>
      <trkpt lat="46.68316" lon="6.08735">
        <ele>1078.74</ele>
        <time>2012-06-01T12:38:19Z</time>
      </trkpt>
      <trkpt lat="46.68318" lon="6.08733">
        <ele>1080.18</ele>
        <time>2012-06-01T12:38:20Z</time>
      </trkpt>
      <trkpt lat="46.68319" lon="6.08731">
        <ele>1080.18</ele>
        <time>2012-06-01T12:38:21Z</time>
      </trkpt>
      <trkpt lat="46.68335" lon="6.08711">
        <ele>1082.1</ele>
        <time>2012-06-01T12:38:30Z</time>
      </trkpt>
      <trkpt lat="46.68336" lon="6.08707">
        <ele>1082.1</ele>
        <time>2012-06-01T12:38:31Z</time>
      </trkpt>
      <trkpt lat="46.68336" lon="6.08703">
        <ele>1081.62</ele>
        <time>2012-06-01T12:38:32Z</time>
      </trkpt>
      <trkpt lat="46.68335" lon="6.087">
        <ele>1080.66</ele>
        <time>2012-06-01T12:38:33Z</time>
      </trkpt>
      <trkpt lat="46.68335" lon="6.08697">
        <ele>1083.06</ele>
        <time>2012-06-01T12:38:34Z</time>
      </trkpt>
      <trkpt lat="46.68334" lon="6.08693">
        <ele>1083.06</ele>
        <time>2012-06-01T12:38:35Z</time>
      </trkpt>
      <trkpt lat="46.68334" lon="6.08689">
        <ele>1083.06</ele>
        <time>2012-06-01T12:38:36Z</time>
      </trkpt>
      <trkpt lat="46.68334" lon="6.08686">
        <ele>1082.58</ele>
        <time>2012-06-01T12:38:37Z</time>
      </trkpt>
      <trkpt lat="46.68334" lon="6.08683">
        <ele>1082.58</ele>
        <time>2012-06-01T12:38:38Z</time>
      </trkpt>
      <trkpt lat="46.68334" lon="6.0868">
        <ele>1083.54</ele>
        <time>2012-06-01T12:38:39Z</time>
      </trkpt>
      <trkpt lat="46.68328" lon="6.08618">
        <ele>1083.06</ele>
        <time>2012-06-01T12:38:53Z</time>
      </trkpt>
      <trkpt lat="46.68324" lon="6.086">
        <ele>1081.62</ele>
        <time>2012-06-01T12:38:56Z</time>
      </trkpt>
      <trkpt lat="46.68311" lon="6.08563">
        <ele>1083.06</ele>
        <time>2012-06-01T12:39:06Z</time>
      </trkpt>
      <trkpt lat="46.68297" lon="6.08519">
        <ele>1085.95</ele>
        <time>2012-06-01T12:39:18Z</time>
      </trkpt>
      <trkpt lat="46.6829" lon="6.0848">
        <ele>1084.99</ele>
        <time>2012-06-01T12:39:29Z</time>
      </trkpt>
      <trkpt lat="46.68305" lon="6.08433">
        <ele>1085.47</ele>
        <time>2012-06-01T12:39:42Z</time>
      </trkpt>
      <trkpt lat="46.6832" lon="6.084">
        <ele>1084.5</ele>
        <time>2012-06-01T12:39:52Z</time>
      </trkpt>
      <trkpt lat="46.6832" lon="6.08347">
        <ele>1084.02</ele>
        <time>2012-06-01T12:40:04Z</time>
      </trkpt>
      <trkpt lat="46.68311" lon="6.08314">
        <ele>1085.47</ele>
        <time>2012-06-01T12:40:14Z</time>
      </trkpt>
      <trkpt lat="46.68298" lon="6.08274">
        <ele>1088.35</ele>
        <time>2012-06-01T12:40:26Z</time>
      </trkpt>
      <trkpt lat="46.68297" lon="6.08272">
        <ele>1088.35</ele>
        <time>2012-06-01T12:40:27Z</time>
      </trkpt>
      <trkpt lat="46.68282" lon="6.08236">
        <ele>1086.91</ele>
        <time>2012-06-01T12:40:37Z</time>
      </trkpt>
      <trkpt lat="46.68279" lon="6.08229">
        <ele>1085.95</ele>
        <time>2012-06-01T12:40:39Z</time>
      </trkpt>
      <trkpt lat="46.68275" lon="6.08209">
        <ele>1085.95</ele>
        <time>2012-06-01T12:40:44Z</time>
      </trkpt>
      <trkpt lat="46.68273" lon="6.08205">
        <ele>1085.95</ele>
        <time>2012-06-01T12:40:45Z</time>
      </trkpt>
      <trkpt lat="46.68272" lon="6.082">
        <ele>1084.99</ele>
        <time>2012-06-01T12:40:46Z</time>
      </trkpt>
      <trkpt lat="46.68269" lon="6.08196">
        <ele>1085.95</ele>
        <time>2012-06-01T12:40:47Z</time>
      </trkpt>
      <trkpt lat="46.68267" lon="6.08192">
        <ele>1086.43</ele>
        <time>2012-06-01T12:40:48Z</time>
      </trkpt>
      <trkpt lat="46.68265" lon="6.08189">
        <ele>1086.91</ele>
        <time>2012-06-01T12:40:49Z</time>
      </trkpt>
      <trkpt lat="46.68262" lon="6.08186">
        <ele>1086.43</ele>
        <time>2012-06-01T12:40:50Z</time>
      </trkpt>
      <trkpt lat="46.68252" lon="6.08178">
        <ele>1087.87</ele>
        <time>2012-06-01T12:40:53Z</time>
      </trkpt>
      <trkpt lat="46.68232" lon="6.08157">
        <ele>1090.75</ele>
        <time>2012-06-01T12:41:03Z</time>
      </trkpt>
      <trkpt lat="46.68209" lon="6.08132">
        <ele>1092.68</ele>
        <time>2012-06-01T12:41:16Z</time>
      </trkpt>
      <trkpt lat="46.68186" lon="6.081">
        <ele>1093.64</ele>
        <time>2012-06-01T12:41:30Z</time>
      </trkpt>
      <trkpt lat="46.68177" lon="6.08093">
        <ele>1094.12</ele>
        <time>2012-06-01T12:41:35Z</time>
      </trkpt>
      <trkpt lat="46.68176" lon="6.08091">
        <ele>1094.6</ele>
        <time>2012-06-01T12:41:36Z</time>
      </trkpt>
      <trkpt lat="46.68175" lon="6.08089">
        <ele>1094.6</ele>
        <time>2012-06-01T12:41:37Z</time>
      </trkpt>
      <trkpt lat="46.68174" lon="6.08086">
        <ele>1095.08</ele>
        <time>2012-06-01T12:41:38Z</time>
      </trkpt>
      <trkpt lat="46.68173" lon="6.08083">
        <ele>1096.04</ele>
        <time>2012-06-01T12:41:39Z</time>
      </trkpt>
      <trkpt lat="46.68171" lon="6.0808">
        <ele>1095.08</ele>
        <time>2012-06-01T12:41:40Z</time>
      </trkpt>
      <trkpt lat="46.6817" lon="6.08078">
        <ele>1094.6</ele>
        <time>2012-06-01T12:41:41Z</time>
      </trkpt>
      <trkpt lat="46.68168" lon="6.08075">
        <ele>1095.56</ele>
        <time>2012-06-01T12:41:42Z</time>
      </trkpt>
      <trkpt lat="46.68167" lon="6.08073">
        <ele>1096.04</ele>
        <time>2012-06-01T12:41:43Z</time>
      </trkpt>
      <trkpt lat="46.68154" lon="6.08048">
        <ele>1097</ele>
        <time>2012-06-01T12:41:54Z</time>
      </trkpt>
      <trkpt lat="46.68144" lon="6.08014">
        <ele>1097.96</ele>
        <time>2012-06-01T12:42:07Z</time>
      </trkpt>
      <trkpt lat="46.68143" lon="6.0801">
        <ele>1097.96</ele>
        <time>2012-06-01T12:42:08Z</time>
      </trkpt>
      <trkpt lat="46.68142" lon="6.08007">
        <ele>1097.96</ele>
        <time>2012-06-01T12:42:09Z</time>
      </trkpt>
      <trkpt lat="46.68141" lon="6.08005">
        <ele>1098.44</ele>
        <time>2012-06-01T12:42:10Z</time>
      </trkpt>
      <trkpt lat="46.68137" lon="6.07987">
        <ele>1099.89</ele>
        <time>2012-06-01T12:42:18Z</time>
      </trkpt>
      <trkpt lat="46.68136" lon="6.07983">
        <ele>1098.92</ele>
        <time>2012-06-01T12:42:20Z</time>
      </trkpt>
      <trkpt lat="46.68134" lon="6.07976">
        <ele>1099.89</ele>
        <time>2012-06-01T12:42:23Z</time>
      </trkpt>
      <trkpt lat="46.68127" lon="6.07935">
        <ele>1099.89</ele>
        <time>2012-06-01T12:42:36Z</time>
      </trkpt>
      <trkpt lat="46.68122" lon="6.07917">
        <ele>1100.85</ele>
        <time>2012-06-01T12:42:42Z</time>
      </trkpt>
      <trkpt lat="46.68121" lon="6.07915">
        <ele>1101.33</ele>
        <time>2012-06-01T12:42:43Z</time>
      </trkpt>
      <trkpt lat="46.68113" lon="6.07885">
        <ele>1101.81</ele>
        <time>2012-06-01T12:42:52Z</time>
      </trkpt>
      <trkpt lat="46.68104" lon="6.07857">
        <ele>1100.85</ele>
        <time>2012-06-01T12:43:02Z</time>
      </trkpt>
      <trkpt lat="46.68091" lon="6.07828">
        <ele>1101.33</ele>
        <time>2012-06-01T12:43:12Z</time>
      </trkpt>
      <trkpt lat="46.68079" lon="6.07808">
        <ele>1101.81</ele>
        <time>2012-06-01T12:43:22Z</time>
      </trkpt>
      <trkpt lat="46.68075" lon="6.078">
        <ele>1105.65</ele>
        <time>2012-06-01T12:43:27Z</time>
      </trkpt>
      <trkpt lat="46.68072" lon="6.07798">
        <ele>1105.17</ele>
        <time>2012-06-01T12:43:28Z</time>
      </trkpt>
      <trkpt lat="46.68069" lon="6.0779">
        <ele>1105.17</ele>
        <time>2012-06-01T12:43:32Z</time>
      </trkpt>
      <trkpt lat="46.68069" lon="6.07779">
        <ele>1108.06</ele>
        <time>2012-06-01T12:43:39Z</time>
      </trkpt>
      <trkpt lat="46.68069" lon="6.07775">
        <ele>1107.1</ele>
        <time>2012-06-01T12:43:41Z</time>
      </trkpt>
      <trkpt lat="46.68056" lon="6.07746">
        <ele>1109.98</ele>
        <time>2012-06-01T12:43:55Z</time>
      </trkpt>
      <trkpt lat="46.68054" lon="6.07734">
        <ele>1113.34</ele>
        <time>2012-06-01T12:44:00Z</time>
      </trkpt>
      <trkpt lat="46.68052" lon="6.07731">
        <ele>1111.9</ele>
        <time>2012-06-01T12:44:02Z</time>
      </trkpt>
      <trkpt lat="46.68052" lon="6.07726">
        <ele>1112.86</ele>
        <time>2012-06-01T12:44:04Z</time>
      </trkpt>
      <trkpt lat="46.68042" lon="6.07707">
        <ele>1114.31</ele>
        <time>2012-06-01T12:44:13Z</time>
      </trkpt>
      <trkpt lat="46.68046" lon="6.07673">
        <ele>1117.19</ele>
        <time>2012-06-01T12:44:25Z</time>
      </trkpt>
      <trkpt lat="46.68049" lon="6.0765">
        <ele>1120.07</ele>
        <time>2012-06-01T12:44:32Z</time>
      </trkpt>
      <trkpt lat="46.68053" lon="6.07636">
        <ele>1121.03</ele>
        <time>2012-06-01T12:44:37Z</time>
      </trkpt>
      <trkpt lat="46.68056" lon="6.07623">
        <ele>1120.07</ele>
        <time>2012-06-01T12:44:45Z</time>
      </trkpt>
      <trkpt lat="46.68056" lon="6.0762">
        <ele>1121.52</ele>
        <time>2012-06-01T12:44:47Z</time>
      </trkpt>
      <trkpt lat="46.68056" lon="6.07615">
        <ele>1122</ele>
        <time>2012-06-01T12:44:57Z</time>
      </trkpt>
      <trkpt lat="46.68056" lon="6.07616">
        <ele>1122</ele>
        <time>2012-06-01T12:45:26Z</time>
      </trkpt>
      <trkpt lat="46.68056" lon="6.07616">
        <ele>1122.48</ele>
        <time>2012-06-01T12:45:58Z</time>
      </trkpt>
      <trkpt lat="46.68056" lon="6.07615">
        <ele>1119.59</ele>
        <time>2012-06-01T12:46:17Z</time>
      </trkpt>
      <trkpt lat="46.68056" lon="6.07615">
        <ele>1122.96</ele>
        <time>2012-06-01T12:46:24Z</time>
      </trkpt>
      <trkpt lat="46.68056" lon="6.07615">
        <ele>1122.48</ele>
        <time>2012-06-01T12:46:25Z</time>
      </trkpt>
      <trkpt lat="46.68056" lon="6.07615">
        <ele>1119.11</ele>
        <time>2012-06-01T12:46:31Z</time>
      </trkpt>
      <trkpt lat="46.68056" lon="6.07615">
        <ele>1120.55</ele>
        <time>2012-06-01T12:46:32Z</time>
      </trkpt>
      <trkpt lat="46.68056" lon="6.07615">
        <ele>1122.48</ele>
        <time>2012-06-01T12:46:38Z</time>
      </trkpt>
      <trkpt lat="46.68056" lon="6.07615">
        <ele>1121.52</ele>
        <time>2012-06-01T12:46:49Z</time>
      </trkpt>
      <trkpt lat="46.68057" lon="6.0761">
        <ele>1122.96</ele>
        <time>2012-06-01T12:47:06Z</time>
      </trkpt>
      <trkpt lat="46.68061" lon="6.07594">
        <ele>1122.48</ele>
        <time>2012-06-01T12:47:10Z</time>
      </trkpt>
      <trkpt lat="46.68062" lon="6.07586">
        <ele>1123.92</ele>
        <time>2012-06-01T12:47:13Z</time>
      </trkpt>
      <trkpt lat="46.68064" lon="6.07564">
        <ele>1126.32</ele>
        <time>2012-06-01T12:47:21Z</time>
      </trkpt>
      <trkpt lat="46.68063" lon="6.07542">
        <ele>1125.36</ele>
        <time>2012-06-01T12:47:27Z</time>
      </trkpt>
      <trkpt lat="46.68062" lon="6.07538">
        <ele>1124.88</ele>
        <time>2012-06-01T12:47:29Z</time>
      </trkpt>
      <trkpt lat="46.68062" lon="6.07532">
        <ele>1122</ele>
        <time>2012-06-01T12:47:31Z</time>
      </trkpt>
      <trkpt lat="46.68062" lon="6.07523">
        <ele>1126.32</ele>
        <time>2012-06-01T12:47:34Z</time>
      </trkpt>
      <trkpt lat="46.68062" lon="6.07521">
        <ele>1125.36</ele>
        <time>2012-06-01T12:47:35Z</time>
      </trkpt>
      <trkpt lat="46.68058" lon="6.07496">
        <ele>1124.88</ele>
        <time>2012-06-01T12:47:44Z</time>
      </trkpt>
      <trkpt lat="46.68056" lon="6.07493">
        <ele>1126.32</ele>
        <time>2012-06-01T12:47:45Z</time>
      </trkpt>
      <trkpt lat="46.6805" lon="6.07465">
        <ele>1124.88</ele>
        <time>2012-06-01T12:47:51Z</time>
      </trkpt>
      <trkpt lat="46.68059" lon="6.07424">
        <ele>1123.44</ele>
        <time>2012-06-01T12:48:03Z</time>
      </trkpt>
      <trkpt lat="46.68074" lon="6.07379">
        <ele>1127.28</ele>
        <time>2012-06-01T12:48:16Z</time>
      </trkpt>
      <trkpt lat="46.68078" lon="6.07367">
        <ele>1118.63</ele>
        <time>2012-06-01T12:48:19Z</time>
      </trkpt>
      <trkpt lat="46.68079" lon="6.07363">
        <ele>1124.4</ele>
        <time>2012-06-01T12:48:20Z</time>
      </trkpt>
      <trkpt lat="46.68082" lon="6.07355">
        <ele>1125.36</ele>
        <time>2012-06-01T12:48:22Z</time>
      </trkpt>
      <trkpt lat="46.68093" lon="6.07332">
        <ele>1124.88</ele>
        <time>2012-06-01T12:48:28Z</time>
      </trkpt>
      <trkpt lat="46.68098" lon="6.07322">
        <ele>1126.8</ele>
        <time>2012-06-01T12:48:31Z</time>
      </trkpt>
      <trkpt lat="46.68113" lon="6.07288">
        <ele>1126.32</ele>
        <time>2012-06-01T12:48:43Z</time>
      </trkpt>
      <trkpt lat="46.68122" lon="6.07248">
        <ele>1125.36</ele>
        <time>2012-06-01T12:48:55Z</time>
      </trkpt>
      <trkpt lat="46.68126" lon="6.07233">
        <ele>1128.73</ele>
        <time>2012-06-01T12:48:59Z</time>
      </trkpt>
      <trkpt lat="46.68135" lon="6.07222">
        <ele>1131.61</ele>
        <time>2012-06-01T12:49:03Z</time>
      </trkpt>
      <trkpt lat="46.68137" lon="6.07219">
        <ele>1129.69</ele>
        <time>2012-06-01T12:49:04Z</time>
      </trkpt>
      <trkpt lat="46.68149" lon="6.07212">
        <ele>1133.05</ele>
        <time>2012-06-01T12:49:10Z</time>
      </trkpt>
      <trkpt lat="46.68173" lon="6.07199">
        <ele>1134.97</ele>
        <time>2012-06-01T12:49:21Z</time>
      </trkpt>
      <trkpt lat="46.68187" lon="6.07188">
        <ele>1135.45</ele>
        <time>2012-06-01T12:49:28Z</time>
      </trkpt>
      <trkpt lat="46.68198" lon="6.0718">
        <ele>1132.09</ele>
        <time>2012-06-01T12:49:33Z</time>
      </trkpt>
      <trkpt lat="46.68206" lon="6.07174">
        <ele>1123.92</ele>
        <time>2012-06-01T12:49:36Z</time>
      </trkpt>
      <trkpt lat="46.68209" lon="6.07171">
        <ele>1134.97</ele>
        <time>2012-06-01T12:49:37Z</time>
      </trkpt>
      <trkpt lat="46.68219" lon="6.07159">
        <ele>1131.61</ele>
        <time>2012-06-01T12:49:40Z</time>
      </trkpt>
      <trkpt lat="46.68224" lon="6.07155">
        <ele>1132.57</ele>
        <time>2012-06-01T12:49:41Z</time>
      </trkpt>
      <trkpt lat="46.68228" lon="6.07151">
        <ele>1131.61</ele>
        <time>2012-06-01T12:49:42Z</time>
      </trkpt>
      <trkpt lat="46.68231" lon="6.07146">
        <ele>1131.13</ele>
        <time>2012-06-01T12:49:43Z</time>
      </trkpt>
      <trkpt lat="46.68246" lon="6.07126">
        <ele>1129.69</ele>
        <time>2012-06-01T12:49:47Z</time>
      </trkpt>
      <trkpt lat="46.68251" lon="6.07121">
        <ele>1130.17</ele>
        <time>2012-06-01T12:49:48Z</time>
      </trkpt>
      <trkpt lat="46.68266" lon="6.07107">
        <ele>1129.69</ele>
        <time>2012-06-01T12:49:51Z</time>
      </trkpt>
      <trkpt lat="46.6827" lon="6.07101">
        <ele>1129.69</ele>
        <time>2012-06-01T12:49:52Z</time>
      </trkpt>
      <trkpt lat="46.68273" lon="6.07096">
        <ele>1130.65</ele>
        <time>2012-06-01T12:49:53Z</time>
      </trkpt>
      <trkpt lat="46.68275" lon="6.07093">
        <ele>1130.65</ele>
        <time>2012-06-01T12:49:54Z</time>
      </trkpt>
      <trkpt lat="46.68277" lon="6.07091">
        <ele>1129.69</ele>
        <time>2012-06-01T12:49:55Z</time>
      </trkpt>
      <trkpt lat="46.68278" lon="6.07089">
        <ele>1128.73</ele>
        <time>2012-06-01T12:49:56Z</time>
      </trkpt>
      <trkpt lat="46.68281" lon="6.07086">
        <ele>1131.13</ele>
        <time>2012-06-01T12:49:57Z</time>
      </trkpt>
      <trkpt lat="46.68292" lon="6.07077">
        <ele>1131.61</ele>
        <time>2012-06-01T12:50:02Z</time>
      </trkpt>
      <trkpt lat="46.68294" lon="6.07077">
        <ele>1132.57</ele>
        <time>2012-06-01T12:50:03Z</time>
      </trkpt>
      <trkpt lat="46.683" lon="6.07067">
        <ele>1132.09</ele>
        <time>2012-06-01T12:50:11Z</time>
      </trkpt>
      <trkpt lat="46.68302" lon="6.07065">
        <ele>1133.05</ele>
        <time>2012-06-01T12:50:13Z</time>
      </trkpt>
      <trkpt lat="46.68307" lon="6.07057">
        <ele>1133.05</ele>
        <time>2012-06-01T12:50:20Z</time>
      </trkpt>
      <trkpt lat="46.68312" lon="6.07047">
        <ele>1133.05</ele>
        <time>2012-06-01T12:50:31Z</time>
      </trkpt>
      <trkpt lat="46.68314" lon="6.07038">
        <ele>1133.05</ele>
        <time>2012-06-01T12:50:40Z</time>
      </trkpt>
      <trkpt lat="46.68317" lon="6.07035">
        <ele>1134.49</ele>
        <time>2012-06-01T12:50:46Z</time>
      </trkpt>
      <trkpt lat="46.68318" lon="6.07034">
        <ele>1133.05</ele>
        <time>2012-06-01T12:50:47Z</time>
      </trkpt>
      <trkpt lat="46.6832" lon="6.07033">
        <ele>1132.09</ele>
        <time>2012-06-01T12:50:48Z</time>
      </trkpt>
      <trkpt lat="46.68329" lon="6.07028">
        <ele>1132.57</ele>
        <time>2012-06-01T12:50:52Z</time>
      </trkpt>
      <trkpt lat="46.68331" lon="6.07027">
        <ele>1133.05</ele>
        <time>2012-06-01T12:50:53Z</time>
      </trkpt>
      <trkpt lat="46.68333" lon="6.07026">
        <ele>1133.53</ele>
        <time>2012-06-01T12:50:54Z</time>
      </trkpt>
      <trkpt lat="46.68335" lon="6.07025">
        <ele>1131.13</ele>
        <time>2012-06-01T12:50:55Z</time>
      </trkpt>
      <trkpt lat="46.68337" lon="6.07023">
        <ele>1132.57</ele>
        <time>2012-06-01T12:50:56Z</time>
      </trkpt>
      <trkpt lat="46.68338" lon="6.0702">
        <ele>1132.57</ele>
        <time>2012-06-01T12:50:57Z</time>
      </trkpt>
      <trkpt lat="46.68341" lon="6.07017">
        <ele>1132.57</ele>
        <time>2012-06-01T12:50:58Z</time>
      </trkpt>
      <trkpt lat="46.68346" lon="6.07015">
        <ele>1131.13</ele>
        <time>2012-06-01T12:50:59Z</time>
      </trkpt>
      <trkpt lat="46.6835" lon="6.07012">
        <ele>1131.61</ele>
        <time>2012-06-01T12:51:00Z</time>
      </trkpt>
      <trkpt lat="46.68374" lon="6.0698">
        <ele>1131.13</ele>
        <time>2012-06-01T12:51:10Z</time>
      </trkpt>
      <trkpt lat="46.68391" lon="6.06955">
        <ele>1131.13</ele>
        <time>2012-06-01T12:51:21Z</time>
      </trkpt>
      <trkpt lat="46.68396" lon="6.06953">
        <ele>1130.65</ele>
        <time>2012-06-01T12:51:23Z</time>
      </trkpt>
      <trkpt lat="46.68399" lon="6.06948">
        <ele>1130.17</ele>
        <time>2012-06-01T12:51:25Z</time>
      </trkpt>
      <trkpt lat="46.684" lon="6.06945">
        <ele>1132.09</ele>
        <time>2012-06-01T12:51:26Z</time>
      </trkpt>
      <trkpt lat="46.68402" lon="6.06943">
        <ele>1130.65</ele>
        <time>2012-06-01T12:51:27Z</time>
      </trkpt>
      <trkpt lat="46.68403" lon="6.06942">
        <ele>1131.13</ele>
        <time>2012-06-01T12:51:28Z</time>
      </trkpt>
      <trkpt lat="46.68405" lon="6.0694">
        <ele>1130.65</ele>
        <time>2012-06-01T12:51:29Z</time>
      </trkpt>
      <trkpt lat="46.68407" lon="6.06938">
        <ele>1131.61</ele>
        <time>2012-06-01T12:51:30Z</time>
      </trkpt>
      <trkpt lat="46.68413" lon="6.06932">
        <ele>1130.17</ele>
        <time>2012-06-01T12:51:34Z</time>
      </trkpt>
      <trkpt lat="46.68418" lon="6.06927">
        <ele>1131.61</ele>
        <time>2012-06-01T12:51:37Z</time>
      </trkpt>
      <trkpt lat="46.68419" lon="6.06927">
        <ele>1131.13</ele>
        <time>2012-06-01T12:51:38Z</time>
      </trkpt>
      <trkpt lat="46.6842" lon="6.06926">
        <ele>1131.13</ele>
        <time>2012-06-01T12:51:39Z</time>
      </trkpt>
      <trkpt lat="46.68422" lon="6.06924">
        <ele>1132.09</ele>
        <time>2012-06-01T12:51:40Z</time>
      </trkpt>
      <trkpt lat="46.68434" lon="6.06912">
        <ele>1132.57</ele>
        <time>2012-06-01T12:51:49Z</time>
      </trkpt>
      <trkpt lat="46.68436" lon="6.0691">
        <ele>1133.53</ele>
        <time>2012-06-01T12:51:50Z</time>
      </trkpt>
      <trkpt lat="46.6844" lon="6.06901">
        <ele>1134.97</ele>
        <time>2012-06-01T12:51:55Z</time>
      </trkpt>
      <trkpt lat="46.68441" lon="6.06899">
        <ele>1134.49</ele>
        <time>2012-06-01T12:51:56Z</time>
      </trkpt>
      <trkpt lat="46.68443" lon="6.06896">
        <ele>1135.45</ele>
        <time>2012-06-01T12:51:58Z</time>
      </trkpt>
      <trkpt lat="46.68447" lon="6.06891">
        <ele>1135.45</ele>
        <time>2012-06-01T12:52:01Z</time>
      </trkpt>
      <trkpt lat="46.6846" lon="6.06879">
        <ele>1136.42</ele>
        <time>2012-06-01T12:52:10Z</time>
      </trkpt>
      <trkpt lat="46.68461" lon="6.06878">
        <ele>1135.45</ele>
        <time>2012-06-01T12:52:11Z</time>
      </trkpt>
      <trkpt lat="46.68464" lon="6.06877">
        <ele>1134.97</ele>
        <time>2012-06-01T12:52:13Z</time>
      </trkpt>
      <trkpt lat="46.68466" lon="6.06875">
        <ele>1135.94</ele>
        <time>2012-06-01T12:52:14Z</time>
      </trkpt>
      <trkpt lat="46.68467" lon="6.06875">
        <ele>1136.9</ele>
        <time>2012-06-01T12:52:15Z</time>
      </trkpt>
      <trkpt lat="46.68474" lon="6.06875">
        <ele>1137.86</ele>
        <time>2012-06-01T12:52:20Z</time>
      </trkpt>
      <trkpt lat="46.68487" lon="6.06857">
        <ele>1139.78</ele>
        <time>2012-06-01T12:52:29Z</time>
      </trkpt>
      <trkpt lat="46.6849" lon="6.06848">
        <ele>1141.22</ele>
        <time>2012-06-01T12:52:32Z</time>
      </trkpt>
      <trkpt lat="46.68498" lon="6.06839">
        <ele>1140.26</ele>
        <time>2012-06-01T12:52:43Z</time>
      </trkpt>
      <trkpt lat="46.68498" lon="6.06837">
        <ele>1143.14</ele>
        <time>2012-06-01T12:53:02Z</time>
      </trkpt>
      <trkpt lat="46.68499" lon="6.06836">
        <ele>1142.66</ele>
        <time>2012-06-01T12:53:54Z</time>
      </trkpt>
      <trkpt lat="46.68506" lon="6.06826">
        <ele>1145.55</ele>
        <time>2012-06-01T12:54:04Z</time>
      </trkpt>
      <trkpt lat="46.68512" lon="6.06822">
        <ele>1146.99</ele>
        <time>2012-06-01T12:54:13Z</time>
      </trkpt>
      <trkpt lat="46.68518" lon="6.06817">
        <ele>1147.47</ele>
        <time>2012-06-01T12:54:21Z</time>
      </trkpt>
      <trkpt lat="46.68529" lon="6.0681">
        <ele>1149.39</ele>
        <time>2012-06-01T12:54:36Z</time>
      </trkpt>
      <trkpt lat="46.68532" lon="6.06809">
        <ele>1151.32</ele>
        <time>2012-06-01T12:54:53Z</time>
      </trkpt>
      <trkpt lat="46.6854" lon="6.06799">
        <ele>1152.76</ele>
        <time>2012-06-01T12:55:07Z</time>
      </trkpt>
      <trkpt lat="46.68546" lon="6.06786">
        <ele>1154.2</ele>
        <time>2012-06-01T12:55:19Z</time>
      </trkpt>
      <trkpt lat="46.68546" lon="6.06786">
        <ele>1153.24</ele>
        <time>2012-06-01T12:55:59Z</time>
      </trkpt>
      <trkpt lat="46.68546" lon="6.06786">
        <ele>1154.2</ele>
        <time>2012-06-01T12:56:09Z</time>
      </trkpt>
      <trkpt lat="46.68549" lon="6.06783">
        <ele>1154.2</ele>
        <time>2012-06-01T12:56:28Z</time>
      </trkpt>
      <trkpt lat="46.68552" lon="6.06781">
        <ele>1155.16</ele>
        <time>2012-06-01T12:56:30Z</time>
      </trkpt>
      <trkpt lat="46.68559" lon="6.06776">
        <ele>1155.64</ele>
        <time>2012-06-01T12:56:34Z</time>
      </trkpt>
      <trkpt lat="46.68566" lon="6.06773">
        <ele>1156.6</ele>
        <time>2012-06-01T12:56:38Z</time>
      </trkpt>
      <trkpt lat="46.68579" lon="6.06772">
        <ele>1159.97</ele>
        <time>2012-06-01T12:56:46Z</time>
      </trkpt>
      <trkpt lat="46.68584" lon="6.0677">
        <ele>1159.97</ele>
        <time>2012-06-01T12:56:48Z</time>
      </trkpt>
      <trkpt lat="46.68588" lon="6.06767">
        <ele>1160.93</ele>
        <time>2012-06-01T12:56:50Z</time>
      </trkpt>
      <trkpt lat="46.6859" lon="6.06766">
        <ele>1160.93</ele>
        <time>2012-06-01T12:56:51Z</time>
      </trkpt>
      <trkpt lat="46.68593" lon="6.06761">
        <ele>1163.81</ele>
        <time>2012-06-01T12:56:55Z</time>
      </trkpt>
      <trkpt lat="46.68596" lon="6.06758">
        <ele>1164.29</ele>
        <time>2012-06-01T12:56:58Z</time>
      </trkpt>
      <trkpt lat="46.68604" lon="6.06748">
        <ele>1167.66</ele>
        <time>2012-06-01T12:57:03Z</time>
      </trkpt>
      <trkpt lat="46.68606" lon="6.06745">
        <ele>1167.18</ele>
        <time>2012-06-01T12:57:05Z</time>
      </trkpt>
      <trkpt lat="46.68608" lon="6.06742">
        <ele>1167.18</ele>
        <time>2012-06-01T12:57:07Z</time>
      </trkpt>
      <trkpt lat="46.68612" lon="6.06738">
        <ele>1167.66</ele>
        <time>2012-06-01T12:57:20Z</time>
      </trkpt>
      <trkpt lat="46.68617" lon="6.06733">
        <ele>1168.62</ele>
        <time>2012-06-01T12:57:25Z</time>
      </trkpt>
      <trkpt lat="46.68627" lon="6.06724">
        <ele>1169.1</ele>
        <time>2012-06-01T12:57:38Z</time>
      </trkpt>
      <trkpt lat="46.68637" lon="6.06717">
        <ele>1171.5</ele>
        <time>2012-06-01T12:57:51Z</time>
      </trkpt>
      <trkpt lat="46.68641" lon="6.06716">
        <ele>1171.5</ele>
        <time>2012-06-01T12:58:05Z</time>
      </trkpt>
      <trkpt lat="46.68641" lon="6.06716">
        <ele>1173.91</ele>
        <time>2012-06-01T12:58:08Z</time>
      </trkpt>
      <trkpt lat="46.68642" lon="6.06714">
        <ele>1174.39</ele>
        <time>2012-06-01T12:58:13Z</time>
      </trkpt>
      <trkpt lat="46.68645" lon="6.06709">
        <ele>1174.39</ele>
        <time>2012-06-01T12:58:17Z</time>
      </trkpt>
      <trkpt lat="46.68652" lon="6.06698">
        <ele>1172.95</ele>
        <time>2012-06-01T12:58:32Z</time>
      </trkpt>
      <trkpt lat="46.68653" lon="6.06694">
        <ele>1175.35</ele>
        <time>2012-06-01T12:58:34Z</time>
      </trkpt>
      <trkpt lat="46.68666" lon="6.06681">
        <ele>1179.19</ele>
        <time>2012-06-01T12:58:49Z</time>
      </trkpt>
      <trkpt lat="46.68666" lon="6.06681">
        <ele>1176.31</ele>
        <time>2012-06-01T12:58:50Z</time>
      </trkpt>
      <trkpt lat="46.68673" lon="6.06675">
        <ele>1178.23</ele>
        <time>2012-06-01T12:59:00Z</time>
      </trkpt>
      <trkpt lat="46.68681" lon="6.06664">
        <ele>1181.6</ele>
        <time>2012-06-01T12:59:12Z</time>
      </trkpt>
      <trkpt lat="46.68687" lon="6.06654">
        <ele>1181.12</ele>
        <time>2012-06-01T12:59:23Z</time>
      </trkpt>
      <trkpt lat="46.68691" lon="6.06652">
        <ele>1182.08</ele>
        <time>2012-06-01T12:59:34Z</time>
      </trkpt>
      <trkpt lat="46.68691" lon="6.06652">
        <ele>1185.44</ele>
        <time>2012-06-01T12:59:44Z</time>
      </trkpt>
      <trkpt lat="46.68691" lon="6.06652">
        <ele>1182.08</ele>
        <time>2012-06-01T12:59:48Z</time>
      </trkpt>
      <trkpt lat="46.68692" lon="6.06651">
        <ele>1185.44</ele>
        <time>2012-06-01T13:00:26Z</time>
      </trkpt>
      <trkpt lat="46.68692" lon="6.06651">
        <ele>1182.08</ele>
        <time>2012-06-01T13:00:44Z</time>
      </trkpt>
      <trkpt lat="46.68693" lon="6.06651">
        <ele>1183.52</ele>
        <time>2012-06-01T13:01:02Z</time>
      </trkpt>
      <trkpt lat="46.68693" lon="6.06651">
        <ele>1184</ele>
        <time>2012-06-01T13:01:11Z</time>
      </trkpt>
      <trkpt lat="46.68693" lon="6.06651">
        <ele>1184</ele>
        <time>2012-06-01T13:01:19Z</time>
      </trkpt>
      <trkpt lat="46.68693" lon="6.06651">
        <ele>1182.56</ele>
        <time>2012-06-01T13:01:22Z</time>
      </trkpt>
      <trkpt lat="46.68693" lon="6.06651">
        <ele>1182.08</ele>
        <time>2012-06-01T13:02:00Z</time>
      </trkpt>
      <trkpt lat="46.68694" lon="6.06651">
        <ele>1182.56</ele>
        <time>2012-06-01T13:02:24Z</time>
      </trkpt>
      <trkpt lat="46.68696" lon="6.06647">
        <ele>1184</ele>
        <time>2012-06-01T13:02:31Z</time>
      </trkpt>
      <trkpt lat="46.68707" lon="6.06634">
        <ele>1181.12</ele>
        <time>2012-06-01T13:02:36Z</time>
      </trkpt>
      <trkpt lat="46.68714" lon="6.06625">
        <ele>1181.6</ele>
        <time>2012-06-01T13:02:39Z</time>
      </trkpt>
      <trkpt lat="46.6872" lon="6.06622">
        <ele>1183.52</ele>
        <time>2012-06-01T13:02:43Z</time>
      </trkpt>
      <trkpt lat="46.68736" lon="6.0661">
        <ele>1185.92</ele>
        <time>2012-06-01T13:02:53Z</time>
      </trkpt>
      <trkpt lat="46.68741" lon="6.06606">
        <ele>1188.33</ele>
        <time>2012-06-01T13:02:56Z</time>
      </trkpt>
      <trkpt lat="46.68742" lon="6.06603">
        <ele>1187.37</ele>
        <time>2012-06-01T13:02:57Z</time>
      </trkpt>
      <trkpt lat="46.68744" lon="6.06601">
        <ele>1185.92</ele>
        <time>2012-06-01T13:02:58Z</time>
      </trkpt>
      <trkpt lat="46.68755" lon="6.06591">
        <ele>1191.21</ele>
        <time>2012-06-01T13:03:05Z</time>
      </trkpt>
      <trkpt lat="46.68767" lon="6.06571">
        <ele>1191.21</ele>
        <time>2012-06-01T13:03:15Z</time>
      </trkpt>
      <trkpt lat="46.68772" lon="6.06554">
        <ele>1191.21</ele>
        <time>2012-06-01T13:03:24Z</time>
      </trkpt>
      <trkpt lat="46.68777" lon="6.06548">
        <ele>1192.17</ele>
        <time>2012-06-01T13:03:28Z</time>
      </trkpt>
      <trkpt lat="46.68779" lon="6.06545">
        <ele>1192.17</ele>
        <time>2012-06-01T13:03:30Z</time>
      </trkpt>
      <trkpt lat="46.68786" lon="6.0654">
        <ele>1194.58</ele>
        <time>2012-06-01T13:03:35Z</time>
      </trkpt>
      <trkpt lat="46.68791" lon="6.06534">
        <ele>1194.58</ele>
        <time>2012-06-01T13:03:39Z</time>
      </trkpt>
      <trkpt lat="46.68803" lon="6.06527">
        <ele>1196.5</ele>
        <time>2012-06-01T13:03:51Z</time>
      </trkpt>
      <trkpt lat="46.68803" lon="6.06528">
        <ele>1196.02</ele>
        <time>2012-06-01T13:03:54Z</time>
      </trkpt>
      <trkpt lat="46.68817" lon="6.06531">
        <ele>1193.13</ele>
        <time>2012-06-01T13:04:01Z</time>
      </trkpt>
      <trkpt lat="46.68819" lon="6.06531">
        <ele>1194.09</ele>
        <time>2012-06-01T13:04:02Z</time>
      </trkpt>
      <trkpt lat="46.68828" lon="6.06534">
        <ele>1192.65</ele>
        <time>2012-06-01T13:04:14Z</time>
      </trkpt>
      <trkpt lat="46.6883" lon="6.06534">
        <ele>1192.17</ele>
        <time>2012-06-01T13:04:20Z</time>
      </trkpt>
      <trkpt lat="46.68832" lon="6.06537">
        <ele>1190.25</ele>
        <time>2012-06-01T13:04:32Z</time>
      </trkpt>
      <trkpt lat="46.68832" lon="6.06537">
        <ele>1190.73</ele>
        <time>2012-06-01T13:04:33Z</time>
      </trkpt>
      <trkpt lat="46.68832" lon="6.06537">
        <ele>1191.21</ele>
        <time>2012-06-01T13:04:51Z</time>
      </trkpt>
      <trkpt lat="46.68832" lon="6.06537">
        <ele>1190.73</ele>
        <time>2012-06-01T13:04:52Z</time>
      </trkpt>
      <trkpt lat="46.68844" lon="6.06543">
        <ele>1190.73</ele>
        <time>2012-06-01T13:04:56Z</time>
      </trkpt>
      <trkpt lat="46.68848" lon="6.06546">
        <ele>1188.81</ele>
        <time>2012-06-01T13:04:57Z</time>
      </trkpt>
      <trkpt lat="46.68851" lon="6.0655">
        <ele>1189.29</ele>
        <time>2012-06-01T13:04:58Z</time>
      </trkpt>
      <trkpt lat="46.68854" lon="6.06554">
        <ele>1188.81</ele>
        <time>2012-06-01T13:04:59Z</time>
      </trkpt>
      <trkpt lat="46.68856" lon="6.06558">
        <ele>1187.85</ele>
        <time>2012-06-01T13:05:00Z</time>
      </trkpt>
      <trkpt lat="46.68857" lon="6.06562">
        <ele>1187.85</ele>
        <time>2012-06-01T13:05:01Z</time>
      </trkpt>
      <trkpt lat="46.68859" lon="6.06565">
        <ele>1188.81</ele>
        <time>2012-06-01T13:05:02Z</time>
      </trkpt>
      <trkpt lat="46.68862" lon="6.06567">
        <ele>1188.81</ele>
        <time>2012-06-01T13:05:03Z</time>
      </trkpt>
      <trkpt lat="46.68865" lon="6.06571">
        <ele>1185.44</ele>
        <time>2012-06-01T13:05:05Z</time>
      </trkpt>
      <trkpt lat="46.6887" lon="6.06577">
        <ele>1182.08</ele>
        <time>2012-06-01T13:05:07Z</time>
      </trkpt>
      <trkpt lat="46.68875" lon="6.0658">
        <ele>1182.08</ele>
        <time>2012-06-01T13:05:08Z</time>
      </trkpt>
      <trkpt lat="46.68895" lon="6.06591">
        <ele>1178.71</ele>
        <time>2012-06-01T13:05:11Z</time>
      </trkpt>
      <trkpt lat="46.68907" lon="6.06599">
        <ele>1174.39</ele>
        <time>2012-06-01T13:05:14Z</time>
      </trkpt>
      <trkpt lat="46.6891" lon="6.06602">
        <ele>1174.39</ele>
        <time>2012-06-01T13:05:15Z</time>
      </trkpt>
      <trkpt lat="46.68914" lon="6.06605">
        <ele>1171.98</ele>
        <time>2012-06-01T13:05:16Z</time>
      </trkpt>
      <trkpt lat="46.68918" lon="6.06609">
        <ele>1171.98</ele>
        <time>2012-06-01T13:05:17Z</time>
      </trkpt>
      <trkpt lat="46.68922" lon="6.06613">
        <ele>1170.54</ele>
        <time>2012-06-01T13:05:18Z</time>
      </trkpt>
      <trkpt lat="46.68926" lon="6.06616">
        <ele>1168.62</ele>
        <time>2012-06-01T13:05:19Z</time>
      </trkpt>
      <trkpt lat="46.6893" lon="6.06619">
        <ele>1165.26</ele>
        <time>2012-06-01T13:05:20Z</time>
      </trkpt>
      <trkpt lat="46.68935" lon="6.06623">
        <ele>1166.22</ele>
        <time>2012-06-01T13:05:21Z</time>
      </trkpt>
      <trkpt lat="46.68939" lon="6.06626">
        <ele>1165.26</ele>
        <time>2012-06-01T13:05:22Z</time>
      </trkpt>
      <trkpt lat="46.68944" lon="6.06629">
        <ele>1163.81</ele>
        <time>2012-06-01T13:05:23Z</time>
      </trkpt>
      <trkpt lat="46.6895" lon="6.06632">
        <ele>1161.89</ele>
        <time>2012-06-01T13:05:24Z</time>
      </trkpt>
      <trkpt lat="46.68955" lon="6.06634">
        <ele>1161.41</ele>
        <time>2012-06-01T13:05:25Z</time>
      </trkpt>
      <trkpt lat="46.6896" lon="6.06636">
        <ele>1159.97</ele>
        <time>2012-06-01T13:05:26Z</time>
      </trkpt>
      <trkpt lat="46.6897" lon="6.06641">
        <ele>1158.05</ele>
        <time>2012-06-01T13:05:28Z</time>
      </trkpt>
      <trkpt lat="46.68993" lon="6.0665">
        <ele>1154.68</ele>
        <time>2012-06-01T13:05:34Z</time>
      </trkpt>
      <trkpt lat="46.69" lon="6.06655">
        <ele>1155.16</ele>
        <time>2012-06-01T13:05:42Z</time>
      </trkpt>
      <trkpt lat="46.69004" lon="6.06661">
        <ele>1155.16</ele>
        <time>2012-06-01T13:05:46Z</time>
      </trkpt>
      <trkpt lat="46.69007" lon="6.06665">
        <ele>1155.16</ele>
        <time>2012-06-01T13:05:48Z</time>
      </trkpt>
      <trkpt lat="46.69008" lon="6.0667">
        <ele>1154.68</ele>
        <time>2012-06-01T13:05:51Z</time>
      </trkpt>
      <trkpt lat="46.69009" lon="6.06675">
        <ele>1153.72</ele>
        <time>2012-06-01T13:06:04Z</time>
      </trkpt>
      <trkpt lat="46.69015" lon="6.06676">
        <ele>1154.2</ele>
        <time>2012-06-01T13:06:23Z</time>
      </trkpt>
      <trkpt lat="46.69019" lon="6.06667">
        <ele>1155.16</ele>
        <time>2012-06-01T13:06:34Z</time>
      </trkpt>
      <trkpt lat="46.6902" lon="6.06667">
        <ele>1156.12</ele>
        <time>2012-06-01T13:06:38Z</time>
      </trkpt>
      <trkpt lat="46.69024" lon="6.06657">
        <ele>1156.6</ele>
        <time>2012-06-01T13:06:43Z</time>
      </trkpt>
      <trkpt lat="46.69035" lon="6.06622">
        <ele>1155.16</ele>
        <time>2012-06-01T13:06:53Z</time>
      </trkpt>
      <trkpt lat="46.6904" lon="6.06597">
        <ele>1155.16</ele>
        <time>2012-06-01T13:06:58Z</time>
      </trkpt>
      <trkpt lat="46.69046" lon="6.0657">
        <ele>1152.76</ele>
        <time>2012-06-01T13:07:03Z</time>
      </trkpt>
      <trkpt lat="46.69051" lon="6.06542">
        <ele>1152.28</ele>
        <time>2012-06-01T13:07:08Z</time>
      </trkpt>
      <trkpt lat="46.69052" lon="6.06531">
        <ele>1151.8</ele>
        <time>2012-06-01T13:07:10Z</time>
      </trkpt>
      <trkpt lat="46.69053" lon="6.06499">
        <ele>1148.43</ele>
        <time>2012-06-01T13:07:15Z</time>
      </trkpt>
      <trkpt lat="46.69056" lon="6.06481">
        <ele>1148.43</ele>
        <time>2012-06-01T13:07:18Z</time>
      </trkpt>
      <trkpt lat="46.69056" lon="6.06475">
        <ele>1147.95</ele>
        <time>2012-06-01T13:07:19Z</time>
      </trkpt>
      <trkpt lat="46.69056" lon="6.06463">
        <ele>1147.47</ele>
        <time>2012-06-01T13:07:21Z</time>
      </trkpt>
      <trkpt lat="46.69057" lon="6.06443">
        <ele>1145.07</ele>
        <time>2012-06-01T13:07:24Z</time>
      </trkpt>
      <trkpt lat="46.69056" lon="6.06437">
        <ele>1145.07</ele>
        <time>2012-06-01T13:07:25Z</time>
      </trkpt>
      <trkpt lat="46.69054" lon="6.06422">
        <ele>1143.14</ele>
        <time>2012-06-01T13:07:28Z</time>
      </trkpt>
      <trkpt lat="46.69054" lon="6.06416">
        <ele>1141.22</ele>
        <time>2012-06-01T13:07:40Z</time>
      </trkpt>
      <trkpt lat="46.69055" lon="6.06386">
        <ele>1140.26</ele>
        <time>2012-06-01T13:08:00Z</time>
      </trkpt>
      <trkpt lat="46.69053" lon="6.06347">
        <ele>1137.86</ele>
        <time>2012-06-01T13:08:05Z</time>
      </trkpt>
      <trkpt lat="46.69052" lon="6.06314">
        <ele>1137.86</ele>
        <time>2012-06-01T13:08:13Z</time>
      </trkpt>
      <trkpt lat="46.69055" lon="6.06287">
        <ele>1134.01</ele>
        <time>2012-06-01T13:08:19Z</time>
      </trkpt>
      <trkpt lat="46.69056" lon="6.06281">
        <ele>1134.01</ele>
        <time>2012-06-01T13:08:20Z</time>
      </trkpt>
      <trkpt lat="46.69058" lon="6.06275">
        <ele>1133.53</ele>
        <time>2012-06-01T13:08:21Z</time>
      </trkpt>
      <trkpt lat="46.6906" lon="6.06269">
        <ele>1131.61</ele>
        <time>2012-06-01T13:08:22Z</time>
      </trkpt>
      <trkpt lat="46.69062" lon="6.06263">
        <ele>1131.61</ele>
        <time>2012-06-01T13:08:23Z</time>
      </trkpt>
      <trkpt lat="46.69064" lon="6.06256">
        <ele>1131.13</ele>
        <time>2012-06-01T13:08:24Z</time>
      </trkpt>
      <trkpt lat="46.69067" lon="6.06248">
        <ele>1129.21</ele>
        <time>2012-06-01T13:08:25Z</time>
      </trkpt>
      <trkpt lat="46.69075" lon="6.06231">
        <ele>1128.24</ele>
        <time>2012-06-01T13:08:27Z</time>
      </trkpt>
      <trkpt lat="46.69089" lon="6.06205">
        <ele>1125.36</ele>
        <time>2012-06-01T13:08:30Z</time>
      </trkpt>
      <trkpt lat="46.69093" lon="6.06198">
        <ele>1124.4</ele>
        <time>2012-06-01T13:08:31Z</time>
      </trkpt>
      <trkpt lat="46.69113" lon="6.06173">
        <ele>1127.76</ele>
        <time>2012-06-01T13:08:37Z</time>
      </trkpt>
      <trkpt lat="46.69132" lon="6.06146">
        <ele>1131.13</ele>
        <time>2012-06-01T13:08:46Z</time>
      </trkpt>
      <trkpt lat="46.69133" lon="6.06144">
        <ele>1130.65</ele>
        <time>2012-06-01T13:08:47Z</time>
      </trkpt>
      <trkpt lat="46.69146" lon="6.06133">
        <ele>1131.13</ele>
        <time>2012-06-01T13:08:59Z</time>
      </trkpt>
      <trkpt lat="46.69145" lon="6.06134">
        <ele>1131.61</ele>
        <time>2012-06-01T13:09:13Z</time>
      </trkpt>
      <trkpt lat="46.69145" lon="6.06134">
        <ele>1128.73</ele>
        <time>2012-06-01T13:09:16Z</time>
      </trkpt>
      <trkpt lat="46.69145" lon="6.06134">
        <ele>1132.09</ele>
        <time>2012-06-01T13:09:17Z</time>
      </trkpt>
      <trkpt lat="46.69145" lon="6.06133">
        <ele>1132.09</ele>
        <time>2012-06-01T13:09:27Z</time>
      </trkpt>
      <trkpt lat="46.69148" lon="6.06128">
        <ele>1131.13</ele>
        <time>2012-06-01T13:09:40Z</time>
      </trkpt>
      <trkpt lat="46.6913" lon="6.06118">
        <ele>1131.13</ele>
        <time>2012-06-01T13:09:49Z</time>
      </trkpt>
      <trkpt lat="46.69105" lon="6.06103">
        <ele>1126.32</ele>
        <time>2012-06-01T13:09:56Z</time>
      </trkpt>
      <trkpt lat="46.69101" lon="6.061">
        <ele>1127.28</ele>
        <time>2012-06-01T13:09:57Z</time>
      </trkpt>
      <trkpt lat="46.69085" lon="6.06092">
        <ele>1123.92</ele>
        <time>2012-06-01T13:10:00Z</time>
      </trkpt>
      <trkpt lat="46.6908" lon="6.06087">
        <ele>1124.4</ele>
        <time>2012-06-01T13:10:01Z</time>
      </trkpt>
      <trkpt lat="46.69076" lon="6.06081">
        <ele>1123.44</ele>
        <time>2012-06-01T13:10:02Z</time>
      </trkpt>
      <trkpt lat="46.69072" lon="6.06075">
        <ele>1122</ele>
        <time>2012-06-01T13:10:03Z</time>
      </trkpt>
      <trkpt lat="46.69068" lon="6.06067">
        <ele>1121.52</ele>
        <time>2012-06-01T13:10:04Z</time>
      </trkpt>
      <trkpt lat="46.69064" lon="6.06058">
        <ele>1122.48</ele>
        <time>2012-06-01T13:10:05Z</time>
      </trkpt>
      <trkpt lat="46.6906" lon="6.06049">
        <ele>1119.11</ele>
        <time>2012-06-01T13:10:06Z</time>
      </trkpt>
      <trkpt lat="46.69004" lon="6.05947">
        <ele>1118.15</ele>
        <time>2012-06-01T13:10:17Z</time>
      </trkpt>
      <trkpt lat="46.68999" lon="6.05938">
        <ele>1118.15</ele>
        <time>2012-06-01T13:10:18Z</time>
      </trkpt>
      <trkpt lat="46.68995" lon="6.0593">
        <ele>1117.67</ele>
        <time>2012-06-01T13:10:19Z</time>
      </trkpt>
      <trkpt lat="46.68992" lon="6.0592">
        <ele>1114.79</ele>
        <time>2012-06-01T13:10:20Z</time>
      </trkpt>
      <trkpt lat="46.68989" lon="6.0591">
        <ele>1116.23</ele>
        <time>2012-06-01T13:10:21Z</time>
      </trkpt>
      <trkpt lat="46.68986" lon="6.05901">
        <ele>1115.27</ele>
        <time>2012-06-01T13:10:22Z</time>
      </trkpt>
      <trkpt lat="46.68983" lon="6.05893">
        <ele>1118.63</ele>
        <time>2012-06-01T13:10:23Z</time>
      </trkpt>
      <trkpt lat="46.68971" lon="6.05858">
        <ele>1115.27</ele>
        <time>2012-06-01T13:10:27Z</time>
      </trkpt>
      <trkpt lat="46.68961" lon="6.05827">
        <ele>1113.82</ele>
        <time>2012-06-01T13:10:30Z</time>
      </trkpt>
      <trkpt lat="46.68957" lon="6.05817">
        <ele>1113.34</ele>
        <time>2012-06-01T13:10:31Z</time>
      </trkpt>
      <trkpt lat="46.68953" lon="6.05807">
        <ele>1111.9</ele>
        <time>2012-06-01T13:10:32Z</time>
      </trkpt>
      <trkpt lat="46.68948" lon="6.05796">
        <ele>1111.9</ele>
        <time>2012-06-01T13:10:33Z</time>
      </trkpt>
      <trkpt lat="46.68944" lon="6.05786">
        <ele>1110.94</ele>
        <time>2012-06-01T13:10:34Z</time>
      </trkpt>
      <trkpt lat="46.68939" lon="6.05776">
        <ele>1111.42</ele>
        <time>2012-06-01T13:10:35Z</time>
      </trkpt>
      <trkpt lat="46.68916" lon="6.05736">
        <ele>1107.1</ele>
        <time>2012-06-01T13:10:39Z</time>
      </trkpt>
      <trkpt lat="46.68873" lon="6.05649">
        <ele>1106.13</ele>
        <time>2012-06-01T13:10:47Z</time>
      </trkpt>
      <trkpt lat="46.6886" lon="6.05623">
        <ele>1106.13</ele>
        <time>2012-06-01T13:10:50Z</time>
      </trkpt>
      <trkpt lat="46.68846" lon="6.056">
        <ele>1104.21</ele>
        <time>2012-06-01T13:10:53Z</time>
      </trkpt>
      <trkpt lat="46.68799" lon="6.05539">
        <ele>1100.37</ele>
        <time>2012-06-01T13:11:01Z</time>
      </trkpt>
      <trkpt lat="46.68793" lon="6.05532">
        <ele>1100.37</ele>
        <time>2012-06-01T13:11:02Z</time>
      </trkpt>
      <trkpt lat="46.68765" lon="6.05486">
        <ele>1097.48</ele>
        <time>2012-06-01T13:11:07Z</time>
      </trkpt>
      <trkpt lat="46.68747" lon="6.05453">
        <ele>1096.04</ele>
        <time>2012-06-01T13:11:10Z</time>
      </trkpt>
      <trkpt lat="46.68718" lon="6.05411">
        <ele>1093.16</ele>
        <time>2012-06-01T13:11:14Z</time>
      </trkpt>
      <trkpt lat="46.68681" lon="6.05343">
        <ele>1091.23</ele>
        <time>2012-06-01T13:11:20Z</time>
      </trkpt>
      <trkpt lat="46.68663" lon="6.0531">
        <ele>1089.79</ele>
        <time>2012-06-01T13:11:23Z</time>
      </trkpt>
      <trkpt lat="46.68646" lon="6.05278">
        <ele>1084.99</ele>
        <time>2012-06-01T13:11:26Z</time>
      </trkpt>
      <trkpt lat="46.6864" lon="6.05268">
        <ele>1087.39</ele>
        <time>2012-06-01T13:11:27Z</time>
      </trkpt>
      <trkpt lat="46.68615" lon="6.05231">
        <ele>1086.91</ele>
        <time>2012-06-01T13:11:31Z</time>
      </trkpt>
      <trkpt lat="46.68608" lon="6.05224">
        <ele>1087.39</ele>
        <time>2012-06-01T13:11:32Z</time>
      </trkpt>
      <trkpt lat="46.68587" lon="6.05208">
        <ele>1085.47</ele>
        <time>2012-06-01T13:11:35Z</time>
      </trkpt>
      <trkpt lat="46.6853" lon="6.05154">
        <ele>1086.91</ele>
        <time>2012-06-01T13:11:46Z</time>
      </trkpt>
      <trkpt lat="46.68515" lon="6.05141">
        <ele>1084.99</ele>
        <time>2012-06-01T13:11:49Z</time>
      </trkpt>
      <trkpt lat="46.6851" lon="6.05134">
        <ele>1084.99</ele>
        <time>2012-06-01T13:11:50Z</time>
      </trkpt>
      <trkpt lat="46.68475" lon="6.05094">
        <ele>1081.62</ele>
        <time>2012-06-01T13:11:56Z</time>
      </trkpt>
      <trkpt lat="46.68419" lon="6.05034">
        <ele>1080.18</ele>
        <time>2012-06-01T13:12:05Z</time>
      </trkpt>
      <trkpt lat="46.68413" lon="6.0503">
        <ele>1083.06</ele>
        <time>2012-06-01T13:12:06Z</time>
      </trkpt>
      <trkpt lat="46.68393" lon="6.05017">
        <ele>1079.22</ele>
        <time>2012-06-01T13:12:09Z</time>
      </trkpt>
      <trkpt lat="46.68355" lon="6.04992">
        <ele>1075.37</ele>
        <time>2012-06-01T13:12:14Z</time>
      </trkpt>
      <trkpt lat="46.68325" lon="6.04969">
        <ele>1072.97</ele>
        <time>2012-06-01T13:12:18Z</time>
      </trkpt>
      <trkpt lat="46.68282" lon="6.04934">
        <ele>1071.53</ele>
        <time>2012-06-01T13:12:24Z</time>
      </trkpt>
      <trkpt lat="46.6826" lon="6.04914">
        <ele>1071.53</ele>
        <time>2012-06-01T13:12:27Z</time>
      </trkpt>
      <trkpt lat="46.68255" lon="6.04907">
        <ele>1069.6</ele>
        <time>2012-06-01T13:12:28Z</time>
      </trkpt>
      <trkpt lat="46.68249" lon="6.04898">
        <ele>1068.16</ele>
        <time>2012-06-01T13:12:29Z</time>
      </trkpt>
      <trkpt lat="46.68244" lon="6.04889">
        <ele>1069.12</ele>
        <time>2012-06-01T13:12:30Z</time>
      </trkpt>
      <trkpt lat="46.68202" lon="6.04811">
        <ele>1064.8</ele>
        <time>2012-06-01T13:12:38Z</time>
      </trkpt>
      <trkpt lat="46.68181" lon="6.04768">
        <ele>1061.43</ele>
        <time>2012-06-01T13:12:42Z</time>
      </trkpt>
      <trkpt lat="46.68143" lon="6.04693">
        <ele>1065.28</ele>
        <time>2012-06-01T13:12:50Z</time>
      </trkpt>
      <trkpt lat="46.68127" lon="6.0466">
        <ele>1062.39</ele>
        <time>2012-06-01T13:12:54Z</time>
      </trkpt>
      <trkpt lat="46.68108" lon="6.04621">
        <ele>1058.07</ele>
        <time>2012-06-01T13:12:58Z</time>
      </trkpt>
      <trkpt lat="46.68103" lon="6.04611">
        <ele>1058.07</ele>
        <time>2012-06-01T13:12:59Z</time>
      </trkpt>
      <trkpt lat="46.68084" lon="6.04575">
        <ele>1057.11</ele>
        <time>2012-06-01T13:13:03Z</time>
      </trkpt>
      <trkpt lat="46.68063" lon="6.04537">
        <ele>1059.03</ele>
        <time>2012-06-01T13:13:08Z</time>
      </trkpt>
      <trkpt lat="46.6806" lon="6.04528">
        <ele>1057.59</ele>
        <time>2012-06-01T13:13:09Z</time>
      </trkpt>
      <trkpt lat="46.6804" lon="6.04492">
        <ele>1055.18</ele>
        <time>2012-06-01T13:13:17Z</time>
      </trkpt>
      <trkpt lat="46.68038" lon="6.04491">
        <ele>1054.7</ele>
        <time>2012-06-01T13:13:18Z</time>
      </trkpt>
      <trkpt lat="46.68037" lon="6.0449">
        <ele>1056.15</ele>
        <time>2012-06-01T13:13:19Z</time>
      </trkpt>
      <trkpt lat="46.68034" lon="6.04487">
        <ele>1056.15</ele>
        <time>2012-06-01T13:13:21Z</time>
      </trkpt>
      <trkpt lat="46.68032" lon="6.04487">
        <ele>1057.11</ele>
        <time>2012-06-01T13:13:22Z</time>
      </trkpt>
      <trkpt lat="46.6803" lon="6.04488">
        <ele>1055.18</ele>
        <time>2012-06-01T13:13:23Z</time>
      </trkpt>
      <trkpt lat="46.68029" lon="6.04489">
        <ele>1057.59</ele>
        <time>2012-06-01T13:13:24Z</time>
      </trkpt>
      <trkpt lat="46.68028" lon="6.04491">
        <ele>1056.15</ele>
        <time>2012-06-01T13:13:25Z</time>
      </trkpt>
      <trkpt lat="46.68027" lon="6.04493">
        <ele>1055.67</ele>
        <time>2012-06-01T13:13:26Z</time>
      </trkpt>
      <trkpt lat="46.68025" lon="6.04495">
        <ele>1055.67</ele>
        <time>2012-06-01T13:13:27Z</time>
      </trkpt>
      <trkpt lat="46.68023" lon="6.04498">
        <ele>1056.15</ele>
        <time>2012-06-01T13:13:28Z</time>
      </trkpt>
      <trkpt lat="46.68021" lon="6.04501">
        <ele>1056.15</ele>
        <time>2012-06-01T13:13:29Z</time>
      </trkpt>
      <trkpt lat="46.68019" lon="6.04504">
        <ele>1057.11</ele>
        <time>2012-06-01T13:13:30Z</time>
      </trkpt>
      <trkpt lat="46.68016" lon="6.04506">
        <ele>1054.7</ele>
        <time>2012-06-01T13:13:31Z</time>
      </trkpt>
      <trkpt lat="46.68013" lon="6.04507">
        <ele>1056.63</ele>
        <time>2012-06-01T13:13:32Z</time>
      </trkpt>
      <trkpt lat="46.68011" lon="6.04508">
        <ele>1056.63</ele>
        <time>2012-06-01T13:13:33Z</time>
      </trkpt>
      <trkpt lat="46.68009" lon="6.0451">
        <ele>1056.63</ele>
        <time>2012-06-01T13:13:34Z</time>
      </trkpt>
      <trkpt lat="46.67987" lon="6.04533">
        <ele>1055.18</ele>
        <time>2012-06-01T13:13:46Z</time>
      </trkpt>
      <trkpt lat="46.67986" lon="6.04535">
        <ele>1054.7</ele>
        <time>2012-06-01T13:14:28Z</time>
      </trkpt>
      <trkpt lat="46.67978" lon="6.04546">
        <ele>1051.34</ele>
        <time>2012-06-01T13:14:32Z</time>
      </trkpt>
      <trkpt lat="46.67973" lon="6.0455">
        <ele>1051.34</ele>
        <time>2012-06-01T13:14:33Z</time>
      </trkpt>
      <trkpt lat="46.67963" lon="6.04559">
        <ele>1051.82</ele>
        <time>2012-06-01T13:14:35Z</time>
      </trkpt>
      <trkpt lat="46.67956" lon="6.04563">
        <ele>1051.82</ele>
        <time>2012-06-01T13:14:36Z</time>
      </trkpt>
      <trkpt lat="46.67949" lon="6.04566">
        <ele>1051.82</ele>
        <time>2012-06-01T13:14:37Z</time>
      </trkpt>
      <trkpt lat="46.67934" lon="6.04576">
        <ele>1047.97</ele>
        <time>2012-06-01T13:14:39Z</time>
      </trkpt>
      <trkpt lat="46.67919" lon="6.04586">
        <ele>1046.53</ele>
        <time>2012-06-01T13:14:41Z</time>
      </trkpt>
      <trkpt lat="46.67888" lon="6.04614">
        <ele>1046.05</ele>
        <time>2012-06-01T13:14:46Z</time>
      </trkpt>
      <trkpt lat="46.67883" lon="6.04617">
        <ele>1045.09</ele>
        <time>2012-06-01T13:14:47Z</time>
      </trkpt>
      <trkpt lat="46.67877" lon="6.04619">
        <ele>1046.05</ele>
        <time>2012-06-01T13:14:48Z</time>
      </trkpt>
      <trkpt lat="46.67859" lon="6.04621">
        <ele>1044.61</ele>
        <time>2012-06-01T13:14:51Z</time>
      </trkpt>
      <trkpt lat="46.67819" lon="6.04624">
        <ele>1044.61</ele>
        <time>2012-06-01T13:14:58Z</time>
      </trkpt>
      <trkpt lat="46.67813" lon="6.04626">
        <ele>1042.69</ele>
        <time>2012-06-01T13:14:59Z</time>
      </trkpt>
      <trkpt lat="46.67792" lon="6.04633">
        <ele>1043.65</ele>
        <time>2012-06-01T13:15:03Z</time>
      </trkpt>
      <trkpt lat="46.67788" lon="6.04634">
        <ele>1042.21</ele>
        <time>2012-06-01T13:15:04Z</time>
      </trkpt>
      <trkpt lat="46.67784" lon="6.04635">
        <ele>1043.17</ele>
        <time>2012-06-01T13:15:05Z</time>
      </trkpt>
      <trkpt lat="46.6778" lon="6.04636">
        <ele>1044.13</ele>
        <time>2012-06-01T13:15:06Z</time>
      </trkpt>
      <trkpt lat="46.67776" lon="6.04636">
        <ele>1041.73</ele>
        <time>2012-06-01T13:15:07Z</time>
      </trkpt>
      <trkpt lat="46.67772" lon="6.04636">
        <ele>1041.73</ele>
        <time>2012-06-01T13:15:08Z</time>
      </trkpt>
      <trkpt lat="46.67769" lon="6.04636">
        <ele>1044.61</ele>
        <time>2012-06-01T13:15:09Z</time>
      </trkpt>
      <trkpt lat="46.6774" lon="6.04634">
        <ele>1041.25</ele>
        <time>2012-06-01T13:15:16Z</time>
      </trkpt>
      <trkpt lat="46.6773" lon="6.0463">
        <ele>1042.69</ele>
        <time>2012-06-01T13:15:19Z</time>
      </trkpt>
      <trkpt lat="46.67706" lon="6.04607">
        <ele>1042.21</ele>
        <time>2012-06-01T13:15:27Z</time>
      </trkpt>
      <trkpt lat="46.67704" lon="6.04603">
        <ele>1042.69</ele>
        <time>2012-06-01T13:15:28Z</time>
      </trkpt>
      <trkpt lat="46.67702" lon="6.04599">
        <ele>1044.13</ele>
        <time>2012-06-01T13:15:29Z</time>
      </trkpt>
      <trkpt lat="46.677" lon="6.04595">
        <ele>1043.65</ele>
        <time>2012-06-01T13:15:30Z</time>
      </trkpt>
      <trkpt lat="46.6768" lon="6.04559">
        <ele>1039.32</ele>
        <time>2012-06-01T13:15:39Z</time>
      </trkpt>
      <trkpt lat="46.67677" lon="6.04554">
        <ele>1043.65</ele>
        <time>2012-06-01T13:15:40Z</time>
      </trkpt>
      <trkpt lat="46.67667" lon="6.04538">
        <ele>1044.13</ele>
        <time>2012-06-01T13:15:43Z</time>
      </trkpt>
      <trkpt lat="46.67657" lon="6.0452">
        <ele>1042.21</ele>
        <time>2012-06-01T13:15:47Z</time>
      </trkpt>
      <trkpt lat="46.6763" lon="6.04474">
        <ele>1042.69</ele>
        <time>2012-06-01T13:15:57Z</time>
      </trkpt>
      <trkpt lat="46.67614" lon="6.04458">
        <ele>1042.21</ele>
        <time>2012-06-01T13:16:01Z</time>
      </trkpt>
      <trkpt lat="46.67595" lon="6.04435">
        <ele>1043.17</ele>
        <time>2012-06-01T13:16:06Z</time>
      </trkpt>
      <trkpt lat="46.67593" lon="6.0443">
        <ele>1041.25</ele>
        <time>2012-06-01T13:16:07Z</time>
      </trkpt>
      <trkpt lat="46.6759" lon="6.04418">
        <ele>1039.8</ele>
        <time>2012-06-01T13:16:09Z</time>
      </trkpt>
      <trkpt lat="46.6759" lon="6.04408">
        <ele>1041.25</ele>
        <time>2012-06-01T13:16:10Z</time>
      </trkpt>
      <trkpt lat="46.67589" lon="6.04399">
        <ele>1040.76</ele>
        <time>2012-06-01T13:16:11Z</time>
      </trkpt>
      <trkpt lat="46.67587" lon="6.04365">
        <ele>1041.25</ele>
        <time>2012-06-01T13:16:14Z</time>
      </trkpt>
      <trkpt lat="46.67586" lon="6.04345">
        <ele>1039.8</ele>
        <time>2012-06-01T13:16:16Z</time>
      </trkpt>
      <trkpt lat="46.67585" lon="6.04328">
        <ele>1041.25</ele>
        <time>2012-06-01T13:16:18Z</time>
      </trkpt>
      <trkpt lat="46.67577" lon="6.04272">
        <ele>1040.76</ele>
        <time>2012-06-01T13:16:25Z</time>
      </trkpt>
      <trkpt lat="46.67573" lon="6.04255">
        <ele>1044.61</ele>
        <time>2012-06-01T13:16:27Z</time>
      </trkpt>
      <trkpt lat="46.67571" lon="6.04247">
        <ele>1044.13</ele>
        <time>2012-06-01T13:16:28Z</time>
      </trkpt>
      <trkpt lat="46.67565" lon="6.04233">
        <ele>1046.05</ele>
        <time>2012-06-01T13:16:30Z</time>
      </trkpt>
      <trkpt lat="46.67561" lon="6.04222">
        <ele>1036.92</ele>
        <time>2012-06-01T13:16:32Z</time>
      </trkpt>
      <trkpt lat="46.67559" lon="6.04218">
        <ele>1054.22</ele>
        <time>2012-06-01T13:16:33Z</time>
      </trkpt>
      <trkpt lat="46.67557" lon="6.04214">
        <ele>1046.05</ele>
        <time>2012-06-01T13:16:34Z</time>
      </trkpt>
      <trkpt lat="46.67532" lon="6.04191">
        <ele>1043.65</ele>
        <time>2012-06-01T13:16:43Z</time>
      </trkpt>
      <trkpt lat="46.67525" lon="6.04186">
        <ele>1044.13</ele>
        <time>2012-06-01T13:16:45Z</time>
      </trkpt>
      <trkpt lat="46.67521" lon="6.0418">
        <ele>1043.17</ele>
        <time>2012-06-01T13:16:46Z</time>
      </trkpt>
      <trkpt lat="46.67518" lon="6.04174">
        <ele>1042.69</ele>
        <time>2012-06-01T13:16:47Z</time>
      </trkpt>
      <trkpt lat="46.67516" lon="6.04165">
        <ele>1041.25</ele>
        <time>2012-06-01T13:16:48Z</time>
      </trkpt>
      <trkpt lat="46.67515" lon="6.04156">
        <ele>1040.76</ele>
        <time>2012-06-01T13:16:49Z</time>
      </trkpt>
      <trkpt lat="46.67515" lon="6.04146">
        <ele>1041.25</ele>
        <time>2012-06-01T13:16:50Z</time>
      </trkpt>
      <trkpt lat="46.67515" lon="6.04136">
        <ele>1039.8</ele>
        <time>2012-06-01T13:16:51Z</time>
      </trkpt>
      <trkpt lat="46.67514" lon="6.04125">
        <ele>1039.32</ele>
        <time>2012-06-01T13:16:52Z</time>
      </trkpt>
      <trkpt lat="46.67512" lon="6.04115">
        <ele>1040.28</ele>
        <time>2012-06-01T13:16:53Z</time>
      </trkpt>
      <trkpt lat="46.67509" lon="6.04105">
        <ele>1038.84</ele>
        <time>2012-06-01T13:16:54Z</time>
      </trkpt>
      <trkpt lat="46.67504" lon="6.04096">
        <ele>1038.84</ele>
        <time>2012-06-01T13:16:55Z</time>
      </trkpt>
      <trkpt lat="46.67499" lon="6.04086">
        <ele>1038.36</ele>
        <time>2012-06-01T13:16:56Z</time>
      </trkpt>
      <trkpt lat="46.67488" lon="6.04068">
        <ele>1037.4</ele>
        <time>2012-06-01T13:16:58Z</time>
      </trkpt>
      <trkpt lat="46.67447" lon="6.04024">
        <ele>1035.96</ele>
        <time>2012-06-01T13:17:05Z</time>
      </trkpt>
      <trkpt lat="46.67425" lon="6.04009">
        <ele>1035</ele>
        <time>2012-06-01T13:17:09Z</time>
      </trkpt>
      <trkpt lat="46.6742" lon="6.04005">
        <ele>1034.52</ele>
        <time>2012-06-01T13:17:10Z</time>
      </trkpt>
      <trkpt lat="46.67416" lon="6.04">
        <ele>1037.88</ele>
        <time>2012-06-01T13:17:11Z</time>
      </trkpt>
      <trkpt lat="46.67412" lon="6.03995">
        <ele>1032.59</ele>
        <time>2012-06-01T13:17:12Z</time>
      </trkpt>
      <trkpt lat="46.67408" lon="6.03991">
        <ele>1034.52</ele>
        <time>2012-06-01T13:17:13Z</time>
      </trkpt>
      <trkpt lat="46.67404" lon="6.03987">
        <ele>1034.52</ele>
        <time>2012-06-01T13:17:14Z</time>
      </trkpt>
      <trkpt lat="46.67378" lon="6.03958">
        <ele>1034.52</ele>
        <time>2012-06-01T13:17:22Z</time>
      </trkpt>
      <trkpt lat="46.67374" lon="6.03955">
        <ele>1035.48</ele>
        <time>2012-06-01T13:17:23Z</time>
      </trkpt>
      <trkpt lat="46.67365" lon="6.03945">
        <ele>1034.52</ele>
        <time>2012-06-01T13:17:25Z</time>
      </trkpt>
      <trkpt lat="46.67354" lon="6.0393">
        <ele>1035.48</ele>
        <time>2012-06-01T13:17:28Z</time>
      </trkpt>
      <trkpt lat="46.67323" lon="6.03879">
        <ele>1035.48</ele>
        <time>2012-06-01T13:17:38Z</time>
      </trkpt>
      <trkpt lat="46.67316" lon="6.03866">
        <ele>1036.92</ele>
        <time>2012-06-01T13:17:40Z</time>
      </trkpt>
      <trkpt lat="46.67297" lon="6.03831">
        <ele>1035.48</ele>
        <time>2012-06-01T13:17:46Z</time>
      </trkpt>
      <trkpt lat="46.67294" lon="6.03825">
        <ele>1034.52</ele>
        <time>2012-06-01T13:17:47Z</time>
      </trkpt>
      <trkpt lat="46.6726" lon="6.03772">
        <ele>1033.07</ele>
        <time>2012-06-01T13:17:58Z</time>
      </trkpt>
      <trkpt lat="46.6722" lon="6.03733">
        <ele>1031.63</ele>
        <time>2012-06-01T13:18:07Z</time>
      </trkpt>
      <trkpt lat="46.67187" lon="6.03696">
        <ele>1028.27</ele>
        <time>2012-06-01T13:18:12Z</time>
      </trkpt>
      <trkpt lat="46.67181" lon="6.03689">
        <ele>1027.79</ele>
        <time>2012-06-01T13:18:13Z</time>
      </trkpt>
      <trkpt lat="46.67128" lon="6.03618">
        <ele>1026.34</ele>
        <time>2012-06-01T13:18:24Z</time>
      </trkpt>
      <trkpt lat="46.6711" lon="6.03589">
        <ele>1021.54</ele>
        <time>2012-06-01T13:18:28Z</time>
      </trkpt>
      <trkpt lat="46.67106" lon="6.03583">
        <ele>1021.06</ele>
        <time>2012-06-01T13:18:29Z</time>
      </trkpt>
      <trkpt lat="46.67091" lon="6.03562">
        <ele>1018.65</ele>
        <time>2012-06-01T13:18:33Z</time>
      </trkpt>
      <trkpt lat="46.67089" lon="6.03556">
        <ele>1019.13</ele>
        <time>2012-06-01T13:18:34Z</time>
      </trkpt>
      <trkpt lat="46.67089" lon="6.03549">
        <ele>1016.25</ele>
        <time>2012-06-01T13:18:35Z</time>
      </trkpt>
      <trkpt lat="46.6709" lon="6.03541">
        <ele>1016.25</ele>
        <time>2012-06-01T13:18:36Z</time>
      </trkpt>
      <trkpt lat="46.67093" lon="6.03533">
        <ele>1015.77</ele>
        <time>2012-06-01T13:18:37Z</time>
      </trkpt>
      <trkpt lat="46.67096" lon="6.03526">
        <ele>1014.33</ele>
        <time>2012-06-01T13:18:38Z</time>
      </trkpt>
      <trkpt lat="46.67099" lon="6.0352">
        <ele>1015.29</ele>
        <time>2012-06-01T13:18:39Z</time>
      </trkpt>
      <trkpt lat="46.67102" lon="6.03514">
        <ele>1013.37</ele>
        <time>2012-06-01T13:18:40Z</time>
      </trkpt>
      <trkpt lat="46.67108" lon="6.03503">
        <ele>1011.93</ele>
        <time>2012-06-01T13:18:42Z</time>
      </trkpt>
      <trkpt lat="46.67111" lon="6.03497">
        <ele>1010.48</ele>
        <time>2012-06-01T13:18:43Z</time>
      </trkpt>
      <trkpt lat="46.67115" lon="6.03482">
        <ele>1009.52</ele>
        <time>2012-06-01T13:18:46Z</time>
      </trkpt>
      <trkpt lat="46.67114" lon="6.03476">
        <ele>1010</ele>
        <time>2012-06-01T13:18:47Z</time>
      </trkpt>
      <trkpt lat="46.67113" lon="6.03469">
        <ele>1008.56</ele>
        <time>2012-06-01T13:18:48Z</time>
      </trkpt>
      <trkpt lat="46.67111" lon="6.03463">
        <ele>1007.6</ele>
        <time>2012-06-01T13:18:49Z</time>
      </trkpt>
      <trkpt lat="46.67109" lon="6.03457">
        <ele>1010.96</ele>
        <time>2012-06-01T13:18:50Z</time>
      </trkpt>
      <trkpt lat="46.67108" lon="6.03453">
        <ele>1006.64</ele>
        <time>2012-06-01T13:18:51Z</time>
      </trkpt>
      <trkpt lat="46.67104" lon="6.03444">
        <ele>1007.12</ele>
        <time>2012-06-01T13:18:54Z</time>
      </trkpt>
      <trkpt lat="46.67103" lon="6.03443">
        <ele>1006.64</ele>
        <time>2012-06-01T13:18:55Z</time>
      </trkpt>
      <trkpt lat="46.67101" lon="6.03442">
        <ele>1006.64</ele>
        <time>2012-06-01T13:18:56Z</time>
      </trkpt>
      <trkpt lat="46.67093" lon="6.03437">
        <ele>1006.64</ele>
        <time>2012-06-01T13:19:01Z</time>
      </trkpt>
      <trkpt lat="46.67091" lon="6.03437">
        <ele>1006.16</ele>
        <time>2012-06-01T13:19:02Z</time>
      </trkpt>
      <trkpt lat="46.67089" lon="6.03436">
        <ele>1004.72</ele>
        <time>2012-06-01T13:19:03Z</time>
      </trkpt>
      <trkpt lat="46.67087" lon="6.03435">
        <ele>1006.16</ele>
        <time>2012-06-01T13:19:04Z</time>
      </trkpt>
      <trkpt lat="46.67085" lon="6.03433">
        <ele>1005.2</ele>
        <time>2012-06-01T13:19:05Z</time>
      </trkpt>
      <trkpt lat="46.67083" lon="6.03432">
        <ele>1005.68</ele>
        <time>2012-06-01T13:19:06Z</time>
      </trkpt>
      <trkpt lat="46.67081" lon="6.03431">
        <ele>1006.64</ele>
        <time>2012-06-01T13:19:07Z</time>
      </trkpt>
      <trkpt lat="46.67079" lon="6.0343">
        <ele>1006.16</ele>
        <time>2012-06-01T13:19:08Z</time>
      </trkpt>
      <trkpt lat="46.67077" lon="6.0343">
        <ele>1007.12</ele>
        <time>2012-06-01T13:19:09Z</time>
      </trkpt>
      <trkpt lat="46.67074" lon="6.03427">
        <ele>1006.64</ele>
        <time>2012-06-01T13:19:10Z</time>
      </trkpt>
      <trkpt lat="46.67071" lon="6.03424">
        <ele>1006.16</ele>
        <time>2012-06-01T13:19:11Z</time>
      </trkpt>
      <trkpt lat="46.67052" lon="6.03409">
        <ele>1002.79</ele>
        <time>2012-06-01T13:19:18Z</time>
      </trkpt>
      <trkpt lat="46.6705" lon="6.03409">
        <ele>1002.79</ele>
        <time>2012-06-01T13:19:19Z</time>
      </trkpt>
      <trkpt lat="46.67047" lon="6.03407">
        <ele>1003.27</ele>
        <time>2012-06-01T13:19:20Z</time>
      </trkpt>
      <trkpt lat="46.67045" lon="6.03404">
        <ele>1003.27</ele>
        <time>2012-06-01T13:19:21Z</time>
      </trkpt>
      <trkpt lat="46.67042" lon="6.03401">
        <ele>1001.83</ele>
        <time>2012-06-01T13:19:23Z</time>
      </trkpt>
      <trkpt lat="46.67039" lon="6.03399">
        <ele>1001.35</ele>
        <time>2012-06-01T13:19:25Z</time>
      </trkpt>
      <trkpt lat="46.67039" lon="6.03416">
        <ele>1000.87</ele>
        <time>2012-06-01T13:19:31Z</time>
      </trkpt>
      <trkpt lat="46.67039" lon="6.03427">
        <ele>999.43</ele>
        <time>2012-06-01T13:19:34Z</time>
      </trkpt>
      <trkpt lat="46.67039" lon="6.03431">
        <ele>996.54</ele>
        <time>2012-06-01T13:19:35Z</time>
      </trkpt>
      <trkpt lat="46.67035" lon="6.03438">
        <ele>995.58</ele>
        <time>2012-06-01T13:19:37Z</time>
      </trkpt>
      <trkpt lat="46.67028" lon="6.03449">
        <ele>994.14</ele>
        <time>2012-06-01T13:19:40Z</time>
      </trkpt>
      <trkpt lat="46.67011" lon="6.03469">
        <ele>991.26</ele>
        <time>2012-06-01T13:19:48Z</time>
      </trkpt>
      <trkpt lat="46.67008" lon="6.03468">
        <ele>989.81</ele>
        <time>2012-06-01T13:19:59Z</time>
      </trkpt>
      <trkpt lat="46.67006" lon="6.03465">
        <ele>989.33</ele>
        <time>2012-06-01T13:20:17Z</time>
      </trkpt>
      <trkpt lat="46.6701" lon="6.03457">
        <ele>989.33</ele>
        <time>2012-06-01T13:20:21Z</time>
      </trkpt>
      <trkpt lat="46.67013" lon="6.03444">
        <ele>987.89</ele>
        <time>2012-06-01T13:20:25Z</time>
      </trkpt>
      <trkpt lat="46.67013" lon="6.03439">
        <ele>986.93</ele>
        <time>2012-06-01T13:20:27Z</time>
      </trkpt>
      <trkpt lat="46.67009" lon="6.03429">
        <ele>988.85</ele>
        <time>2012-06-01T13:20:33Z</time>
      </trkpt>
      <trkpt lat="46.67006" lon="6.03427">
        <ele>986.93</ele>
        <time>2012-06-01T13:20:35Z</time>
      </trkpt>
      <trkpt lat="46.67" lon="6.0342">
        <ele>985.49</ele>
        <time>2012-06-01T13:20:37Z</time>
      </trkpt>
      <trkpt lat="46.66982" lon="6.03392">
        <ele>985.01</ele>
        <time>2012-06-01T13:20:43Z</time>
      </trkpt>
      <trkpt lat="46.66979" lon="6.03388">
        <ele>985.01</ele>
        <time>2012-06-01T13:20:44Z</time>
      </trkpt>
      <trkpt lat="46.66976" lon="6.03384">
        <ele>984.53</ele>
        <time>2012-06-01T13:20:45Z</time>
      </trkpt>
      <trkpt lat="46.66973" lon="6.03379">
        <ele>984.05</ele>
        <time>2012-06-01T13:20:46Z</time>
      </trkpt>
      <trkpt lat="46.6697" lon="6.03374">
        <ele>984.05</ele>
        <time>2012-06-01T13:20:47Z</time>
      </trkpt>
      <trkpt lat="46.66968" lon="6.03368">
        <ele>983.57</ele>
        <time>2012-06-01T13:20:48Z</time>
      </trkpt>
      <trkpt lat="46.66964" lon="6.03364">
        <ele>983.57</ele>
        <time>2012-06-01T13:20:49Z</time>
      </trkpt>
      <trkpt lat="46.6696" lon="6.03361">
        <ele>984.53</ele>
        <time>2012-06-01T13:20:50Z</time>
      </trkpt>
      <trkpt lat="46.66957" lon="6.03358">
        <ele>983.57</ele>
        <time>2012-06-01T13:20:51Z</time>
      </trkpt>
      <trkpt lat="46.66955" lon="6.03353">
        <ele>984.05</ele>
        <time>2012-06-01T13:20:52Z</time>
      </trkpt>
      <trkpt lat="46.66954" lon="6.03348">
        <ele>984.53</ele>
        <time>2012-06-01T13:20:53Z</time>
      </trkpt>
      <trkpt lat="46.66951" lon="6.03344">
        <ele>984.05</ele>
        <time>2012-06-01T13:20:54Z</time>
      </trkpt>
      <trkpt lat="46.66948" lon="6.0334">
        <ele>984.05</ele>
        <time>2012-06-01T13:20:55Z</time>
      </trkpt>
      <trkpt lat="46.66944" lon="6.03336">
        <ele>983.09</ele>
        <time>2012-06-01T13:20:56Z</time>
      </trkpt>
      <trkpt lat="46.66941" lon="6.03331">
        <ele>983.57</ele>
        <time>2012-06-01T13:20:57Z</time>
      </trkpt>
      <trkpt lat="46.66939" lon="6.03326">
        <ele>982.6</ele>
        <time>2012-06-01T13:20:58Z</time>
      </trkpt>
      <trkpt lat="46.66936" lon="6.0332">
        <ele>982.12</ele>
        <time>2012-06-01T13:20:59Z</time>
      </trkpt>
      <trkpt lat="46.66929" lon="6.03306">
        <ele>980.68</ele>
        <time>2012-06-01T13:21:01Z</time>
      </trkpt>
      <trkpt lat="46.66925" lon="6.033">
        <ele>979.72</ele>
        <time>2012-06-01T13:21:02Z</time>
      </trkpt>
      <trkpt lat="46.66921" lon="6.03296">
        <ele>979.24</ele>
        <time>2012-06-01T13:21:03Z</time>
      </trkpt>
      <trkpt lat="46.66917" lon="6.03295">
        <ele>979.72</ele>
        <time>2012-06-01T13:21:04Z</time>
      </trkpt>
      <trkpt lat="46.66913" lon="6.03294">
        <ele>978.76</ele>
        <time>2012-06-01T13:21:05Z</time>
      </trkpt>
      <trkpt lat="46.66908" lon="6.03294">
        <ele>979.24</ele>
        <time>2012-06-01T13:21:06Z</time>
      </trkpt>
      <trkpt lat="46.66903" lon="6.03294">
        <ele>980.2</ele>
        <time>2012-06-01T13:21:07Z</time>
      </trkpt>
      <trkpt lat="46.66899" lon="6.03293">
        <ele>978.76</ele>
        <time>2012-06-01T13:21:08Z</time>
      </trkpt>
      <trkpt lat="46.66897" lon="6.03293">
        <ele>978.28</ele>
        <time>2012-06-01T13:21:09Z</time>
      </trkpt>
      <trkpt lat="46.66894" lon="6.03291">
        <ele>978.76</ele>
        <time>2012-06-01T13:21:10Z</time>
      </trkpt>
      <trkpt lat="46.66873" lon="6.03278">
        <ele>974.91</ele>
        <time>2012-06-01T13:21:15Z</time>
      </trkpt>
      <trkpt lat="46.66867" lon="6.03273">
        <ele>975.39</ele>
        <time>2012-06-01T13:21:16Z</time>
      </trkpt>
      <trkpt lat="46.66863" lon="6.03271">
        <ele>973.47</ele>
        <time>2012-06-01T13:21:18Z</time>
      </trkpt>
      <trkpt lat="46.66856" lon="6.03268">
        <ele>972.99</ele>
        <time>2012-06-01T13:21:29Z</time>
      </trkpt>
      <trkpt lat="46.66856" lon="6.03268">
        <ele>973.47</ele>
        <time>2012-06-01T13:21:52Z</time>
      </trkpt>
      <trkpt lat="46.66856" lon="6.03268">
        <ele>972.99</ele>
        <time>2012-06-01T13:22:00Z</time>
      </trkpt>
      <trkpt lat="46.66853" lon="6.03265">
        <ele>971.55</ele>
        <time>2012-06-01T13:22:01Z</time>
      </trkpt>
      <trkpt lat="46.6685" lon="6.03262">
        <ele>972.03</ele>
        <time>2012-06-01T13:22:02Z</time>
      </trkpt>
      <trkpt lat="46.66847" lon="6.0326">
        <ele>971.07</ele>
        <time>2012-06-01T13:22:03Z</time>
      </trkpt>
      <trkpt lat="46.66842" lon="6.03258">
        <ele>971.55</ele>
        <time>2012-06-01T13:22:04Z</time>
      </trkpt>
      <trkpt lat="46.66837" lon="6.03256">
        <ele>970.59</ele>
        <time>2012-06-01T13:22:05Z</time>
      </trkpt>
      <trkpt lat="46.66832" lon="6.03254">
        <ele>971.07</ele>
        <time>2012-06-01T13:22:06Z</time>
      </trkpt>
      <trkpt lat="46.66829" lon="6.03253">
        <ele>972.03</ele>
        <time>2012-06-01T13:22:07Z</time>
      </trkpt>
      <trkpt lat="46.6682" lon="6.03253">
        <ele>971.55</ele>
        <time>2012-06-01T13:22:11Z</time>
      </trkpt>
      <trkpt lat="46.66817" lon="6.03254">
        <ele>971.55</ele>
        <time>2012-06-01T13:22:12Z</time>
      </trkpt>
      <trkpt lat="46.66802" lon="6.0326">
        <ele>971.55</ele>
        <time>2012-06-01T13:22:19Z</time>
      </trkpt>
      <trkpt lat="46.668" lon="6.03262">
        <ele>972.51</ele>
        <time>2012-06-01T13:22:20Z</time>
      </trkpt>
      <trkpt lat="46.66798" lon="6.03265">
        <ele>973.47</ele>
        <time>2012-06-01T13:22:21Z</time>
      </trkpt>
      <trkpt lat="46.66795" lon="6.03267">
        <ele>972.51</ele>
        <time>2012-06-01T13:22:22Z</time>
      </trkpt>
      <trkpt lat="46.66793" lon="6.03269">
        <ele>973.47</ele>
        <time>2012-06-01T13:22:24Z</time>
      </trkpt>
      <trkpt lat="46.66791" lon="6.0327">
        <ele>972.51</ele>
        <time>2012-06-01T13:22:25Z</time>
      </trkpt>
      <trkpt lat="46.66788" lon="6.03272">
        <ele>972.03</ele>
        <time>2012-06-01T13:22:26Z</time>
      </trkpt>
      <trkpt lat="46.66782" lon="6.03277">
        <ele>971.55</ele>
        <time>2012-06-01T13:22:29Z</time>
      </trkpt>
      <trkpt lat="46.6678" lon="6.0328">
        <ele>971.07</ele>
        <time>2012-06-01T13:22:30Z</time>
      </trkpt>
      <trkpt lat="46.66778" lon="6.03283">
        <ele>970.59</ele>
        <time>2012-06-01T13:22:31Z</time>
      </trkpt>
      <trkpt lat="46.66776" lon="6.03284">
        <ele>970.59</ele>
        <time>2012-06-01T13:22:32Z</time>
      </trkpt>
      <trkpt lat="46.66775" lon="6.03286">
        <ele>971.07</ele>
        <time>2012-06-01T13:22:33Z</time>
      </trkpt>
      <trkpt lat="46.66767" lon="6.03293">
        <ele>969.15</ele>
        <time>2012-06-01T13:22:39Z</time>
      </trkpt>
      <trkpt lat="46.66764" lon="6.03298">
        <ele>969.63</ele>
        <time>2012-06-01T13:22:44Z</time>
      </trkpt>
      <trkpt lat="46.66762" lon="6.03299">
        <ele>970.11</ele>
        <time>2012-06-01T13:22:46Z</time>
      </trkpt>
      <trkpt lat="46.66761" lon="6.03296">
        <ele>969.15</ele>
        <time>2012-06-01T13:22:47Z</time>
      </trkpt>
      <trkpt lat="46.66759" lon="6.03294">
        <ele>969.15</ele>
        <time>2012-06-01T13:22:48Z</time>
      </trkpt>
      <trkpt lat="46.66758" lon="6.03292">
        <ele>968.67</ele>
        <time>2012-06-01T13:22:49Z</time>
      </trkpt>
      <trkpt lat="46.66757" lon="6.03289">
        <ele>968.67</ele>
        <time>2012-06-01T13:22:50Z</time>
      </trkpt>
      <trkpt lat="46.66756" lon="6.03287">
        <ele>969.15</ele>
        <time>2012-06-01T13:22:51Z</time>
      </trkpt>
      <trkpt lat="46.66755" lon="6.03284">
        <ele>969.15</ele>
        <time>2012-06-01T13:22:52Z</time>
      </trkpt>
      <trkpt lat="46.66752" lon="6.03266">
        <ele>972.99</ele>
        <time>2012-06-01T13:23:01Z</time>
      </trkpt>
      <trkpt lat="46.66752" lon="6.03264">
        <ele>972.99</ele>
        <time>2012-06-01T13:23:02Z</time>
      </trkpt>
      <trkpt lat="46.66751" lon="6.0326">
        <ele>973.95</ele>
        <time>2012-06-01T13:23:05Z</time>
      </trkpt>
      <trkpt lat="46.66748" lon="6.03244">
        <ele>971.07</ele>
        <time>2012-06-01T13:23:11Z</time>
      </trkpt>
      <trkpt lat="46.66745" lon="6.03239">
        <ele>972.03</ele>
        <time>2012-06-01T13:23:15Z</time>
      </trkpt>
      <trkpt lat="46.66725" lon="6.03219">
        <ele>970.59</ele>
        <time>2012-06-01T13:23:26Z</time>
      </trkpt>
      <trkpt lat="46.66709" lon="6.03208">
        <ele>968.67</ele>
        <time>2012-06-01T13:23:32Z</time>
      </trkpt>
      <trkpt lat="46.66692" lon="6.03174">
        <ele>965.78</ele>
        <time>2012-06-01T13:23:42Z</time>
      </trkpt>
      <trkpt lat="46.66686" lon="6.03165">
        <ele>964.82</ele>
        <time>2012-06-01T13:23:53Z</time>
      </trkpt>
      <trkpt lat="46.66682" lon="6.03164">
        <ele>965.3</ele>
        <time>2012-06-01T13:24:07Z</time>
      </trkpt>
      <trkpt lat="46.6668" lon="6.03164">
        <ele>964.82</ele>
        <time>2012-06-01T13:24:10Z</time>
      </trkpt>
      <trkpt lat="46.66657" lon="6.03145">
        <ele>961.46</ele>
        <time>2012-06-01T13:24:20Z</time>
      </trkpt>
      <trkpt lat="46.66624" lon="6.03131">
        <ele>957.61</ele>
        <time>2012-06-01T13:24:33Z</time>
      </trkpt>
      <trkpt lat="46.66621" lon="6.03132">
        <ele>956.65</ele>
        <time>2012-06-01T13:24:34Z</time>
      </trkpt>
      <trkpt lat="46.66583" lon="6.03148">
        <ele>953.77</ele>
        <time>2012-06-01T13:24:46Z</time>
      </trkpt>
      <trkpt lat="46.66573" lon="6.0315">
        <ele>951.36</ele>
        <time>2012-06-01T13:24:49Z</time>
      </trkpt>
      <trkpt lat="46.66569" lon="6.0315">
        <ele>950.88</ele>
        <time>2012-06-01T13:24:50Z</time>
      </trkpt>
      <trkpt lat="46.66565" lon="6.03151">
        <ele>950.88</ele>
        <time>2012-06-01T13:24:51Z</time>
      </trkpt>
      <trkpt lat="46.66549" lon="6.03152">
        <ele>947.52</ele>
        <time>2012-06-01T13:24:55Z</time>
      </trkpt>
      <trkpt lat="46.66546" lon="6.03151">
        <ele>946.56</ele>
        <time>2012-06-01T13:24:56Z</time>
      </trkpt>
      <trkpt lat="46.66543" lon="6.03149">
        <ele>945.11</ele>
        <time>2012-06-01T13:24:57Z</time>
      </trkpt>
      <trkpt lat="46.66541" lon="6.03145">
        <ele>946.07</ele>
        <time>2012-06-01T13:24:58Z</time>
      </trkpt>
      <trkpt lat="46.66539" lon="6.03141">
        <ele>946.07</ele>
        <time>2012-06-01T13:24:59Z</time>
      </trkpt>
      <trkpt lat="46.66537" lon="6.03135">
        <ele>944.15</ele>
        <time>2012-06-01T13:25:01Z</time>
      </trkpt>
      <trkpt lat="46.66534" lon="6.03133">
        <ele>943.19</ele>
        <time>2012-06-01T13:25:06Z</time>
      </trkpt>
      <trkpt lat="46.66534" lon="6.03133">
        <ele>943.19</ele>
        <time>2012-06-01T13:25:07Z</time>
      </trkpt>
      <trkpt lat="46.6653" lon="6.03126">
        <ele>944.15</ele>
        <time>2012-06-01T13:25:20Z</time>
      </trkpt>
      <trkpt lat="46.6653" lon="6.03126">
        <ele>944.63</ele>
        <time>2012-06-01T13:25:29Z</time>
      </trkpt>
      <trkpt lat="46.66526" lon="6.03119">
        <ele>943.67</ele>
        <time>2012-06-01T13:25:41Z</time>
      </trkpt>
      <trkpt lat="46.66505" lon="6.03099">
        <ele>940.79</ele>
        <time>2012-06-01T13:25:50Z</time>
      </trkpt>
      <trkpt lat="46.66502" lon="6.0309">
        <ele>939.35</ele>
        <time>2012-06-01T13:25:53Z</time>
      </trkpt>
      <trkpt lat="46.66496" lon="6.03088">
        <ele>938.86</ele>
        <time>2012-06-01T13:25:56Z</time>
      </trkpt>
      <trkpt lat="46.66483" lon="6.0309">
        <ele>936.94</ele>
        <time>2012-06-01T13:26:01Z</time>
      </trkpt>
      <trkpt lat="46.66465" lon="6.03091">
        <ele>935.5</ele>
        <time>2012-06-01T13:26:06Z</time>
      </trkpt>
      <trkpt lat="46.6646" lon="6.03092">
        <ele>934.06</ele>
        <time>2012-06-01T13:26:07Z</time>
      </trkpt>
      <trkpt lat="46.66455" lon="6.03093">
        <ele>934.06</ele>
        <time>2012-06-01T13:26:08Z</time>
      </trkpt>
      <trkpt lat="46.66449" lon="6.03095">
        <ele>933.1</ele>
        <time>2012-06-01T13:26:09Z</time>
      </trkpt>
      <trkpt lat="46.66444" lon="6.03095">
        <ele>933.58</ele>
        <time>2012-06-01T13:26:10Z</time>
      </trkpt>
      <trkpt lat="46.66439" lon="6.03096">
        <ele>932.14</ele>
        <time>2012-06-01T13:26:11Z</time>
      </trkpt>
      <trkpt lat="46.66434" lon="6.03098">
        <ele>931.65</ele>
        <time>2012-06-01T13:26:12Z</time>
      </trkpt>
      <trkpt lat="46.66431" lon="6.031">
        <ele>931.65</ele>
        <time>2012-06-01T13:26:13Z</time>
      </trkpt>
      <trkpt lat="46.66428" lon="6.03101">
        <ele>931.17</ele>
        <time>2012-06-01T13:26:14Z</time>
      </trkpt>
      <trkpt lat="46.66426" lon="6.03102">
        <ele>931.65</ele>
        <time>2012-06-01T13:26:15Z</time>
      </trkpt>
      <trkpt lat="46.66423" lon="6.03102">
        <ele>930.69</ele>
        <time>2012-06-01T13:26:16Z</time>
      </trkpt>
      <trkpt lat="46.66419" lon="6.03103">
        <ele>931.17</ele>
        <time>2012-06-01T13:26:17Z</time>
      </trkpt>
      <trkpt lat="46.66415" lon="6.03103">
        <ele>930.21</ele>
        <time>2012-06-01T13:26:18Z</time>
      </trkpt>
      <trkpt lat="46.66411" lon="6.03103">
        <ele>930.21</ele>
        <time>2012-06-01T13:26:19Z</time>
      </trkpt>
      <trkpt lat="46.66406" lon="6.03104">
        <ele>930.21</ele>
        <time>2012-06-01T13:26:20Z</time>
      </trkpt>
      <trkpt lat="46.66403" lon="6.03103">
        <ele>929.73</ele>
        <time>2012-06-01T13:26:21Z</time>
      </trkpt>
      <trkpt lat="46.66385" lon="6.03106">
        <ele>928.29</ele>
        <time>2012-06-01T13:26:30Z</time>
      </trkpt>
      <trkpt lat="46.66382" lon="6.03106">
        <ele>928.29</ele>
        <time>2012-06-01T13:26:34Z</time>
      </trkpt>
      <trkpt lat="46.66366" lon="6.031">
        <ele>923.96</ele>
        <time>2012-06-01T13:26:39Z</time>
      </trkpt>
      <trkpt lat="46.66363" lon="6.031">
        <ele>924.45</ele>
        <time>2012-06-01T13:26:40Z</time>
      </trkpt>
      <trkpt lat="46.66349" lon="6.03095">
        <ele>921.56</ele>
        <time>2012-06-01T13:26:45Z</time>
      </trkpt>
      <trkpt lat="46.6631" lon="6.03099">
        <ele>919.64</ele>
        <time>2012-06-01T13:26:54Z</time>
      </trkpt>
      <trkpt lat="46.66284" lon="6.03112">
        <ele>920.12</ele>
        <time>2012-06-01T13:27:05Z</time>
      </trkpt>
      <trkpt lat="46.66283" lon="6.03115">
        <ele>919.64</ele>
        <time>2012-06-01T13:27:21Z</time>
      </trkpt>
      <trkpt lat="46.66282" lon="6.03114">
        <ele>921.56</ele>
        <time>2012-06-01T13:28:08Z</time>
      </trkpt>
      <trkpt lat="46.66282" lon="6.03114">
        <ele>916.75</ele>
        <time>2012-06-01T13:28:48Z</time>
      </trkpt>
      <trkpt lat="46.66282" lon="6.03114">
        <ele>920.6</ele>
        <time>2012-06-01T13:28:49Z</time>
      </trkpt>
      <trkpt lat="46.66284" lon="6.03114">
        <ele>922.04</ele>
        <time>2012-06-01T13:30:52Z</time>
      </trkpt>
      <trkpt lat="46.6631" lon="6.03102">
        <ele>920.12</ele>
        <time>2012-06-01T13:31:05Z</time>
      </trkpt>
      <trkpt lat="46.66348" lon="6.03074">
        <ele>921.08</ele>
        <time>2012-06-01T13:31:18Z</time>
      </trkpt>
      <trkpt lat="46.66352" lon="6.0307">
        <ele>920.12</ele>
        <time>2012-06-01T13:31:19Z</time>
      </trkpt>
      <trkpt lat="46.66355" lon="6.03065">
        <ele>919.64</ele>
        <time>2012-06-01T13:31:20Z</time>
      </trkpt>
      <trkpt lat="46.66358" lon="6.03059">
        <ele>919.16</ele>
        <time>2012-06-01T13:31:21Z</time>
      </trkpt>
      <trkpt lat="46.66359" lon="6.03051">
        <ele>918.68</ele>
        <time>2012-06-01T13:31:22Z</time>
      </trkpt>
      <trkpt lat="46.66359" lon="6.03044">
        <ele>919.64</ele>
        <time>2012-06-01T13:31:23Z</time>
      </trkpt>
      <trkpt lat="46.66356" lon="6.03039">
        <ele>918.2</ele>
        <time>2012-06-01T13:31:24Z</time>
      </trkpt>
      <trkpt lat="46.66353" lon="6.03034">
        <ele>918.2</ele>
        <time>2012-06-01T13:31:25Z</time>
      </trkpt>
      <trkpt lat="46.6635" lon="6.03031">
        <ele>919.16</ele>
        <time>2012-06-01T13:31:26Z</time>
      </trkpt>
      <trkpt lat="46.66346" lon="6.03027">
        <ele>919.64</ele>
        <time>2012-06-01T13:31:27Z</time>
      </trkpt>
      <trkpt lat="46.66343" lon="6.03024">
        <ele>919.64</ele>
        <time>2012-06-01T13:31:28Z</time>
      </trkpt>
      <trkpt lat="46.6634" lon="6.03023">
        <ele>920.12</ele>
        <time>2012-06-01T13:31:29Z</time>
      </trkpt>
      <trkpt lat="46.66338" lon="6.03022">
        <ele>921.08</ele>
        <time>2012-06-01T13:31:30Z</time>
      </trkpt>
      <trkpt lat="46.66333" lon="6.03016">
        <ele>918.2</ele>
        <time>2012-06-01T13:31:35Z</time>
      </trkpt>
      <trkpt lat="46.66332" lon="6.03015">
        <ele>919.16</ele>
        <time>2012-06-01T13:31:36Z</time>
      </trkpt>
      <trkpt lat="46.6633" lon="6.03015">
        <ele>920.6</ele>
        <time>2012-06-01T13:31:37Z</time>
      </trkpt>
      <trkpt lat="46.66328" lon="6.03014">
        <ele>920.12</ele>
        <time>2012-06-01T13:31:38Z</time>
      </trkpt>
      <trkpt lat="46.66315" lon="6.03003">
        <ele>918.2</ele>
        <time>2012-06-01T13:31:43Z</time>
      </trkpt>
      <trkpt lat="46.66308" lon="6.02998">
        <ele>918.68</ele>
        <time>2012-06-01T13:31:45Z</time>
      </trkpt>
      <trkpt lat="46.66304" lon="6.02995">
        <ele>918.68</ele>
        <time>2012-06-01T13:31:46Z</time>
      </trkpt>
      <trkpt lat="46.663" lon="6.02992">
        <ele>919.16</ele>
        <time>2012-06-01T13:31:47Z</time>
      </trkpt>
      <trkpt lat="46.6629" lon="6.02985">
        <ele>917.24</ele>
        <time>2012-06-01T13:31:49Z</time>
      </trkpt>
      <trkpt lat="46.66285" lon="6.02981">
        <ele>916.75</ele>
        <time>2012-06-01T13:31:50Z</time>
      </trkpt>
      <trkpt lat="46.6628" lon="6.02976">
        <ele>916.75</ele>
        <time>2012-06-01T13:31:51Z</time>
      </trkpt>
      <trkpt lat="46.66256" lon="6.02953">
        <ele>915.79</ele>
        <time>2012-06-01T13:31:55Z</time>
      </trkpt>
      <trkpt lat="46.66226" lon="6.0293">
        <ele>914.83</ele>
        <time>2012-06-01T13:32:00Z</time>
      </trkpt>
      <trkpt lat="46.66221" lon="6.02923">
        <ele>915.31</ele>
        <time>2012-06-01T13:32:01Z</time>
      </trkpt>
      <trkpt lat="46.66217" lon="6.02915">
        <ele>913.87</ele>
        <time>2012-06-01T13:32:02Z</time>
      </trkpt>
      <trkpt lat="46.66215" lon="6.02905">
        <ele>914.83</ele>
        <time>2012-06-01T13:32:03Z</time>
      </trkpt>
      <trkpt lat="46.66212" lon="6.02894">
        <ele>914.35</ele>
        <time>2012-06-01T13:32:04Z</time>
      </trkpt>
      <trkpt lat="46.66209" lon="6.02884">
        <ele>912.43</ele>
        <time>2012-06-01T13:32:05Z</time>
      </trkpt>
      <trkpt lat="46.66205" lon="6.02876">
        <ele>911.47</ele>
        <time>2012-06-01T13:32:06Z</time>
      </trkpt>
      <trkpt lat="46.66199" lon="6.02871">
        <ele>910.99</ele>
        <time>2012-06-01T13:32:07Z</time>
      </trkpt>
      <trkpt lat="46.66192" lon="6.02867">
        <ele>910.03</ele>
        <time>2012-06-01T13:32:08Z</time>
      </trkpt>
      <trkpt lat="46.66185" lon="6.02866">
        <ele>910.03</ele>
        <time>2012-06-01T13:32:09Z</time>
      </trkpt>
      <trkpt lat="46.66177" lon="6.02868">
        <ele>908.58</ele>
        <time>2012-06-01T13:32:10Z</time>
      </trkpt>
      <trkpt lat="46.66169" lon="6.02873">
        <ele>907.62</ele>
        <time>2012-06-01T13:32:11Z</time>
      </trkpt>
      <trkpt lat="46.66161" lon="6.02878">
        <ele>905.7</ele>
        <time>2012-06-01T13:32:12Z</time>
      </trkpt>
      <trkpt lat="46.66153" lon="6.02881">
        <ele>906.18</ele>
        <time>2012-06-01T13:32:13Z</time>
      </trkpt>
      <trkpt lat="46.66145" lon="6.02881">
        <ele>904.74</ele>
        <time>2012-06-01T13:32:14Z</time>
      </trkpt>
      <trkpt lat="46.66137" lon="6.02879">
        <ele>904.26</ele>
        <time>2012-06-01T13:32:15Z</time>
      </trkpt>
      <trkpt lat="46.66129" lon="6.02874">
        <ele>903.3</ele>
        <time>2012-06-01T13:32:16Z</time>
      </trkpt>
      <trkpt lat="46.66121" lon="6.02868">
        <ele>902.33</ele>
        <time>2012-06-01T13:32:17Z</time>
      </trkpt>
      <trkpt lat="46.66113" lon="6.02861">
        <ele>902.33</ele>
        <time>2012-06-01T13:32:18Z</time>
      </trkpt>
      <trkpt lat="46.66105" lon="6.02852">
        <ele>901.37</ele>
        <time>2012-06-01T13:32:19Z</time>
      </trkpt>
      <trkpt lat="46.66089" lon="6.02835">
        <ele>899.45</ele>
        <time>2012-06-01T13:32:21Z</time>
      </trkpt>
      <trkpt lat="46.6608" lon="6.02828">
        <ele>899.93</ele>
        <time>2012-06-01T13:32:22Z</time>
      </trkpt>
      <trkpt lat="46.66071" lon="6.02822">
        <ele>898.01</ele>
        <time>2012-06-01T13:32:23Z</time>
      </trkpt>
      <trkpt lat="46.66061" lon="6.02817">
        <ele>898.97</ele>
        <time>2012-06-01T13:32:24Z</time>
      </trkpt>
      <trkpt lat="46.66051" lon="6.02813">
        <ele>898.01</ele>
        <time>2012-06-01T13:32:25Z</time>
      </trkpt>
      <trkpt lat="46.6603" lon="6.02802">
        <ele>894.64</ele>
        <time>2012-06-01T13:32:27Z</time>
      </trkpt>
      <trkpt lat="46.6599" lon="6.02776">
        <ele>890.32</ele>
        <time>2012-06-01T13:32:31Z</time>
      </trkpt>
      <trkpt lat="46.65959" lon="6.02753">
        <ele>887.91</ele>
        <time>2012-06-01T13:32:35Z</time>
      </trkpt>
      <trkpt lat="46.65951" lon="6.02749">
        <ele>885.03</ele>
        <time>2012-06-01T13:32:36Z</time>
      </trkpt>
      <trkpt lat="46.65943" lon="6.02745">
        <ele>885.51</ele>
        <time>2012-06-01T13:32:37Z</time>
      </trkpt>
      <trkpt lat="46.65926" lon="6.02739">
        <ele>882.63</ele>
        <time>2012-06-01T13:32:39Z</time>
      </trkpt>
      <trkpt lat="46.65909" lon="6.02728">
        <ele>880.71</ele>
        <time>2012-06-01T13:32:41Z</time>
      </trkpt>
      <trkpt lat="46.65875" lon="6.02697">
        <ele>877.34</ele>
        <time>2012-06-01T13:32:45Z</time>
      </trkpt>
      <trkpt lat="46.65849" lon="6.02672">
        <ele>874.46</ele>
        <time>2012-06-01T13:32:48Z</time>
      </trkpt>
      <trkpt lat="46.65821" lon="6.02651">
        <ele>872.05</ele>
        <time>2012-06-01T13:32:51Z</time>
      </trkpt>
      <trkpt lat="46.65789" lon="6.02629">
        <ele>868.69</ele>
        <time>2012-06-01T13:32:54Z</time>
      </trkpt>
      <trkpt lat="46.65779" lon="6.02618">
        <ele>867.25</ele>
        <time>2012-06-01T13:32:55Z</time>
      </trkpt>
      <trkpt lat="46.6577" lon="6.02608">
        <ele>867.25</ele>
        <time>2012-06-01T13:32:56Z</time>
      </trkpt>
      <trkpt lat="46.65762" lon="6.02598">
        <ele>863.88</ele>
        <time>2012-06-01T13:32:57Z</time>
      </trkpt>
      <trkpt lat="46.65755" lon="6.02588">
        <ele>864.36</ele>
        <time>2012-06-01T13:32:58Z</time>
      </trkpt>
      <trkpt lat="46.65749" lon="6.02577">
        <ele>863.88</ele>
        <time>2012-06-01T13:32:59Z</time>
      </trkpt>
      <trkpt lat="46.65738" lon="6.02552">
        <ele>861.96</ele>
        <time>2012-06-01T13:33:01Z</time>
      </trkpt>
      <trkpt lat="46.65731" lon="6.0254">
        <ele>861.48</ele>
        <time>2012-06-01T13:33:02Z</time>
      </trkpt>
      <trkpt lat="46.65723" lon="6.02531">
        <ele>861.48</ele>
        <time>2012-06-01T13:33:03Z</time>
      </trkpt>
      <trkpt lat="46.65698" lon="6.02508">
        <ele>859.56</ele>
        <time>2012-06-01T13:33:06Z</time>
      </trkpt>
      <trkpt lat="46.65691" lon="6.025">
        <ele>859.08</ele>
        <time>2012-06-01T13:33:07Z</time>
      </trkpt>
      <trkpt lat="46.65686" lon="6.02492">
        <ele>859.56</ele>
        <time>2012-06-01T13:33:08Z</time>
      </trkpt>
      <trkpt lat="46.65681" lon="6.02482">
        <ele>858.11</ele>
        <time>2012-06-01T13:33:09Z</time>
      </trkpt>
      <trkpt lat="46.65679" lon="6.02473">
        <ele>859.08</ele>
        <time>2012-06-01T13:33:10Z</time>
      </trkpt>
      <trkpt lat="46.6568" lon="6.02464">
        <ele>858.11</ele>
        <time>2012-06-01T13:33:11Z</time>
      </trkpt>
      <trkpt lat="46.65683" lon="6.02456">
        <ele>859.56</ele>
        <time>2012-06-01T13:33:12Z</time>
      </trkpt>
      <trkpt lat="46.65687" lon="6.02449">
        <ele>858.59</ele>
        <time>2012-06-01T13:33:13Z</time>
      </trkpt>
      <trkpt lat="46.65691" lon="6.02442">
        <ele>858.59</ele>
        <time>2012-06-01T13:33:14Z</time>
      </trkpt>
      <trkpt lat="46.657" lon="6.02428">
        <ele>858.11</ele>
        <time>2012-06-01T13:33:16Z</time>
      </trkpt>
      <trkpt lat="46.65704" lon="6.02419">
        <ele>858.11</ele>
        <time>2012-06-01T13:33:17Z</time>
      </trkpt>
      <trkpt lat="46.65707" lon="6.02409">
        <ele>857.63</ele>
        <time>2012-06-01T13:33:18Z</time>
      </trkpt>
      <trkpt lat="46.6571" lon="6.02397">
        <ele>856.19</ele>
        <time>2012-06-01T13:33:19Z</time>
      </trkpt>
      <trkpt lat="46.65713" lon="6.02385">
        <ele>855.23</ele>
        <time>2012-06-01T13:33:20Z</time>
      </trkpt>
      <trkpt lat="46.65716" lon="6.02372">
        <ele>851.87</ele>
        <time>2012-06-01T13:33:21Z</time>
      </trkpt>
      <trkpt lat="46.6572" lon="6.02359">
        <ele>853.31</ele>
        <time>2012-06-01T13:33:22Z</time>
      </trkpt>
      <trkpt lat="46.6573" lon="6.0232">
        <ele>848.98</ele>
        <time>2012-06-01T13:33:25Z</time>
      </trkpt>
      <trkpt lat="46.65732" lon="6.02306">
        <ele>847.54</ele>
        <time>2012-06-01T13:33:26Z</time>
      </trkpt>
      <trkpt lat="46.65731" lon="6.02292">
        <ele>847.54</ele>
        <time>2012-06-01T13:33:27Z</time>
      </trkpt>
      <trkpt lat="46.65728" lon="6.02277">
        <ele>847.06</ele>
        <time>2012-06-01T13:33:28Z</time>
      </trkpt>
      <trkpt lat="46.65723" lon="6.02263">
        <ele>843.69</ele>
        <time>2012-06-01T13:33:29Z</time>
      </trkpt>
      <trkpt lat="46.65718" lon="6.0225">
        <ele>844.18</ele>
        <time>2012-06-01T13:33:30Z</time>
      </trkpt>
      <trkpt lat="46.65668" lon="6.02139">
        <ele>838.89</ele>
        <time>2012-06-01T13:33:39Z</time>
      </trkpt>
      <trkpt lat="46.65662" lon="6.02125">
        <ele>838.89</ele>
        <time>2012-06-01T13:33:40Z</time>
      </trkpt>
      <trkpt lat="46.65656" lon="6.02113">
        <ele>838.41</ele>
        <time>2012-06-01T13:33:41Z</time>
      </trkpt>
      <trkpt lat="46.65647" lon="6.02103">
        <ele>839.37</ele>
        <time>2012-06-01T13:33:42Z</time>
      </trkpt>
      <trkpt lat="46.65638" lon="6.02096">
        <ele>838.89</ele>
        <time>2012-06-01T13:33:43Z</time>
      </trkpt>
      <trkpt lat="46.65629" lon="6.02091">
        <ele>838.89</ele>
        <time>2012-06-01T13:33:44Z</time>
      </trkpt>
      <trkpt lat="46.65619" lon="6.02089">
        <ele>838.89</ele>
        <time>2012-06-01T13:33:45Z</time>
      </trkpt>
      <trkpt lat="46.65611" lon="6.02088">
        <ele>837.45</ele>
        <time>2012-06-01T13:33:46Z</time>
      </trkpt>
      <trkpt lat="46.65593" lon="6.02085">
        <ele>836</ele>
        <time>2012-06-01T13:33:48Z</time>
      </trkpt>
      <trkpt lat="46.65584" lon="6.02081">
        <ele>836.96</ele>
        <time>2012-06-01T13:33:49Z</time>
      </trkpt>
      <trkpt lat="46.65575" lon="6.02077">
        <ele>836.48</ele>
        <time>2012-06-01T13:33:50Z</time>
      </trkpt>
      <trkpt lat="46.65538" lon="6.02051">
        <ele>833.12</ele>
        <time>2012-06-01T13:33:54Z</time>
      </trkpt>
      <trkpt lat="46.65529" lon="6.02043">
        <ele>833.12</ele>
        <time>2012-06-01T13:33:55Z</time>
      </trkpt>
      <trkpt lat="46.65509" lon="6.02025">
        <ele>829.76</ele>
        <time>2012-06-01T13:33:57Z</time>
      </trkpt>
      <trkpt lat="46.65468" lon="6.01984">
        <ele>825.91</ele>
        <time>2012-06-01T13:34:01Z</time>
      </trkpt>
      <trkpt lat="46.6545" lon="6.01961">
        <ele>823.99</ele>
        <time>2012-06-01T13:34:03Z</time>
      </trkpt>
      <trkpt lat="46.6544" lon="6.01953">
        <ele>821.58</ele>
        <time>2012-06-01T13:34:04Z</time>
      </trkpt>
      <trkpt lat="46.6543" lon="6.01947">
        <ele>822.06</ele>
        <time>2012-06-01T13:34:05Z</time>
      </trkpt>
      <trkpt lat="46.6542" lon="6.01941">
        <ele>820.14</ele>
        <time>2012-06-01T13:34:06Z</time>
      </trkpt>
      <trkpt lat="46.65391" lon="6.01925">
        <ele>818.22</ele>
        <time>2012-06-01T13:34:09Z</time>
      </trkpt>
      <trkpt lat="46.65382" lon="6.01918">
        <ele>817.74</ele>
        <time>2012-06-01T13:34:10Z</time>
      </trkpt>
      <trkpt lat="46.65374" lon="6.01908">
        <ele>817.74</ele>
        <time>2012-06-01T13:34:11Z</time>
      </trkpt>
      <trkpt lat="46.65358" lon="6.01884">
        <ele>813.41</ele>
        <time>2012-06-01T13:34:13Z</time>
      </trkpt>
      <trkpt lat="46.6534" lon="6.01856">
        <ele>809.09</ele>
        <time>2012-06-01T13:34:15Z</time>
      </trkpt>
      <trkpt lat="46.65306" lon="6.01817">
        <ele>803.32</ele>
        <time>2012-06-01T13:34:18Z</time>
      </trkpt>
      <trkpt lat="46.65285" lon="6.01796">
        <ele>799.95</ele>
        <time>2012-06-01T13:34:20Z</time>
      </trkpt>
      <trkpt lat="46.65276" lon="6.01786">
        <ele>799.47</ele>
        <time>2012-06-01T13:34:21Z</time>
      </trkpt>
      <trkpt lat="46.65269" lon="6.01775">
        <ele>797.07</ele>
        <time>2012-06-01T13:34:22Z</time>
      </trkpt>
      <trkpt lat="46.65263" lon="6.01761">
        <ele>797.07</ele>
        <time>2012-06-01T13:34:23Z</time>
      </trkpt>
      <trkpt lat="46.65257" lon="6.01747">
        <ele>795.63</ele>
        <time>2012-06-01T13:34:24Z</time>
      </trkpt>
      <trkpt lat="46.65252" lon="6.01733">
        <ele>794.67</ele>
        <time>2012-06-01T13:34:25Z</time>
      </trkpt>
      <trkpt lat="46.65247" lon="6.01719">
        <ele>794.67</ele>
        <time>2012-06-01T13:34:26Z</time>
      </trkpt>
      <trkpt lat="46.65245" lon="6.01704">
        <ele>792.26</ele>
        <time>2012-06-01T13:34:27Z</time>
      </trkpt>
      <trkpt lat="46.65243" lon="6.01687">
        <ele>792.26</ele>
        <time>2012-06-01T13:34:28Z</time>
      </trkpt>
      <trkpt lat="46.65239" lon="6.01655">
        <ele>788.9</ele>
        <time>2012-06-01T13:34:30Z</time>
      </trkpt>
      <trkpt lat="46.65237" lon="6.01639">
        <ele>788.9</ele>
        <time>2012-06-01T13:34:31Z</time>
      </trkpt>
      <trkpt lat="46.65236" lon="6.01624">
        <ele>786.02</ele>
        <time>2012-06-01T13:34:32Z</time>
      </trkpt>
      <trkpt lat="46.65237" lon="6.0161">
        <ele>786.02</ele>
        <time>2012-06-01T13:34:33Z</time>
      </trkpt>
      <trkpt lat="46.65239" lon="6.01595">
        <ele>785.53</ele>
        <time>2012-06-01T13:34:34Z</time>
      </trkpt>
      <trkpt lat="46.65243" lon="6.0158">
        <ele>782.65</ele>
        <time>2012-06-01T13:34:35Z</time>
      </trkpt>
      <trkpt lat="46.65248" lon="6.01564">
        <ele>781.69</ele>
        <time>2012-06-01T13:34:36Z</time>
      </trkpt>
      <trkpt lat="46.65255" lon="6.0155">
        <ele>781.69</ele>
        <time>2012-06-01T13:34:37Z</time>
      </trkpt>
      <trkpt lat="46.65263" lon="6.01538">
        <ele>780.25</ele>
        <time>2012-06-01T13:34:38Z</time>
      </trkpt>
      <trkpt lat="46.65272" lon="6.01525">
        <ele>778.81</ele>
        <time>2012-06-01T13:34:39Z</time>
      </trkpt>
      <trkpt lat="46.65291" lon="6.01499">
        <ele>774.48</ele>
        <time>2012-06-01T13:34:41Z</time>
      </trkpt>
      <trkpt lat="46.6532" lon="6.01456">
        <ele>770.15</ele>
        <time>2012-06-01T13:34:44Z</time>
      </trkpt>
      <trkpt lat="46.6534" lon="6.01427">
        <ele>765.83</ele>
        <time>2012-06-01T13:34:46Z</time>
      </trkpt>
      <trkpt lat="46.65359" lon="6.01402">
        <ele>762.94</ele>
        <time>2012-06-01T13:34:48Z</time>
      </trkpt>
      <trkpt lat="46.65369" lon="6.01392">
        <ele>760.54</ele>
        <time>2012-06-01T13:34:49Z</time>
      </trkpt>
      <trkpt lat="46.65378" lon="6.01384">
        <ele>760.54</ele>
        <time>2012-06-01T13:34:50Z</time>
      </trkpt>
      <trkpt lat="46.65393" lon="6.01368">
        <ele>756.69</ele>
        <time>2012-06-01T13:34:52Z</time>
      </trkpt>
      <trkpt lat="46.65409" lon="6.01341">
        <ele>753.33</ele>
        <time>2012-06-01T13:34:55Z</time>
      </trkpt>
      <trkpt lat="46.65419" lon="6.01323">
        <ele>751.41</ele>
        <time>2012-06-01T13:35:00Z</time>
      </trkpt>
      <trkpt lat="46.65417" lon="6.01324">
        <ele>751.89</ele>
        <time>2012-06-01T13:35:01Z</time>
      </trkpt>
      <trkpt lat="46.65416" lon="6.01326">
        <ele>750.93</ele>
        <time>2012-06-01T13:35:02Z</time>
      </trkpt>
      <trkpt lat="46.65415" lon="6.01328">
        <ele>752.37</ele>
        <time>2012-06-01T13:35:03Z</time>
      </trkpt>
      <trkpt lat="46.65415" lon="6.01329">
        <ele>750.93</ele>
        <time>2012-06-01T13:35:05Z</time>
      </trkpt>
      <trkpt lat="46.65414" lon="6.01332">
        <ele>752.37</ele>
        <time>2012-06-01T13:35:09Z</time>
      </trkpt>
      <trkpt lat="46.65412" lon="6.01338">
        <ele>750.45</ele>
        <time>2012-06-01T13:35:23Z</time>
      </trkpt>
      <trkpt lat="46.65412" lon="6.01338">
        <ele>749.97</ele>
        <time>2012-06-01T13:35:37Z</time>
      </trkpt>
      <trkpt lat="46.6541" lon="6.01339">
        <ele>750.45</ele>
        <time>2012-06-01T13:35:38Z</time>
      </trkpt>
      <trkpt lat="46.65409" lon="6.0134">
        <ele>751.41</ele>
        <time>2012-06-01T13:35:39Z</time>
      </trkpt>
      <trkpt lat="46.65386" lon="6.01366">
        <ele>749.97</ele>
        <time>2012-06-01T13:35:48Z</time>
      </trkpt>
      <trkpt lat="46.6536" lon="6.01388">
        <ele>749.97</ele>
        <time>2012-06-01T13:35:57Z</time>
      </trkpt>
      <trkpt lat="46.65324" lon="6.01428">
        <ele>751.89</ele>
        <time>2012-06-01T13:36:10Z</time>
      </trkpt>
      <trkpt lat="46.6529" lon="6.01461">
        <ele>751.89</ele>
        <time>2012-06-01T13:36:22Z</time>
      </trkpt>
      <trkpt lat="46.65256" lon="6.01499">
        <ele>751.89</ele>
        <time>2012-06-01T13:36:34Z</time>
      </trkpt>
      <trkpt lat="46.65232" lon="6.01538">
        <ele>752.37</ele>
        <time>2012-06-01T13:36:44Z</time>
      </trkpt>
      <trkpt lat="46.65208" lon="6.01588">
        <ele>752.85</ele>
        <time>2012-06-01T13:36:56Z</time>
      </trkpt>
      <trkpt lat="46.65186" lon="6.01636">
        <ele>754.77</ele>
        <time>2012-06-01T13:37:07Z</time>
      </trkpt>
      <trkpt lat="46.65175" lon="6.01663">
        <ele>754.29</ele>
        <time>2012-06-01T13:37:13Z</time>
      </trkpt>
      <trkpt lat="46.65172" lon="6.01723">
        <ele>754.77</ele>
        <time>2012-06-01T13:37:25Z</time>
      </trkpt>
      <trkpt lat="46.65176" lon="6.01766">
        <ele>755.73</ele>
        <time>2012-06-01T13:37:33Z</time>
      </trkpt>
      <trkpt lat="46.65189" lon="6.01828">
        <ele>756.69</ele>
        <time>2012-06-01T13:37:45Z</time>
      </trkpt>
      <trkpt lat="46.65188" lon="6.0188">
        <ele>756.21</ele>
        <time>2012-06-01T13:37:55Z</time>
      </trkpt>
      <trkpt lat="46.65176" lon="6.01922">
        <ele>758.14</ele>
        <time>2012-06-01T13:38:05Z</time>
      </trkpt>
      <trkpt lat="46.65175" lon="6.01926">
        <ele>758.14</ele>
        <time>2012-06-01T13:38:06Z</time>
      </trkpt>
      <trkpt lat="46.65173" lon="6.01929">
        <ele>757.66</ele>
        <time>2012-06-01T13:38:07Z</time>
      </trkpt>
      <trkpt lat="46.65165" lon="6.01941">
        <ele>762.46</ele>
        <time>2012-06-01T13:38:11Z</time>
      </trkpt>
      <trkpt lat="46.65163" lon="6.01944">
        <ele>758.14</ele>
        <time>2012-06-01T13:38:12Z</time>
      </trkpt>
      <trkpt lat="46.65158" lon="6.01952">
        <ele>751.89</ele>
        <time>2012-06-01T13:38:15Z</time>
      </trkpt>
      <trkpt lat="46.65157" lon="6.01954">
        <ele>757.66</ele>
        <time>2012-06-01T13:38:16Z</time>
      </trkpt>
      <trkpt lat="46.65155" lon="6.01955">
        <ele>762.94</ele>
        <time>2012-06-01T13:38:17Z</time>
      </trkpt>
      <trkpt lat="46.65153" lon="6.01957">
        <ele>760.54</ele>
        <time>2012-06-01T13:38:18Z</time>
      </trkpt>
      <trkpt lat="46.6512" lon="6.01973">
        <ele>760.06</ele>
        <time>2012-06-01T13:38:29Z</time>
      </trkpt>
      <trkpt lat="46.65091" lon="6.01983">
        <ele>761.98</ele>
        <time>2012-06-01T13:38:39Z</time>
      </trkpt>
      <trkpt lat="46.65052" lon="6.02007">
        <ele>764.39</ele>
        <time>2012-06-01T13:38:52Z</time>
      </trkpt>
      <trkpt lat="46.65025" lon="6.02031">
        <ele>764.39</ele>
        <time>2012-06-01T13:39:03Z</time>
      </trkpt>
      <trkpt lat="46.64995" lon="6.02053">
        <ele>765.83</ele>
        <time>2012-06-01T13:39:15Z</time>
      </trkpt>
      <trkpt lat="46.64988" lon="6.0206">
        <ele>768.71</ele>
        <time>2012-06-01T13:39:17Z</time>
      </trkpt>
      <trkpt lat="46.64958" lon="6.02091">
        <ele>769.19</ele>
        <time>2012-06-01T13:39:28Z</time>
      </trkpt>
      <trkpt lat="46.64942" lon="6.02119">
        <ele>769.19</ele>
        <time>2012-06-01T13:39:38Z</time>
      </trkpt>
      <trkpt lat="46.64935" lon="6.02128">
        <ele>773.04</ele>
        <time>2012-06-01T13:39:41Z</time>
      </trkpt>
      <trkpt lat="46.64933" lon="6.02131">
        <ele>769.67</ele>
        <time>2012-06-01T13:39:42Z</time>
      </trkpt>
      <trkpt lat="46.6493" lon="6.02134">
        <ele>771.11</ele>
        <time>2012-06-01T13:39:43Z</time>
      </trkpt>
      <trkpt lat="46.64927" lon="6.02139">
        <ele>770.63</ele>
        <time>2012-06-01T13:39:44Z</time>
      </trkpt>
      <trkpt lat="46.64924" lon="6.02144">
        <ele>771.11</ele>
        <time>2012-06-01T13:39:45Z</time>
      </trkpt>
      <trkpt lat="46.64922" lon="6.02148">
        <ele>770.63</ele>
        <time>2012-06-01T13:39:46Z</time>
      </trkpt>
      <trkpt lat="46.6492" lon="6.02151">
        <ele>769.67</ele>
        <time>2012-06-01T13:39:47Z</time>
      </trkpt>
      <trkpt lat="46.64918" lon="6.02154">
        <ele>769.67</ele>
        <time>2012-06-01T13:39:48Z</time>
      </trkpt>
      <trkpt lat="46.64911" lon="6.02174">
        <ele>772.56</ele>
        <time>2012-06-01T13:39:53Z</time>
      </trkpt>
      <trkpt lat="46.64903" lon="6.02204">
        <ele>773.52</ele>
        <time>2012-06-01T13:40:00Z</time>
      </trkpt>
      <trkpt lat="46.64901" lon="6.02211">
        <ele>771.6</ele>
        <time>2012-06-01T13:40:02Z</time>
      </trkpt>
      <trkpt lat="46.64888" lon="6.02244">
        <ele>774.48</ele>
        <time>2012-06-01T13:40:09Z</time>
      </trkpt>
      <trkpt lat="46.64869" lon="6.02302">
        <ele>774</ele>
        <time>2012-06-01T13:40:20Z</time>
      </trkpt>
      <trkpt lat="46.64862" lon="6.02319">
        <ele>776.88</ele>
        <time>2012-06-01T13:40:24Z</time>
      </trkpt>
      <trkpt lat="46.64849" lon="6.02342">
        <ele>775.44</ele>
        <time>2012-06-01T13:40:34Z</time>
      </trkpt>
      <trkpt lat="46.64847" lon="6.02346">
        <ele>776.88</ele>
        <time>2012-06-01T13:40:37Z</time>
      </trkpt>
      <trkpt lat="46.64847" lon="6.02347">
        <ele>775.44</ele>
        <time>2012-06-01T13:40:39Z</time>
      </trkpt>
      <trkpt lat="46.64846" lon="6.02349">
        <ele>774</ele>
        <time>2012-06-01T13:42:44Z</time>
      </trkpt>
      <trkpt lat="46.64828" lon="6.02366">
        <ele>774.96</ele>
        <time>2012-06-01T13:42:58Z</time>
      </trkpt>
      <trkpt lat="46.64817" lon="6.02375">
        <ele>775.44</ele>
        <time>2012-06-01T13:43:02Z</time>
      </trkpt>
      <trkpt lat="46.64814" lon="6.02376">
        <ele>775.92</ele>
        <time>2012-06-01T13:43:03Z</time>
      </trkpt>
      <trkpt lat="46.64812" lon="6.02377">
        <ele>775.44</ele>
        <time>2012-06-01T13:43:04Z</time>
      </trkpt>
      <trkpt lat="46.64808" lon="6.02378">
        <ele>775.44</ele>
        <time>2012-06-01T13:43:05Z</time>
      </trkpt>
      <trkpt lat="46.64805" lon="6.02379">
        <ele>775.44</ele>
        <time>2012-06-01T13:43:06Z</time>
      </trkpt>
      <trkpt lat="46.64802" lon="6.0238">
        <ele>775.92</ele>
        <time>2012-06-01T13:43:07Z</time>
      </trkpt>
      <trkpt lat="46.64799" lon="6.02382">
        <ele>775.92</ele>
        <time>2012-06-01T13:43:08Z</time>
      </trkpt>
      <trkpt lat="46.64797" lon="6.02383">
        <ele>776.4</ele>
        <time>2012-06-01T13:43:09Z</time>
      </trkpt>
      <trkpt lat="46.64794" lon="6.02383">
        <ele>775.44</ele>
        <time>2012-06-01T13:43:10Z</time>
      </trkpt>
      <trkpt lat="46.6479" lon="6.02384">
        <ele>776.88</ele>
        <time>2012-06-01T13:43:11Z</time>
      </trkpt>
      <trkpt lat="46.64757" lon="6.02387">
        <ele>776.88</ele>
        <time>2012-06-01T13:43:22Z</time>
      </trkpt>
      <trkpt lat="46.64751" lon="6.02388">
        <ele>777.84</ele>
        <time>2012-06-01T13:43:24Z</time>
      </trkpt>
      <trkpt lat="46.64721" lon="6.02392">
        <ele>779.29</ele>
        <time>2012-06-01T13:43:34Z</time>
      </trkpt>
      <trkpt lat="46.64695" lon="6.02403">
        <ele>780.73</ele>
        <time>2012-06-01T13:43:44Z</time>
      </trkpt>
      <trkpt lat="46.64667" lon="6.02409">
        <ele>781.21</ele>
        <time>2012-06-01T13:43:55Z</time>
      </trkpt>
      <trkpt lat="46.64655" lon="6.02416">
        <ele>782.65</ele>
        <time>2012-06-01T13:43:59Z</time>
      </trkpt>
      <trkpt lat="46.64641" lon="6.02421">
        <ele>781.69</ele>
        <time>2012-06-01T13:44:04Z</time>
      </trkpt>
      <trkpt lat="46.64629" lon="6.02418">
        <ele>781.69</ele>
        <time>2012-06-01T13:44:12Z</time>
      </trkpt>
      <trkpt lat="46.64619" lon="6.02429">
        <ele>784.09</ele>
        <time>2012-06-01T13:44:32Z</time>
      </trkpt>
      <trkpt lat="46.64629" lon="6.02422">
        <ele>784.09</ele>
        <time>2012-06-01T13:45:00Z</time>
      </trkpt>
      <trkpt lat="46.6463" lon="6.02421">
        <ele>783.61</ele>
        <time>2012-06-01T13:45:01Z</time>
      </trkpt>
      <trkpt lat="46.64639" lon="6.02414">
        <ele>786.02</ele>
        <time>2012-06-01T13:45:16Z</time>
      </trkpt>
      <trkpt lat="46.64639" lon="6.02414">
        <ele>785.53</ele>
        <time>2012-06-01T13:45:19Z</time>
      </trkpt>
      <trkpt lat="46.64639" lon="6.02414">
        <ele>786.98</ele>
        <time>2012-06-01T13:45:25Z</time>
      </trkpt>
      <trkpt lat="46.64639" lon="6.02414">
        <ele>785.05</ele>
        <time>2012-06-01T13:45:26Z</time>
      </trkpt>
      <trkpt lat="46.64639" lon="6.02414">
        <ele>785.05</ele>
        <time>2012-06-01T13:45:30Z</time>
      </trkpt>
      <trkpt lat="46.64639" lon="6.02414">
        <ele>786.98</ele>
        <time>2012-06-01T13:45:33Z</time>
      </trkpt>
      <trkpt lat="46.64639" lon="6.02414">
        <ele>787.46</ele>
        <time>2012-06-01T13:45:36Z</time>
      </trkpt>
      <trkpt lat="46.64639" lon="6.02414">
        <ele>786.98</ele>
        <time>2012-06-01T13:45:40Z</time>
      </trkpt>
      <trkpt lat="46.64639" lon="6.02414">
        <ele>789.86</ele>
        <time>2012-06-01T13:46:02Z</time>
      </trkpt>
      <trkpt lat="46.64639" lon="6.02414">
        <ele>787.46</ele>
        <time>2012-06-01T13:46:04Z</time>
      </trkpt>
      <trkpt lat="46.64639" lon="6.02414">
        <ele>789.86</ele>
        <time>2012-06-01T13:46:06Z</time>
      </trkpt>
      <trkpt lat="46.6448" lon="6.02599">
        <ele>789.86</ele>
        <time>2012-06-01T13:46:09Z</time>
      </trkpt>
      <trkpt lat="46.64477" lon="6.02598">
        <ele>789.38</ele>
        <time>2012-06-01T13:46:23Z</time>
      </trkpt>
      <trkpt lat="46.64477" lon="6.02601">
        <ele>789.86</ele>
        <time>2012-06-01T13:46:44Z</time>
      </trkpt>
      <trkpt lat="46.64479" lon="6.02604">
        <ele>788.9</ele>
        <time>2012-06-01T13:46:55Z</time>
      </trkpt>
      <trkpt lat="46.64471" lon="6.02616">
        <ele>788.9</ele>
        <time>2012-06-01T13:47:06Z</time>
      </trkpt>
      <trkpt lat="46.64449" lon="6.02633">
        <ele>790.34</ele>
        <time>2012-06-01T13:47:16Z</time>
      </trkpt>
      <trkpt lat="46.64425" lon="6.02642">
        <ele>790.82</ele>
        <time>2012-06-01T13:47:25Z</time>
      </trkpt>
      <trkpt lat="46.6439" lon="6.02656">
        <ele>792.26</ele>
        <time>2012-06-01T13:47:37Z</time>
      </trkpt>
      <trkpt lat="46.64352" lon="6.02668">
        <ele>794.19</ele>
        <time>2012-06-01T13:47:49Z</time>
      </trkpt>
      <trkpt lat="46.64335" lon="6.02672">
        <ele>795.63</ele>
        <time>2012-06-01T13:47:59Z</time>
      </trkpt>
      <trkpt lat="46.6433" lon="6.02674">
        <ele>794.67</ele>
        <time>2012-06-01T13:48:02Z</time>
      </trkpt>
      <trkpt lat="46.64316" lon="6.02685">
        <ele>795.63</ele>
        <time>2012-06-01T13:48:13Z</time>
      </trkpt>
      <trkpt lat="46.64314" lon="6.02687">
        <ele>796.11</ele>
        <time>2012-06-01T13:48:15Z</time>
      </trkpt>
      <trkpt lat="46.64297" lon="6.02697">
        <ele>796.11</ele>
        <time>2012-06-01T13:48:24Z</time>
      </trkpt>
      <trkpt lat="46.64267" lon="6.0271">
        <ele>797.55</ele>
        <time>2012-06-01T13:48:36Z</time>
      </trkpt>
      <trkpt lat="46.64247" lon="6.02713">
        <ele>798.99</ele>
        <time>2012-06-01T13:48:46Z</time>
      </trkpt>
      <trkpt lat="46.64242" lon="6.02713">
        <ele>798.51</ele>
        <time>2012-06-01T13:48:49Z</time>
      </trkpt>
      <trkpt lat="46.64232" lon="6.0272">
        <ele>798.03</ele>
        <time>2012-06-01T13:48:55Z</time>
      </trkpt>
      <trkpt lat="46.64229" lon="6.0272">
        <ele>798.99</ele>
        <time>2012-06-01T13:48:57Z</time>
      </trkpt>
      <trkpt lat="46.64217" lon="6.02723">
        <ele>799.47</ele>
        <time>2012-06-01T13:49:04Z</time>
      </trkpt>
      <trkpt lat="46.6421" lon="6.02723">
        <ele>799.95</ele>
        <time>2012-06-01T13:49:07Z</time>
      </trkpt>
      <trkpt lat="46.64205" lon="6.02725">
        <ele>800.92</ele>
        <time>2012-06-01T13:49:09Z</time>
      </trkpt>
      <trkpt lat="46.64168" lon="6.02739">
        <ele>799.47</ele>
        <time>2012-06-01T13:49:19Z</time>
      </trkpt>
      <trkpt lat="46.64135" lon="6.02746">
        <ele>801.88</ele>
        <time>2012-06-01T13:49:30Z</time>
      </trkpt>
      <trkpt lat="46.64103" lon="6.02761">
        <ele>802.36</ele>
        <time>2012-06-01T13:49:43Z</time>
      </trkpt>
      <trkpt lat="46.64086" lon="6.02782">
        <ele>803.8</ele>
        <time>2012-06-01T13:49:54Z</time>
      </trkpt>
      <trkpt lat="46.64067" lon="6.02819">
        <ele>804.28</ele>
        <time>2012-06-01T13:50:06Z</time>
      </trkpt>
      <trkpt lat="46.64055" lon="6.02876">
        <ele>805.72</ele>
        <time>2012-06-01T13:50:20Z</time>
      </trkpt>
      <trkpt lat="46.64047" lon="6.02922">
        <ele>805.72</ele>
        <time>2012-06-01T13:50:33Z</time>
      </trkpt>
      <trkpt lat="46.64045" lon="6.02934">
        <ele>806.2</ele>
        <time>2012-06-01T13:50:37Z</time>
      </trkpt>
      <trkpt lat="46.64044" lon="6.02937">
        <ele>798.51</ele>
        <time>2012-06-01T13:50:38Z</time>
      </trkpt>
      <trkpt lat="46.64043" lon="6.0294">
        <ele>805.24</ele>
        <time>2012-06-01T13:50:39Z</time>
      </trkpt>
      <trkpt lat="46.64026" lon="6.02974">
        <ele>805.24</ele>
        <time>2012-06-01T13:50:51Z</time>
      </trkpt>
      <trkpt lat="46.6401" lon="6.02991">
        <ele>806.2</ele>
        <time>2012-06-01T13:51:00Z</time>
      </trkpt>
      <trkpt lat="46.64009" lon="6.02994">
        <ele>806.2</ele>
        <time>2012-06-01T13:51:05Z</time>
      </trkpt>
      <trkpt lat="46.64003" lon="6.02993">
        <ele>807.64</ele>
        <time>2012-06-01T13:51:09Z</time>
      </trkpt>
      <trkpt lat="46.63979" lon="6.03001">
        <ele>808.13</ele>
        <time>2012-06-01T13:51:21Z</time>
      </trkpt>
      <trkpt lat="46.63966" lon="6.03005">
        <ele>808.13</ele>
        <time>2012-06-01T13:51:27Z</time>
      </trkpt>
      <trkpt lat="46.63929" lon="6.03013">
        <ele>807.64</ele>
        <time>2012-06-01T13:51:42Z</time>
      </trkpt>
      <trkpt lat="46.63897" lon="6.03021">
        <ele>807.64</ele>
        <time>2012-06-01T13:51:54Z</time>
      </trkpt>
      <trkpt lat="46.63861" lon="6.03031">
        <ele>806.2</ele>
        <time>2012-06-01T13:52:04Z</time>
      </trkpt>
      <trkpt lat="46.63857" lon="6.03032">
        <ele>806.68</ele>
        <time>2012-06-01T13:52:05Z</time>
      </trkpt>
      <trkpt lat="46.63853" lon="6.03032">
        <ele>807.16</ele>
        <time>2012-06-01T13:52:06Z</time>
      </trkpt>
      <trkpt lat="46.6385" lon="6.03033">
        <ele>807.64</ele>
        <time>2012-06-01T13:52:07Z</time>
      </trkpt>
      <trkpt lat="46.63846" lon="6.03033">
        <ele>805.72</ele>
        <time>2012-06-01T13:52:08Z</time>
      </trkpt>
      <trkpt lat="46.63804" lon="6.03035">
        <ele>807.16</ele>
        <time>2012-06-01T13:52:20Z</time>
      </trkpt>
      <trkpt lat="46.63773" lon="6.03022">
        <ele>807.16</ele>
        <time>2012-06-01T13:52:32Z</time>
      </trkpt>
      <trkpt lat="46.63752" lon="6.03003">
        <ele>809.09</ele>
        <time>2012-06-01T13:52:41Z</time>
      </trkpt>
      <trkpt lat="46.63748" lon="6.02989">
        <ele>810.53</ele>
        <time>2012-06-01T13:52:44Z</time>
      </trkpt>
      <trkpt lat="46.63738" lon="6.02972">
        <ele>811.49</ele>
        <time>2012-06-01T13:52:49Z</time>
      </trkpt>
      <trkpt lat="46.63731" lon="6.02965">
        <ele>812.93</ele>
        <time>2012-06-01T13:52:52Z</time>
      </trkpt>
      <trkpt lat="46.63721" lon="6.02957">
        <ele>813.89</ele>
        <time>2012-06-01T13:52:56Z</time>
      </trkpt>
      <trkpt lat="46.63701" lon="6.02913">
        <ele>814.37</ele>
        <time>2012-06-01T13:53:08Z</time>
      </trkpt>
      <trkpt lat="46.63697" lon="6.02897">
        <ele>813.41</ele>
        <time>2012-06-01T13:53:13Z</time>
      </trkpt>
      <trkpt lat="46.63691" lon="6.02859">
        <ele>812.93</ele>
        <time>2012-06-01T13:53:25Z</time>
      </trkpt>
      <trkpt lat="46.6369" lon="6.02853">
        <ele>812.45</ele>
        <time>2012-06-01T13:53:36Z</time>
      </trkpt>
      <trkpt lat="46.6369" lon="6.02853">
        <ele>814.37</ele>
        <time>2012-06-01T13:54:23Z</time>
      </trkpt>
      <trkpt lat="46.6369" lon="6.02853">
        <ele>811.49</ele>
        <time>2012-06-01T13:55:10Z</time>
      </trkpt>
      <trkpt lat="46.6369" lon="6.02853">
        <ele>814.37</ele>
        <time>2012-06-01T13:55:13Z</time>
      </trkpt>
      <trkpt lat="46.6369" lon="6.02853">
        <ele>814.37</ele>
        <time>2012-06-01T13:55:26Z</time>
      </trkpt>
      <trkpt lat="46.6369" lon="6.02853">
        <ele>811.01</ele>
        <time>2012-06-01T13:55:50Z</time>
      </trkpt>
      <trkpt lat="46.6369" lon="6.02853">
        <ele>813.89</ele>
        <time>2012-06-01T13:55:51Z</time>
      </trkpt>
      <trkpt lat="46.6369" lon="6.02853">
        <ele>811.97</ele>
        <time>2012-06-01T13:56:29Z</time>
      </trkpt>
      <trkpt lat="46.6369" lon="6.02853">
        <ele>813.89</ele>
        <time>2012-06-01T13:56:39Z</time>
      </trkpt>
      <trkpt lat="46.6369" lon="6.02853">
        <ele>812.45</ele>
        <time>2012-06-01T13:58:24Z</time>
      </trkpt>
      <trkpt lat="46.6369" lon="6.02853">
        <ele>812.93</ele>
        <time>2012-06-01T13:59:08Z</time>
      </trkpt>
      <trkpt lat="46.63689" lon="6.02854">
        <ele>811.01</ele>
        <time>2012-06-01T14:03:35Z</time>
      </trkpt>
      <trkpt lat="46.63689" lon="6.02854">
        <ele>810.53</ele>
        <time>2012-06-01T14:06:06Z</time>
      </trkpt>
      <trkpt lat="46.63689" lon="6.02854">
        <ele>811.97</ele>
        <time>2012-06-01T14:06:41Z</time>
      </trkpt>
      <trkpt lat="46.63689" lon="6.02854">
        <ele>812.45</ele>
        <time>2012-06-01T14:07:07Z</time>
      </trkpt>
      <trkpt lat="46.63689" lon="6.02855">
        <ele>811.97</ele>
        <time>2012-06-01T14:08:21Z</time>
      </trkpt>
      <trkpt lat="46.63689" lon="6.02855">
        <ele>811.01</ele>
        <time>2012-06-01T14:08:52Z</time>
      </trkpt>
      <trkpt lat="46.63689" lon="6.02854">
        <ele>810.05</ele>
        <time>2012-06-01T14:12:05Z</time>
      </trkpt>
      <trkpt lat="46.63688" lon="6.02853">
        <ele>810.53</ele>
        <time>2012-06-01T14:14:33Z</time>
      </trkpt>
      <trkpt lat="46.63689" lon="6.02853">
        <ele>809.57</ele>
        <time>2012-06-01T14:17:00Z</time>
      </trkpt>
      <trkpt lat="46.63689" lon="6.02853">
        <ele>810.53</ele>
        <time>2012-06-01T14:19:15Z</time>
      </trkpt>
      <trkpt lat="46.63689" lon="6.02853">
        <ele>810.53</ele>
        <time>2012-06-01T14:19:45Z</time>
      </trkpt>
      <trkpt lat="46.63688" lon="6.02853">
        <ele>810.05</ele>
        <time>2012-06-01T14:23:33Z</time>
      </trkpt>
      <trkpt lat="46.63689" lon="6.02853">
        <ele>806.68</ele>
        <time>2012-06-01T14:26:20Z</time>
      </trkpt>
      <trkpt lat="46.63689" lon="6.02853">
        <ele>809.09</ele>
        <time>2012-06-01T14:29:14Z</time>
      </trkpt>
      <trkpt lat="46.63689" lon="6.02853">
        <ele>807.64</ele>
        <time>2012-06-01T14:29:18Z</time>
      </trkpt>
      <trkpt lat="46.63689" lon="6.02854">
        <ele>809.09</ele>
        <time>2012-06-01T14:31:27Z</time>
      </trkpt>
      <trkpt lat="46.6369" lon="6.02854">
        <ele>808.61</ele>
        <time>2012-06-01T14:32:15Z</time>
      </trkpt>
      <trkpt lat="46.6369" lon="6.02854">
        <ele>807.16</ele>
        <time>2012-06-01T14:34:36Z</time>
      </trkpt>
      <trkpt lat="46.6369" lon="6.02854">
        <ele>807.16</ele>
        <time>2012-06-01T14:35:19Z</time>
      </trkpt>
      <trkpt lat="46.6369" lon="6.02854">
        <ele>807.16</ele>
        <time>2012-06-01T14:36:07Z</time>
      </trkpt>
      <trkpt lat="46.6369" lon="6.02854">
        <ele>808.61</ele>
        <time>2012-06-01T14:36:53Z</time>
      </trkpt>
      <trkpt lat="46.63691" lon="6.02855">
        <ele>806.68</ele>
        <time>2012-06-01T14:36:54Z</time>
      </trkpt>
      <trkpt lat="46.63691" lon="6.02857">
        <ele>806.2</ele>
        <time>2012-06-01T14:36:57Z</time>
      </trkpt>
    </trkseg>
  </trk>
</gpx>